# Wetter Temperatur Luftdruck Luftfeuchtigkeit Sichtweite Windgeschwindigkeit Windrichtung Zeit
1 Clouds 24 1010 88 10000 3.55 132 13:40 22.04.2021
2 Clouds 25 1010 85 10000 2.37 91 13:20 22.04.2021
3 Clouds 25 1010 85 10000 2.37 91 12:45 22.04.2021
4 Clouds 25 1010 85 10000 3.21 90 12:22 22.04.2021
5 Clouds 25 1010 85 10000 3.21 90 11:45 22.04.2021
6 Clouds 25 1009 86 10000 3.52 99 11:23 22.04.2021
7 Clouds 25 1009 86 10000 3.52 99 10:45 22.04.2021
8 Clouds 25 1010 86 10000 3.71 100 10:24 22.04.2021
9 Clouds 25 1010 86 10000 3.71 100 09:45 22.04.2021
10 Clouds 25 1010 86 10000 4.13 101 09:20 22.04.2021
11 Clouds 25 1010 86 10000 4.13 101 08:39 22.04.2021
12 Clouds 25 1011 87 10000 4.55 98 08:19 22.04.2021
13 Clouds 25 1011 87 10000 4.55 98 07:44 22.04.2021
14 Clouds 25 1012 87 10000 4.67 103 07:20 22.04.2021
15 Clouds 25 1012 87 10000 4.34 98 06:27 22.04.2021
16 Clouds 25 1012 87 10000 4.34 98 06:27 22.04.2021
17 Clouds 25 1012 87 10000 4.08 96 05:26 22.04.2021
18 Clouds 25 1012 87 10000 4.08 96 04:30 22.04.2021
19 Clouds 28 1007 74 10000 4.12 120 00:57 22.04.2021
20 Clouds 28 1008 74 10000 6.17 130 23:48 21.04.2021
21 Clouds 28 1008 74 10000 6.17 130 23:28 21.04.2021
22 Clouds 29 1009 70 10000 5.14 150 22:44 21.04.2021
23 Clouds 29 1009 70 10000 5.14 150 22:24 21.04.2021
24 Clouds 28 1010 74 10000 4.63 110 21:49 21.04.2021
25 Clouds 28 1010 74 10000 4.63 110 21:24 21.04.2021
26 Clouds 28 1010 78 10000 3.09 100 20:58 21.04.2021
27 Clouds 28 1010 78 10000 3.09 100 20:21 21.04.2021
28 Clouds 29 1010 74 10000 6.17 150 19:43 21.04.2021
29 Clouds 29 1010 74 10000 6.17 150 19:43 21.04.2021
30 Clouds 29 1010 74 10000 6.17 150 19:23 21.04.2021
31 Clouds 28 1010 74 10000 5.14 90 18:46 21.04.2021
32 Clouds 28 1010 74 10000 5.14 90 18:26 21.04.2021
33 Clouds 28 1010 78 10000 4.12 90 17:48 21.04.2021
34 Clouds 28 1010 78 10000 4.12 90 17:24 21.04.2021
35 Clouds 27 1010 78 10000 3.6 120 16:49 21.04.2021
36 Clouds 25 1012 89 10000 3.47 126 15:59 21.04.2021
37 Clouds 25 1012 89 10000 3.47 126 15:40 21.04.2021
38 Clouds 25 1012 89 10000 2.91 129 14:55 21.04.2021
39 Clouds 25 1012 89 10000 2.91 129 14:36 21.04.2021
40 Clouds 25 1011 89 10000 2.72 124 14:18 21.04.2021
41 Clouds 25 1011 90 10000 2.66 123 13:40 21.04.2021
42 Clouds 25 1011 90 10000 2.53 120 13:20 21.04.2021
43 Clouds 25 1011 90 10000 2.53 120 12:30 21.04.2021
44 Clouds 25 1011 90 10000 2.53 120 12:30 21.04.2021
45 Clouds 25 1010 90 10000 2.56 111 11:50 21.04.2021
46 Clouds 25 1010 90 10000 2.28 113 11:29 21.04.2021
47 Clouds 25 1010 90 10000 2.28 113 10:49 21.04.2021
48 Clouds 25 1011 90 10000 2.11 115 10:20 21.04.2021
49 Clouds 25 1011 90 10000 2.11 115 09:44 21.04.2021
50 Clouds 25 1011 90 10000 2.34 117 08:56 21.04.2021
51 Clouds 25 1011 90 10000 2.34 117 08:38 21.04.2021
52 Clouds 25 1012 90 10000 2.56 117 08:19 21.04.2021
53 Clouds 25 1012 89 10000 2.33 114 07:31 21.04.2021
54 Clouds 25 1013 89 10000 2.52 125 06:42 21.04.2021
55 Clouds 25 1013 88 10000 2.85 122 04:54 21.04.2021
56 Clouds 28 1007 74 10000 6.69 170 00:53 21.04.2021
57 Clouds 28 1007 74 10000 4.12 180 23:49 20.04.2021
58 Clouds 28 1007 74 10000 4.12 180 23:21 20.04.2021
59 Clouds 28 1008 78 10000 4.63 160 22:40 20.04.2021
60 Clouds 28 1008 78 10000 4.63 160 22:18 20.04.2021
61 Clouds 29 1009 70 10000 6.17 140 21:46 20.04.2021
62 Clouds 29 1009 70 10000 6.17 140 21:24 20.04.2021
63 Clouds 29 1010 70 10000 5.66 120 20:43 20.04.2021
64 Clouds 29 1010 70 10000 5.66 120 20:23 20.04.2021
65 Clouds 29 1010 70 10000 6.17 150 19:54 20.04.2021
66 Clouds 29 1010 70 10000 6.17 150 19:36 20.04.2021
67 Clouds 28 1010 74 10000 6.17 140 18:55 20.04.2021
68 Clouds 28 1010 74 10000 6.17 140 18:35 20.04.2021
69 Clouds 27 1010 78 10000 6.69 150 17:45 20.04.2021
70 Clouds 27 1010 78 10000 6.69 150 17:22 20.04.2021
71 Clouds 26 1010 83 10000 6.69 150 16:44 20.04.2021
72 Clouds 25 1013 90 10000 3.13 111 15:51 20.04.2021
73 Clouds 25 1012 91 10000 3.24 116 15:27 20.04.2021
74 Clouds 25 1012 91 10000 3.24 116 14:57 20.04.2021
75 Clouds 24 1011 91 10000 3.31 122 14:28 20.04.2021
76 Clouds 24 1011 91 10000 3 113 13:32 20.04.2021
77 Clouds 24 1011 91 10000 3.08 127 12:57 20.04.2021
78 Clouds 24 1011 91 10000 3.08 127 12:35 20.04.2021
79 Clouds 24 1011 91 10000 2.99 130 11:58 20.04.2021
80 Clouds 24 1011 91 10000 2.99 130 11:39 20.04.2021
81 Clouds 24 1010 91 10000 3.01 131 11:19 20.04.2021
82 Clouds 24 1010 91 10000 3.01 131 10:42 20.04.2021
83 Clouds 24 1010 91 10000 2.93 126 10:22 20.04.2021
84 Clouds 25 1011 91 10000 2.93 132 09:20 20.04.2021
85 Clouds 25 1011 91 10000 2.93 132 08:54 20.04.2021
86 Clouds 25 1011 90 10000 3.01 132 08:19 20.04.2021
87 Clouds 25 1012 91 10000 3.04 129 07:39 20.04.2021
88 Clouds 25 1012 90 10000 3.23 135 06:35 20.04.2021
89 Clouds 25 1013 90 10000 2.89 137 05:37 20.04.2021
90 Clouds 25 1012 89 10000 2.68 132 04:41 20.04.2021
91 Clouds 27 1008 83 10000 3.6 150 00:53 20.04.2021
92 Clouds 27 1008 83 10000 3.6 150 00:27 20.04.2021
93 Rain 27 1008 83 10000 6.17 130 23:33 19.04.2021
94 Rain 28 1009 78 10000 4.63 120 22:46 19.04.2021
95 Clouds 28 1009 78 10000 4.63 120 22:26 19.04.2021
96 Clouds 28 1011 78 10000 4.63 160 21:46 19.04.2021
97 Clouds 28 1011 78 10000 4.63 160 21:22 19.04.2021
98 Drizzle 26 1011 89 8000 2.06 330 20:41 19.04.2021
99 Rain 26 1011 89 8000 2.06 330 20:21 19.04.2021
100 Rain 26 1012 83 10000 2.06 360 19:50 19.04.2021
101 Rain 26 1012 83 10000 2.06 360 19:27 19.04.2021
102 Rain 26 1012 83 10000 1.54 320 18:59 19.04.2021
103 Rain 26 1012 83 10000 1.54 320 18:40 19.04.2021
104 Rain 26 1012 83 10000 1.54 320 18:19 19.04.2021
105 Rain 26 1012 83 10000 1.54 320 18:19 19.04.2021
106 Rain 27 1012 89 10000 2.57 30 17:44 19.04.2021
107 Rain 27 1012 89 10000 2.57 30 17:23 19.04.2021
108 Rain 26 1011 89 10000 1.54 120 16:43 19.04.2021
109 Clouds 26 1011 89 10000 1.54 120 16:24 19.04.2021
110 Clouds 25 1013 89 10000 1.74 108 15:42 19.04.2021
111 Clouds 25 1012 90 10000 2.16 104 15:23 19.04.2021
112 Clouds 25 1012 90 10000 2.16 104 14:43 19.04.2021
113 Clouds 25 1012 91 10000 2.66 110 14:23 19.04.2021
114 Clouds 25 1012 89 10000 2.5 188 13:49 19.04.2021
115 Rain 25 1011 89 10000 2.56 187 13:26 19.04.2021
116 Rain 25 1011 89 10000 2.56 187 12:47 19.04.2021
117 Rain 25 1011 89 10000 2.5 184 12:26 19.04.2021
118 Rain 25 1011 89 10000 2.5 184 11:55 19.04.2021
119 Clouds 25 1011 90 10000 2.5 177 11:26 19.04.2021
120 Clouds 25 1011 90 10000 2.5 177 11:26 19.04.2021
121 Clouds 25 1011 90 10000 2.5 177 10:51 19.04.2021
122 Rain 25 1011 90 10000 2.44 171 10:26 19.04.2021
123 Rain 25 1011 90 10000 2.44 171 09:57 19.04.2021
124 Rain 25 1011 90 10000 2.44 171 09:36 19.04.2021
125 Clouds 25 1011 90 10000 2.57 171 09:18 19.04.2021
126 Clouds 25 1012 90 10000 2.65 167 08:29 19.04.2021
127 Clouds 25 1012 89 10000 2.35 164 07:49 19.04.2021
128 Clouds 25 1013 89 10000 2.31 162 07:19 19.04.2021
129 Clouds 25 1013 89 10000 2.31 162 06:36 19.04.2021
130 Clouds 25 1010 88 10000 1.94 159 02:36 19.04.2021
131 Rain 27 1008 89 10000 2.57 30 01:27 19.04.2021
132 Rain 27 1008 89 10000 3.6 20 23:56 18.04.2021
133 Rain 27 1008 89 10000 3.6 20 23:18 18.04.2021
134 Rain 29 1008 74 10000 2.06 90 22:48 18.04.2021
135 Clouds 29 1008 74 10000 2.06 90 22:29 18.04.2021
136 Clouds 29 1009 74 10000 3.6 150 21:40 18.04.2021
137 Clouds 29 1009 74 10000 3.6 150 21:18 18.04.2021
138 Clouds 29 1009 74 10000 4.12 180 20:39 18.04.2021
139 Rain 29 1009 74 10000 4.12 180 20:20 18.04.2021
140 Rain 28 1010 78 10000 3.09 180 19:45 18.04.2021
141 Rain 28 1010 78 10000 3.09 180 19:27 18.04.2021
142 Rain 28 1010 78 10000 2.57 330 18:54 18.04.2021
143 Rain 28 1010 78 10000 2.57 330 18:30 18.04.2021
144 Clouds 25 1013 86 10000 2.18 125 17:50 18.04.2021
145 Clouds 25 1013 86 10000 2.18 125 17:31 18.04.2021
146 Clouds 25 1013 87 10000 1.35 101 16:54 18.04.2021
147 Clouds 25 1013 87 10000 1.35 101 16:36 18.04.2021
148 Clouds 25 1013 88 10000 1.57 97 15:51 18.04.2021
149 Clouds 25 1013 88 10000 1.57 97 15:32 18.04.2021
150 Clouds 25 1012 89 10000 1.9 134 14:58 18.04.2021
151 Clouds 25 1012 89 10000 1.9 134 14:40 18.04.2021
152 Clouds 25 1011 89 10000 2.01 123 14:18 18.04.2021
153 Clouds 25 1011 89 10000 2.01 123 13:44 18.04.2021
154 Clouds 25 1010 89 10000 1.52 128 13:26 18.04.2021
155 Clouds 25 1010 89 10000 1.52 128 12:36 18.04.2021
156 Clouds 25 1010 89 10000 1.25 149 11:52 18.04.2021
157 Clouds 25 1010 89 10000 1.22 156 11:27 18.04.2021
158 Clouds 25 1010 89 10000 1.22 156 10:54 18.04.2021
159 Clouds 25 1010 89 10000 1.22 156 10:35 18.04.2021
160 Clouds 25 1010 89 10000 1.07 140 09:58 18.04.2021
161 Clouds 25 1010 89 10000 1.07 140 09:39 18.04.2021
162 Clouds 25 1010 89 10000 1.07 140 09:39 18.04.2021
163 Clouds 25 1011 89 10000 0.83 147 09:19 18.04.2021
164 Rain 25 1011 89 10000 1.76 166 08:40 18.04.2021
165 Clouds 25 1012 89 10000 1.75 178 08:19 18.04.2021
166 Clouds 25 1012 89 10000 1.75 178 07:39 18.04.2021
167 Clouds 25 1012 89 10000 1.69 185 05:45 18.04.2021
168 Clouds 25 1012 88 10000 1.84 179 05:24 18.04.2021
169 Clouds 25 1011 86 10000 1.62 174 03:26 18.04.2021
170 Clouds 25 1010 85 10000 1.91 174 02:22 18.04.2021
171 Clouds 28 1007 78 10000 3.09 150 00:40 18.04.2021
172 Clouds 27 1007 89 10000 4.12 200 23:39 17.04.2021
173 Clouds 28 1008 78 10000 2.06 150 22:55 17.04.2021
174 Clouds 28 1008 78 10000 2.06 150 22:31 17.04.2021
175 Clouds 28 1008 78 10000 2.06 150 22:31 17.04.2021
176 Rain 29 1009 79 10000 2.06 150 21:51 17.04.2021
177 Rain 29 1009 79 10000 2.06 150 21:31 17.04.2021
178 Rain 29 1009 74 10000 2.06 200 20:59 17.04.2021
179 Rain 29 1009 74 10000 2.06 200 20:28 17.04.2021
180 Rain 29 1010 74 10000 2.06 160 19:46 17.04.2021
181 Rain 29 1010 74 10000 2.06 160 19:46 17.04.2021
182 Rain 29 1010 74 10000 2.06 160 19:22 17.04.2021
183 Rain 25 1013 86 10000 2.89 138 18:56 17.04.2021
184 Rain 26 1011 89 10000 2.57 40 18:36 17.04.2021
185 Rain 26 1011 89 10000 2.57 40 18:36 17.04.2021
186 Rain 26 1011 89 10000 2.57 40 17:57 17.04.2021
187 Rain 26 1011 89 10000 2.57 40 17:39 17.04.2021
188 Clouds 27 1010 83 10000 3.6 110 16:53 17.04.2021
189 Clouds 27 1010 83 10000 3.6 110 16:28 17.04.2021
190 Clouds 27 1010 83 10000 3.6 110 16:28 17.04.2021
191 Clouds 25 1012 90 10000 3.12 129 15:42 17.04.2021
192 Clouds 25 1011 91 10000 3.11 121 14:50 17.04.2021
193 Clouds 25 1011 91 10000 3.11 121 14:30 17.04.2021
194 Clouds 25 1011 90 10000 2.74 113 13:47 17.04.2021
195 Clouds 25 1010 90 10000 2.98 122 13:20 17.04.2021
196 Clouds 25 1010 90 10000 2.98 122 12:39 17.04.2021
197 Clouds 25 1010 90 10000 2.89 124 12:18 17.04.2021
198 Clouds 25 1010 90 10000 2.89 124 11:39 17.04.2021
199 Clouds 25 1010 90 10000 2.5 128 11:20 17.04.2021
200 Clouds 25 1010 90 10000 2.5 128 10:41 17.04.2021
201 Clouds 25 1010 89 10000 2.42 128 10:22 17.04.2021
202 Clouds 25 1011 89 10000 2.3 132 09:19 17.04.2021
203 Clouds 25 1011 89 10000 2.01 130 08:34 17.04.2021
204 Clouds 25 1012 89 10000 2.35 123 07:59 17.04.2021
205 Clouds 25 1012 88 10000 2.44 120 06:42 17.04.2021
206 Rain 26 1011 86 10000 2.19 128 03:49 17.04.2021
207 Rain 26 1009 83 10000 1.71 177 02:28 17.04.2021
208 Rain 28 1007 78 10000 1.54 360 00:43 17.04.2021
209 Clouds 28 1007 78 10000 1.54 360 00:21 17.04.2021
210 Clouds 28 1007 78 10000 2.57 30 23:43 16.04.2021
211 Clouds 29 1008 74 10000 4.63 160 22:59 16.04.2021
212 Clouds 29 1008 74 10000 4.63 160 22:41 16.04.2021
213 Clouds 29 1008 74 10000 4.63 160 22:20 16.04.2021
214 Clouds 39 1008 42 10000 4.63 150 21:45 16.04.2021
215 Clouds 39 1008 42 10000 4.63 150 21:27 16.04.2021
216 Clouds 30 1009 70 10000 4.63 190 20:46 16.04.2021
217 Clouds 30 1009 70 10000 4.63 190 20:20 16.04.2021
218 Clouds 29 1009 79 10000 5.14 140 19:49 16.04.2021
219 Clouds 29 1009 79 10000 5.14 140 19:21 16.04.2021
220 Clouds 29 1009 74 10000 3.09 130 18:28 16.04.2021
221 Clouds 28 1009 78 10000 4.12 150 17:53 16.04.2021
222 Clouds 28 1009 78 10000 4.12 150 17:20 16.04.2021
223 Clouds 26 1009 89 10000 1.54 360 16:56 16.04.2021
224 Clouds 26 1009 89 10000 1.54 360 16:38 16.04.2021
225 Clouds 26 1009 89 10000 1.54 360 16:19 16.04.2021
226 Clouds 25 1012 87 10000 0.83 144 15:36 16.04.2021
227 Clouds 25 1011 88 10000 1.24 152 14:46 16.04.2021
228 Clouds 25 1010 88 10000 1.45 191 14:28 16.04.2021
229 Clouds 25 1010 88 10000 1.45 191 13:56 16.04.2021
230 Clouds 25 1010 88 10000 1.19 189 13:23 16.04.2021
231 Clouds 25 1010 88 10000 1.19 189 12:54 16.04.2021
232 Clouds 25 1010 88 10000 1.19 189 12:36 16.04.2021
233 Clouds 25 1009 88 10000 1.42 196 11:59 16.04.2021
234 Clouds 25 1009 88 10000 1.42 196 11:41 16.04.2021
235 Clouds 25 1009 88 10000 1.15 194 11:20 16.04.2021
236 Clouds 25 1009 88 10000 1.15 194 10:41 16.04.2021
237 Clouds 25 1010 88 10000 0.89 220 10:20 16.04.2021
238 Clouds 25 1010 88 10000 0.89 220 09:44 16.04.2021
239 Clouds 25 1010 88 10000 0.93 233 09:21 16.04.2021
240 Clouds 25 1010 88 10000 0.93 233 08:44 16.04.2021
241 Clouds 25 1011 88 10000 1.12 212 08:19 16.04.2021
242 Clouds 25 1011 88 10000 1.12 212 07:42 16.04.2021
243 Clouds 25 1012 87 10000 1.56 209 07:18 16.04.2021
244 Clouds 25 1012 87 10000 1.56 209 06:35 16.04.2021
245 Clouds 25 1012 86 10000 1.91 215 05:31 16.04.2021
246 Clouds 26 1009 82 10000 2.06 189 01:40 16.04.2021
247 Clouds 28 1007 78 10000 2.06 360 00:44 16.04.2021
248 Clouds 28 1007 78 10000 2.06 360 00:20 16.04.2021
249 Clouds 27 1007 78 10000 2.06 10 23:51 15.04.2021
250 Clouds 27 1007 78 10000 2.06 10 23:27 15.04.2021
251 Rain 27 1008 83 10000 2.06 20 22:47 15.04.2021
252 Rain 27 1008 83 10000 2.06 20 22:23 15.04.2021
253 Rain 27 1008 83 10000 2.06 20 22:23 15.04.2021
254 Clouds 26 1009 82 10000 2.3 221 21:43 15.04.2021
255 Clouds 26 1010 89 10000 2.06 30 21:24 15.04.2021
256 Clouds 26 1010 89 10000 2.06 30 20:47 15.04.2021
257 Clouds 26 1010 89 10000 2.06 30 20:25 15.04.2021
258 Clouds 28 1010 89 10000 1.54 250 19:47 15.04.2021
259 Clouds 28 1010 89 10000 1.54 250 19:28 15.04.2021
260 Clouds 26 1011 89 10000 2.06 10 18:45 15.04.2021
261 Clouds 26 1011 89 10000 2.06 10 18:21 15.04.2021
262 Clouds 26 1010 89 10000 2.06 40 17:55 15.04.2021
263 Clouds 26 1010 89 10000 2.06 40 17:37 15.04.2021
264 Clouds 26 1010 89 10000 2.06 40 17:18 15.04.2021
265 Clouds 25 1012 84 10000 1.32 205 16:42 15.04.2021
266 Clouds 25 1012 86 10000 1.05 175 16:22 15.04.2021
267 Clouds 25 1012 86 10000 1.05 175 15:45 15.04.2021
268 Clouds 25 1011 88 10000 0.94 199 15:26 15.04.2021
269 Clouds 25 1011 88 10000 0.94 199 14:41 15.04.2021
270 Clouds 25 1011 88 10000 1.14 187 14:23 15.04.2021
271 Clouds 25 1011 88 10000 1.98 177 14:23 15.04.2021
272 Clouds 25 1011 88 10000 1.98 177 13:42 15.04.2021
273 Clouds 25 1010 88 10000 1.68 169 13:19 15.04.2021
274 Clouds 25 1010 88 10000 1.68 169 12:42 15.04.2021
275 Clouds 25 1010 88 10000 1.75 165 12:21 15.04.2021
276 Clouds 25 1010 88 10000 1.75 165 11:46 15.04.2021
277 Clouds 25 1010 88 10000 1.91 188 11:23 15.04.2021
278 Clouds 25 1010 88 10000 1.91 188 10:55 15.04.2021
279 Clouds 25 1010 88 10000 1.82 190 10:28 15.04.2021
280 Clouds 25 1010 88 10000 1.82 190 09:49 15.04.2021
281 Clouds 25 1011 88 10000 1.88 186 09:25 15.04.2021
282 Clouds 25 1011 88 10000 1.88 186 08:49 15.04.2021
283 Clouds 25 1011 88 10000 1.74 166 08:21 15.04.2021
284 Clear 25 1012 88 10000 1.52 155 07:24 15.04.2021
285 Clear 25 1012 88 10000 1.52 155 06:49 15.04.2021
286 Clear 25 1012 88 10000 1.52 155 06:30 15.04.2021
287 Clouds 25 1012 87 10000 1.55 163 04:52 15.04.2021
288 Clouds 26 1009 86 10000 2.52 181 01:58 15.04.2021
289 Clouds 26 1009 83 10000 3.21 182 23:43 14.04.2021
290 Clouds 26 1009 83 10000 3.21 182 23:43 14.04.2021
291 Clouds 28 1008 83 10000 3.09 10 23:25 14.04.2021
292 Clouds 28 1008 83 10000 3.09 10 22:47 14.04.2021
293 Clouds 28 1008 83 10000 3.09 10 22:26 14.04.2021
294 Clouds 28 1009 83 10000 2.57 360 21:49 14.04.2021
295 Clouds 28 1009 83 10000 2.57 360 21:31 14.04.2021
296 Clouds 28 1010 83 10000 4.63 340 20:56 14.04.2021
297 Clouds 28 1010 83 10000 4.63 340 20:34 14.04.2021
298 Clouds 28 1010 83 10000 4.63 340 20:34 14.04.2021
299 Clouds 27 1011 83 10000 2.57 330 19:54 14.04.2021
300 Clouds 27 1011 83 10000 2.57 330 19:21 14.04.2021
301 Clouds 28 1011 83 10000 3.09 360 18:57 14.04.2021
302 Clouds 28 1011 83 10000 3.09 360 18:22 14.04.2021
303 Clouds 27 1011 83 10000 1.54 310 17:59 14.04.2021
304 Clouds 27 1011 83 10000 1.54 310 17:28 14.04.2021
305 Clouds 25 1011 88 10000 1.54 10 16:54 14.04.2021
306 Clouds 25 1011 88 10000 1.54 10 16:28 14.04.2021
307 Clouds 25 1013 88 10000 1.92 124 15:46 14.04.2021
308 Clouds 25 1012 89 10000 2.36 126 15:27 14.04.2021
309 Clouds 25 1012 89 10000 2.36 126 14:53 14.04.2021
310 Clouds 24 1011 89 10000 2.01 127 14:27 14.04.2021
311 Clouds 24 1011 89 10000 1.93 132 13:59 14.04.2021
312 Clouds 24 1011 89 10000 1.93 132 13:37 14.04.2021
313 Clouds 24 1011 89 10000 1.79 134 12:40 14.04.2021
314 Clouds 24 1010 89 10000 1.6 140 11:44 14.04.2021
315 Clouds 24 1010 89 10000 1.02 144 11:26 14.04.2021
316 Clouds 24 1010 89 10000 1.02 144 10:56 14.04.2021
317 Clouds 24 1010 89 10000 1.02 144 10:33 14.04.2021
318 Clouds 24 1010 89 10000 1.29 145 09:43 14.04.2021
319 Clouds 24 1011 89 10000 1.82 153 09:21 14.04.2021
320 Clouds 24 1011 89 10000 1.82 153 08:47 14.04.2021
321 Clouds 25 1012 88 10000 2.2 155 08:22 14.04.2021
322 Clouds 25 1012 88 10000 2.21 151 07:26 14.04.2021
323 Clouds 25 1012 88 10000 2.8 147 06:26 14.04.2021
324 Clouds 25 1011 88 10000 2.83 143 05:20 14.04.2021
325 Clouds 26 1009 85 10000 2.76 133 01:54 14.04.2021
326 Clouds 27 1006 83 10000 2.06 330 00:47 14.04.2021
327 Clouds 27 1006 83 10000 1.54 10 23:59 13.04.2021
328 Clouds 27 1006 83 10000 1.54 10 23:30 13.04.2021
329 Clouds 29 1007 74 10000 2.06 360 22:44 13.04.2021
330 Clouds 29 1007 74 10000 2.06 360 22:19 13.04.2021
331 Clouds 26 1009 82 10000 2.94 117 21:47 13.04.2021
332 Clouds 27 1009 83 10000 2.06 330 21:29 13.04.2021
333 Clouds 27 1009 83 10000 2.06 330 20:43 13.04.2021
334 Clouds 27 1009 83 10000 2.06 330 20:24 13.04.2021
335 Clouds 27 1009 83 10000 3.09 310 19:50 13.04.2021
336 Clouds 27 1009 83 10000 3.09 310 19:25 13.04.2021
337 Clouds 27 1009 83 10000 3.09 310 19:25 13.04.2021
338 Clouds 27 1009 78 10000 1.54 10 18:44 13.04.2021
339 Clouds 27 1009 78 10000 1.54 10 18:25 13.04.2021
340 Clouds 27 1009 83 10000 3.09 110 17:40 13.04.2021
341 Clouds 27 1009 83 10000 3.09 110 17:18 13.04.2021
342 Clouds 26 1012 89 10000 2.06 130 16:44 13.04.2021
343 Clouds 26 1012 89 10000 2.06 130 16:23 13.04.2021
344 Clouds 25 1011 86 10000 2.37 129 15:50 13.04.2021
345 Clouds 25 1011 86 10000 2.37 129 15:31 13.04.2021
346 Clouds 25 1011 87 10000 2.06 117 14:47 13.04.2021
347 Clouds 24 1010 87 10000 2.32 104 14:20 13.04.2021
348 Clouds 24 1010 87 10000 2.32 104 13:45 13.04.2021
349 Clouds 24 1009 87 10000 2.46 116 13:24 13.04.2021
350 Clouds 24 1009 87 10000 2.46 116 12:57 13.04.2021
351 Clouds 24 1009 87 10000 2.46 116 12:30 13.04.2021
352 Clouds 24 1008 87 10000 2.69 119 11:56 13.04.2021
353 Clouds 24 1008 87 10000 2.69 119 11:30 13.04.2021
354 Clouds 24 1008 87 10000 2.69 119 11:30 13.04.2021
355 Clouds 24 1008 87 10000 2.77 119 10:53 13.04.2021
356 Clouds 25 1009 87 10000 2.68 123 10:21 13.04.2021
357 Clouds 25 1009 87 10000 2.68 123 10:21 13.04.2021
358 Clouds 25 1009 87 10000 2.68 123 09:57 13.04.2021
359 Clouds 25 1009 87 10000 2.68 123 09:36 13.04.2021
360 Clouds 25 1009 88 10000 2.13 121 08:57 13.04.2021
361 Clouds 25 1009 88 10000 2.13 121 08:38 13.04.2021
362 Clouds 25 1009 88 10000 2.13 121 08:38 13.04.2021
363 Clouds 25 1010 88 10000 2.26 116 08:20 13.04.2021
364 Clouds 25 1010 88 10000 2.26 116 07:36 13.04.2021
365 Clouds 25 1010 88 10000 2.39 122 06:31 13.04.2021
366 Clouds 25 1010 87 10000 2.21 115 04:49 13.04.2021
367 Clouds 26 1008 82 10000 1.7 113 02:25 13.04.2021
368 Rain 26 1005 89 10000 2.57 330 00:19 13.04.2021
369 Rain 26 1005 89 10000 2.06 320 23:44 12.04.2021
370 Rain 26 1005 89 10000 2.06 320 23:24 12.04.2021
371 Clouds 28 1006 78 10000 2.06 330 22:38 12.04.2021
372 Clouds 28 1007 78 10000 4.12 320 21:58 12.04.2021
373 Clouds 28 1007 78 10000 4.12 320 21:38 12.04.2021
374 Clouds 28 1007 78 10000 4.12 320 21:19 12.04.2021
375 Clouds 30 1008 66 10000 3.6 10 20:38 12.04.2021
376 Clouds 30 1008 66 10000 3.6 10 20:20 12.04.2021
377 Clouds 29 1008 70 10000 2.57 140 19:43 12.04.2021
378 Clouds 29 1008 70 10000 2.57 140 19:23 12.04.2021
379 Clouds 29 1008 70 10000 2.57 140 19:23 12.04.2021
380 Clouds 27 1008 83 10000 2.57 340 18:56 12.04.2021
381 Clouds 27 1008 83 10000 2.57 340 18:38 12.04.2021
382 Clouds 27 1008 83 10000 2.57 340 18:18 12.04.2021
383 Clouds 26 1008 89 10000 2.57 350 17:42 12.04.2021
384 Clouds 26 1008 89 10000 2.57 350 17:21 12.04.2021
385 Clouds 25 1008 94 10000 2.06 20 16:44 12.04.2021
386 Clouds 25 1008 94 10000 2.06 20 16:26 12.04.2021
387 Clouds 25 1011 86 10000 2.33 99 15:48 12.04.2021
388 Clouds 25 1010 87 10000 2.54 111 15:21 12.04.2021
389 Clouds 25 1010 87 10000 2.54 111 14:49 12.04.2021
390 Clouds 24 1009 88 10000 2.43 125 14:29 12.04.2021
391 Clouds 24 1009 86 10000 1.54 115 13:45 12.04.2021
392 Clouds 24 1008 86 10000 0.61 119 13:22 12.04.2021
393 Clouds 24 1008 86 10000 0.61 119 12:44 12.04.2021
394 Clouds 24 1008 86 10000 0.41 119 12:24 12.04.2021
395 Clouds 24 1008 86 10000 0.41 119 11:53 12.04.2021
396 Clouds 24 1008 86 10000 0.44 68 10:56 12.04.2021
397 Clouds 24 1008 86 10000 0.44 68 10:38 12.04.2021
398 Clouds 25 1008 86 10000 1.07 64 10:20 12.04.2021
399 Clouds 25 1008 86 10000 1.07 64 09:40 12.04.2021
400 Clouds 25 1009 86 10000 1.28 96 09:18 12.04.2021
401 Clouds 25 1009 86 10000 1.28 96 08:35 12.04.2021
402 Clouds 25 1010 87 10000 1.27 102 07:32 12.04.2021
403 Clouds 25 1010 87 10000 1.43 125 06:57 12.04.2021
404 Clouds 25 1010 87 10000 1.3 124 05:51 12.04.2021
405 Clouds 25 1009 85 10000 1.58 99 03:58 12.04.2021
406 Clouds 27 1005 83 10000 1.54 310 00:50 12.04.2021
407 Clouds 27 1005 83 10000 1.54 310 00:23 12.04.2021
408 Clouds 28 1005 78 10000 2.57 320 23:45 11.04.2021
409 Clouds 28 1005 78 10000 2.57 320 23:23 11.04.2021
410 Clouds 26 1006 89 10000 3.09 340 22:41 11.04.2021
411 Clouds 26 1006 89 10000 3.09 340 22:22 11.04.2021
412 Clouds 26 1007 89 10000 2.57 330 21:45 11.04.2021
413 Clouds 26 1007 89 10000 2.57 330 21:27 11.04.2021
414 Clouds 26 1008 89 10000 1.54 20 20:52 11.04.2021
415 Clouds 26 1008 89 10000 1.54 20 20:27 11.04.2021
416 Clouds 26 1009 83 10000 4.12 20 19:44 11.04.2021
417 Clouds 26 1009 83 10000 4.12 20 19:22 11.04.2021
418 Clouds 26 1009 83 10000 2.06 10 18:59 11.04.2021
419 Clouds 26 1009 83 10000 2.06 10 18:41 11.04.2021
420 Clouds 26 1009 83 10000 2.06 10 18:22 11.04.2021
421 Clouds 26 1009 83 10000 2.06 20 17:43 11.04.2021
422 Clouds 26 1009 83 10000 2.06 20 17:24 11.04.2021
423 Clouds 25 1008 94 10000 1.54 20 16:46 11.04.2021
424 Clouds 25 1008 94 10000 1.54 20 16:22 11.04.2021
425 Clouds 25 1011 85 10000 1.93 79 15:47 11.04.2021
426 Clouds 24 1010 86 10000 1.65 77 15:26 11.04.2021
427 Clouds 24 1010 86 10000 1.65 77 14:52 11.04.2021
428 Clear 24 1010 85 10000 1.32 57 14:30 11.04.2021
429 Clouds 24 1009 86 10000 1.47 66 13:47 11.04.2021
430 Clouds 24 1009 86 10000 1.68 82 13:28 11.04.2021
431 Clouds 24 1009 86 10000 1.68 82 12:44 11.04.2021
432 Clouds 24 1009 86 10000 1.91 73 12:20 11.04.2021
433 Clouds 24 1009 86 10000 1.91 73 11:48 11.04.2021
434 Clouds 24 1009 86 10000 1.7 72 11:22 11.04.2021
435 Clouds 24 1009 86 10000 1.7 72 10:47 11.04.2021
436 Clouds 24 1009 86 10000 1.54 72 10:26 11.04.2021
437 Clouds 24 1009 86 10000 1.54 72 09:53 11.04.2021
438 Clouds 24 1009 86 10000 1.54 72 09:32 11.04.2021
439 Clouds 24 1010 86 10000 1.91 68 08:42 11.04.2021
440 Clouds 24 1011 87 10000 1.71 66 07:59 11.04.2021
441 Clouds 24 1011 88 10000 2.13 56 07:21 11.04.2021
442 Clouds 24 1011 88 10000 2.21 63 05:59 11.04.2021
443 Clouds 24 1011 88 10000 2.21 63 05:37 11.04.2021
444 Clouds 25 1011 87 10000 2.43 60 05:18 11.04.2021
445 Clouds 25 1011 87 10000 2.43 60 04:33 11.04.2021
446 Clouds 26 1006 94 10000 2.06 30 01:31 11.04.2021
447 Clouds 26 1006 94 10000 2.06 30 00:32 11.04.2021
448 Clouds 26 1006 89 10000 5.14 40 23:47 10.04.2021
449 Clouds 26 1007 89 10000 7.2 50 22:58 10.04.2021
450 Clouds 26 1007 89 10000 7.2 50 22:31 10.04.2021
451 Clouds 28 1008 78 10000 6.17 40 21:55 10.04.2021
452 Clouds 28 1008 78 10000 6.17 40 21:33 10.04.2021
453 Clouds 27 1009 89 10000 5.66 60 20:58 10.04.2021
454 Clouds 27 1009 89 10000 5.66 60 20:40 10.04.2021
455 Clouds 27 1009 89 10000 5.66 60 20:21 10.04.2021
456 Clouds 27 1010 89 10000 4.12 50 19:43 10.04.2021
457 Clouds 27 1010 89 10000 4.12 50 19:25 10.04.2021
458 Clouds 27 1010 89 10000 4.63 40 18:42 10.04.2021
459 Clouds 27 1010 89 10000 4.63 40 18:24 10.04.2021
460 Clouds 26 1010 94 10000 3.6 50 17:36 10.04.2021
461 Clouds 25 1010 94 10000 3.09 60 16:50 10.04.2021
462 Clouds 25 1010 94 10000 3.09 60 16:25 10.04.2021
463 Clouds 25 1012 88 10000 2.99 80 15:52 10.04.2021
464 Clouds 24 1011 89 10000 2.59 81 14:57 10.04.2021
465 Clouds 24 1011 89 10000 2.59 81 14:37 10.04.2021
466 Clouds 24 1011 88 10000 1.7 94 13:58 10.04.2021
467 Clouds 24 1011 88 10000 1.7 94 13:36 10.04.2021
468 Clouds 24 1010 88 10000 1.64 94 12:43 10.04.2021
469 Clouds 24 1010 87 10000 1.27 107 12:20 10.04.2021
470 Clouds 24 1010 87 10000 1.27 107 11:46 10.04.2021
471 Clouds 24 1010 87 10000 0.77 83 11:23 10.04.2021
472 Clouds 24 1010 87 10000 0.77 83 10:51 10.04.2021
473 Clouds 24 1010 87 10000 0.77 83 10:31 10.04.2021
474 Clouds 24 1010 86 10000 0.79 84 09:44 10.04.2021
475 Clouds 24 1011 86 10000 0.61 32 09:19 10.04.2021
476 Clouds 24 1011 86 10000 0.67 18 08:34 10.04.2021
477 Clouds 24 1012 86 10000 0.87 32 07:56 10.04.2021
478 Clouds 24 1012 86 10000 0.91 70 07:26 10.04.2021
479 Clouds 24 1012 86 10000 0.91 70 06:42 10.04.2021
480 Clouds 24 1012 86 10000 0.48 18 05:34 10.04.2021
481 Clouds 24 1011 87 10000 1.27 31 03:41 10.04.2021
482 Clouds 24 1010 87 10000 0.28 49 02:42 10.04.2021
483 Rain 25 1007 94 10000 3.09 60 01:27 10.04.2021
484 Rain 25 1007 94 10000 3.09 60 00:32 10.04.2021
485 Rain 25 1007 94 10000 3.09 60 00:32 10.04.2021
486 Rain 25 1007 94 10000 3.09 40 23:53 09.04.2021
487 Rain 25 1007 94 10000 3.09 40 23:30 09.04.2021
488 Rain 25 1010 94 10000 2.57 60 22:53 09.04.2021
489 Rain 25 1010 94 10000 2.57 60 22:34 09.04.2021
490 Rain 25 1011 94 10000 4.12 150 21:40 09.04.2021
491 Rain 25 1011 94 10000 4.12 150 21:22 09.04.2021
492 Rain 25 1012 94 8000 1.54 220 20:46 09.04.2021
493 Rain 25 1012 94 8000 1.54 220 20:24 09.04.2021
494 Rain 24 1012 100 5000 1.54 270 19:58 09.04.2021
495 Rain 24 1012 100 5000 1.54 270 19:40 09.04.2021
496 Rain 24 1012 100 5000 1.54 270 19:22 09.04.2021
497 Rain 24 1012 100 5000 1.54 270 19:22 09.04.2021
498 Rain 24 1013 100 4000 3.6 30 18:42 09.04.2021
499 Rain 24 1013 100 4000 3.6 30 18:23 09.04.2021
500 Rain 24 1012 94 5000 3.09 120 17:47 09.04.2021
501 Rain 24 1012 94 5000 3.09 120 17:29 09.04.2021
502 Rain 25 1013 88 10000 2.9 85 16:44 09.04.2021
503 Rain 23 1012 100 3000 4.63 150 16:23 09.04.2021
504 Rain 25 1013 88 10000 2.81 83 15:43 09.04.2021
505 Rain 25 1012 89 10000 2.62 81 15:23 09.04.2021
506 Rain 25 1012 89 10000 2.62 81 14:46 09.04.2021
507 Rain 25 1011 89 10000 2.57 82 14:21 09.04.2021
508 Rain 25 1011 89 10000 2.83 84 13:43 09.04.2021
509 Rain 25 1011 90 10000 2.83 82 13:22 09.04.2021
510 Rain 25 1011 90 10000 2.83 82 12:47 09.04.2021
511 Rain 24 1010 91 10000 2.74 83 11:59 09.04.2021
512 Rain 24 1010 91 10000 2.74 83 11:30 09.04.2021
513 Rain 25 1010 91 10000 2.64 73 10:56 09.04.2021
514 Rain 25 1010 91 10000 2.64 73 10:37 09.04.2021
515 Rain 25 1010 90 10000 2.27 76 09:55 09.04.2021
516 Rain 25 1011 90 10000 1.49 90 09:27 09.04.2021
517 Rain 25 1011 90 10000 1.49 90 08:55 09.04.2021
518 Rain 25 1011 89 10000 1.15 135 08:25 09.04.2021
519 Rain 25 1012 89 10000 0.88 157 07:21 09.04.2021
520 Clouds 25 1012 88 10000 1.25 173 06:21 09.04.2021
521 Rain 26 1011 88 10000 1.81 186 03:56 09.04.2021
522 Rain 26 1011 88 10000 1.81 186 03:38 09.04.2021
523 Rain 28 1006 83 10000 6.17 190 00:38 09.04.2021
524 Clouds 28 1006 83 10000 6.17 190 00:20 09.04.2021
525 Clouds 29 1006 74 10000 6.69 180 23:31 08.04.2021
526 Clouds 29 1007 79 10000 5.66 180 22:47 08.04.2021
527 Clouds 29 1007 79 10000 5.66 180 22:27 08.04.2021
528 Clouds 29 1008 79 10000 6.69 170 21:58 08.04.2021
529 Clouds 29 1008 79 10000 6.69 170 21:38 08.04.2021
530 Clouds 29 1008 79 10000 6.69 170 21:20 08.04.2021
531 Clouds 29 1010 79 10000 5.66 200 20:53 08.04.2021
532 Clouds 29 1010 79 10000 5.66 200 20:34 08.04.2021
533 Clouds 29 1010 79 10000 5.14 170 19:57 08.04.2021
534 Clouds 29 1010 79 10000 5.14 170 19:24 08.04.2021
535 Clouds 28 1011 78 10000 5.66 150 18:56 08.04.2021
536 Clouds 28 1011 78 10000 5.66 150 18:24 08.04.2021
537 Clouds 28 1011 78 10000 3.09 170 17:52 08.04.2021
538 Clouds 28 1011 78 10000 3.09 170 17:26 08.04.2021
539 Clouds 25 1010 94 10000 2.06 180 16:57 08.04.2021
540 Clouds 25 1010 94 10000 2.06 180 16:36 08.04.2021
541 Clouds 25 1010 94 10000 2.06 180 16:36 08.04.2021
542 Clouds 25 1012 88 10000 2.16 116 15:55 08.04.2021
543 Clouds 25 1012 88 10000 2.16 116 15:36 08.04.2021
544 Clouds 25 1011 88 10000 2.27 127 15:18 08.04.2021
545 Clouds 25 1011 88 10000 2.27 127 14:39 08.04.2021
546 Clouds 25 1011 89 10000 1.89 144 14:19 08.04.2021
547 Clouds 25 1011 89 10000 1.89 144 13:43 08.04.2021
548 Clouds 25 1010 89 10000 1.97 160 13:23 08.04.2021
549 Clouds 25 1010 89 10000 1.97 160 12:45 08.04.2021
550 Clouds 25 1010 89 10000 2.24 182 12:26 08.04.2021
551 Clouds 25 1010 89 10000 2.24 182 11:47 08.04.2021
552 Clouds 25 1010 89 10000 2.2 185 11:20 08.04.2021
553 Clouds 25 1010 89 10000 2.2 185 10:43 08.04.2021
554 Clouds 25 1010 89 10000 1.97 198 10:24 08.04.2021
555 Clouds 25 1010 89 10000 1.97 198 09:43 08.04.2021
556 Clouds 25 1011 88 10000 1.81 194 08:51 08.04.2021
557 Clouds 25 1011 88 10000 1.94 191 08:30 08.04.2021
558 Clouds 25 1012 87 10000 1.96 184 07:59 08.04.2021
559 Clouds 25 1012 87 10000 1.96 184 07:39 08.04.2021
560 Clouds 25 1012 85 10000 2.33 196 04:44 08.04.2021
561 Clouds 26 1008 89 10000 3.09 350 01:24 08.04.2021
562 Clouds 26 1008 89 10000 3.09 350 00:29 08.04.2021
563 Clouds 26 1008 89 10000 2.57 290 23:45 07.04.2021
564 Clouds 26 1008 89 10000 2.57 290 23:22 07.04.2021
565 Clouds 26 1008 89 10000 3.09 300 22:54 07.04.2021
566 Clouds 26 1008 89 10000 3.09 300 22:35 07.04.2021
567 Rain 26 1009 89 10000 2.57 360 21:48 07.04.2021
568 Rain 26 1009 89 10000 2.57 360 21:26 07.04.2021
569 Clouds 27 1010 83 10000 3.09 360 20:47 07.04.2021
570 Clouds 27 1010 83 10000 3.09 360 20:26 07.04.2021
571 Clouds 27 1011 83 10000 3.09 350 19:46 07.04.2021
572 Clouds 27 1011 83 10000 3.09 350 19:26 07.04.2021
573 Clouds 26 1011 89 10000 3.09 10 18:49 07.04.2021
574 Clouds 26 1011 89 10000 3.09 10 18:21 07.04.2021
575 Clouds 26 1011 89 10000 2.57 10 17:56 07.04.2021
576 Clouds 26 1011 89 10000 2.57 10 17:37 07.04.2021
577 Clouds 25 1010 88 10000 1.54 10 16:58 07.04.2021
578 Clouds 25 1010 88 10000 1.54 10 16:38 07.04.2021
579 Clouds 25 1010 88 10000 1.54 10 16:19 07.04.2021
580 Clouds 25 1010 88 10000 1.54 10 16:19 07.04.2021
581 Clouds 25 1012 82 10000 1.8 47 15:40 07.04.2021
582 Clouds 25 1012 84 10000 1.96 43 14:58 07.04.2021
583 Clouds 25 1012 84 10000 1.96 43 14:32 07.04.2021
584 Clouds 25 1011 83 10000 2.58 48 13:53 07.04.2021
585 Clouds 25 1011 83 10000 2.58 48 13:53 07.04.2021
586 Clouds 25 1010 84 10000 2.79 50 13:27 07.04.2021
587 Clouds 25 1010 84 10000 2.79 50 12:56 07.04.2021
588 Clouds 25 1010 84 10000 2.77 59 12:25 07.04.2021
589 Clouds 25 1010 84 10000 2.77 59 11:56 07.04.2021
590 Clouds 25 1010 84 10000 2.22 54 11:28 07.04.2021
591 Clouds 25 1010 84 10000 2.22 54 10:53 07.04.2021
592 Clouds 25 1010 84 10000 2.03 50 10:21 07.04.2021
593 Clouds 25 1010 84 10000 2.03 50 09:44 07.04.2021
594 Clouds 25 1010 85 10000 2.2 52 09:25 07.04.2021
595 Clouds 25 1010 85 10000 2.2 52 08:42 07.04.2021
596 Clouds 25 1011 85 10000 2.54 54 08:21 07.04.2021
597 Clouds 25 1011 85 10000 2.54 54 07:43 07.04.2021
598 Clouds 25 1012 86 10000 2.78 60 07:24 07.04.2021
599 Clouds 25 1012 86 10000 2.78 60 06:32 07.04.2021
600 Clouds 25 1011 84 10000 2.99 68 04:23 07.04.2021
601 Clouds 27 1006 83 10000 1.54 280 00:22 07.04.2021
602 Clouds 27 1006 83 10000 3.6 350 23:47 06.04.2021
603 Rain 26 1007 89 10000 2.57 360 23:21 06.04.2021
604 Rain 26 1007 89 10000 2.57 360 22:40 06.04.2021
605 Rain 26 1007 89 10000 2.57 360 22:19 06.04.2021
606 Clouds 26 1008 89 10000 2.57 360 21:41 06.04.2021
607 Clouds 26 1008 89 10000 2.57 360 21:22 06.04.2021
608 Clouds 27 1009 83 10000 2.06 360 20:53 06.04.2021
609 Clouds 27 1009 83 10000 2.06 360 20:24 06.04.2021
610 Clouds 27 1010 83 10000 1.54 30 19:52 06.04.2021
611 Clouds 27 1010 83 10000 1.54 30 19:34 06.04.2021
612 Clouds 27 1010 83 10000 2.57 360 18:52 06.04.2021
613 Clouds 27 1010 83 10000 2.57 360 18:33 06.04.2021
614 Clouds 26 1010 83 10000 2.57 360 17:57 06.04.2021
615 Clouds 26 1010 83 10000 2.57 360 17:38 06.04.2021
616 Clouds 26 1010 83 10000 2.57 360 17:18 06.04.2021
617 Clouds 26 1009 83 10000 2.06 350 16:41 06.04.2021
618 Clouds 25 1011 86 10000 4.07 84 15:49 06.04.2021
619 Clouds 25 1010 87 10000 3.66 87 15:24 06.04.2021
620 Clouds 25 1010 87 10000 3.66 87 14:40 06.04.2021
621 Clouds 25 1010 88 10000 3.23 92 14:21 06.04.2021
622 Clouds 25 1010 88 10000 3.23 92 13:46 06.04.2021
623 Clouds 25 1009 88 10000 3.29 90 13:25 06.04.2021
624 Clouds 25 1009 88 10000 3.29 90 12:43 06.04.2021
625 Clouds 25 1009 87 10000 2.61 94 12:24 06.04.2021
626 Clouds 25 1009 87 10000 2.61 94 11:54 06.04.2021
627 Clouds 25 1009 87 10000 2.61 94 11:36 06.04.2021
628 Clouds 25 1009 87 10000 1.75 95 11:18 06.04.2021
629 Clouds 25 1009 87 10000 1.75 95 10:38 06.04.2021
630 Clouds 25 1009 87 10000 1.26 113 10:19 06.04.2021
631 Clouds 25 1009 87 10000 1.26 113 09:42 06.04.2021
632 Clouds 25 1009 87 10000 1.24 148 08:48 06.04.2021
633 Clouds 25 1010 87 10000 2.19 123 08:19 06.04.2021
634 Clouds 25 1011 86 10000 2.59 117 06:56 06.04.2021
635 Clouds 25 1011 86 10000 2.67 127 06:23 06.04.2021
636 Clouds 26 1010 85 10000 2.27 127 03:43 06.04.2021
637 Clouds 28 1006 83 10000 4.63 220 00:47 06.04.2021
638 Clouds 28 1006 83 10000 4.63 220 00:21 06.04.2021
639 Clouds 28 1006 83 10000 3.6 210 23:48 05.04.2021
640 Clouds 28 1006 83 10000 3.6 210 23:24 05.04.2021
641 Clouds 29 1007 74 10000 4.12 180 22:53 05.04.2021
642 Clouds 29 1007 74 10000 4.12 180 22:32 05.04.2021
643 Clouds 29 1007 74 10000 5.66 190 21:45 05.04.2021
644 Clouds 29 1007 74 10000 5.66 190 21:23 05.04.2021
645 Clouds 29 1008 74 10000 6.17 180 20:48 05.04.2021
646 Clouds 29 1008 74 10000 6.17 180 20:30 05.04.2021
647 Clouds 29 1008 79 10000 3.09 210 19:44 05.04.2021
648 Clouds 29 1008 79 10000 3.09 210 19:25 05.04.2021
649 Clouds 28 1009 78 10000 3.09 180 18:55 05.04.2021
650 Clouds 28 1009 78 10000 3.09 180 18:37 05.04.2021
651 Clouds 28 1009 78 10000 3.09 180 18:18 05.04.2021
652 Clouds 26 1009 89 10000 1.54 210 17:45 05.04.2021
653 Clouds 26 1009 89 10000 1.54 210 17:21 05.04.2021
654 Clouds 26 1009 89 10000 1.54 210 17:21 05.04.2021
655 Clouds 25 1009 94 10000 2.06 190 16:44 05.04.2021
656 Clouds 25 1009 94 10000 2.06 190 16:21 05.04.2021
657 Clouds 25 1011 81 10000 0.42 140 15:56 05.04.2021
658 Clouds 25 1011 81 10000 0.42 140 15:30 05.04.2021
659 Clouds 25 1011 82 10000 0.17 281 14:54 05.04.2021
660 Clouds 25 1011 82 10000 0.17 281 14:35 05.04.2021
661 Clouds 25 1010 85 10000 0.2 119 13:32 05.04.2021
662 Clouds 25 1010 85 10000 0.85 142 12:57 05.04.2021
663 Clouds 25 1010 85 10000 0.85 142 12:37 05.04.2021
664 Clouds 25 1009 85 10000 1 119 12:19 05.04.2021
665 Clouds 25 1009 85 10000 1 119 11:42 05.04.2021
666 Clouds 25 1009 85 10000 0.34 91 11:22 05.04.2021
667 Clouds 25 1009 85 10000 0.34 91 10:45 05.04.2021
668 Clouds 25 1009 86 10000 0.8 111 10:26 05.04.2021
669 Clouds 25 1009 86 10000 0.8 111 09:47 05.04.2021
670 Clouds 25 1009 86 10000 0.82 101 09:23 05.04.2021
671 Clouds 25 1009 86 10000 0.82 101 08:45 05.04.2021
672 Clouds 25 1010 85 10000 1.19 115 08:25 05.04.2021
673 Clouds 25 1010 85 10000 1.19 115 07:36 05.04.2021
674 Clouds 25 1011 84 10000 2.01 94 06:20 05.04.2021
675 Clouds 26 1008 79 10000 0.88 143 01:41 05.04.2021
676 Clouds 29 1005 70 10000 5.14 140 00:38 05.04.2021
677 Clouds 29 1006 70 10000 4.12 160 23:47 04.04.2021
678 Rain 29 1006 70 10000 4.12 160 23:23 04.04.2021
679 Rain 30 1006 70 10000 5.14 170 22:50 04.04.2021
680 Clouds 30 1006 70 10000 5.14 170 22:29 04.04.2021
681 Clouds 30 1007 70 10000 5.66 180 21:27 04.04.2021
682 Clouds 30 1008 70 10000 5.66 160 20:56 04.04.2021
683 Clouds 30 1008 70 10000 5.66 160 20:30 04.04.2021
684 Clouds 30 1008 70 10000 5.66 160 20:30 04.04.2021
685 Clouds 29 1008 74 10000 4.63 150 19:54 04.04.2021
686 Clouds 29 1008 74 10000 4.63 150 19:36 04.04.2021
687 Clouds 29 1008 74 10000 4.63 150 19:18 04.04.2021
688 Clouds 27 1008 83 10000 2.06 340 18:41 04.04.2021
689 Clouds 27 1008 83 10000 2.06 340 18:20 04.04.2021
690 Clouds 27 1009 83 10000 2.06 350 17:41 04.04.2021
691 Clouds 27 1009 83 10000 2.06 350 17:41 04.04.2021
692 Clouds 27 1009 83 10000 2.06 350 17:41 04.04.2021
693 Clouds 27 1009 83 10000 2.06 350 17:22 04.04.2021
694 Clouds 27 1009 83 10000 2.06 350 17:22 04.04.2021
695 Clear 26 1008 89 10000 1.54 270 16:42 04.04.2021
696 Clear 26 1008 89 10000 1.54 270 16:18 04.04.2021
697 Clear 25 1011 83 10000 0.84 192 15:34 04.04.2021
698 Clear 25 1010 85 10000 0.74 175 14:46 04.04.2021
699 Clouds 25 1009 85 10000 0.82 166 14:27 04.04.2021
700 Clear 25 1009 85 10000 0.78 126 13:30 04.04.2021
701 Clouds 25 1009 86 10000 0.94 109 12:57 04.04.2021
702 Clouds 25 1009 86 10000 0.94 109 12:33 04.04.2021
703 Clouds 25 1009 86 10000 1.06 103 11:59 04.04.2021
704 Clouds 25 1009 86 10000 1.06 103 11:39 04.04.2021
705 Clouds 25 1009 87 10000 1.79 96 11:20 04.04.2021
706 Clouds 25 1009 87 10000 1.79 96 10:40 04.04.2021
707 Clouds 25 1009 87 10000 2.07 91 09:53 04.04.2021
708 Clouds 25 1009 87 10000 1.87 86 09:25 04.04.2021
709 Clouds 25 1009 87 10000 1.87 86 08:53 04.04.2021
710 Clouds 25 1009 87 10000 1.87 86 08:35 04.04.2021
711 Clouds 25 1009 87 10000 1.87 86 08:35 04.04.2021
712 Clouds 25 1010 88 10000 2.39 84 07:50 04.04.2021
713 Clouds 25 1011 88 10000 2.74 80 06:36 04.04.2021
714 Clouds 25 1011 88 10000 2.8 80 05:32 04.04.2021
715 Rain 26 1006 89 10000 2.57 30 01:28 04.04.2021
716 Rain 26 1006 89 10000 2.57 30 00:19 04.04.2021
717 Clouds 28 1006 78 10000 3.09 350 23:47 03.04.2021
718 Clouds 28 1006 78 10000 3.09 350 23:23 03.04.2021
719 Clouds 28 1006 83 10000 3.6 330 22:50 03.04.2021
720 Clouds 28 1006 83 10000 3.6 330 22:21 03.04.2021
721 Clouds 28 1007 83 10000 4.12 360 21:47 03.04.2021
722 Clouds 28 1007 83 10000 4.12 360 21:23 03.04.2021
723 Clouds 29 1008 74 10000 4.63 350 20:49 03.04.2021
724 Clouds 29 1008 74 10000 4.63 350 20:27 03.04.2021
725 Clouds 30 1009 70 10000 2.57 350 19:50 03.04.2021
726 Clouds 30 1009 70 10000 2.57 350 19:24 03.04.2021
727 Clear 26 1011 77 10000 1.35 180 18:48 03.04.2021
728 Clouds 27 1009 83 10000 4.12 150 18:30 03.04.2021
729 Clouds 27 1009 83 10000 4.12 150 17:51 03.04.2021
730 Clouds 27 1009 83 10000 4.12 150 17:25 03.04.2021
731 Clouds 27 1009 83 10000 3.09 180 16:51 03.04.2021
732 Clouds 27 1009 83 10000 3.09 180 16:21 03.04.2021
733 Clear 26 1010 79 10000 0.82 76 15:50 03.04.2021
734 Clear 26 1010 82 10000 0.17 186 15:22 03.04.2021
735 Clear 26 1010 82 10000 0.17 186 14:44 03.04.2021
736 Clear 26 1010 82 10000 0.17 186 14:44 03.04.2021
737 Clouds 25 1009 81 10000 1 42 14:23 03.04.2021
738 Clouds 25 1009 81 10000 1 42 13:50 03.04.2021
739 Clouds 25 1009 81 10000 0.49 44 13:24 03.04.2021
740 Clouds 25 1009 81 10000 0.49 44 12:56 03.04.2021
741 Clouds 25 1009 81 10000 0.49 44 12:32 03.04.2021
742 Clouds 25 1008 82 10000 0.72 41 11:39 03.04.2021
743 Clouds 25 1008 82 10000 0.72 41 11:39 03.04.2021
744 Clouds 25 1008 82 10000 1.53 26 10:58 03.04.2021
745 Clouds 25 1008 82 10000 1.53 26 10:40 03.04.2021
746 Clouds 25 1009 82 10000 1.2 43 10:18 03.04.2021
747 Clouds 26 1009 83 10000 1.48 49 09:28 03.04.2021
748 Clouds 26 1009 83 10000 1.48 49 08:58 03.04.2021
749 Clouds 26 1009 83 10000 1.48 49 08:30 03.04.2021
750 Clouds 26 1010 82 10000 2.57 74 07:29 03.04.2021
751 Clouds 26 1010 82 10000 2.57 74 06:44 03.04.2021
752 Clouds 26 1009 81 10000 0.97 282 03:53 03.04.2021
753 Clouds 27 1008 79 10000 1.27 240 02:51 03.04.2021
754 Clouds 26 1006 89 10000 3.6 30 02:26 03.04.2021
755 Clouds 26 1006 89 10000 2.06 330 00:23 03.04.2021
756 Clouds 27 1006 83 10000 2.57 330 23:49 02.04.2021
757 Clouds 27 1006 83 10000 2.57 330 23:24 02.04.2021
758 Clouds 27 1006 83 10000 3.09 360 22:55 02.04.2021
759 Clouds 27 1006 83 10000 3.09 360 22:36 02.04.2021
760 Clouds 27 1007 83 10000 2.57 10 21:46 02.04.2021
761 Clouds 27 1007 83 10000 2.57 10 21:24 02.04.2021
762 Clouds 28 1008 78 10000 3.09 30 20:52 02.04.2021
763 Clouds 28 1008 78 10000 3.09 30 20:33 02.04.2021
764 Clouds 28 1008 78 10000 2.57 280 19:58 02.04.2021
765 Clouds 28 1008 78 10000 2.57 280 19:39 02.04.2021
766 Clouds 28 1008 78 10000 2.57 280 19:20 02.04.2021
767 Clouds 27 1008 83 10000 3.09 350 18:39 02.04.2021
768 Clouds 27 1008 83 10000 3.09 350 18:39 02.04.2021
769 Clouds 27 1008 83 10000 3.09 350 18:20 02.04.2021
770 Clouds 26 1008 89 10000 2.57 50 17:37 02.04.2021
771 Clouds 26 1007 89 10000 3.09 360 16:48 02.04.2021
772 Clouds 26 1007 89 10000 3.09 360 16:22 02.04.2021
773 Clouds 26 1010 79 10000 0.33 332 15:33 02.04.2021
774 Clouds 26 1009 80 10000 0.73 338 14:55 02.04.2021
775 Clouds 25 1008 83 10000 0.93 279 14:29 02.04.2021
776 Clouds 25 1008 83 10000 0.93 279 13:42 02.04.2021
777 Clouds 25 1008 83 10000 1.05 269 13:20 02.04.2021
778 Clouds 25 1008 83 10000 1.05 269 12:41 02.04.2021
779 Clouds 25 1008 83 10000 1.05 269 12:41 02.04.2021
780 Clouds 25 1007 83 10000 1.18 270 12:20 02.04.2021
781 Clouds 25 1007 83 10000 1.18 270 11:54 02.04.2021
782 Clear 25 1007 83 10000 1.07 262 11:20 02.04.2021
783 Clear 25 1007 83 10000 1.07 262 10:46 02.04.2021
784 Clear 25 1007 84 10000 0.49 242 10:28 02.04.2021
785 Clear 25 1007 84 10000 0.49 242 09:53 02.04.2021
786 Clear 26 1008 84 10000 0.44 192 09:27 02.04.2021
787 Clear 26 1008 84 10000 0.44 192 08:51 02.04.2021
788 Clouds 26 1009 85 10000 1.22 194 08:29 02.04.2021
789 Clouds 26 1009 84 10000 1.29 194 07:23 02.04.2021
790 Clouds 26 1009 84 10000 1.29 194 06:47 02.04.2021
791 Clouds 26 1009 84 10000 1.19 152 04:49 02.04.2021
792 Clouds 26 1004 89 10000 1.54 330 02:27 02.04.2021
793 Clouds 27 1004 83 10000 2.57 300 00:47 02.04.2021
794 Clouds 27 1004 83 10000 2.57 300 00:18 02.04.2021
795 Clouds 27 1004 83 10000 2.57 300 00:18 02.04.2021
796 Clouds 28 1004 78 10000 3.6 290 23:30 01.04.2021
797 Clouds 28 1005 83 10000 3.09 310 22:52 01.04.2021
798 Clouds 28 1005 83 10000 3.09 310 22:19 01.04.2021
799 Clouds 28 1006 83 10000 2.57 300 21:49 01.04.2021
800 Clouds 28 1006 83 10000 2.57 300 21:25 01.04.2021
801 Clouds 28 1007 78 10000 3.09 330 20:43 01.04.2021
802 Clouds 28 1007 78 10000 3.09 330 20:24 01.04.2021
803 Clouds 28 1008 78 10000 3.09 310 19:46 01.04.2021
804 Clouds 28 1008 78 10000 3.09 310 19:27 01.04.2021
805 Clouds 27 1008 83 10000 2.57 310 18:45 01.04.2021
806 Clouds 27 1008 83 10000 2.57 310 18:18 01.04.2021
807 Clouds 26 1008 89 10000 1.54 360 17:47 01.04.2021
808 Clouds 26 1008 89 10000 1.54 360 17:29 01.04.2021
809 Clouds 26 1008 89 10000 2.06 270 16:51 01.04.2021
810 Clouds 26 1008 89 10000 2.06 270 16:24 01.04.2021
811 Clouds 26 1009 83 10000 2.26 145 15:43 01.04.2021
812 Clouds 25 1009 85 10000 2.65 145 15:19 01.04.2021
813 Clouds 25 1009 85 10000 2.65 145 14:42 01.04.2021
814 Clouds 25 1008 83 10000 2.02 163 14:23 01.04.2021
815 Clouds 25 1008 83 10000 2.02 163 13:52 01.04.2021
816 Clouds 25 1008 83 10000 2.02 163 13:30 01.04.2021
817 Clouds 25 1008 83 10000 1.71 165 12:49 01.04.2021
818 Clouds 25 1008 83 10000 1.71 165 12:30 01.04.2021
819 Clouds 25 1007 83 10000 1.79 156 11:47 01.04.2021
820 Clouds 25 1007 83 10000 1.8 144 11:24 01.04.2021
821 Clouds 25 1007 83 10000 1.8 144 10:53 01.04.2021
822 Clouds 25 1007 83 10000 1.8 144 10:35 01.04.2021
823 Clouds 25 1007 82 10000 1.77 149 09:54 01.04.2021
824 Clouds 26 1008 82 10000 1.87 148 09:24 01.04.2021
825 Clouds 25 1008 83 10000 1.77 156 08:33 01.04.2021
826 Clouds 26 1009 83 10000 1.9 157 07:57 01.04.2021
827 Clouds 26 1009 83 10000 1.9 152 07:19 01.04.2021
828 Clouds 26 1009 83 10000 1.9 152 06:42 01.04.2021
829 Clouds 26 1008 80 10000 1.08 126 03:30 01.04.2021
830 Clouds 26 1005 89 10000 3.09 30 00:49 01.04.2021
831 Clouds 26 1005 89 10000 1.54 350 23:44 31.03.2021
832 Clouds 26 1005 89 10000 1.54 350 23:18 31.03.2021
833 Clouds 27 1006 83 10000 3.09 360 22:41 31.03.2021
834 Clouds 27 1006 83 10000 3.09 360 22:20 31.03.2021
835 Clouds 27 1006 83 10000 3.09 350 21:45 31.03.2021
836 Clouds 27 1006 83 10000 3.09 350 21:23 31.03.2021
837 Clouds 28 1008 78 10000 2.57 310 20:44 31.03.2021
838 Clouds 28 1008 78 10000 2.57 310 20:24 31.03.2021
839 Clouds 27 1008 78 10000 2.06 300 19:59 31.03.2021
840 Clouds 27 1008 78 10000 2.06 300 19:36 31.03.2021
841 Clouds 27 1008 78 10000 2.06 300 19:18 31.03.2021
842 Clouds 27 1009 78 10000 2.57 310 18:43 31.03.2021
843 Clouds 27 1008 78 10000 2.06 300 17:56 31.03.2021
844 Clouds 27 1008 78 10000 2.06 300 17:34 31.03.2021
845 Clouds 26 1008 83 10000 1.54 310 16:58 31.03.2021
846 Clouds 26 1008 83 10000 1.54 310 16:37 31.03.2021
847 Clouds 26 1008 83 10000 1.54 310 16:19 31.03.2021
848 Clouds 26 1008 83 10000 1.54 310 16:19 31.03.2021
849 Clouds 25 1010 82 10000 2.04 55 15:50 31.03.2021
850 Clouds 25 1009 83 10000 2.4 56 15:19 31.03.2021
851 Clouds 25 1009 83 10000 2.4 56 14:43 31.03.2021
852 Clouds 25 1008 84 10000 2.71 56 14:20 31.03.2021
853 Clouds 25 1008 84 10000 2.59 61 13:41 31.03.2021
854 Clouds 25 1008 84 10000 2.8 65 12:42 31.03.2021
855 Clouds 25 1008 84 10000 2.31 71 12:20 31.03.2021
856 Clouds 25 1008 84 10000 2.31 71 11:47 31.03.2021
857 Clouds 25 1007 84 10000 2.34 76 11:20 31.03.2021
858 Clouds 25 1007 84 10000 2.34 76 11:20 31.03.2021
859 Clouds 25 1007 84 10000 2.34 76 10:46 31.03.2021
860 Clouds 25 1008 84 10000 2.17 73 10:24 31.03.2021
861 Clouds 25 1008 84 10000 2.17 73 09:38 31.03.2021
862 Clouds 25 1008 84 10000 2.29 60 08:55 31.03.2021
863 Clear 25 1008 85 10000 2.43 68 08:34 31.03.2021
864 Clouds 25 1009 85 10000 2.59 71 07:52 31.03.2021
865 Clouds 25 1010 85 10000 2.82 71 06:39 31.03.2021
866 Clouds 26 1009 83 10000 2.84 65 03:51 31.03.2021
867 Clouds 28 1005 83 10000 3.6 20 01:38 31.03.2021
868 Clouds 28 1005 83 10000 3.6 20 00:48 31.03.2021
869 Clouds 28 1005 83 10000 3.6 20 00:19 31.03.2021
870 Clouds 28 1005 78 10000 4.12 180 23:33 30.03.2021
871 Clouds 27 1006 89 10000 2.57 360 22:58 30.03.2021
872 Clouds 27 1006 89 10000 2.57 360 22:39 30.03.2021
873 Clouds 27 1006 89 10000 2.57 360 22:21 30.03.2021
874 Clouds 26 1007 94 10000 3.09 350 21:46 30.03.2021
875 Clouds 26 1007 94 10000 3.09 350 21:20 30.03.2021
876 Clouds 26 1007 94 10000 3.09 350 21:20 30.03.2021
877 Clouds 27 1008 89 10000 2.57 320 20:51 30.03.2021
878 Clouds 27 1008 89 10000 2.57 320 20:28 30.03.2021
879 Clouds 27 1008 83 10000 3.6 320 19:50 30.03.2021
880 Clouds 27 1008 83 10000 3.6 320 19:27 30.03.2021
881 Clouds 27 1008 78 10000 3.6 330 18:38 30.03.2021
882 Clouds 27 1008 78 10000 2.57 330 17:52 30.03.2021
883 Clouds 27 1008 78 10000 2.57 330 17:34 30.03.2021
884 Clouds 26 1008 83 10000 1.54 360 16:48 30.03.2021
885 Clouds 26 1008 83 10000 1.54 360 16:28 30.03.2021
886 Clouds 26 1010 80 10000 3.09 81 15:43 30.03.2021
887 Clouds 25 1009 81 10000 2.99 85 15:20 30.03.2021
888 Clouds 25 1009 81 10000 2.99 85 15:20 30.03.2021
889 Clouds 25 1009 81 10000 3.3 85 14:55 30.03.2021
890 Clear 25 1008 82 10000 2.97 82 14:21 30.03.2021
891 Clear 25 1008 82 10000 2.97 82 13:54 30.03.2021
892 Clear 25 1008 82 10000 2.97 82 13:36 30.03.2021
893 Clear 25 1008 82 10000 2.8 76 12:45 30.03.2021
894 Clear 25 1008 82 10000 2.41 79 12:26 30.03.2021
895 Clear 25 1008 82 10000 2.41 79 11:52 30.03.2021
896 Clear 25 1008 82 10000 2.48 82 11:22 30.03.2021
897 Clear 25 1008 82 10000 2.48 82 10:43 30.03.2021
898 Clear 25 1008 82 10000 2.79 81 10:20 30.03.2021
899 Clear 25 1008 82 10000 2.79 81 09:43 30.03.2021
900 Clear 26 1008 82 10000 3.29 82 09:24 30.03.2021
901 Clear 26 1008 82 10000 3.29 82 08:51 30.03.2021
902 Clear 26 1008 82 10000 3.29 82 08:32 30.03.2021
903 Clear 26 1009 83 10000 3.53 84 07:50 30.03.2021
904 Clouds 26 1010 84 10000 3.55 89 07:21 30.03.2021
905 Clouds 26 1010 84 10000 3.4 108 05:25 30.03.2021
906 Clouds 26 1010 84 10000 3.4 108 04:45 30.03.2021
907 Clouds 28 1005 83 10000 3.09 240 00:26 30.03.2021
908 Clouds 28 1006 83 10000 3.09 270 23:29 29.03.2021
909 Clouds 27 1006 89 10000 3.09 280 22:43 29.03.2021
910 Clouds 27 1006 89 10000 3.09 280 22:43 29.03.2021
911 Clouds 27 1007 83 10000 5.14 300 21:59 29.03.2021
912 Clouds 27 1007 83 10000 5.14 300 21:37 29.03.2021
913 Clouds 27 1008 83 10000 4.12 310 20:59 29.03.2021
914 Clouds 27 1008 83 10000 4.12 310 20:37 29.03.2021
915 Clouds 27 1009 83 10000 4.63 330 19:57 29.03.2021
916 Clouds 27 1009 83 10000 4.63 330 19:34 29.03.2021
917 Clouds 27 1009 83 10000 2.57 330 18:58 29.03.2021
918 Clouds 27 1009 83 10000 2.57 330 18:39 29.03.2021
919 Clouds 27 1009 83 10000 2.57 330 18:20 29.03.2021
920 Clouds 27 1009 83 10000 2.57 330 18:20 29.03.2021
921 Clouds 27 1009 83 10000 2.57 330 18:20 29.03.2021
922 Clouds 26 1009 89 10000 1.54 330 17:38 29.03.2021
923 Clouds 26 1008 94 10000 1.54 10 16:55 29.03.2021
924 Clouds 26 1008 94 10000 1.54 10 16:34 29.03.2021
925 Clouds 26 1011 80 10000 3.11 92 15:47 29.03.2021
926 Clouds 25 1010 81 10000 2.76 92 15:28 29.03.2021
927 Clouds 25 1010 81 10000 2.76 92 14:49 29.03.2021
928 Clear 25 1009 83 10000 2.93 96 14:28 29.03.2021
929 Clear 25 1009 83 10000 2.93 96 13:47 29.03.2021
930 Clear 25 1008 83 10000 2.91 91 13:24 29.03.2021
931 Clear 25 1008 83 10000 2.91 91 12:50 29.03.2021
932 Clear 25 1008 82 10000 2.9 88 11:49 29.03.2021
933 Clear 25 1008 82 10000 2.9 88 11:30 29.03.2021
934 Clear 25 1008 82 10000 3.08 85 10:55 29.03.2021
935 Clear 25 1008 82 10000 3.08 85 10:34 29.03.2021
936 Clear 25 1008 83 10000 3.53 86 09:37 29.03.2021
937 Clear 25 1009 82 10000 3.3 85 08:51 29.03.2021
938 Clear 25 1009 82 10000 2.94 88 08:27 29.03.2021
939 Clear 25 1010 82 10000 2.67 92 07:28 29.03.2021
940 Clear 25 1010 81 10000 2.44 80 06:26 29.03.2021
941 Clear 26 1009 80 10000 2.47 71 03:35 29.03.2021
942 Clouds 27 1004 89 10000 3.09 10 00:55 29.03.2021
943 Clouds 27 1004 89 10000 3.09 10 00:20 29.03.2021
944 Clouds 27 1005 89 10000 4.63 360 23:31 28.03.2021
945 Clouds 28 1005 83 10000 3.6 350 22:54 28.03.2021
946 Clouds 28 1005 83 10000 3.6 350 22:35 28.03.2021
947 Clouds 27 1006 89 10000 2.06 300 21:59 28.03.2021
948 Clouds 27 1006 89 10000 2.06 300 21:40 28.03.2021
949 Clouds 27 1006 89 10000 2.06 300 21:40 28.03.2021
950 Clouds 27 1006 89 10000 2.06 300 21:22 28.03.2021
951 Rain 26 1008 89 10000 2.57 10 20:47 28.03.2021
952 Rain 26 1008 89 10000 2.57 10 20:29 28.03.2021
953 Rain 26 1008 89 10000 2.57 360 19:43 28.03.2021
954 Rain 26 1008 89 10000 2.57 360 19:22 28.03.2021
955 Clouds 26 1009 89 10000 2.06 330 18:53 28.03.2021
956 Clouds 26 1009 89 10000 2.06 330 18:25 28.03.2021
957 Clouds 26 1009 89 10000 2.06 20 17:46 28.03.2021
958 Clouds 26 1009 89 10000 2.06 20 17:22 28.03.2021
959 Clouds 26 1008 83 10000 1.54 30 16:43 28.03.2021
960 Clouds 26 1008 83 10000 1.54 30 16:22 28.03.2021
961 Clear 25 1010 82 10000 2.19 59 15:25 28.03.2021
962 Clear 25 1010 82 10000 2.19 59 14:50 28.03.2021
963 Clouds 25 1009 83 10000 2.11 68 14:27 28.03.2021
964 Clouds 25 1009 84 10000 2.72 56 13:38 28.03.2021
965 Clouds 25 1009 85 10000 2.93 65 13:00 28.03.2021
966 Clouds 25 1009 85 10000 2.93 65 12:37 28.03.2021
967 Clouds 25 1008 86 10000 3.19 70 12:19 28.03.2021
968 Clouds 25 1008 86 10000 3.19 70 11:39 28.03.2021
969 Clouds 25 1008 86 10000 3.19 70 11:39 28.03.2021
970 Clouds 25 1008 86 10000 3.21 73 10:56 28.03.2021
971 Clouds 25 1008 86 10000 3.21 73 10:37 28.03.2021
972 Clouds 25 1008 86 10000 3.14 78 10:18 28.03.2021
973 Clouds 25 1008 84 10000 2.92 81 09:43 28.03.2021
974 Clear 25 1009 83 10000 2.75 82 09:23 28.03.2021
975 Clear 25 1009 83 10000 2.75 82 08:38 28.03.2021
976 Clouds 25 1010 82 10000 2.64 96 07:44 28.03.2021
977 Clouds 26 1011 81 10000 3.02 92 06:22 28.03.2021
978 Clouds 26 1010 80 10000 3.04 102 03:51 28.03.2021
979 Clouds 26 1008 76 10000 2.16 115 00:48 28.03.2021
980 Clouds 29 1005 74 10000 3.09 360 00:18 28.03.2021
981 Clouds 29 1005 74 10000 3.09 360 23:37 27.03.2021
982 Clouds 29 1006 74 10000 4.12 300 22:50 27.03.2021
983 Clouds 29 1006 74 10000 4.12 300 22:31 27.03.2021
984 Clouds 29 1007 74 10000 3.6 330 21:45 27.03.2021
985 Clouds 29 1007 74 10000 3.6 330 21:21 27.03.2021
986 Clouds 29 1007 74 10000 3.6 330 21:21 27.03.2021
987 Clouds 29 1008 74 10000 4.63 330 20:59 27.03.2021
988 Clouds 29 1008 74 10000 4.63 330 20:37 27.03.2021
989 Clouds 29 1009 74 10000 4.63 310 19:59 27.03.2021
990 Clouds 29 1009 74 10000 4.63 310 19:40 27.03.2021
991 Clouds 29 1009 74 10000 4.63 310 19:22 27.03.2021
992 Clouds 28 1009 78 10000 3.09 330 18:47 27.03.2021
993 Clouds 28 1009 78 10000 3.09 330 18:22 27.03.2021
994 Clouds 29 1010 70 10000 2.57 310 17:37 27.03.2021
995 Clouds 29 1010 70 10000 2.57 310 17:18 27.03.2021
996 Clouds 27 1010 78 10000 2.06 270 16:43 27.03.2021
997 Clouds 27 1010 78 10000 2.06 270 16:23 27.03.2021
998 Clouds 26 1009 83 10000 1.03 30 15:45 27.03.2021
999 Clouds 26 1011 75 10000 3.27 107 14:59 27.03.2021
1000 Clouds 26 1011 75 10000 3.27 107 14:38 27.03.2021
1001 Clouds 25 1011 76 10000 3.15 105 13:39 27.03.2021
1002 Clouds 25 1010 76 10000 2.53 106 13:19 27.03.2021
1003 Clouds 25 1010 76 10000 2.53 106 12:43 27.03.2021
1004 Clouds 25 1010 76 10000 2.23 106 11:50 27.03.2021
1005 Clouds 25 1010 76 10000 2.23 106 11:31 27.03.2021
1006 Clouds 25 1010 76 10000 2.39 98 10:49 27.03.2021
1007 Clouds 25 1010 76 10000 2.39 98 10:30 27.03.2021
1008 Clouds 25 1009 76 10000 1.99 100 09:47 27.03.2021
1009 Clouds 25 1010 75 10000 1.79 101 09:18 27.03.2021
1010 Clouds 25 1010 75 10000 1.79 101 08:38 27.03.2021
1011 Clouds 26 1010 75 10000 2.06 101 07:48 27.03.2021
1012 Clouds 26 1012 73 10000 2.18 101 06:59 27.03.2021
1013 Clouds 26 1012 73 10000 2.18 101 06:39 27.03.2021
1014 Clouds 26 1012 72 10000 2.11 111 04:41 27.03.2021
1015 Clouds 26 1010 72 10000 2.57 126 01:36 27.03.2021
1016 Clouds 28 1008 78 10000 3.09 330 00:32 27.03.2021
1017 Clouds 28 1008 78 10000 3.09 330 23:59 26.03.2021
1018 Clouds 28 1008 78 10000 3.09 330 23:23 26.03.2021
1019 Clouds 28 1008 78 10000 2.57 350 22:37 26.03.2021
1020 Clouds 28 1009 74 10000 3.09 10 21:41 26.03.2021
1021 Clouds 28 1009 74 10000 3.09 10 21:22 26.03.2021
1022 Clouds 28 1010 78 10000 2.57 280 20:49 26.03.2021
1023 Clouds 28 1010 78 10000 2.57 280 20:30 26.03.2021
1024 Clouds 28 1010 78 10000 2.57 280 20:30 26.03.2021
1025 Clouds 28 1010 78 10000 2.57 280 20:30 26.03.2021
1026 Clouds 28 1011 78 10000 2.57 270 19:50 26.03.2021
1027 Clouds 28 1011 78 10000 2.57 270 19:30 26.03.2021
1028 Clouds 27 1011 78 10000 3.09 310 18:46 26.03.2021
1029 Clouds 27 1011 78 10000 3.09 310 18:27 26.03.2021
1030 Clouds 27 1011 78 10000 1.54 280 17:49 26.03.2021
1031 Clouds 27 1011 78 10000 1.54 280 17:18 26.03.2021
1032 Clouds 27 1011 83 10000 2.57 360 16:33 26.03.2021
1033 Clouds 27 1011 83 10000 1.03 50 15:58 26.03.2021
1034 Clouds 27 1011 83 10000 1.03 50 15:58 26.03.2021
1035 Clouds 27 1011 83 10000 1.03 50 15:24 26.03.2021
1036 Clouds 26 1012 73 10000 3.87 95 14:34 26.03.2021
1037 Clouds 26 1012 74 10000 3.79 90 13:42 26.03.2021
1038 Clouds 26 1011 74 10000 3.91 97 12:58 26.03.2021
1039 Clouds 26 1011 74 10000 3.91 97 12:34 26.03.2021
1040 Clouds 26 1010 74 10000 3.86 95 11:38 26.03.2021
1041 Clouds 26 1010 73 10000 3.54 95 11:18 26.03.2021
1042 Clouds 26 1010 73 10000 3.54 95 10:41 26.03.2021
1043 Clouds 26 1010 73 10000 3.41 96 09:56 26.03.2021
1044 Clouds 26 1010 73 10000 3.41 96 09:36 26.03.2021
1045 Clouds 26 1010 73 10000 3.21 89 08:44 26.03.2021
1046 Clouds 26 1011 73 10000 2.95 81 08:23 26.03.2021
1047 Clouds 26 1011 74 10000 3.25 82 07:40 26.03.2021
1048 Clouds 26 1012 73 10000 3.06 79 07:18 26.03.2021
1049 Clouds 26 1012 73 10000 3.06 79 06:53 26.03.2021
1050 Clouds 26 1012 73 10000 3.16 75 05:31 26.03.2021
1051 Clouds 27 1011 74 10000 4.2 70 02:31 26.03.2021
1052 Clouds 27 1007 83 10000 1.54 280 00:32 26.03.2021
1053 Clouds 27 1007 83 10000 1.54 280 23:45 25.03.2021
1054 Clouds 27 1007 83 10000 1.54 280 23:20 25.03.2021
1055 Clouds 28 1007 83 10000 3.09 30 22:37 25.03.2021
1056 Clouds 28 1007 83 10000 3.09 30 22:37 25.03.2021
1057 Clouds 28 1008 83 10000 6.17 40 21:53 25.03.2021
1058 Clouds 28 1008 83 10000 6.17 40 21:34 25.03.2021
1059 Clouds 27 1009 83 10000 7.2 30 20:45 25.03.2021
1060 Clouds 27 1009 83 10000 7.2 30 20:26 25.03.2021
1061 Rain 27 1010 83 10000 1.54 180 19:49 25.03.2021
1062 Rain 27 1010 83 10000 1.54 180 19:49 25.03.2021
1063 Rain 27 1010 83 10000 1.54 180 19:31 25.03.2021
1064 Rain 26 1011 89 10000 5.14 30 18:51 25.03.2021
1065 Rain 26 1011 89 10000 5.14 30 18:28 25.03.2021
1066 Clouds 27 1011 83 10000 3.09 40 17:57 25.03.2021
1067 Clouds 27 1011 83 10000 3.09 40 17:37 25.03.2021
1068 Clouds 28 1011 78 10000 2.06 30 16:56 25.03.2021
1069 Clouds 28 1011 78 10000 2.06 30 16:32 25.03.2021
1070 Clouds 27 1011 83 10000 1.03 80 15:46 25.03.2021
1071 Clouds 27 1011 83 10000 1.03 80 15:24 25.03.2021
1072 Clouds 26 1013 75 10000 4.12 69 14:48 25.03.2021
1073 Clouds 26 1012 77 10000 4.17 68 14:29 25.03.2021
1074 Clouds 26 1011 76 10000 3.78 62 13:25 25.03.2021
1075 Clouds 26 1011 76 10000 3.78 62 12:46 25.03.2021
1076 Clouds 26 1010 77 10000 3.8 66 12:22 25.03.2021
1077 Clouds 26 1010 77 10000 3.8 66 11:53 25.03.2021
1078 Clouds 26 1010 77 10000 3.8 66 11:53 25.03.2021
1079 Clouds 26 1010 77 10000 3.8 66 11:31 25.03.2021
1080 Clouds 26 1010 77 10000 3.74 69 10:57 25.03.2021
1081 Clouds 26 1010 77 10000 3.74 69 10:39 25.03.2021
1082 Clouds 26 1009 77 10000 3.77 67 10:18 25.03.2021
1083 Clouds 26 1009 77 10000 3.77 67 10:18 25.03.2021
1084 Clouds 26 1009 77 10000 3.77 67 09:42 25.03.2021
1085 Rain 26 1009 78 10000 3.89 63 08:58 25.03.2021
1086 Rain 26 1010 78 10000 4.16 66 08:29 25.03.2021
1087 Rain 26 1011 79 10000 3.69 67 07:24 25.03.2021
1088 Rain 26 1012 79 10000 3.15 70 06:27 25.03.2021
1089 Rain 26 1012 79 10000 3.15 70 05:49 25.03.2021
1090 Rain 26 1012 78 10000 2.7 73 04:33 25.03.2021
1091 Clouds 27 1010 74 10000 2 81 00:44 25.03.2021
1092 Rain 25 1007 94 10000 1.03 270 00:18 25.03.2021
1093 Rain 25 1007 94 10000 1.03 270 23:33 24.03.2021
1094 Rain 25 1007 94 8000 1.54 30 22:51 24.03.2021
1095 Rain 25 1007 94 8000 1.54 30 22:32 24.03.2021
1096 Rain 25 1008 94 6000 3.09 60 21:47 24.03.2021
1097 Rain 25 1008 94 6000 3.09 60 21:47 24.03.2021
1098 Rain 25 1008 94 6000 3.09 60 21:25 24.03.2021
1099 Rain 27 1010 76 10000 2.39 92 20:46 24.03.2021
1100 Rain 27 1010 76 10000 2.39 92 20:46 24.03.2021
1101 Rain 25 1010 94 6000 2.06 30 20:21 24.03.2021
1102 Rain 25 1010 94 6000 2.06 30 19:59 24.03.2021
1103 Rain 25 1010 94 6000 2.06 30 19:31 24.03.2021
1104 Rain 26 1011 89 8000 2.06 30 18:51 24.03.2021
1105 Rain 26 1011 89 8000 2.06 30 18:24 24.03.2021
1106 Rain 27 1013 76 10000 2.18 83 17:52 24.03.2021
1107 Rain 27 1013 76 10000 2.18 83 17:32 24.03.2021
1108 Rain 27 1013 76 10000 2.18 83 17:32 24.03.2021
1109 Rain 28 1011 78 10000 3.6 30 16:53 24.03.2021
1110 Rain 28 1011 78 10000 3.6 30 16:31 24.03.2021
1111 Rain 27 1010 83 10000 3.09 30 15:55 24.03.2021
1112 Rain 27 1010 83 10000 3.09 30 15:33 24.03.2021
1113 Clouds 26 1012 77 10000 2.9 77 14:48 24.03.2021
1114 Rain 26 1012 78 10000 2.76 76 14:28 24.03.2021
1115 Rain 26 1012 78 10000 2.76 76 13:57 24.03.2021
1116 Rain 26 1011 78 10000 2.42 72 13:28 24.03.2021
1117 Rain 26 1011 78 10000 2.35 77 12:45 24.03.2021
1118 Rain 26 1010 77 10000 1.98 72 12:23 24.03.2021
1119 Rain 26 1010 77 10000 1.98 72 11:49 24.03.2021
1120 Rain 26 1010 77 10000 1.72 67 10:59 24.03.2021
1121 Rain 26 1010 77 10000 1.72 67 10:41 24.03.2021
1122 Rain 26 1010 77 10000 1.53 64 10:22 24.03.2021
1123 Rain 26 1010 77 10000 1.53 64 09:53 24.03.2021
1124 Rain 26 1010 77 10000 1.49 54 09:22 24.03.2021
1125 Rain 26 1010 77 10000 1.49 54 08:52 24.03.2021
1126 Rain 26 1011 77 10000 1.36 48 08:26 24.03.2021
1127 Rain 26 1011 77 10000 1.36 48 07:41 24.03.2021
1128 Rain 26 1011 78 10000 1.69 46 06:54 24.03.2021
1129 Rain 27 1012 77 10000 1.97 52 05:35 24.03.2021
1130 Rain 27 1009 71 10000 0.83 95 00:55 24.03.2021
1131 Clouds 27 1006 83 10000 2.57 30 00:25 24.03.2021
1132 Rain 27 1006 83 10000 2.57 30 23:22 23.03.2021
1133 Rain 27 1007 83 10000 3.09 30 22:55 23.03.2021
1134 Rain 27 1007 83 10000 3.09 30 22:36 23.03.2021
1135 Rain 27 1008 83 10000 2.57 30 21:54 23.03.2021
1136 Rain 27 1008 83 10000 2.57 30 21:34 23.03.2021
1137 Rain 27 1009 83 10000 2.57 360 20:56 23.03.2021
1138 Rain 27 1009 83 10000 2.57 360 20:38 23.03.2021
1139 Rain 27 1009 83 10000 2.57 360 20:19 23.03.2021
1140 Rain 26 1009 89 10000 3.09 30 19:41 23.03.2021
1141 Rain 26 1009 89 10000 3.09 30 19:22 23.03.2021
1142 Rain 27 1011 83 10000 2.06 50 18:38 23.03.2021
1143 Clouds 27 1011 83 10000 2.06 50 18:19 23.03.2021
1144 Clouds 26 1011 89 10000 3.09 30 17:43 23.03.2021
1145 Clouds 26 1011 89 10000 3.09 30 17:21 23.03.2021
1146 Clouds 26 1011 89 10000 3.09 30 17:21 23.03.2021
1147 Rain 27 1011 89 10000 2.06 330 16:26 23.03.2021
1148 Rain 27 1010 89 10000 1.03 30 15:50 23.03.2021
1149 Clouds 27 1010 89 10000 1.03 30 15:24 23.03.2021
1150 Clouds 27 1013 74 10000 2.66 105 14:49 23.03.2021
1151 Clear 27 1012 75 10000 2.37 103 14:19 23.03.2021
1152 Clear 27 1012 75 10000 2.37 103 14:19 23.03.2021
1153 Clear 27 1012 75 10000 2.37 103 13:47 23.03.2021
1154 Clear 26 1011 76 10000 2.05 107 13:24 23.03.2021
1155 Clear 26 1011 76 10000 2.23 104 12:45 23.03.2021
1156 Clear 26 1010 76 10000 2.11 112 12:26 23.03.2021
1157 Clear 26 1010 76 10000 2.11 112 11:49 23.03.2021
1158 Clear 26 1010 76 10000 2.11 112 11:49 23.03.2021
1159 Clear 26 1010 76 10000 2.01 121 11:21 23.03.2021
1160 Clear 26 1010 76 10000 2.01 121 10:42 23.03.2021
1161 Clear 26 1010 76 10000 1.89 129 10:21 23.03.2021
1162 Clear 26 1010 76 10000 1.89 129 09:51 23.03.2021
1163 Clear 26 1010 76 10000 1.69 136 09:23 23.03.2021
1164 Clear 26 1010 76 10000 1.69 136 08:55 23.03.2021
1165 Clear 26 1010 76 10000 1.69 136 08:37 23.03.2021
1166 Rain 26 1011 76 10000 1.48 125 08:18 23.03.2021
1167 Rain 27 1012 75 10000 1.54 116 07:27 23.03.2021
1168 Rain 27 1012 74 10000 1.41 84 06:52 23.03.2021
1169 Rain 27 1012 74 10000 2.35 86 03:24 23.03.2021
1170 Rain 27 1011 73 10000 2.46 89 02:29 23.03.2021
1171 Rain 29 1008 74 10000 1.54 330 23:47 22.03.2021
1172 Rain 29 1007 74 10000 3.09 190 22:59 22.03.2021
1173 Rain 29 1007 74 10000 3.09 190 22:40 22.03.2021
1174 Rain 29 1007 74 10000 3.09 190 22:20 22.03.2021
1175 Rain 26 1008 89 10000 3.09 360 21:46 22.03.2021
1176 Rain 26 1008 89 10000 3.09 360 21:26 22.03.2021
1177 Rain 29 1009 74 10000 2.06 360 20:42 22.03.2021
1178 Rain 29 1009 74 10000 2.06 360 20:24 22.03.2021
1179 Clouds 30 1009 70 10000 3.6 180 19:57 22.03.2021
1180 Clouds 30 1009 70 10000 3.6 180 19:37 22.03.2021
1181 Clouds 30 1009 70 10000 3.6 180 19:19 22.03.2021
1182 Clouds 30 1010 70 10000 5.14 180 18:40 22.03.2021
1183 Clouds 30 1010 70 10000 5.14 180 18:21 22.03.2021
1184 Clouds 29 1011 74 10000 2.57 180 17:48 22.03.2021
1185 Clouds 29 1011 74 10000 2.57 180 17:22 22.03.2021
1186 Clouds 28 1011 78 10000 5.14 150 16:47 22.03.2021
1187 Clouds 28 1011 78 10000 5.14 150 16:22 22.03.2021
1188 Clouds 27 1010 89 10000 1.54 130 15:39 22.03.2021
1189 Clouds 27 1010 89 10000 1.54 130 15:20 22.03.2021
1190 Clouds 27 1013 71 10000 1.32 212 14:57 22.03.2021
1191 Clouds 27 1013 71 10000 1.32 212 14:34 22.03.2021
1192 Clouds 27 1012 71 10000 1.3 215 13:49 22.03.2021
1193 Clouds 26 1011 71 10000 1.61 223 13:28 22.03.2021
1194 Clouds 26 1011 73 10000 1.85 204 12:56 22.03.2021
1195 Clouds 26 1010 73 10000 2.1 209 12:26 22.03.2021
1196 Clouds 26 1010 73 10000 2.1 209 11:50 22.03.2021
1197 Clouds 27 1010 72 10000 2.08 217 11:29 22.03.2021
1198 Clouds 27 1010 72 10000 2.08 217 10:46 22.03.2021
1199 Clouds 27 1010 72 10000 1.93 215 10:26 22.03.2021
1200 Clouds 27 1010 72 10000 1.93 215 09:53 22.03.2021
1201 Clouds 27 1010 72 10000 1.93 215 09:32 22.03.2021
1202 Clouds 27 1011 72 10000 1.82 202 08:47 22.03.2021
1203 Clouds 27 1011 71 10000 1.58 196 08:28 22.03.2021
1204 Clouds 27 1011 71 10000 1.58 196 07:50 22.03.2021
1205 Clouds 27 1011 71 10000 1.58 196 07:31 22.03.2021
1206 Clouds 27 1012 72 10000 1.56 199 06:51 22.03.2021
1207 Clouds 27 1011 72 10000 1.13 181 02:47 22.03.2021
1208 Clouds 27 1010 68 10000 1.99 218 00:48 22.03.2021
1209 Clouds 28 1007 78 10000 2.57 360 23:59 21.03.2021
1210 Rain 28 1007 78 10000 2.57 360 23:20 21.03.2021
1211 Rain 28 1008 78 10000 5.14 60 22:59 21.03.2021
1212 Rain 28 1008 78 10000 5.14 60 22:38 21.03.2021
1213 Clouds 29 1008 84 10000 1.54 270 21:43 21.03.2021
1214 Clouds 29 1008 84 10000 1.54 270 21:24 21.03.2021
1215 Clouds 29 1008 84 10000 1.54 270 21:24 21.03.2021
1216 Rain 27 1010 83 8000 3.09 270 20:55 21.03.2021
1217 Rain 27 1010 83 8000 3.09 270 20:36 21.03.2021
1218 Rain 27 1010 83 8000 3.09 270 20:18 21.03.2021
1219 Rain 29 1010 74 10000 3.09 270 19:29 21.03.2021
1220 Clouds 27 1010 83 10000 0.51 180 18:58 21.03.2021
1221 Clouds 27 1010 83 10000 0.51 180 18:40 21.03.2021
1222 Clouds 27 1011 83 10000 2.06 270 17:59 21.03.2021
1223 Clouds 27 1011 83 10000 2.06 270 17:40 21.03.2021
1224 Clouds 27 1011 83 10000 2.06 270 17:18 21.03.2021
1225 Clouds 27 1011 89 10000 1.54 300 16:48 21.03.2021
1226 Clouds 27 1011 89 10000 1.54 300 16:22 21.03.2021
1227 Clouds 27 1010 89 10000 1.54 20 15:42 21.03.2021
1228 Clouds 27 1010 89 10000 1.54 20 15:20 21.03.2021
1229 Clouds 27 1012 74 10000 1.87 359 14:46 21.03.2021
1230 Clouds 26 1011 75 10000 1.76 352 14:27 21.03.2021
1231 Clouds 26 1011 75 10000 1.76 352 13:57 21.03.2021
1232 Clouds 26 1011 75 10000 1.76 352 13:38 21.03.2021
1233 Clouds 26 1010 72 10000 0.98 348 12:42 21.03.2021
1234 Clouds 26 1009 74 10000 1.83 16 12:24 21.03.2021
1235 Clouds 26 1009 74 10000 1.83 16 11:41 21.03.2021
1236 Clouds 26 1009 75 10000 2.26 20 11:20 21.03.2021
1237 Clouds 26 1009 75 10000 2.26 20 10:43 21.03.2021
1238 Clouds 26 1009 75 10000 2.57 25 10:25 21.03.2021
1239 Clouds 26 1009 75 10000 2.57 25 09:47 21.03.2021
1240 Clouds 26 1010 76 10000 2.93 30 09:29 21.03.2021
1241 Clouds 26 1010 76 10000 2.93 30 08:47 21.03.2021
1242 Clouds 26 1010 76 10000 2.98 27 08:26 21.03.2021
1243 Clouds 26 1010 76 10000 2.98 27 07:39 21.03.2021
1244 Clouds 26 1011 76 10000 3 36 07:19 21.03.2021
1245 Clouds 27 1012 75 10000 3.22 51 05:55 21.03.2021
1246 Clouds 27 1010 72 10000 3.16 54 02:34 21.03.2021
1247 Clouds 27 1009 70 10000 2.06 62 00:43 21.03.2021
1248 Clouds 28 1006 78 10000 2.57 30 00:24 21.03.2021
1249 Clouds 28 1006 78 10000 2.57 30 23:50 20.03.2021
1250 Clouds 28 1006 78 10000 2.57 30 23:24 20.03.2021
1251 Clouds 26 1006 89 10000 1.54 330 22:57 20.03.2021
1252 Clouds 26 1006 89 10000 1.54 330 22:23 20.03.2021
1253 Rain 24 1007 94 10000 1.54 210 21:47 20.03.2021
1254 Rain 24 1007 94 10000 1.54 210 21:25 20.03.2021
1255 Clouds 27 1009 71 10000 2.87 54 20:48 20.03.2021
1256 Clear 27 1010 72 10000 2.73 53 20:23 20.03.2021
1257 Clouds 27 1009 89 10000 2.57 360 19:51 20.03.2021
1258 Clouds 27 1009 89 10000 2.57 360 19:28 20.03.2021
1259 Rain 26 1010 94 10000 1.03 90 18:50 20.03.2021
1260 Rain 26 1010 94 10000 1.03 90 18:27 20.03.2021
1261 Clouds 27 1012 73 10000 2.66 47 17:58 20.03.2021
1262 Clouds 27 1010 83 10000 3.09 300 17:39 20.03.2021
1263 Clouds 27 1010 83 10000 3.09 300 17:19 20.03.2021
1264 Clouds 28 1010 83 10000 2.57 360 16:38 20.03.2021
1265 Clouds 28 1010 83 10000 2.57 360 16:18 20.03.2021
1266 Clouds 27 1010 89 10000 2.57 360 15:40 20.03.2021
1267 Clouds 27 1010 89 10000 2.57 360 15:40 20.03.2021
1268 Clouds 27 1010 89 10000 2.57 360 15:40 20.03.2021
1269 Clouds 27 1012 78 10000 3.45 37 14:55 20.03.2021
1270 Clouds 27 1012 78 10000 3.45 37 14:31 20.03.2021
1271 Clouds 26 1011 79 10000 3.7 34 13:56 20.03.2021
1272 Clouds 26 1010 79 10000 3.74 37 13:24 20.03.2021
1273 Clouds 26 1010 79 10000 3.38 39 12:28 20.03.2021
1274 Clouds 26 1010 79 10000 3.38 39 11:55 20.03.2021
1275 Clouds 26 1010 79 10000 3.38 39 11:36 20.03.2021
1276 Clouds 26 1010 79 10000 3.4 43 11:18 20.03.2021
1277 Clouds 26 1010 79 10000 3.4 43 10:38 20.03.2021
1278 Clouds 26 1010 79 10000 3.18 40 10:19 20.03.2021
1279 Clouds 26 1010 79 10000 3.18 40 09:42 20.03.2021
1280 Clouds 26 1010 79 10000 3.43 36 09:21 20.03.2021
1281 Clouds 26 1010 79 10000 3.43 36 09:21 20.03.2021
1282 Clouds 26 1010 79 10000 3.43 36 08:48 20.03.2021
1283 Clouds 26 1011 79 10000 3.73 36 07:56 20.03.2021
1284 Clouds 26 1011 79 10000 3.73 36 07:38 20.03.2021
1285 Clouds 26 1012 79 10000 3.67 32 07:19 20.03.2021
1286 Clouds 26 1012 80 10000 3.74 36 06:34 20.03.2021
1287 Rain 27 1012 79 10000 3.36 32 04:44 20.03.2021
1288 Rain 27 1012 79 10000 2.93 32 03:43 20.03.2021
1289 Clouds 27 1009 75 10000 1.84 35 00:43 20.03.2021
1290 Clouds 26 1008 89 10000 1.03 60 23:36 19.03.2021
1291 Clouds 26 1008 89 10000 1.03 60 23:18 19.03.2021
1292 Clouds 25 1008 94 10000 2.06 60 22:40 19.03.2021
1293 Clouds 25 1008 94 10000 2.06 60 22:40 19.03.2021
1294 Rain 25 1008 94 10000 2.06 60 22:22 19.03.2021
1295 Rain 26 1009 94 10000 2.06 60 21:37 19.03.2021
1296 Rain 26 1009 94 10000 2.06 60 21:18 19.03.2021
1297 Rain 27 1010 74 10000 1.65 49 20:42 19.03.2021
1298 Rain 27 1011 74 10000 1.74 46 20:24 19.03.2021
1299 Rain 28 1010 83 10000 1.03 260 19:47 19.03.2021
1300 Rain 28 1010 83 10000 1.03 260 19:22 19.03.2021
1301 Clouds 28 1010 83 10000 2.57 350 18:46 19.03.2021
1302 Clouds 28 1010 83 10000 2.57 350 18:21 19.03.2021
1303 Clouds 27 1011 89 10000 2.06 20 17:56 19.03.2021
1304 Clouds 27 1011 89 10000 2.06 20 17:36 19.03.2021
1305 Clouds 28 1011 89 10000 3.6 10 16:57 19.03.2021
1306 Clouds 28 1011 89 10000 3.6 10 16:36 19.03.2021
1307 Clouds 28 1011 89 10000 3.6 10 16:18 19.03.2021
1308 Clouds 28 1011 89 10000 1.54 90 15:32 19.03.2021
1309 Clear 27 1013 74 10000 2.36 22 14:49 19.03.2021
1310 Clouds 27 1012 74 10000 2.02 19 14:29 19.03.2021
1311 Clouds 27 1012 74 10000 2.02 19 13:45 19.03.2021
1312 Clouds 26 1011 74 10000 1.78 17 13:18 19.03.2021
1313 Clouds 26 1011 76 10000 2.4 20 12:38 19.03.2021
1314 Clouds 26 1010 76 10000 2.6 18 11:53 19.03.2021
1315 Clouds 26 1010 77 10000 2.95 21 10:59 19.03.2021
1316 Clouds 26 1010 77 10000 2.95 21 10:40 19.03.2021
1317 Clouds 26 1010 77 10000 2.95 21 10:40 19.03.2021
1318 Clouds 26 1010 77 10000 3.21 22 10:19 19.03.2021
1319 Clouds 26 1010 77 10000 3.21 22 09:43 19.03.2021
1320 Clouds 27 1011 76 10000 2.86 22 09:22 19.03.2021
1321 Clouds 27 1011 76 10000 2.86 22 08:47 19.03.2021
1322 Clouds 27 1011 76 10000 2.49 17 08:25 19.03.2021
1323 Clouds 27 1011 76 10000 2.49 17 07:43 19.03.2021
1324 Clouds 26 1012 78 10000 2.78 10 06:58 19.03.2021
1325 Clouds 27 1012 79 10000 3.62 19 05:19 19.03.2021
1326 Clouds 27 1009 76 10000 3.19 15 00:58 19.03.2021
1327 Rain 27 1007 89 10000 1.03 150 23:50 18.03.2021
1328 Rain 27 1007 89 10000 1.03 150 23:26 18.03.2021
1329 Rain 25 1008 94 10000 2.06 270 22:44 18.03.2021
1330 Rain 25 1008 94 10000 2.06 270 22:25 18.03.2021
1331 Rain 25 1009 94 8000 1.03 140 21:40 18.03.2021
1332 Rain 27 1010 76 10000 3.28 359 20:54 18.03.2021
1333 Rain 27 1010 76 10000 3.28 359 20:35 18.03.2021
1334 Clouds 28 1010 83 10000 1.54 360 19:59 18.03.2021
1335 Clouds 28 1010 83 10000 1.54 360 19:41 18.03.2021
1336 Clouds 28 1010 83 10000 1.54 360 19:20 18.03.2021
1337 Rain 26 1010 94 6000 1.03 350 18:38 18.03.2021
1338 Clouds 27 1010 89 10000 1.03 350 17:51 18.03.2021
1339 Clouds 27 1010 89 10000 1.03 350 17:26 18.03.2021
1340 Clouds 27 1010 89 10000 1.54 30 16:50 18.03.2021
1341 Clouds 27 1010 89 10000 1.54 30 16:30 18.03.2021
1342 Clouds 26 1009 94 10000 1.54 30 15:49 18.03.2021
1343 Clouds 26 1009 94 10000 1.54 30 15:30 18.03.2021
1344 Clear 27 1012 75 10000 3.33 4 14:58 18.03.2021
1345 Clear 27 1012 75 10000 3.33 4 14:40 18.03.2021
1346 Clear 27 1012 75 10000 3.33 4 14:40 18.03.2021
1347 Clear 26 1011 76 10000 3.09 8 13:54 18.03.2021
1348 Clear 26 1010 77 10000 2.93 7 13:27 18.03.2021
1349 Clear 26 1010 77 10000 2.93 7 12:46 18.03.2021
1350 Clear 26 1009 76 10000 2.6 13 12:28 18.03.2021
1351 Clear 26 1009 76 10000 2.6 13 11:55 18.03.2021
1352 Clear 26 1009 76 10000 2.6 13 11:34 18.03.2021
1353 Clouds 26 1009 76 10000 2.46 21 10:49 18.03.2021
1354 Clouds 26 1009 76 10000 2.46 21 10:49 18.03.2021
1355 Clouds 26 1009 77 10000 2.75 29 10:28 18.03.2021
1356 Clouds 26 1009 77 10000 2.75 29 09:58 18.03.2021
1357 Clouds 26 1009 77 10000 2.75 29 09:30 18.03.2021
1358 Clouds 26 1010 78 10000 3.31 34 08:57 18.03.2021
1359 Clouds 26 1010 78 10000 3.31 34 08:33 18.03.2021
1360 Clouds 26 1011 78 10000 3.47 40 07:57 18.03.2021
1361 Clouds 26 1011 78 10000 3.47 40 07:39 18.03.2021
1362 Clouds 26 1012 78 10000 2.84 46 06:40 18.03.2021
1363 Clouds 26 1012 78 10000 2.74 50 06:19 18.03.2021
1364 Clouds 27 1011 77 10000 2.36 47 04:27 18.03.2021
1365 Clouds 28 1006 89 10000 1.54 30 00:38 18.03.2021
1366 Clouds 28 1006 83 10000 1.03 360 22:59 17.03.2021
1367 Clouds 28 1006 83 10000 1.03 360 22:36 17.03.2021
1368 Clouds 28 1006 83 10000 1.03 360 22:18 17.03.2021
1369 Clouds 28 1007 83 10000 1.54 330 21:47 17.03.2021
1370 Clouds 28 1007 83 10000 1.54 330 21:29 17.03.2021
1371 Clouds 28 1008 83 10000 3.09 280 20:45 17.03.2021
1372 Clouds 28 1008 83 10000 3.09 280 20:25 17.03.2021
1373 Clouds 29 1009 79 10000 2.06 210 19:54 17.03.2021
1374 Clouds 29 1009 79 10000 2.06 210 19:25 17.03.2021
1375 Clouds 29 1009 79 10000 2.57 280 18:57 17.03.2021
1376 Clouds 29 1009 79 10000 2.57 280 18:39 17.03.2021
1377 Clouds 28 1010 83 10000 2.06 300 17:57 17.03.2021
1378 Clouds 28 1010 83 10000 2.06 300 17:27 17.03.2021
1379 Clouds 28 1010 83 10000 2.57 360 16:55 17.03.2021
1380 Clouds 28 1010 83 10000 2.57 360 16:37 17.03.2021
1381 Clouds 28 1010 83 10000 2.57 360 16:18 17.03.2021
1382 Clouds 27 1009 89 10000 1.54 20 15:37 17.03.2021
1383 Clouds 26 1012 73 10000 3.01 64 14:46 17.03.2021
1384 Clouds 26 1011 74 10000 3.26 68 14:27 17.03.2021
1385 Clouds 26 1011 74 10000 3.26 68 13:56 17.03.2021
1386 Clouds 26 1011 74 10000 3.26 68 13:37 17.03.2021
1387 Clouds 26 1010 75 10000 3.21 70 12:59 17.03.2021
1388 Clouds 26 1010 75 10000 3.21 70 12:34 17.03.2021
1389 Clouds 26 1009 75 10000 3.13 72 11:54 17.03.2021
1390 Clouds 26 1009 74 10000 2.6 67 11:27 17.03.2021
1391 Clouds 26 1009 74 10000 2.6 67 10:59 17.03.2021
1392 Clouds 26 1009 74 10000 2.6 67 10:40 17.03.2021
1393 Clouds 26 1009 73 10000 1.85 67 09:59 17.03.2021
1394 Clouds 26 1009 73 10000 1.85 67 09:41 17.03.2021
1395 Clouds 26 1010 73 10000 2.15 74 09:19 17.03.2021
1396 Clouds 26 1010 73 10000 2.15 74 09:19 17.03.2021
1397 Clouds 26 1010 73 10000 2.15 74 08:39 17.03.2021
1398 Clouds 26 1011 74 10000 2.89 77 08:20 17.03.2021
1399 Clouds 26 1011 74 10000 2.89 77 07:36 17.03.2021
1400 Clouds 26 1011 75 10000 3.26 75 06:47 17.03.2021
1401 Clouds 26 1011 75 10000 3.72 80 04:27 17.03.2021
1402 Clouds 25 1008 94 10000 1.54 180 03:25 17.03.2021
1403 Clouds 26 1007 89 10000 1.03 240 00:41 17.03.2021
1404 Clouds 26 1007 89 10000 1.03 180 23:40 16.03.2021
1405 Clouds 26 1007 89 10000 1.03 180 23:18 16.03.2021
1406 Clouds 25 1007 94 10000 2.06 180 22:43 16.03.2021
1407 Clouds 25 1007 94 10000 2.06 180 22:24 16.03.2021
1408 Clouds 27 1009 71 10000 2.55 77 21:40 16.03.2021
1409 Rain 26 1009 89 10000 3.6 150 21:21 16.03.2021
1410 Rain 26 1009 89 10000 3.6 150 20:46 16.03.2021
1411 Rain 26 1009 89 10000 3.6 150 20:19 16.03.2021
1412 Clouds 28 1010 83 10000 2.06 300 19:43 16.03.2021
1413 Clouds 28 1010 83 10000 2.06 300 19:24 16.03.2021
1414 Rain 27 1011 89 8000 1.03 270 18:50 16.03.2021
1415 Rain 27 1011 89 8000 1.03 270 18:29 16.03.2021
1416 Clouds 28 1011 83 10000 1.03 270 17:51 16.03.2021
1417 Clouds 28 1011 83 10000 1.03 270 17:33 16.03.2021
1418 Clouds 27 1010 89 10000 1.03 300 16:53 16.03.2021
1419 Clouds 27 1010 89 10000 1.03 300 16:53 16.03.2021
1420 Clouds 27 1010 89 10000 1.03 300 16:31 16.03.2021
1421 Clouds 27 1010 89 10000 1.54 160 15:57 16.03.2021
1422 Clouds 27 1010 89 10000 1.54 160 15:36 16.03.2021
1423 Clouds 27 1010 89 10000 1.54 160 15:18 16.03.2021
1424 Clouds 26 1012 73 10000 1.96 71 14:40 16.03.2021
1425 Clouds 26 1011 74 10000 1.79 66 14:21 16.03.2021
1426 Clouds 26 1011 74 10000 1.79 66 13:55 16.03.2021
1427 Clouds 26 1010 75 10000 1.58 52 13:29 16.03.2021
1428 Clouds 26 1010 75 10000 1.58 52 12:55 16.03.2021
1429 Clouds 26 1010 75 10000 1.58 52 12:36 16.03.2021
1430 Clouds 26 1010 74 10000 1.73 48 11:55 16.03.2021
1431 Clouds 26 1009 74 10000 1.73 39 11:29 16.03.2021
1432 Clouds 26 1009 74 10000 1.73 39 10:46 16.03.2021
1433 Clouds 26 1009 74 10000 1.56 40 10:20 16.03.2021
1434 Clouds 26 1009 74 10000 1.56 40 09:40 16.03.2021
1435 Clouds 26 1010 74 10000 1.99 49 09:19 16.03.2021
1436 Clouds 26 1010 74 10000 1.99 49 08:51 16.03.2021
1437 Clouds 26 1010 74 10000 1.99 49 08:32 16.03.2021
1438 Clouds 26 1011 75 10000 2.56 55 07:50 16.03.2021
1439 Clouds 26 1012 75 10000 2.57 51 06:57 16.03.2021
1440 Clouds 26 1012 75 10000 2.57 51 06:37 16.03.2021
1441 Clouds 26 1013 75 10000 2.64 48 05:35 16.03.2021
1442 Clouds 27 1011 75 10000 3.41 30 02:46 16.03.2021
1443 Clouds 27 1011 74 10000 3.25 15 02:25 16.03.2021
1444 Clouds 27 1008 89 10000 1.03 300 00:25 16.03.2021
1445 Clouds 27 1008 89 10000 1.03 300 00:25 16.03.2021
1446 Clouds 27 1008 89 10000 1.03 300 23:29 15.03.2021
1447 Clouds 26 1008 89 10000 2.06 180 22:56 15.03.2021
1448 Clouds 26 1008 89 10000 2.06 180 22:36 15.03.2021
1449 Clouds 26 1008 89 10000 2.06 180 22:18 15.03.2021
1450 Clouds 27 1009 89 10000 4.63 150 21:39 15.03.2021
1451 Clouds 27 1009 89 10000 4.63 150 21:21 15.03.2021
1452 Clouds 28 1009 83 10000 1.03 160 20:44 15.03.2021
1453 Clouds 28 1009 83 10000 1.03 160 20:25 15.03.2021
1454 Clouds 28 1010 83 10000 3.09 360 19:53 15.03.2021
1455 Clouds 28 1010 83 10000 3.09 360 19:34 15.03.2021
1456 Clouds 28 1010 83 10000 2.57 30 18:57 15.03.2021
1457 Clouds 28 1010 83 10000 2.57 30 18:33 15.03.2021
1458 Clouds 28 1010 83 10000 4.12 20 17:56 15.03.2021
1459 Clouds 28 1010 83 10000 4.12 20 17:38 15.03.2021
1460 Clouds 28 1010 83 10000 4.12 20 17:19 15.03.2021
1461 Clouds 28 1010 83 10000 4.12 60 16:41 15.03.2021
1462 Clouds 27 1009 89 10000 4.63 30 15:48 15.03.2021
1463 Clouds 27 1009 89 10000 4.63 30 15:27 15.03.2021
1464 Clouds 26 1012 76 10000 3.58 20 14:46 15.03.2021
1465 Clouds 26 1011 78 10000 4.2 22 14:28 15.03.2021
1466 Clouds 26 1011 78 10000 4.2 22 14:28 15.03.2021
1467 Clouds 26 1011 78 10000 4.2 22 13:58 15.03.2021
1468 Clouds 26 1011 78 10000 4.2 22 13:35 15.03.2021
1469 Clouds 26 1010 80 10000 4.73 19 12:51 15.03.2021
1470 Clouds 26 1010 81 10000 4.58 20 12:20 15.03.2021
1471 Clouds 26 1010 81 10000 4.58 20 11:59 15.03.2021
1472 Clouds 26 1010 81 10000 4.58 20 11:40 15.03.2021
1473 Clear 26 1010 81 10000 4.48 15 11:21 15.03.2021
1474 Clear 26 1010 81 10000 4.48 15 10:34 15.03.2021
1475 Clear 26 1010 80 10000 3.89 9 09:59 15.03.2021
1476 Clear 26 1010 80 10000 3.89 9 09:40 15.03.2021
1477 Clouds 26 1011 79 10000 3.23 6 09:20 15.03.2021
1478 Clouds 26 1011 79 10000 3.23 6 08:41 15.03.2021
1479 Clouds 26 1011 79 10000 2.71 9 08:19 15.03.2021
1480 Clouds 26 1011 79 10000 2.71 9 07:33 15.03.2021
1481 Clouds 26 1012 79 10000 2.3 4 06:45 15.03.2021
1482 Clouds 26 1013 78 10000 2.17 5 05:35 15.03.2021
1483 Clouds 26 1011 77 10000 2.47 1 03:19 15.03.2021
1484 Clouds 28 1007 83 10000 4.12 30 00:21 15.03.2021
1485 Clouds 28 1007 83 10000 4.12 30 00:21 15.03.2021
1486 Clouds 28 1007 83 10000 4.12 30 23:22 14.03.2021
1487 Clouds 28 1008 83 10000 3.09 360 22:49 14.03.2021
1488 Clouds 28 1008 83 10000 3.09 360 22:25 14.03.2021
1489 Clouds 28 1008 89 10000 3.09 360 21:51 14.03.2021
1490 Clouds 28 1008 89 10000 3.09 360 21:22 14.03.2021
1491 Clouds 29 1009 79 10000 2.57 330 20:50 14.03.2021
1492 Clouds 29 1009 79 10000 2.57 330 20:27 14.03.2021
1493 Clouds 28 1010 83 10000 3.09 330 19:50 14.03.2021
1494 Clouds 28 1010 83 10000 3.09 330 19:27 14.03.2021
1495 Clouds 28 1010 83 10000 4.12 360 18:58 14.03.2021
1496 Clouds 28 1010 83 10000 4.12 360 18:28 14.03.2021
1497 Clouds 28 1011 83 10000 3.6 30 17:41 14.03.2021
1498 Clouds 28 1011 83 10000 3.6 30 17:23 14.03.2021
1499 Clouds 28 1011 83 10000 3.6 30 17:23 14.03.2021
1500 Clouds 27 1011 89 10000 2.57 360 16:52 14.03.2021
1501 Clouds 27 1011 89 10000 2.57 360 16:32 14.03.2021
1502 Clouds 27 1010 83 10000 1.03 360 15:57 14.03.2021
1503 Clouds 27 1010 83 10000 1.03 360 15:39 14.03.2021
1504 Clear 26 1013 77 10000 2.62 23 14:42 14.03.2021
1505 Clear 26 1013 77 10000 2.62 23 14:42 14.03.2021
1506 Clear 26 1012 78 10000 2.51 20 14:23 14.03.2021
1507 Clear 26 1012 78 10000 2.51 20 13:50 14.03.2021
1508 Clouds 25 1011 78 10000 2.1 17 13:29 14.03.2021
1509 Clouds 25 1011 80 10000 2.38 25 12:47 14.03.2021
1510 Clouds 25 1011 80 10000 2.31 27 12:28 14.03.2021
1511 Clouds 25 1011 80 10000 2.31 27 11:54 14.03.2021
1512 Clouds 25 1011 80 10000 2.31 27 11:36 14.03.2021
1513 Clouds 25 1010 80 10000 2.34 30 10:56 14.03.2021
1514 Clouds 25 1010 80 10000 2.34 30 10:37 14.03.2021
1515 Clouds 25 1011 79 10000 2.06 37 10:18 14.03.2021
1516 Clouds 25 1011 79 10000 2.06 37 09:43 14.03.2021
1517 Clouds 26 1011 79 10000 2.28 39 09:22 14.03.2021
1518 Clouds 26 1011 79 10000 2.28 39 08:48 14.03.2021
1519 Clouds 26 1012 79 10000 2.05 38 08:29 14.03.2021
1520 Clouds 26 1012 79 10000 2.05 38 07:46 14.03.2021
1521 Clouds 26 1013 78 10000 1.83 39 06:51 14.03.2021
1522 Clouds 26 1013 78 10000 2.11 65 04:51 14.03.2021
1523 Clouds 26 1010 78 10000 3.06 63 00:51 14.03.2021
1524 Clouds 27 1008 89 10000 2.57 150 00:19 14.03.2021
1525 Clouds 27 1008 89 10000 2.57 150 23:48 13.03.2021
1526 Clouds 27 1008 89 10000 2.57 150 23:25 13.03.2021
1527 Clouds 27 1008 89 10000 1.03 300 22:52 13.03.2021
1528 Clouds 27 1008 89 10000 1.03 300 22:26 13.03.2021
1529 Clouds 27 1009 89 10000 1.03 270 21:44 13.03.2021
1530 Clouds 27 1009 89 10000 1.03 270 21:25 13.03.2021
1531 Clouds 28 1010 89 10000 4.12 360 20:50 13.03.2021
1532 Clouds 28 1010 89 10000 4.12 360 20:30 13.03.2021
1533 Clouds 26 1011 94 10000 3.6 350 19:53 13.03.2021
1534 Clouds 26 1011 94 10000 3.6 350 19:29 13.03.2021
1535 Clouds 28 1011 83 10000 2.57 240 18:44 13.03.2021
1536 Clouds 28 1011 83 10000 2.57 240 18:23 13.03.2021
1537 Clouds 27 1012 89 10000 4.12 180 17:58 13.03.2021
1538 Clouds 27 1012 89 10000 4.12 180 17:40 13.03.2021
1539 Clouds 27 1012 89 10000 4.12 180 17:21 13.03.2021
1540 Clouds 27 1011 83 10000 3.6 30 16:42 13.03.2021
1541 Clouds 27 1011 83 10000 0.51 90 15:59 13.03.2021
1542 Clouds 27 1011 83 10000 0.51 90 15:25 13.03.2021
1543 Clouds 26 1010 89 10000 2.06 90 14:46 13.03.2021
1544 Clouds 26 1010 89 10000 2.06 90 14:25 13.03.2021
1545 Clear 26 1013 78 10000 1.9 48 13:45 13.03.2021
1546 Clear 26 1011 79 10000 1.75 49 13:21 13.03.2021
1547 Clear 26 1012 81 10000 1.7 47 12:42 13.03.2021
1548 Clear 26 1011 81 10000 1.73 42 11:59 13.03.2021
1549 Clear 26 1011 81 10000 1.73 42 11:40 13.03.2021
1550 Clear 26 1010 81 10000 2.23 40 11:22 13.03.2021
1551 Clear 26 1010 81 10000 2.23 40 10:46 13.03.2021
1552 Clear 26 1011 82 10000 2.54 40 10:24 13.03.2021
1553 Clear 26 1011 82 10000 2.54 40 09:34 13.03.2021
1554 Clear 26 1011 82 10000 2.56 38 08:55 13.03.2021
1555 Clear 26 1011 82 10000 2.56 38 08:36 13.03.2021
1556 Clear 26 1012 81 10000 2.59 34 08:18 13.03.2021
1557 Clear 26 1012 81 10000 2.59 34 07:39 13.03.2021
1558 Clear 26 1013 80 10000 2.73 45 05:31 13.03.2021
1559 Clouds 26 1012 79 10000 2.99 41 02:42 13.03.2021
1560 Clouds 28 1008 89 10000 4.12 60 00:36 13.03.2021
1561 Clouds 28 1008 89 10000 4.12 60 23:46 12.03.2021
1562 Clouds 28 1008 89 10000 4.12 60 23:28 12.03.2021
1563 Clouds 29 1008 84 10000 4.12 30 22:41 12.03.2021
1564 Clouds 29 1008 84 10000 4.12 30 22:20 12.03.2021
1565 Clouds 28 1009 83 10000 4.63 30 21:38 12.03.2021
1566 Clouds 28 1009 83 10000 4.63 30 21:20 12.03.2021
1567 Clouds 28 1010 83 10000 6.17 30 20:54 12.03.2021
1568 Clouds 28 1010 83 10000 6.17 30 20:31 12.03.2021
1569 Clouds 28 1010 83 10000 5.14 30 19:48 12.03.2021
1570 Clouds 28 1010 83 10000 5.14 30 19:30 12.03.2021
1571 Clouds 28 1011 83 10000 3.6 30 18:54 12.03.2021
1572 Clouds 28 1011 83 10000 3.6 30 18:32 12.03.2021
1573 Clouds 28 1011 83 10000 4.12 30 17:45 12.03.2021
1574 Clouds 28 1011 83 10000 4.12 30 17:27 12.03.2021
1575 Clouds 27 1011 89 10000 3.09 40 16:49 12.03.2021
1576 Clouds 27 1011 89 10000 3.09 40 16:28 12.03.2021
1577 Clouds 27 1011 89 10000 2.06 30 15:40 12.03.2021
1578 Clouds 27 1011 89 10000 2.06 30 15:18 12.03.2021
1579 Clouds 26 1013 78 10000 3.84 47 14:40 12.03.2021
1580 Clouds 26 1013 78 10000 3.21 46 14:18 12.03.2021
1581 Clouds 26 1013 78 10000 3.21 46 13:40 12.03.2021
1582 Clouds 26 1011 78 10000 2.52 47 13:19 12.03.2021
1583 Clouds 26 1011 79 10000 3.11 53 12:49 12.03.2021
1584 Clouds 26 1010 79 10000 2.85 56 12:28 12.03.2021
1585 Clouds 26 1010 79 10000 2.85 56 11:54 12.03.2021
1586 Clouds 26 1010 80 10000 2.93 49 11:25 12.03.2021
1587 Clouds 26 1010 80 10000 2.93 49 10:57 12.03.2021
1588 Clouds 26 1010 80 10000 2.88 42 10:28 12.03.2021
1589 Clouds 26 1010 80 10000 2.88 42 09:58 12.03.2021
1590 Clouds 26 1011 81 10000 2.75 46 09:27 12.03.2021
1591 Clouds 26 1011 81 10000 2.75 46 08:50 12.03.2021
1592 Clouds 26 1011 81 10000 2.75 46 08:30 12.03.2021
1593 Clouds 26 1012 81 10000 2.46 56 07:41 12.03.2021
1594 Clouds 26 1013 81 10000 1.92 61 06:59 12.03.2021
1595 Clouds 26 1013 82 10000 1.82 81 06:29 12.03.2021
1596 Rain 26 1012 81 10000 2.11 108 02:58 12.03.2021
1597 Rain 26 1010 78 10000 2.1 79 00:51 12.03.2021
1598 Rain 26 1007 94 8000 4.12 90 23:34 11.03.2021
1599 Rain 26 1008 94 4000 4.12 90 22:51 11.03.2021
1600 Rain 26 1008 94 4000 4.12 90 22:31 11.03.2021
1601 Rain 29 1008 84 10000 4.12 360 21:56 11.03.2021
1602 Rain 29 1008 84 10000 4.12 360 21:37 11.03.2021
1603 Rain 29 1008 84 10000 4.12 360 21:19 11.03.2021
1604 Rain 29 1009 84 10000 2.06 330 20:41 11.03.2021
1605 Rain 29 1009 84 10000 2.06 330 20:19 11.03.2021
1606 Rain 28 1010 89 10000 2.57 350 19:45 11.03.2021
1607 Rain 28 1010 89 10000 2.57 350 19:26 11.03.2021
1608 Rain 29 1010 79 10000 1.54 330 18:47 11.03.2021
1609 Rain 29 1010 79 10000 1.54 330 18:29 11.03.2021
1610 Rain 28 1011 83 10000 1.03 60 17:44 11.03.2021
1611 Rain 27 1011 89 10000 3.09 30 16:54 11.03.2021
1612 Rain 27 1011 89 10000 3.09 30 16:28 11.03.2021
1613 Rain 27 1010 89 10000 1.54 60 15:49 11.03.2021
1614 Rain 27 1010 89 10000 1.54 60 15:22 11.03.2021
1615 Rain 26 1013 80 10000 0.89 191 14:49 11.03.2021
1616 Rain 26 1012 82 10000 0.62 208 14:19 11.03.2021
1617 Rain 26 1012 82 10000 0.62 208 14:19 11.03.2021
1618 Rain 26 1012 82 10000 0.62 208 13:49 11.03.2021
1619 Rain 26 1012 82 10000 0.62 208 13:30 11.03.2021
1620 Clouds 26 1011 77 10000 0.48 216 12:58 11.03.2021
1621 Clouds 26 1011 77 10000 0.48 216 12:38 11.03.2021
1622 Clouds 26 1011 77 10000 0.48 216 12:38 11.03.2021
1623 Clouds 26 1011 77 10000 0.99 196 12:20 11.03.2021
1624 Clouds 26 1011 77 10000 0.99 196 11:43 11.03.2021
1625 Clouds 26 1010 76 10000 0.98 220 11:21 11.03.2021
1626 Clouds 26 1010 77 10000 0.98 220 10:39 11.03.2021
1627 Clouds 26 1010 77 10000 1.03 216 10:19 11.03.2021
1628 Clouds 26 1010 77 10000 1.03 216 09:39 11.03.2021
1629 Rain 26 1011 78 10000 1.33 202 09:21 11.03.2021
1630 Rain 26 1011 78 10000 1.33 202 08:47 11.03.2021
1631 Rain 26 1012 80 10000 1.66 199 08:18 11.03.2021
1632 Rain 26 1012 82 10000 2.33 223 07:29 11.03.2021
1633 Rain 26 1012 82 10000 2.33 223 06:50 11.03.2021
1634 Rain 26 1013 82 10000 2.7 223 06:25 11.03.2021
1635 Rain 26 1012 81 10000 3.65 234 02:50 11.03.2021
1636 Rain 27 1010 78 10000 3.48 214 00:58 11.03.2021
1637 Clouds 28 1008 89 10000 2.57 130 23:32 10.03.2021
1638 Clouds 28 1008 89 10000 2.57 130 23:32 10.03.2021
1639 Rain 27 1008 89 10000 3.09 180 22:56 10.03.2021
1640 Rain 27 1008 89 10000 3.09 180 22:32 10.03.2021
1641 Rain 30 1009 79 10000 2.57 180 21:47 10.03.2021
1642 Rain 30 1009 79 10000 2.57 180 21:24 10.03.2021
1643 Rain 30 1009 79 10000 4.63 210 20:46 10.03.2021
1644 Clouds 30 1009 79 10000 4.63 210 20:28 10.03.2021
1645 Clouds 30 1011 79 10000 4.12 210 19:53 10.03.2021
1646 Clouds 30 1011 79 10000 4.12 210 19:30 10.03.2021
1647 Rain 27 1012 75 10000 2.12 247 18:47 10.03.2021
1648 Clouds 27 1013 75 10000 2.24 254 18:28 10.03.2021
1649 Clouds 27 1013 75 10000 2.24 254 17:57 10.03.2021
1650 Clouds 27 1013 75 10000 2.24 254 17:38 10.03.2021
1651 Clouds 27 1014 75 10000 2.25 253 17:19 10.03.2021
1652 Clouds 27 1014 75 10000 2.25 253 16:44 10.03.2021
1653 Clouds 27 1014 76 10000 2.15 258 16:24 10.03.2021
1654 Clouds 27 1014 76 10000 2.15 258 15:47 10.03.2021
1655 Clouds 26 1013 77 10000 1.82 262 15:23 10.03.2021
1656 Clouds 26 1013 77 10000 1.82 262 14:56 10.03.2021
1657 Clouds 26 1012 78 10000 1.73 257 14:20 10.03.2021
1658 Clouds 26 1012 78 10000 1.73 257 14:20 10.03.2021
1659 Clouds 26 1012 78 10000 1.73 257 13:51 10.03.2021
1660 Clouds 26 1012 78 10000 1.73 257 13:30 10.03.2021
1661 Clouds 26 1011 75 10000 1.36 236 12:46 10.03.2021
1662 Clouds 26 1010 74 10000 0.71 229 12:19 10.03.2021
1663 Clouds 26 1010 74 10000 0.71 229 11:43 10.03.2021
1664 Clouds 26 1010 74 10000 0.64 234 11:19 10.03.2021
1665 Clouds 26 1010 74 10000 0.64 234 10:46 10.03.2021
1666 Clouds 26 1010 74 10000 0.51 282 10:28 10.03.2021
1667 Clouds 26 1010 74 10000 0.51 282 09:45 10.03.2021
1668 Clouds 26 1011 74 10000 0.81 315 09:24 10.03.2021
1669 Clouds 26 1011 74 10000 0.81 315 09:24 10.03.2021
1670 Clouds 26 1011 74 10000 0.81 315 08:57 10.03.2021
1671 Clouds 26 1011 74 10000 0.81 315 08:39 10.03.2021
1672 Clouds 26 1012 74 10000 0.82 314 08:20 10.03.2021
1673 Clear 26 1011 74 10000 1.32 328 07:33 10.03.2021
1674 Clouds 27 1012 74 10000 1.03 342 06:57 10.03.2021
1675 Clouds 27 1012 74 10000 1.03 342 06:32 10.03.2021
1676 Clouds 27 1012 75 10000 1.1 4 02:42 10.03.2021
1677 Clouds 28 1008 89 10000 0.51 330 23:52 09.03.2021
1678 Rain 28 1008 89 10000 0.51 330 23:24 09.03.2021
1679 Rain 29 1008 84 10000 2.06 210 22:42 09.03.2021
1680 Rain 29 1008 84 10000 2.06 210 22:23 09.03.2021
1681 Rain 29 1009 84 10000 3.6 120 21:46 09.03.2021
1682 Clouds 29 1009 84 10000 3.6 120 21:25 09.03.2021
1683 Clouds 29 1009 84 10000 4.63 150 20:58 09.03.2021
1684 Clouds 29 1009 84 10000 4.63 150 20:40 09.03.2021
1685 Clouds 29 1009 84 10000 4.63 150 20:21 09.03.2021
1686 Clouds 30 1010 79 10000 3.6 210 19:47 09.03.2021
1687 Clouds 30 1010 79 10000 3.6 210 19:26 09.03.2021
1688 Clouds 30 1011 79 10000 2.06 240 18:50 09.03.2021
1689 Clouds 30 1011 79 10000 2.06 240 18:26 09.03.2021
1690 Clouds 29 1011 84 10000 1.03 210 17:53 09.03.2021
1691 Clouds 29 1011 84 10000 1.03 210 17:53 09.03.2021
1692 Clouds 29 1011 84 10000 1.03 210 17:31 09.03.2021
1693 Clouds 27 1011 89 10000 1.03 100 16:55 09.03.2021
1694 Clouds 27 1011 89 10000 1.03 100 16:36 09.03.2021
1695 Clouds 27 1011 89 10000 1.03 100 16:18 09.03.2021
1696 Clouds 26 1011 89 10000 1.03 120 15:40 09.03.2021
1697 Clouds 26 1011 89 10000 1.03 120 15:20 09.03.2021
1698 Clear 26 1012 71 10000 2.17 28 14:28 09.03.2021
1699 Clear 26 1012 71 10000 2.17 28 13:57 09.03.2021
1700 Clear 26 1012 71 10000 2.17 28 13:36 09.03.2021
1701 Clouds 26 1011 71 10000 1.46 29 13:18 09.03.2021
1702 Clouds 26 1011 70 10000 1.4 32 12:39 09.03.2021
1703 Clouds 26 1011 70 10000 1.11 26 12:18 09.03.2021
1704 Clouds 26 1011 70 10000 1.11 26 11:41 09.03.2021
1705 Clouds 26 1010 71 10000 1.2 9 11:20 09.03.2021
1706 Clouds 26 1010 71 10000 1.2 9 10:47 09.03.2021
1707 Clouds 26 1011 71 10000 1.37 19 10:23 09.03.2021
1708 Clouds 26 1011 71 10000 1.37 19 09:58 09.03.2021
1709 Clouds 26 1011 71 10000 1.37 19 09:40 09.03.2021
1710 Clouds 26 1011 72 10000 1.86 38 09:22 09.03.2021
1711 Clouds 26 1011 72 10000 1.86 38 08:36 09.03.2021
1712 Clouds 26 1012 73 10000 2.51 49 07:52 09.03.2021
1713 Clouds 26 1012 74 10000 2.75 56 07:31 09.03.2021
1714 Clouds 26 1013 74 10000 3.14 54 06:59 09.03.2021
1715 Clouds 27 1013 74 10000 3.55 50 05:54 09.03.2021
1716 Clouds 27 1013 74 10000 3.55 50 05:34 09.03.2021
1717 Rain 26 1009 94 8000 1.03 210 00:18 09.03.2021
1718 Rain 26 1009 94 8000 1.03 210 23:42 08.03.2021
1719 Rain 26 1009 94 8000 1.03 210 23:23 08.03.2021
1720 Clouds 26 1009 89 10000 3.09 30 22:44 08.03.2021
1721 Clouds 26 1009 89 10000 3.09 30 22:26 08.03.2021
1722 Clouds 27 1010 83 10000 3.09 150 21:53 08.03.2021
1723 Clouds 27 1010 83 10000 3.09 150 21:34 08.03.2021
1724 Rain 27 1011 94 10000 2.06 180 20:45 08.03.2021
1725 Rain 27 1011 94 10000 2.06 180 20:25 08.03.2021
1726 Clouds 29 1011 84 10000 4.63 10 19:55 08.03.2021
1727 Clouds 29 1011 84 10000 4.63 10 19:28 08.03.2021
1728 Clouds 29 1012 84 10000 3.09 300 18:39 08.03.2021
1729 Clouds 29 1012 84 10000 3.09 300 18:20 08.03.2021
1730 Clouds 28 1012 89 10000 3.09 300 17:50 08.03.2021
1731 Clouds 28 1012 89 10000 3.09 300 17:25 08.03.2021
1732 Clouds 28 1011 89 10000 2.57 330 16:46 08.03.2021
1733 Clouds 28 1011 89 10000 2.57 330 16:27 08.03.2021
1734 Clouds 27 1011 94 10000 2.06 30 15:48 08.03.2021
1735 Clouds 27 1011 94 10000 2.06 30 15:25 08.03.2021
1736 Clouds 27 1013 76 10000 3.01 73 14:38 08.03.2021
1737 Clouds 26 1012 77 10000 3.33 68 14:19 08.03.2021
1738 Clouds 26 1011 78 10000 3.93 60 13:25 08.03.2021
1739 Clouds 26 1011 78 10000 3.93 60 12:59 08.03.2021
1740 Clouds 26 1011 78 10000 3.93 60 12:41 08.03.2021
1741 Clouds 26 1010 79 10000 3.63 61 12:20 08.03.2021
1742 Clouds 26 1010 79 10000 3.63 61 11:37 08.03.2021
1743 Clouds 26 1010 79 10000 3.64 63 11:18 08.03.2021
1744 Clouds 26 1010 79 10000 3.64 63 10:41 08.03.2021
1745 Clouds 26 1010 80 10000 3.87 62 10:19 08.03.2021
1746 Clouds 26 1010 80 10000 3.87 62 09:30 08.03.2021
1747 Clouds 26 1011 80 10000 4.1 61 08:54 08.03.2021
1748 Clouds 27 1012 80 10000 4.27 61 08:27 08.03.2021
1749 Clouds 27 1012 79 10000 4.19 63 07:23 08.03.2021
1750 Clouds 27 1012 79 10000 4.19 63 06:38 08.03.2021
1751 Clouds 27 1011 77 10000 4.66 63 02:59 08.03.2021
1752 Clouds 27 1009 74 10000 3.42 47 00:43 08.03.2021
1753 Rain 26 1007 100 10000 3.6 30 23:54 07.03.2021
1754 Drizzle 26 1007 100 10000 3.6 30 23:23 07.03.2021
1755 Drizzle 25 1008 100 10000 2.06 30 22:50 07.03.2021
1756 Drizzle 25 1008 100 10000 2.06 30 22:29 07.03.2021
1757 Drizzle 25 1009 100 8000 2.57 100 21:58 07.03.2021
1758 Drizzle 25 1009 100 8000 2.57 100 21:39 07.03.2021
1759 Drizzle 25 1009 100 8000 2.57 100 21:21 07.03.2021
1760 Drizzle 25 1009 100 8000 2.06 50 20:41 07.03.2021
1761 Drizzle 25 1009 100 8000 2.06 50 20:23 07.03.2021
1762 Drizzle 26 1010 94 10000 3.09 150 19:55 07.03.2021
1763 Drizzle 26 1010 94 10000 3.09 150 19:37 07.03.2021
1764 Rain 26 1010 94 10000 3.09 150 19:19 07.03.2021
1765 Rain 28 1010 89 10000 2.06 110 18:40 07.03.2021
1766 Rain 28 1010 89 10000 2.06 110 18:18 07.03.2021
1767 Rain 29 1010 84 10000 5.14 30 17:39 07.03.2021
1768 Rain 29 1010 84 10000 5.14 30 17:20 07.03.2021
1769 Rain 29 1010 79 10000 2.06 50 16:43 07.03.2021
1770 Rain 29 1010 79 10000 2.06 50 16:21 07.03.2021
1771 Rain 28 1009 89 10000 3.09 90 15:52 07.03.2021
1772 Rain 28 1009 89 10000 3.09 90 15:32 07.03.2021
1773 Clouds 27 1012 78 10000 3.92 55 14:56 07.03.2021
1774 Clouds 27 1011 79 10000 4.01 60 14:29 07.03.2021
1775 Clouds 27 1011 79 10000 4.01 60 13:51 07.03.2021
1776 Clouds 27 1011 79 10000 4.01 60 13:30 07.03.2021
1777 Clouds 27 1010 78 10000 4.4 64 12:56 07.03.2021
1778 Clouds 27 1010 78 10000 4.4 64 12:37 07.03.2021
1779 Clouds 27 1009 77 10000 4.61 63 12:18 07.03.2021
1780 Clouds 27 1009 77 10000 4.96 61 11:24 07.03.2021
1781 Clouds 27 1009 77 10000 4.96 61 10:55 07.03.2021
1782 Clouds 27 1009 77 10000 4.96 61 10:37 07.03.2021
1783 Rain 27 1009 76 10000 5.18 60 09:54 07.03.2021
1784 Rain 27 1010 78 10000 5.44 62 09:29 07.03.2021
1785 Rain 27 1010 78 10000 5.44 62 08:59 07.03.2021
1786 Rain 27 1010 78 10000 5.44 62 08:39 07.03.2021
1787 Rain 27 1010 78 10000 5.44 62 08:39 07.03.2021
1788 Rain 27 1010 79 10000 5.37 65 08:21 07.03.2021
1789 Rain 27 1011 78 10000 5.34 69 06:25 07.03.2021
1790 Rain 27 1010 78 10000 4.18 81 02:39 07.03.2021
1791 Rain 26 1005 94 10000 2.06 300 00:34 07.03.2021
1792 Rain 26 1005 94 10000 2.06 300 23:40 06.03.2021
1793 Rain 26 1005 94 10000 2.06 300 23:20 06.03.2021
1794 Rain 25 1006 100 10000 1.54 240 22:45 06.03.2021
1795 Rain 25 1006 100 10000 1.54 240 22:21 06.03.2021
1796 Rain 25 1006 100 2000 2.57 240 21:46 06.03.2021
1797 Rain 25 1006 100 2000 2.57 240 21:20 06.03.2021
1798 Rain 26 1007 100 8000 2.57 60 20:42 06.03.2021
1799 Rain 27 1008 100 1000 2.06 360 19:59 06.03.2021
1800 Rain 27 1008 100 1000 2.06 360 19:37 06.03.2021
1801 Rain 27 1008 100 1000 2.06 360 19:18 06.03.2021
1802 Rain 28 1008 100 10000 2.06 180 18:41 06.03.2021
1803 Rain 28 1008 100 10000 2.06 180 18:20 06.03.2021
1804 Rain 27 1011 76 10000 3.77 74 17:49 06.03.2021
1805 Rain 27 1011 76 10000 3.77 74 17:30 06.03.2021
1806 Rain 28 1009 89 10000 3.09 190 16:57 06.03.2021
1807 Rain 28 1009 89 10000 3.09 190 16:32 06.03.2021
1808 Clouds 28 1008 89 10000 4.12 150 15:56 06.03.2021
1809 Clouds 28 1008 89 10000 4.12 150 15:38 06.03.2021
1810 Clouds 28 1008 89 10000 4.12 150 15:18 06.03.2021
1811 Clear 27 1010 77 10000 3.05 75 14:31 06.03.2021
1812 Clear 27 1009 78 10000 2.85 69 13:50 06.03.2021
1813 Clear 27 1009 78 10000 2.85 69 13:32 06.03.2021
1814 Clear 26 1009 77 10000 2.75 49 12:58 06.03.2021
1815 Clear 26 1009 77 10000 2.75 49 12:38 06.03.2021
1816 Clear 26 1008 76 10000 2.52 44 12:18 06.03.2021
1817 Clear 26 1008 76 10000 2.2 42 11:29 06.03.2021
1818 Clear 26 1008 76 10000 2.2 42 10:59 06.03.2021
1819 Clear 26 1008 76 10000 2.2 42 10:41 06.03.2021
1820 Clear 26 1008 76 10000 2.24 45 09:56 06.03.2021
1821 Clear 27 1009 75 10000 2.19 45 09:24 06.03.2021
1822 Clear 27 1009 75 10000 2.19 45 08:54 06.03.2021
1823 Clear 27 1009 75 10000 2.19 45 08:30 06.03.2021
1824 Clear 27 1010 75 10000 2.25 48 07:54 06.03.2021
1825 Clouds 27 1010 75 10000 2.07 42 07:22 06.03.2021
1826 Clouds 27 1011 75 10000 2.28 42 05:52 06.03.2021
1827 Clouds 27 1010 75 10000 2.6 42 03:47 06.03.2021
1828 Clouds 27 1009 72 10000 2.52 48 01:33 06.03.2021
1829 Clouds 27 1008 71 10000 2.66 40 00:46 06.03.2021
1830 Clouds 26 1006 100 10000 1.03 170 23:48 05.03.2021
1831 Clouds 26 1006 100 10000 1.03 170 23:19 05.03.2021
1832 Clouds 26 1006 100 10000 1.03 170 23:19 05.03.2021
1833 Drizzle 26 1007 100 5000 1.54 170 22:43 05.03.2021
1834 Drizzle 26 1007 100 5000 1.54 170 22:21 05.03.2021
1835 Clouds 27 1008 71 10000 2.2 26 21:51 05.03.2021
1836 Rain 29 1007 89 10000 5.14 190 21:29 05.03.2021
1837 Clouds 30 1008 84 10000 4.63 240 20:50 05.03.2021
1838 Clouds 30 1008 84 10000 4.63 240 20:25 05.03.2021
1839 Clouds 30 1008 84 10000 4.12 240 19:49 05.03.2021
1840 Rain 30 1008 84 10000 4.12 240 19:25 05.03.2021
1841 Rain 30 1008 84 10000 4.12 240 19:25 05.03.2021
1842 Rain 29 1009 84 10000 3.6 210 18:53 05.03.2021
1843 Clouds 29 1009 84 10000 3.6 210 18:28 05.03.2021
1844 Clouds 29 1009 84 10000 3.09 220 17:56 05.03.2021
1845 Clouds 29 1009 84 10000 3.09 220 17:33 05.03.2021
1846 Clouds 28 1009 89 10000 2.57 210 16:44 05.03.2021
1847 Rain 28 1009 89 10000 2.57 210 16:24 05.03.2021
1848 Rain 28 1009 89 10000 1.03 220 15:55 05.03.2021
1849 Rain 28 1009 89 10000 1.03 220 15:28 05.03.2021
1850 Rain 27 1011 76 10000 2.01 25 14:53 05.03.2021
1851 Rain 27 1011 76 10000 2.01 25 14:34 05.03.2021
1852 Rain 26 1011 76 10000 2.24 26 13:46 05.03.2021
1853 Clouds 26 1010 77 10000 2.45 23 13:21 05.03.2021
1854 Clouds 26 1010 77 10000 2.45 23 12:46 05.03.2021
1855 Rain 26 1009 77 10000 2.69 18 11:40 05.03.2021
1856 Rain 26 1009 77 10000 2.69 18 11:40 05.03.2021
1857 Rain 26 1009 77 10000 2.69 18 11:21 05.03.2021
1858 Rain 26 1009 77 10000 2.69 18 10:57 05.03.2021
1859 Rain 26 1009 77 10000 2.69 18 10:37 05.03.2021
1860 Rain 26 1009 77 10000 2.71 18 10:19 05.03.2021
1861 Rain 26 1009 77 10000 2.71 18 09:42 05.03.2021
1862 Clouds 26 1010 77 10000 2.58 30 09:23 05.03.2021
1863 Clouds 26 1010 77 10000 2.58 30 08:39 05.03.2021
1864 Rain 26 1011 77 10000 2.44 44 08:20 05.03.2021
1865 Rain 26 1011 77 10000 2.44 44 07:34 05.03.2021
1866 Rain 27 1011 78 10000 2.55 48 06:43 05.03.2021
1867 Rain 27 1012 78 10000 2.75 45 06:25 05.03.2021
1868 Rain 27 1009 78 10000 3.49 42 01:35 05.03.2021
1869 Rain 27 1008 89 10000 4.12 30 23:55 04.03.2021
1870 Rain 27 1008 89 10000 4.12 30 23:24 04.03.2021
1871 Rain 28 1008 89 10000 5.14 30 22:30 04.03.2021
1872 Rain 27 1008 94 10000 2.06 20 21:54 04.03.2021
1873 Rain 27 1008 94 10000 2.06 20 21:33 04.03.2021
1874 Rain 25 1010 100 10000 1.54 150 20:58 04.03.2021
1875 Drizzle 25 1010 100 10000 1.54 150 20:39 04.03.2021
1876 Rain 25 1010 100 10000 1.54 150 20:20 04.03.2021
1877 Rain 27 1011 77 10000 2.9 22 19:49 04.03.2021
1878 Rain 27 1011 77 10000 2.54 46 19:23 04.03.2021
1879 Rain 27 1011 94 10000 2.06 330 18:51 04.03.2021
1880 Rain 27 1011 94 10000 2.06 330 18:30 04.03.2021
1881 Rain 28 1011 89 10000 2.57 20 17:47 04.03.2021
1882 Clouds 28 1011 89 10000 2.57 20 17:29 04.03.2021
1883 Clouds 27 1011 94 10000 2.06 20 16:50 04.03.2021
1884 Clouds 27 1011 94 10000 2.06 20 16:31 04.03.2021
1885 Clouds 27 1011 94 10000 1.54 30 15:56 04.03.2021
1886 Clouds 27 1011 94 10000 1.54 30 15:34 04.03.2021
1887 Clouds 26 1012 80 10000 2.82 43 14:53 04.03.2021
1888 Clouds 26 1012 80 10000 2.82 43 14:31 04.03.2021
1889 Clouds 26 1011 81 10000 2.81 49 13:52 04.03.2021
1890 Clouds 26 1011 81 10000 2.81 49 13:33 04.03.2021
1891 Clear 26 1011 79 10000 1.99 59 12:58 04.03.2021
1892 Clear 26 1011 79 10000 1.99 59 12:39 04.03.2021
1893 Clear 26 1010 78 10000 1.56 61 11:48 04.03.2021
1894 Clouds 26 1010 79 10000 1.08 59 11:27 04.03.2021
1895 Clouds 26 1010 79 10000 1.08 59 10:55 04.03.2021
1896 Clouds 26 1010 79 10000 1.08 59 10:31 04.03.2021
1897 Clouds 26 1010 81 10000 0.73 75 09:47 04.03.2021
1898 Clouds 26 1011 83 10000 0.37 89 09:23 04.03.2021
1899 Clouds 26 1011 83 10000 0.37 89 08:36 04.03.2021
1900 Clear 26 1011 83 10000 0.51 118 07:54 04.03.2021
1901 Clear 26 1011 83 10000 0.51 118 07:54 04.03.2021
1902 Clouds 26 1011 83 10000 0.68 222 07:31 04.03.2021
1903 Rain 26 1012 83 10000 0.87 182 06:25 04.03.2021
1904 Rain 26 1012 83 10000 0.87 182 05:39 04.03.2021
1905 Rain 27 1010 79 10000 2.2 208 01:44 04.03.2021
1906 Rain 27 1010 79 10000 2.2 208 01:44 04.03.2021
1907 Rain 27 1010 79 10000 2.2 208 01:43 04.03.2021
1908 Rain 27 1010 79 10000 2.2 208 01:43 04.03.2021
1909 Rain 27 1010 79 10000 2.2 208 01:43 04.03.2021
1910 Rain 28 1008 94 10000 3.09 40 22:44 03.03.2021
1911 Rain 28 1008 94 10000 3.09 40 22:26 03.03.2021
1912 Rain 27 1008 94 10000 2.06 40 21:45 03.03.2021
1913 Rain 27 1008 94 10000 2.06 40 21:24 03.03.2021
1914 Rain 27 1009 100 10000 3.09 170 20:59 03.03.2021
1915 Rain 27 1009 100 10000 3.09 170 20:41 03.03.2021
1916 Rain 27 1010 79 10000 4.54 204 19:59 03.03.2021
1917 Rain 30 1010 84 10000 3.6 180 19:40 03.03.2021
1918 Rain 30 1010 84 10000 3.6 180 19:22 03.03.2021
1919 Rain 30 1010 79 10000 3.6 170 18:47 03.03.2021
1920 Rain 30 1010 79 10000 3.6 170 18:25 03.03.2021
1921 Rain 30 1010 79 10000 3.09 240 17:50 03.03.2021
1922 Rain 30 1010 79 10000 3.09 240 17:18 03.03.2021
1923 Rain 29 1010 84 10000 2.06 180 16:44 03.03.2021
1924 Rain 29 1010 84 10000 2.06 180 16:23 03.03.2021
1925 Rain 28 1010 89 10000 3.09 210 15:34 03.03.2021
1926 Rain 26 1011 83 10000 3.61 195 14:58 03.03.2021
1927 Rain 26 1011 83 10000 3.61 195 14:30 03.03.2021
1928 Rain 26 1010 83 10000 3.57 195 13:53 03.03.2021
1929 Rain 26 1010 83 10000 3.57 195 13:31 03.03.2021
1930 Rain 26 1009 83 10000 3.11 210 12:45 03.03.2021
1931 Clouds 26 1009 83 10000 3.54 222 12:26 03.03.2021
1932 Clouds 26 1009 83 10000 3.54 222 11:48 03.03.2021
1933 Clouds 26 1009 83 10000 4.22 228 11:28 03.03.2021
1934 Clouds 26 1009 83 10000 4.22 228 10:50 03.03.2021
1935 Clouds 26 1009 83 10000 4.22 228 10:30 03.03.2021
1936 Rain 26 1009 83 10000 4.24 229 09:48 03.03.2021
1937 Rain 26 1010 83 10000 3.79 226 09:26 03.03.2021
1938 Rain 26 1010 83 10000 3.79 226 08:41 03.03.2021
1939 Rain 26 1010 82 10000 3.65 226 08:21 03.03.2021
1940 Rain 26 1010 82 10000 3.65 226 07:41 03.03.2021
1941 Rain 26 1010 82 10000 4.04 227 06:51 03.03.2021
1942 Rain 26 1011 83 10000 3.76 229 05:46 03.03.2021
1943 Rain 26 1011 83 9886 3.67 230 04:58 03.03.2021
1944 Rain 26 1011 83 10000 3.32 214 04:26 03.03.2021
1945 Rain 26 1009 83 10000 4.01 214 01:54 03.03.2021
1946 Rain 29 1006 84 10000 2.06 260 23:57 02.03.2021
1947 Rain 29 1006 84 10000 2.06 260 23:22 02.03.2021
1948 Rain 29 1006 84 10000 3.09 270 22:41 02.03.2021
1949 Rain 29 1006 84 10000 3.09 270 22:18 02.03.2021
1950 Rain 29 1007 84 10000 3.09 270 21:40 02.03.2021
1951 Rain 29 1007 84 10000 3.09 270 21:21 02.03.2021
1952 Rain 29 1007 84 10000 3.09 280 20:46 02.03.2021
1953 Rain 29 1007 84 10000 3.09 280 20:22 02.03.2021
1954 Rain 29 1008 84 10000 3.09 270 19:51 02.03.2021
1955 Rain 29 1008 84 10000 3.09 270 19:32 02.03.2021
1956 Rain 29 1009 84 10000 2.06 240 18:58 02.03.2021
1957 Rain 29 1009 84 10000 2.06 240 18:39 02.03.2021
1958 Rain 29 1009 84 10000 2.06 240 18:20 02.03.2021
1959 Rain 28 1009 89 10000 2.57 270 17:40 02.03.2021
1960 Rain 28 1009 89 10000 2.57 270 17:20 02.03.2021
1961 Rain 27 1009 89 10000 2.06 240 16:48 02.03.2021
1962 Rain 26 1008 100 10000 2.06 220 15:59 02.03.2021
1963 Rain 26 1008 100 10000 2.06 220 15:29 02.03.2021
1964 Rain 26 1010 80 10000 1.68 226 14:56 02.03.2021
1965 Rain 26 1009 82 10000 1.94 213 14:21 02.03.2021
1966 Rain 26 1009 82 10000 1.94 213 13:48 02.03.2021
1967 Rain 26 1008 83 10000 2.74 191 13:28 02.03.2021
1968 Rain 26 1008 83 10000 2.74 191 12:50 02.03.2021
1969 Rain 26 1007 83 10000 2.86 203 12:26 02.03.2021
1970 Rain 26 1007 83 10000 2.86 203 11:52 02.03.2021
1971 Rain 26 1007 84 10000 2.62 208 11:25 02.03.2021
1972 Rain 26 1007 84 10000 2.62 208 10:54 02.03.2021
1973 Rain 26 1007 84 10000 2.62 208 10:30 02.03.2021
1974 Clouds 26 1007 84 10000 2.48 206 09:43 02.03.2021
1975 Clouds 26 1008 84 10000 2.01 201 09:24 02.03.2021
1976 Clouds 26 1008 84 10000 2.01 201 08:53 02.03.2021
1977 Clouds 26 1008 84 10000 2.01 201 08:33 02.03.2021
1978 Clouds 26 1009 84 10000 1.53 203 07:46 02.03.2021
1979 Clouds 26 1009 86 10000 1.31 226 06:37 02.03.2021
1980 Clouds 26 1010 85 10000 1.31 230 05:50 02.03.2021
1981 Clouds 26 1010 85 10000 1.31 230 05:32 02.03.2021
1982 Clouds 27 1009 84 10000 1.73 209 04:24 02.03.2021
1983 Clouds 27 1008 81 10000 2.56 219 01:42 02.03.2021
1984 Clouds 27 1007 80 10000 3.45 223 01:19 02.03.2021
1985 Clouds 29 1005 89 10000 2.57 210 23:29 01.03.2021
1986 Clouds 30 1005 84 10000 4.12 250 22:43 01.03.2021
1987 Clouds 30 1005 84 10000 4.12 250 22:25 01.03.2021
1988 Clouds 30 1005 84 10000 4.12 240 21:52 01.03.2021
1989 Clouds 30 1005 84 10000 4.12 240 21:24 01.03.2021
1990 Clouds 30 1007 84 10000 2.57 220 20:59 01.03.2021
1991 Clouds 30 1007 84 10000 2.57 220 20:39 01.03.2021
1992 Clouds 30 1007 84 10000 2.57 220 20:18 01.03.2021
1993 Clouds 29 1008 89 10000 3.54 239 19:42 01.03.2021
1994 Clouds 29 1008 89 10000 3.21 239 19:18 01.03.2021
1995 Clouds 30 1008 84 10000 4.12 180 18:40 01.03.2021
1996 Clouds 30 1008 84 10000 4.12 180 18:21 01.03.2021
1997 Clouds 29 1008 89 10000 3.09 230 17:42 01.03.2021
1998 Clouds 29 1008 89 10000 3.09 230 17:20 01.03.2021
1999 Clouds 28 1008 89 10000 3.09 170 16:46 01.03.2021
2000 Clouds 28 1008 89 10000 3.09 170 16:26 01.03.2021
2001 Clouds 28 1008 89 10000 2.57 180 15:46 01.03.2021
2002 Clouds 28 1008 89 10000 2.57 180 15:22 01.03.2021
2003 Clouds 26 1009 81 10000 0.42 263 14:49 01.03.2021
2004 Clouds 26 1009 81 10000 0.42 263 14:30 01.03.2021
2005 Clouds 26 1009 82 10000 0.61 299 13:44 01.03.2021
2006 Clouds 25 1008 82 10000 0.24 303 13:25 01.03.2021
2007 Clouds 25 1008 82 10000 0.24 303 13:25 01.03.2021
2008 Clouds 25 1008 82 10000 0.24 303 12:58 01.03.2021
2009 Clouds 25 1008 82 10000 0.24 303 12:38 01.03.2021
2010 Clouds 25 1008 81 10000 0.15 303 12:19 01.03.2021
2011 Clouds 25 1008 81 10000 0.15 303 11:42 01.03.2021
2012 Clouds 25 1007 81 10000 0.42 329 10:45 01.03.2021
2013 Clouds 26 1007 82 10000 0.82 330 10:23 01.03.2021
2014 Clouds 26 1007 82 10000 0.82 330 09:59 01.03.2021
2015 Clouds 26 1007 82 10000 0.82 330 09:40 01.03.2021
2016 Clouds 26 1008 84 10000 0.5 18 09:21 01.03.2021
2017 Clouds 26 1008 84 10000 0.5 18 08:51 01.03.2021
2018 Clouds 26 1009 86 10000 0.35 85 08:18 01.03.2021
2019 Clouds 26 1009 86 10000 1.12 141 06:53 01.03.2021
2020 Clouds 26 1009 85 10000 1.35 128 04:21 01.03.2021
2021 Rain 27 1007 77 10000 2.37 173 00:44 01.03.2021
2022 Clouds 29 1004 84 10000 4.12 210 23:36 28.02.2021
2023 Clouds 29 1006 84 10000 2.06 270 22:51 28.02.2021
2024 Rain 29 1006 84 10000 2.06 270 22:23 28.02.2021
2025 Rain 29 1006 84 10000 2.57 220 21:49 28.02.2021
2026 Rain 29 1006 84 10000 2.57 220 21:28 28.02.2021
2027 Rain 30 1006 79 10000 4.12 180 20:56 28.02.2021
2028 Rain 30 1006 79 10000 4.12 180 20:36 28.02.2021
2029 Clouds 30 1007 79 10000 4.63 180 19:47 28.02.2021
2030 Clouds 30 1007 79 10000 4.63 180 19:47 28.02.2021
2031 Clouds 30 1007 79 10000 4.63 180 19:28 28.02.2021
2032 Clouds 30 1008 79 10000 2.57 190 18:49 28.02.2021
2033 Clouds 30 1008 79 10000 2.57 190 18:28 28.02.2021
2034 Clouds 29 1008 84 10000 3.09 210 17:59 28.02.2021
2035 Clouds 29 1008 84 10000 3.09 210 17:41 28.02.2021
2036 Clouds 29 1008 84 10000 3.09 210 17:21 28.02.2021
2037 Clouds 27 1008 94 10000 2.57 190 16:50 28.02.2021
2038 Clouds 27 1008 94 10000 2.57 190 16:30 28.02.2021
2039 Clouds 27 1008 89 10000 2.06 60 15:52 28.02.2021
2040 Clouds 27 1008 89 10000 2.06 60 15:29 28.02.2021
2041 Clouds 26 1010 80 10000 1.47 96 14:58 28.02.2021
2042 Clouds 26 1010 80 10000 1.47 96 14:39 28.02.2021
2043 Clouds 25 1009 82 10000 1.91 84 14:19 28.02.2021
2044 Clouds 26 1009 84 10000 2.08 102 13:39 28.02.2021
2045 Clouds 25 1008 85 10000 2.04 101 13:19 28.02.2021
2046 Clouds 25 1008 85 10000 2.04 101 12:54 28.02.2021
2047 Clouds 25 1008 85 10000 2.04 101 12:35 28.02.2021
2048 Clouds 25 1008 85 10000 2.61 100 11:58 28.02.2021
2049 Clouds 25 1008 85 10000 2.61 100 11:40 28.02.2021
2050 Clouds 26 1008 85 10000 2.58 101 11:21 28.02.2021
2051 Clouds 26 1008 85 10000 2.58 101 10:43 28.02.2021
2052 Clouds 26 1008 85 10000 2.34 105 10:25 28.02.2021
2053 Clouds 26 1008 85 10000 2.34 105 09:40 28.02.2021
2054 Clouds 26 1009 86 10000 2.37 105 09:20 28.02.2021
2055 Clouds 26 1009 86 10000 2.37 105 08:45 28.02.2021
2056 Clouds 26 1009 86 10000 2.21 105 08:25 28.02.2021
2057 Clouds 26 1009 85 10000 2.05 101 07:46 28.02.2021
2058 Clouds 26 1010 85 10000 2.12 97 07:25 28.02.2021
2059 Clouds 26 1010 85 10000 2.36 98 06:24 28.02.2021
2060 Clouds 26 1010 85 10000 2.57 100 05:20 28.02.2021
2061 Clouds 26 1008 82 10000 3.08 130 02:29 28.02.2021
2062 Clouds 26 1007 80 10000 3.28 145 01:28 28.02.2021
2063 Clouds 26 1007 80 10000 3.28 145 00:40 28.02.2021
2064 Clouds 28 1005 89 10000 4.12 170 23:51 27.02.2021
2065 Clouds 28 1005 89 10000 4.12 170 23:22 27.02.2021
2066 Rain 28 1005 89 10000 3.6 160 22:50 27.02.2021
2067 Rain 28 1005 89 10000 3.6 160 22:24 27.02.2021
2068 Clouds 29 1005 84 10000 4.12 180 21:59 27.02.2021
2069 Clouds 29 1005 84 10000 4.12 180 21:38 27.02.2021
2070 Rain 27 1006 100 10000 4.63 160 20:56 27.02.2021
2071 Rain 27 1006 100 10000 4.63 160 20:38 27.02.2021
2072 Rain 27 1006 100 10000 4.63 160 20:18 27.02.2021
2073 Rain 27 1007 94 10000 2.57 120 19:41 27.02.2021
2074 Rain 27 1007 94 10000 2.57 120 19:23 27.02.2021
2075 Clouds 28 1007 89 10000 3.09 130 18:40 27.02.2021
2076 Clouds 28 1007 89 10000 3.09 130 18:20 27.02.2021
2077 Clouds 28 1008 89 10000 3.09 320 17:43 27.02.2021
2078 Clouds 28 1008 89 10000 3.09 320 17:20 27.02.2021
2079 Clouds 28 1008 89 10000 3.09 320 17:20 27.02.2021
2080 Clouds 27 1008 89 10000 2.06 330 16:51 27.02.2021
2081 Clouds 27 1008 89 10000 2.06 330 16:31 27.02.2021
2082 Clouds 27 1007 89 10000 1.03 330 15:53 27.02.2021
2083 Clouds 27 1007 89 10000 1.03 330 15:33 27.02.2021
2084 Clouds 26 1009 83 10000 3.39 105 14:48 27.02.2021
2085 Clouds 26 1009 83 10000 3.39 105 14:30 27.02.2021
2086 Clouds 26 1009 83 10000 2.79 104 13:49 27.02.2021
2087 Clouds 26 1008 84 10000 1.99 84 13:27 27.02.2021
2088 Clouds 26 1008 84 10000 1.99 84 12:52 27.02.2021
2089 Clouds 26 1008 84 10000 2.21 85 12:28 27.02.2021
2090 Clouds 26 1008 84 10000 2.21 85 11:56 27.02.2021
2091 Clouds 26 1008 84 10000 2.21 85 11:36 27.02.2021
2092 Clouds 26 1008 84 10000 2.18 85 11:18 27.02.2021
2093 Clouds 26 1008 84 10000 2.18 85 10:41 27.02.2021
2094 Clouds 26 1008 84 10000 1.92 80 10:18 27.02.2021
2095 Clouds 26 1008 84 10000 1.92 80 09:37 27.02.2021
2096 Clouds 26 1008 84 10000 1.57 95 08:58 27.02.2021
2097 Clouds 26 1008 84 10000 1.57 95 08:39 27.02.2021
2098 Clouds 26 1009 84 10000 1.79 96 08:18 27.02.2021
2099 Clouds 26 1009 84 10000 1.79 96 07:32 27.02.2021
2100 Clouds 26 1008 81 10000 1.38 136 02:31 27.02.2021
2101 Rain 27 1005 94 10000 2.06 40 00:33 27.02.2021
2102 Rain 27 1005 94 10000 2.06 40 23:48 26.02.2021
2103 Rain 27 1005 94 10000 2.06 40 23:24 26.02.2021
2104 Rain 29 1006 84 10000 3.09 30 22:40 26.02.2021
2105 Rain 29 1006 84 10000 3.09 30 22:21 26.02.2021
2106 Rain 29 1006 79 10000 5.14 190 21:37 26.02.2021
2107 Rain 29 1007 84 10000 4.63 180 20:58 26.02.2021
2108 Rain 29 1007 84 10000 4.63 180 20:38 26.02.2021
2109 Rain 29 1007 84 10000 4.63 180 20:19 26.02.2021
2110 Rain 29 1007 84 10000 4.63 180 20:19 26.02.2021
2111 Rain 29 1008 84 10000 4.63 180 19:27 26.02.2021
2112 Rain 30 1008 84 10000 4.12 180 18:57 26.02.2021
2113 Rain 30 1008 84 10000 4.12 180 18:36 26.02.2021
2114 Clouds 30 1008 84 10000 4.12 180 18:18 26.02.2021
2115 Clouds 29 1009 84 10000 3.6 160 17:38 26.02.2021
2116 Clouds 29 1009 84 10000 3.6 160 17:19 26.02.2021
2117 Clouds 28 1009 89 10000 3.09 130 16:47 26.02.2021
2118 Rain 28 1009 89 10000 3.09 130 16:28 26.02.2021
2119 Rain 27 1008 94 10000 2.57 120 15:45 26.02.2021
2120 Rain 27 1008 94 10000 2.57 120 15:45 26.02.2021
2121 Rain 27 1008 94 10000 2.57 120 15:27 26.02.2021
2122 Rain 26 1010 81 10000 2.61 197 14:58 26.02.2021
2123 Rain 26 1010 81 10000 2.61 197 14:36 26.02.2021
2124 Rain 26 1009 83 10000 2.88 190 13:59 26.02.2021
2125 Rain 26 1009 82 10000 2.29 195 13:39 26.02.2021
2126 Rain 26 1009 82 10000 2.56 193 12:58 26.02.2021
2127 Rain 26 1009 82 10000 2.56 193 12:31 26.02.2021
2128 Rain 26 1008 82 10000 2.37 194 11:47 26.02.2021
2129 Rain 26 1008 82 10000 2.5 199 11:20 26.02.2021
2130 Rain 26 1008 82 10000 2.5 199 10:43 26.02.2021
2131 Clouds 26 1008 82 10000 2.44 201 09:48 26.02.2021
2132 Rain 26 1009 82 10000 2.2 203 09:28 26.02.2021
2133 Rain 26 1009 82 10000 2.2 203 08:39 26.02.2021
2134 Rain 26 1010 82 10000 2.51 211 07:58 26.02.2021
2135 Rain 26 1010 83 10000 2.4 186 07:22 26.02.2021
2136 Rain 26 1010 83 10000 2.4 186 06:32 26.02.2021
2137 Clouds 26 1011 82 10000 2.35 151 05:18 26.02.2021
2138 Rain 26 1010 80 10000 2.1 144 02:38 26.02.2021
2139 Rain 29 1005 84 10000 6.69 180 00:33 26.02.2021
2140 Rain 29 1005 84 10000 6.69 180 23:39 25.02.2021
2141 Clouds 29 1006 84 10000 5.14 190 22:58 25.02.2021
2142 Clouds 29 1006 84 10000 5.14 190 22:38 25.02.2021
2143 Clouds 28 1007 89 10000 2.57 330 21:51 25.02.2021
2144 Clouds 28 1007 89 10000 2.57 330 21:32 25.02.2021
2145 Rain 27 1008 94 10000 3.09 190 20:54 25.02.2021
2146 Rain 27 1008 94 10000 3.09 190 20:36 25.02.2021
2147 Rain 27 1008 94 10000 3.09 190 20:18 25.02.2021
2148 Rain 27 1008 94 10000 3.09 190 20:18 25.02.2021
2149 Drizzle 27 1009 94 10000 5.14 180 19:46 25.02.2021
2150 Drizzle 27 1009 94 10000 5.14 180 19:19 25.02.2021
2151 Rain 29 1009 84 10000 5.66 160 18:39 25.02.2021
2152 Rain 28 1009 89 10000 4.12 170 17:59 25.02.2021
2153 Rain 28 1009 89 10000 4.12 170 17:31 25.02.2021
2154 Clouds 28 1009 89 10000 4.12 170 16:55 25.02.2021
2155 Clouds 28 1009 89 10000 4.12 170 16:33 25.02.2021
2156 Clouds 27 1009 89 10000 2.06 120 15:43 25.02.2021
2157 Clouds 27 1009 89 10000 2.06 120 15:20 25.02.2021
2158 Clouds 27 1009 89 10000 2.06 120 15:20 25.02.2021
2159 Clear 26 1011 81 10000 1.19 83 14:32 25.02.2021
2160 Clouds 25 1011 82 10000 1.17 87 13:58 25.02.2021
2161 Clouds 25 1011 82 10000 1.17 87 13:40 25.02.2021
2162 Rain 25 1010 83 10000 1.36 129 13:19 25.02.2021
2163 Rain 25 1009 84 10000 1.41 126 12:23 25.02.2021
2164 Rain 25 1009 84 10000 1.41 126 11:51 25.02.2021
2165 Rain 25 1009 84 10000 1.41 126 11:31 25.02.2021
2166 Clouds 25 1009 84 10000 1.44 119 10:47 25.02.2021
2167 Clouds 25 1009 85 10000 1.87 110 10:29 25.02.2021
2168 Clouds 25 1009 85 10000 1.87 110 09:45 25.02.2021
2169 Clouds 25 1009 85 10000 2.15 104 09:22 25.02.2021
2170 Clouds 25 1009 85 10000 2.15 104 08:30 25.02.2021
2171 Clouds 25 1010 85 10000 2.22 110 07:58 25.02.2021
2172 Clouds 25 1010 85 10000 2.22 110 07:37 25.02.2021
2173 Clouds 26 1010 84 10000 1.88 112 06:57 25.02.2021
2174 Clouds 26 1009 84 10000 3.56 116 03:23 25.02.2021
2175 Clouds 26 1008 82 10000 3.69 112 01:39 25.02.2021
2176 Clouds 26 1007 81 10000 3.9 112 00:42 25.02.2021
2177 Rain 27 1005 94 10000 3.09 180 23:54 24.02.2021
2178 Rain 27 1005 94 10000 3.09 180 23:32 24.02.2021
2179 Rain 26 1007 80 10000 3.85 120 22:46 24.02.2021
2180 Rain 28 1005 83 10000 5.14 170 22:26 24.02.2021
2181 Rain 29 1006 79 10000 6.17 160 21:48 24.02.2021
2182 Clouds 29 1006 79 10000 6.17 160 21:24 24.02.2021
2183 Clouds 29 1007 84 10000 6.69 150 20:45 24.02.2021
2184 Clouds 29 1007 84 10000 6.69 150 20:22 24.02.2021
2185 Clouds 29 1008 84 10000 5.14 170 19:38 24.02.2021
2186 Clouds 29 1008 84 10000 5.14 170 19:18 24.02.2021
2187 Clouds 30 1008 74 10000 5.14 120 18:42 24.02.2021
2188 Clouds 30 1008 74 10000 5.14 120 18:22 24.02.2021
2189 Clouds 30 1009 79 10000 5.66 130 17:38 24.02.2021
2190 Clouds 30 1009 79 10000 5.66 130 17:19 24.02.2021
2191 Clouds 29 1009 84 10000 4.12 150 16:44 24.02.2021
2192 Clouds 29 1009 84 10000 4.12 150 16:19 24.02.2021
2193 Clouds 27 1009 94 10000 3.6 160 15:40 24.02.2021
2194 Clear 26 1011 83 10000 5.59 116 14:57 24.02.2021
2195 Clear 26 1011 83 10000 5.59 116 14:35 24.02.2021
2196 Clear 25 1011 84 10000 5.81 116 13:59 24.02.2021
2197 Clear 25 1011 84 10000 5.81 116 13:40 24.02.2021
2198 Rain 25 1010 85 10000 5.9 118 13:21 24.02.2021
2199 Rain 25 1010 84 10000 5.83 111 12:44 24.02.2021
2200 Rain 25 1009 85 10000 5.86 114 12:24 24.02.2021
2201 Rain 25 1009 85 10000 5.86 114 11:46 24.02.2021
2202 Clouds 25 1009 85 10000 5.55 115 10:52 24.02.2021
2203 Clouds 25 1009 85 10000 5.55 115 10:30 24.02.2021
2204 Clouds 25 1009 85 10000 5.44 113 09:46 24.02.2021
2205 Clouds 25 1009 85 10000 5.3 117 09:20 24.02.2021
2206 Clouds 25 1009 85 10000 5.3 117 08:34 24.02.2021
2207 Clouds 25 1010 85 10000 5.49 116 07:57 24.02.2021
2208 Rain 25 1011 85 10000 5.45 116 07:20 24.02.2021
2209 Clear 25 1011 85 10000 4.8 119 06:23 24.02.2021
2210 Clear 26 1010 84 10000 4.47 124 03:28 24.02.2021
2211 Clouds 28 1005 83 10000 5.66 150 00:22 24.02.2021
2212 Clouds 28 1005 83 10000 5.66 150 23:21 23.02.2021
2213 Clouds 28 1005 83 10000 4.63 120 22:37 23.02.2021
2214 Clouds 28 1005 83 10000 4.63 120 22:19 23.02.2021
2215 Clouds 30 1006 79 10000 5.66 130 21:42 23.02.2021
2216 Clouds 30 1006 79 10000 5.66 130 21:22 23.02.2021
2217 Clouds 29 1007 79 10000 6.69 160 20:48 23.02.2021
2218 Clouds 29 1007 79 10000 6.69 160 20:29 23.02.2021
2219 Clouds 29 1008 84 10000 3.09 120 19:47 23.02.2021
2220 Clouds 29 1008 84 10000 3.09 120 19:27 23.02.2021
2221 Clouds 29 1009 84 10000 2.57 20 18:53 23.02.2021
2222 Clouds 29 1009 84 10000 2.57 20 18:31 23.02.2021
2223 Clouds 29 1009 84 10000 4.12 360 17:54 23.02.2021
2224 Clouds 29 1009 84 10000 4.12 360 17:30 23.02.2021
2225 Clouds 28 1009 83 10000 3.09 90 16:48 23.02.2021
2226 Clouds 28 1009 83 10000 3.09 90 16:25 23.02.2021
2227 Clouds 28 1009 83 10000 4.63 110 15:52 23.02.2021
2228 Clouds 28 1009 83 10000 4.63 110 15:34 23.02.2021
2229 Clouds 26 1011 82 10000 5.52 110 14:59 23.02.2021
2230 Clouds 26 1011 82 10000 5.52 110 14:40 23.02.2021
2231 Clouds 25 1010 82 10000 5.24 117 14:20 23.02.2021
2232 Clouds 25 1010 82 10000 5.24 117 13:43 23.02.2021
2233 Clouds 25 1010 82 10000 4.66 118 13:21 23.02.2021
2234 Clouds 25 1010 81 10000 4.35 117 12:49 23.02.2021
2235 Clouds 25 1010 81 10000 4.03 112 12:20 23.02.2021
2236 Clouds 25 1010 81 10000 4.03 112 11:45 23.02.2021
2237 Clouds 25 1010 81 10000 3.99 107 11:20 23.02.2021
2238 Clouds 25 1010 81 10000 3.99 107 10:40 23.02.2021
2239 Clouds 25 1010 81 10000 4.23 115 10:19 23.02.2021
2240 Clouds 25 1010 81 10000 4.23 115 09:42 23.02.2021
2241 Clouds 25 1010 81 10000 4.38 112 09:21 23.02.2021
2242 Clouds 25 1010 81 10000 4.38 112 08:48 23.02.2021
2243 Clouds 26 1010 81 10000 4.92 110 08:21 23.02.2021
2244 Clouds 26 1010 81 10000 4.92 110 07:48 23.02.2021
2245 Clouds 26 1012 80 10000 4.43 124 05:29 23.02.2021
2246 Clouds 26 1011 79 10000 4.25 122 02:54 23.02.2021
2247 Clouds 26 1011 79 10000 4.25 122 02:54 23.02.2021
2248 Clouds 26 1011 79 10000 4.25 122 02:54 23.02.2021
2249 Clouds 26 1011 79 10000 4.25 122 02:33 23.02.2021
2250 Clouds 27 1007 89 10000 3.09 160 00:20 23.02.2021
2251 Clouds 27 1007 89 10000 3.09 160 23:43 22.02.2021
2252 Rain 27 1007 89 10000 3.6 180 22:57 22.02.2021
2253 Rain 27 1007 89 10000 3.6 180 22:38 22.02.2021
2254 Rain 27 1007 89 10000 3.6 180 22:19 22.02.2021
2255 Rain 28 1008 83 10000 4.12 160 21:38 22.02.2021
2256 Rain 28 1008 83 10000 4.12 160 21:20 22.02.2021
2257 Clouds 29 1009 79 10000 3.09 330 20:45 22.02.2021
2258 Clouds 29 1009 79 10000 3.09 330 20:25 22.02.2021
2259 Clouds 31 1009 70 10000 6.17 130 19:46 22.02.2021
2260 Clouds 31 1009 70 10000 6.17 130 19:28 22.02.2021
2261 Clouds 30 1010 74 10000 6.69 160 18:48 22.02.2021
2262 Clouds 30 1010 74 10000 6.69 160 18:29 22.02.2021
2263 Clouds 29 1010 79 10000 5.14 150 17:49 22.02.2021
2264 Clouds 29 1010 79 10000 5.14 150 17:20 22.02.2021
2265 Clouds 28 1010 83 10000 4.63 150 16:48 22.02.2021
2266 Clouds 28 1010 83 10000 4.63 150 16:29 22.02.2021
2267 Clouds 27 1009 89 10000 4.12 130 15:31 22.02.2021
2268 Clouds 26 1012 78 10000 4.9 140 14:53 22.02.2021
2269 Clouds 26 1012 78 10000 4.9 140 14:35 22.02.2021
2270 Clouds 25 1011 79 10000 5.13 139 13:51 22.02.2021
2271 Clouds 25 1011 80 10000 4.65 143 13:31 22.02.2021
2272 Clouds 25 1010 80 10000 4.17 137 12:47 22.02.2021
2273 Clouds 25 1010 81 10000 4.51 141 12:22 22.02.2021
2274 Clouds 25 1010 81 10000 4.51 141 11:51 22.02.2021
2275 Clouds 25 1010 81 10000 4.55 148 11:29 22.02.2021
2276 Clouds 25 1010 81 10000 4.55 148 10:50 22.02.2021
2277 Clouds 25 1010 81 10000 4.55 148 10:50 22.02.2021
2278 Clouds 25 1010 81 10000 4.55 148 10:32 22.02.2021
2279 Clouds 25 1010 81 10000 4.68 159 09:57 22.02.2021
2280 Clouds 25 1010 81 10000 4.68 159 09:36 22.02.2021
2281 Clouds 25 1011 81 10000 4.84 161 09:18 22.02.2021
2282 Clouds 25 1011 81 10000 4.84 161 08:40 22.02.2021
2283 Clouds 25 1011 81 10000 5.31 164 08:19 22.02.2021
2284 Clear 25 1011 81 10000 5.3 162 07:28 22.02.2021
2285 Clear 25 1011 81 10000 5.27 164 06:47 22.02.2021
2286 Clear 26 1012 81 10000 5.21 167 06:23 22.02.2021
2287 Clear 26 1012 80 10000 4.66 168 03:48 22.02.2021
2288 Clear 26 1011 79 10000 4.59 170 02:52 22.02.2021
2289 Clouds 26 1010 76 10000 5.12 171 00:49 22.02.2021
2290 Clouds 29 1008 79 10000 4.63 150 00:24 22.02.2021
2291 Clouds 29 1008 79 10000 4.63 150 23:35 21.02.2021
2292 Clouds 29 1008 84 10000 6.17 160 22:55 21.02.2021
2293 Clouds 29 1008 84 10000 6.17 160 22:24 21.02.2021
2294 Clouds 29 1009 79 10000 5.66 170 21:48 21.02.2021
2295 Clouds 29 1009 79 10000 5.66 170 21:30 21.02.2021
2296 Clouds 29 1010 79 10000 5.14 160 20:47 21.02.2021
2297 Clouds 29 1010 79 10000 5.14 160 20:20 21.02.2021
2298 Clouds 30 1011 79 10000 6.17 160 19:54 21.02.2021
2299 Clouds 30 1011 79 10000 6.17 160 19:34 21.02.2021
2300 Clouds 29 1012 79 10000 6.69 160 18:59 21.02.2021
2301 Clouds 29 1012 79 10000 6.69 160 18:26 21.02.2021
2302 Clouds 29 1012 84 10000 6.69 150 17:39 21.02.2021
2303 Clouds 29 1012 84 10000 6.69 150 17:18 21.02.2021
2304 Clouds 28 1012 89 10000 7.2 150 16:43 21.02.2021
2305 Clouds 28 1012 89 10000 7.2 150 16:24 21.02.2021
2306 Rain 28 1011 89 10000 6.69 160 15:23 21.02.2021
2307 Rain 26 1014 80 10000 6.96 162 14:56 21.02.2021
2308 Rain 26 1014 80 10000 6.96 162 14:37 21.02.2021
2309 Rain 26 1014 80 10000 6.96 162 14:37 21.02.2021
2310 Rain 26 1013 80 10000 7.38 162 13:49 21.02.2021
2311 Rain 26 1012 81 10000 6.68 166 13:28 21.02.2021
2312 Rain 26 1012 81 10000 6.68 166 12:32 21.02.2021
2313 Rain 26 1012 81 10000 6.04 166 11:59 21.02.2021
2314 Rain 26 1012 81 10000 6.04 166 11:40 21.02.2021
2315 Rain 26 1011 82 10000 5.31 169 10:40 21.02.2021
2316 Rain 26 1012 82 10000 4.67 173 10:21 21.02.2021
2317 Rain 26 1012 82 10000 4.67 173 09:43 21.02.2021
2318 Clouds 26 1012 82 10000 4.08 170 09:24 21.02.2021
2319 Clouds 26 1012 82 10000 4.08 170 08:34 21.02.2021
2320 Clouds 26 1012 81 10000 3.79 166 07:45 21.02.2021
2321 Rain 26 1013 83 10000 4.47 164 07:22 21.02.2021
2322 Clouds 26 1013 83 10000 4.3 171 05:59 21.02.2021
2323 Clouds 26 1013 81 10000 3.62 182 02:40 21.02.2021
2324 Clouds 26 1010 80 10000 4.48 172 00:59 21.02.2021
2325 Clouds 28 1008 89 10000 6.17 180 00:21 21.02.2021
2326 Clouds 28 1008 89 10000 6.17 180 23:38 20.02.2021
2327 Clouds 30 1009 79 10000 5.14 190 22:55 20.02.2021
2328 Clouds 30 1009 79 10000 5.14 190 22:31 20.02.2021
2329 Clouds 29 1009 84 10000 6.17 190 21:47 20.02.2021
2330 Clouds 29 1009 84 10000 6.17 190 21:29 20.02.2021
2331 Clouds 30 1010 79 10000 4.63 220 20:56 20.02.2021
2332 Clouds 30 1010 79 10000 4.63 220 20:36 20.02.2021
2333 Clouds 30 1011 79 10000 4.12 190 19:59 20.02.2021
2334 Clouds 30 1011 79 10000 4.12 190 19:40 20.02.2021
2335 Clouds 29 1012 84 10000 4.63 190 18:48 20.02.2021
2336 Clouds 29 1012 84 10000 4.63 190 18:29 20.02.2021
2337 Clouds 29 1012 84 10000 4.12 160 17:45 20.02.2021
2338 Clouds 29 1012 84 10000 4.12 160 17:26 20.02.2021
2339 Clouds 28 1012 89 10000 3.6 160 16:48 20.02.2021
2340 Clouds 28 1012 89 10000 3.6 160 16:22 20.02.2021
2341 Clouds 26 1012 100 10000 2.06 170 15:40 20.02.2021
2342 Clouds 26 1013 80 10000 4.58 139 14:51 20.02.2021
2343 Clouds 26 1013 80 10000 4.49 139 14:25 20.02.2021
2344 Clouds 26 1013 80 10000 4.49 139 13:53 20.02.2021
2345 Clouds 26 1012 81 10000 4.71 142 13:28 20.02.2021
2346 Clouds 26 1012 82 10000 4.68 144 12:56 20.02.2021
2347 Clouds 26 1012 82 10000 4.68 144 12:33 20.02.2021
2348 Clouds 26 1012 82 10000 4.67 145 11:50 20.02.2021
2349 Clouds 26 1012 82 10000 4.67 145 11:30 20.02.2021
2350 Clouds 25 1011 82 10000 4.72 150 10:50 20.02.2021
2351 Clouds 25 1011 82 10000 4.72 150 10:50 20.02.2021
2352 Clouds 26 1012 82 10000 4.59 153 10:21 20.02.2021
2353 Clouds 26 1012 82 10000 4.59 153 09:45 20.02.2021
2354 Clouds 26 1012 81 10000 4.28 154 08:51 20.02.2021
2355 Clouds 26 1013 81 10000 4.04 149 08:23 20.02.2021
2356 Clouds 26 1014 81 10000 4.56 151 04:37 20.02.2021
2357 Clouds 26 1013 82 10000 5.07 156 02:32 20.02.2021
2358 Clouds 26 1012 82 10000 5.14 160 01:54 20.02.2021
2359 Clouds 26 1011 80 10000 5.67 174 00:49 20.02.2021
2360 Clouds 29 1009 84 10000 5.66 160 00:30 20.02.2021
2361 Clouds 29 1009 84 10000 5.66 160 23:24 19.02.2021
2362 Clouds 29 1009 84 10000 6.69 170 22:42 19.02.2021
2363 Clouds 29 1009 84 10000 6.69 170 22:19 19.02.2021
2364 Clouds 29 1009 84 10000 5.14 220 21:39 19.02.2021
2365 Clouds 29 1009 84 10000 5.14 220 21:39 19.02.2021
2366 Clouds 29 1009 84 10000 5.14 220 21:20 19.02.2021
2367 Clouds 30 1010 79 10000 5.14 210 20:40 19.02.2021
2368 Clouds 30 1010 79 10000 5.14 210 20:22 19.02.2021
2369 Clouds 29 1011 84 10000 4.12 220 19:43 19.02.2021
2370 Clouds 29 1011 84 10000 4.12 220 19:20 19.02.2021
2371 Clouds 29 1011 84 10000 4.12 220 18:43 19.02.2021
2372 Rain 29 1011 84 10000 4.12 220 18:23 19.02.2021
2373 Rain 27 1012 94 10000 3.6 210 17:24 19.02.2021
2374 Rain 27 1012 89 10000 2.06 210 16:40 19.02.2021
2375 Rain 27 1012 89 10000 2.06 210 16:21 19.02.2021
2376 Rain 26 1012 94 10000 1.54 190 15:49 19.02.2021
2377 Rain 26 1012 94 10000 1.54 190 15:27 19.02.2021
2378 Rain 26 1014 83 10000 5.53 174 14:44 19.02.2021
2379 Rain 26 1013 83 10000 5.12 176 14:26 19.02.2021
2380 Rain 26 1013 83 10000 5.12 176 13:53 19.02.2021
2381 Rain 26 1012 83 10000 4.92 169 13:25 19.02.2021
2382 Rain 26 1012 83 10000 4.92 169 12:52 19.02.2021
2383 Rain 26 1012 83 10000 4.74 171 12:24 19.02.2021
2384 Rain 26 1012 83 10000 4.74 171 11:53 19.02.2021
2385 Rain 26 1012 82 10000 4.63 174 11:26 19.02.2021
2386 Rain 26 1012 82 10000 4.63 174 10:54 19.02.2021
2387 Rain 26 1012 82 10000 4.63 174 10:30 19.02.2021
2388 Rain 26 1012 80 10000 4.12 180 09:48 19.02.2021
2389 Rain 26 1012 78 10000 3.59 189 09:26 19.02.2021
2390 Rain 26 1012 78 10000 3.59 189 08:53 19.02.2021
2391 Rain 26 1013 77 10000 3.3 179 08:24 19.02.2021
2392 Rain 26 1013 77 10000 3.3 179 07:49 19.02.2021
2393 Rain 26 1013 77 10000 2.74 179 07:30 19.02.2021
2394 Rain 26 1014 78 10000 3.23 179 06:53 19.02.2021
2395 Rain 26 1014 78 10000 3.45 177 05:28 19.02.2021
2396 Rain 26 1014 78 10000 3.45 177 04:41 19.02.2021
2397 Rain 26 1014 78 10000 3.45 177 04:41 19.02.2021
2398 Rain 26 1012 78 10000 3.83 161 01:47 19.02.2021
2399 Rain 27 1009 94 10000 5.14 180 00:37 19.02.2021
2400 Rain 27 1009 94 10000 5.14 180 23:55 18.02.2021
2401 Rain 27 1009 94 10000 5.14 180 23:35 18.02.2021
2402 Clouds 29 1009 84 10000 5.66 210 22:50 18.02.2021
2403 Rain 29 1009 84 10000 5.66 210 22:29 18.02.2021
2404 Rain 30 1009 79 10000 5.14 180 21:48 18.02.2021
2405 Rain 30 1009 79 10000 5.14 180 21:25 18.02.2021
2406 Rain 30 1010 79 10000 4.63 180 20:43 18.02.2021
2407 Clouds 30 1010 79 10000 4.63 180 20:23 18.02.2021
2408 Clouds 30 1011 79 10000 5.14 210 19:46 18.02.2021
2409 Clouds 30 1011 79 10000 5.14 210 19:26 18.02.2021
2410 Clouds 29 1011 84 10000 4.12 230 18:53 18.02.2021
2411 Clouds 29 1011 84 10000 4.12 230 18:29 18.02.2021
2412 Clouds 29 1012 79 10000 4.12 240 17:52 18.02.2021
2413 Clouds 29 1012 79 10000 4.12 240 17:26 18.02.2021
2414 Clouds 28 1012 83 10000 2.57 240 16:53 18.02.2021
2415 Clouds 28 1012 83 10000 2.57 240 16:35 18.02.2021
2416 Clouds 28 1011 83 10000 2.57 270 15:55 18.02.2021
2417 Clouds 28 1011 83 10000 2.57 270 15:36 18.02.2021
2418 Clouds 28 1011 83 10000 2.57 270 15:18 18.02.2021
2419 Clouds 26 1014 78 10000 3.32 192 14:42 18.02.2021
2420 Clouds 26 1013 78 10000 3.16 189 13:58 18.02.2021
2421 Clouds 26 1013 78 10000 3.16 189 13:40 18.02.2021
2422 Rain 25 1013 82 10000 3.61 179 13:18 18.02.2021
2423 Rain 25 1013 82 10000 3.61 179 12:41 18.02.2021
2424 Clouds 25 1012 82 10000 3.59 184 12:18 18.02.2021
2425 Clouds 25 1012 82 10000 3.59 184 11:46 18.02.2021
2426 Clouds 26 1012 81 10000 3.36 190 11:25 18.02.2021
2427 Clouds 26 1012 81 10000 3.36 190 10:44 18.02.2021
2428 Clouds 26 1012 80 10000 2.92 191 10:25 18.02.2021
2429 Clouds 26 1012 80 10000 2.92 191 09:39 18.02.2021
2430 Clouds 26 1012 80 10000 2.62 190 09:20 18.02.2021
2431 Clouds 26 1012 80 10000 2.62 190 08:37 18.02.2021
2432 Clouds 26 1013 80 10000 2.09 181 08:19 18.02.2021
2433 Clouds 26 1013 80 10000 2.09 181 07:30 18.02.2021
2434 Clouds 26 1015 82 10000 1.47 175 06:29 18.02.2021
2435 Clouds 27 1011 74 10000 2.4 194 01:20 18.02.2021
2436 Clouds 29 1009 79 10000 3.09 320 23:49 17.02.2021
2437 Clouds 29 1009 79 10000 3.09 320 23:20 17.02.2021
2438 Clouds 29 1009 79 10000 4.12 320 22:46 17.02.2021
2439 Rain 29 1009 79 10000 4.12 320 22:22 17.02.2021
2440 Rain 30 1010 74 10000 3.09 280 21:48 17.02.2021
2441 Rain 30 1010 74 10000 3.09 280 21:21 17.02.2021
2442 Rain 29 1010 79 10000 3.09 320 20:45 17.02.2021
2443 Rain 29 1010 79 10000 3.09 320 20:25 17.02.2021
2444 Rain 29 1011 79 10000 5.66 20 19:41 17.02.2021
2445 Clouds 29 1011 79 10000 5.66 20 19:22 17.02.2021
2446 Rain 28 1012 83 10000 4.63 30 18:41 17.02.2021
2447 Rain 28 1012 83 10000 4.63 30 18:18 17.02.2021
2448 Rain 28 1012 83 10000 4.12 30 17:37 17.02.2021
2449 Rain 28 1012 83 10000 4.12 30 17:18 17.02.2021
2450 Rain 28 1012 83 10000 3.6 10 16:43 17.02.2021
2451 Rain 28 1012 83 10000 3.6 10 16:22 17.02.2021
2452 Rain 27 1012 89 10000 2.06 40 15:44 17.02.2021
2453 Rain 27 1012 89 10000 2.06 40 15:23 17.02.2021
2454 Rain 26 1014 77 10000 0.74 220 14:45 17.02.2021
2455 Rain 26 1013 79 10000 1.17 208 14:26 17.02.2021
2456 Rain 26 1013 79 10000 1.17 208 13:45 17.02.2021
2457 Clouds 26 1012 79 10000 2.51 194 13:27 17.02.2021
2458 Clouds 26 1012 79 10000 2.51 194 12:44 17.02.2021
2459 Clouds 25 1012 78 10000 1.23 194 12:22 17.02.2021
2460 Clouds 25 1012 78 10000 1.23 194 11:38 17.02.2021
2461 Rain 25 1012 78 10000 1.22 189 11:18 17.02.2021
2462 Rain 25 1012 78 10000 1.22 189 10:44 17.02.2021
2463 Rain 25 1012 80 10000 1.35 183 10:24 17.02.2021
2464 Rain 25 1012 80 10000 1.35 183 09:44 17.02.2021
2465 Rain 25 1012 81 10000 1.3 179 09:25 17.02.2021
2466 Rain 25 1012 81 10000 1.3 179 08:43 17.02.2021
2467 Rain 26 1013 82 10000 1.92 193 08:22 17.02.2021
2468 Rain 25 1013 83 7053 2.02 197 07:33 17.02.2021
2469 Clouds 26 1014 84 10000 2.77 203 06:19 17.02.2021
2470 Clouds 26 1013 81 10000 2.56 195 02:34 17.02.2021
2471 Rain 26 1012 79 10000 2.59 197 01:55 17.02.2021
2472 Clouds 28 1009 83 10000 4.63 190 00:33 17.02.2021
2473 Rain 28 1009 83 10000 4.63 190 23:55 16.02.2021
2474 Rain 28 1009 83 10000 4.63 190 23:36 16.02.2021
2475 Rain 28 1009 89 10000 4.63 170 22:43 16.02.2021
2476 Rain 28 1009 89 10000 4.63 170 22:25 16.02.2021
2477 Rain 29 1010 84 10000 4.12 170 21:42 16.02.2021
2478 Rain 29 1010 84 10000 4.12 170 21:22 16.02.2021
2479 Rain 29 1011 84 10000 4.63 190 20:59 16.02.2021
2480 Rain 29 1011 84 10000 4.63 190 20:41 16.02.2021
2481 Clouds 29 1011 84 10000 4.63 190 20:20 16.02.2021
2482 Clouds 27 1012 94 10000 3.09 170 19:42 16.02.2021
2483 Clouds 27 1012 94 10000 3.09 170 19:22 16.02.2021
2484 Rain 26 1012 94 10000 2.57 190 18:40 16.02.2021
2485 Rain 26 1012 94 10000 2.57 190 18:22 16.02.2021
2486 Drizzle 25 1013 100 8000 2.57 210 17:50 16.02.2021
2487 Drizzle 25 1013 100 8000 2.57 210 17:26 16.02.2021
2488 Drizzle 24 1013 100 5000 1.54 160 16:51 16.02.2021
2489 Drizzle 24 1013 100 5000 1.54 160 16:29 16.02.2021
2490 Drizzle 24 1012 100 3000 2.06 150 15:47 16.02.2021
2491 Drizzle 24 1012 100 3000 2.06 150 15:26 16.02.2021
2492 Clouds 26 1014 81 10000 3.32 182 14:51 16.02.2021
2493 Clouds 26 1014 81 10000 3.32 182 14:32 16.02.2021
2494 Clouds 25 1013 82 10000 3.38 181 13:58 16.02.2021
2495 Clouds 25 1013 82 10000 3.38 181 13:35 16.02.2021
2496 Clouds 25 1013 82 10000 3.15 183 12:47 16.02.2021
2497 Rain 25 1013 81 10000 2.39 180 12:26 16.02.2021
2498 Rain 25 1013 81 10000 2.39 180 11:50 16.02.2021
2499 Rain 25 1012 82 10000 2.5 177 11:24 16.02.2021
2500 Rain 25 1012 82 10000 2.5 177 11:24 16.02.2021
2501 Rain 25 1012 82 10000 2.5 177 10:58 16.02.2021
2502 Rain 25 1012 82 10000 2.5 177 10:39 16.02.2021
2503 Rain 25 1012 83 10000 2.78 177 10:20 16.02.2021
2504 Rain 25 1012 83 10000 2.78 177 09:48 16.02.2021
2505 Rain 25 1012 84 10000 3.04 175 09:26 16.02.2021
2506 Rain 25 1012 84 10000 3.04 175 08:45 16.02.2021
2507 Rain 25 1012 84 10000 3.04 175 08:45 16.02.2021
2508 Rain 25 1013 84 10000 2.88 165 08:22 16.02.2021
2509 Rain 25 1013 84 10000 2.88 165 07:30 16.02.2021
2510 Rain 26 1015 85 10000 2.31 153 06:24 16.02.2021
2511 Clouds 26 1012 80 10000 2.43 163 01:52 16.02.2021
2512 Clouds 28 1009 83 10000 4.12 180 23:46 15.02.2021
2513 Clouds 28 1009 83 10000 4.12 180 23:24 15.02.2021
2514 Clouds 28 1010 83 10000 5.66 220 22:46 15.02.2021
2515 Clouds 28 1010 83 10000 5.66 220 22:23 15.02.2021
2516 Clouds 29 1011 84 10000 4.63 220 21:42 15.02.2021
2517 Rain 29 1011 84 10000 4.63 220 21:23 15.02.2021
2518 Rain 29 1011 84 10000 4.63 250 20:49 15.02.2021
2519 Rain 29 1011 84 10000 4.63 250 20:29 15.02.2021
2520 Rain 28 1012 89 10000 4.12 240 19:48 15.02.2021
2521 Rain 28 1012 89 10000 4.12 240 19:24 15.02.2021
2522 Rain 28 1012 89 10000 4.12 240 19:24 15.02.2021
2523 Rain 27 1013 94 10000 3.6 210 18:47 15.02.2021
2524 Rain 27 1013 94 10000 3.6 210 18:26 15.02.2021
2525 Rain 26 1013 94 10000 3.09 220 17:44 15.02.2021
2526 Rain 26 1013 94 10000 3.09 220 17:26 15.02.2021
2527 Rain 25 1013 100 5000 3.6 150 16:57 15.02.2021
2528 Rain 25 1013 100 5000 3.6 150 16:28 15.02.2021
2529 Rain 24 1012 100 8000 2.57 170 15:57 15.02.2021
2530 Rain 24 1012 100 8000 2.57 170 15:38 15.02.2021
2531 Rain 24 1012 100 8000 2.57 170 15:18 15.02.2021
2532 Rain 26 1014 81 10000 2.89 142 14:38 15.02.2021
2533 Rain 26 1013 82 10000 2.64 154 14:19 15.02.2021
2534 Rain 26 1013 81 10000 4.15 170 13:47 15.02.2021
2535 Rain 25 1013 82 10000 4.3 168 13:19 15.02.2021
2536 Rain 25 1013 82 10000 4.3 168 12:45 15.02.2021
2537 Rain 25 1012 82 10000 4.59 165 12:21 15.02.2021
2538 Rain 25 1012 82 10000 4.59 165 11:42 15.02.2021
2539 Rain 25 1012 83 10000 4.47 162 11:19 15.02.2021
2540 Rain 25 1012 83 10000 4.47 162 10:47 15.02.2021
2541 Rain 25 1011 83 10000 4.35 163 10:24 15.02.2021
2542 Rain 25 1011 83 10000 4.35 163 09:55 15.02.2021
2543 Rain 25 1011 83 10000 4.35 163 09:33 15.02.2021
2544 Rain 26 1012 83 10000 4.14 160 08:45 15.02.2021
2545 Rain 26 1012 83 10000 4.13 163 07:40 15.02.2021
2546 Rain 26 1012 83 10000 4.13 163 07:40 15.02.2021
2547 Rain 26 1013 84 10000 4.85 163 06:58 15.02.2021
2548 Rain 26 1013 84 10000 4.85 163 06:37 15.02.2021
2549 Clouds 26 1012 83 10000 4.53 160 02:30 15.02.2021
2550 Rain 26 1010 82 10000 5.72 163 00:45 15.02.2021
2551 Rain 24 1009 100 5000 3.09 170 23:34 14.02.2021
2552 Rain 24 1009 100 5000 3.6 180 22:55 14.02.2021
2553 Rain 24 1009 100 5000 3.6 180 22:36 14.02.2021
2554 Drizzle 24 1009 100 5000 3.6 180 22:18 14.02.2021
2555 Rain 25 1010 100 8000 4.12 160 21:43 14.02.2021
2556 Rain 25 1010 100 8000 4.12 160 21:23 14.02.2021
2557 Drizzle 25 1010 100 8000 4.12 160 21:23 14.02.2021
2558 Rain 25 1010 100 8000 3.09 130 20:39 14.02.2021
2559 Rain 25 1010 100 8000 3.09 130 20:20 14.02.2021
2560 Rain 25 1010 100 8000 4.63 150 19:40 14.02.2021
2561 Rain 27 1011 89 10000 4.63 130 18:51 14.02.2021
2562 Rain 27 1011 89 10000 4.63 130 18:29 14.02.2021
2563 Rain 27 1011 89 10000 3.6 210 17:51 14.02.2021
2564 Rain 27 1011 89 10000 3.6 210 17:32 14.02.2021
2565 Rain 26 1011 94 10000 3.09 200 16:44 14.02.2021
2566 Rain 26 1011 94 10000 3.09 200 16:25 14.02.2021
2567 Rain 26 1010 94 10000 4.12 200 15:47 14.02.2021
2568 Rain 26 1010 94 10000 4.12 200 15:29 14.02.2021
2569 Rain 26 1013 83 9240 6.3 150 14:43 14.02.2021
2570 Rain 26 1012 83 8531 5.76 149 14:24 14.02.2021
2571 Rain 26 1012 83 8531 5.76 149 13:41 14.02.2021
2572 Rain 25 1011 84 8829 6.04 152 13:23 14.02.2021
2573 Rain 26 1010 83 10000 5.33 153 12:24 14.02.2021
2574 Rain 26 1010 83 10000 5.33 153 11:52 14.02.2021
2575 Rain 26 1010 83 10000 5.33 153 11:33 14.02.2021
2576 Rain 26 1010 83 10000 4.51 156 10:59 14.02.2021
2577 Rain 26 1010 83 10000 3.91 162 10:23 14.02.2021
2578 Rain 26 1010 83 10000 3.91 162 09:40 14.02.2021
2579 Rain 25 1010 84 8109 3.63 162 09:21 14.02.2021
2580 Rain 25 1010 84 8109 3.63 162 08:56 14.02.2021
2581 Rain 26 1011 85 8663 3.64 158 07:58 14.02.2021
2582 Rain 26 1012 85 10000 4.24 177 06:54 14.02.2021
2583 Rain 26 1012 85 10000 4.28 174 05:43 14.02.2021
2584 Rain 26 1011 85 10000 4.47 174 03:51 14.02.2021
2585 Clouds 26 1009 84 10000 4.45 172 02:29 14.02.2021
2586 Rain 26 1009 83 10000 4.78 189 00:54 14.02.2021
2587 Rain 29 1006 79 10000 7.2 180 00:34 14.02.2021
2588 Rain 29 1006 79 10000 7.2 180 23:42 13.02.2021
2589 Rain 29 1006 79 10000 7.2 180 23:23 13.02.2021
2590 Rain 29 1007 79 10000 6.69 150 22:47 13.02.2021
2591 Rain 29 1007 79 10000 6.69 150 22:20 13.02.2021
2592 Rain 29 1007 79 10000 6.69 160 21:44 13.02.2021
2593 Rain 29 1007 79 10000 6.69 160 21:22 13.02.2021
2594 Rain 30 1008 74 10000 7.2 170 20:30 13.02.2021
2595 Rain 30 1009 79 10000 8.23 150 19:58 13.02.2021
2596 Rain 30 1009 79 10000 8.23 150 19:39 13.02.2021
2597 Rain 30 1009 79 10000 8.23 150 19:21 13.02.2021
2598 Rain 29 1009 84 10000 7.72 160 18:44 13.02.2021
2599 Clouds 29 1009 84 10000 7.72 160 18:22 13.02.2021
2600 Clouds 29 1009 84 10000 7.2 170 17:42 13.02.2021
2601 Clouds 29 1009 84 10000 7.2 170 17:22 13.02.2021
2602 Clouds 28 1009 89 10000 6.69 160 16:42 13.02.2021
2603 Clouds 28 1009 89 10000 6.69 160 16:21 13.02.2021
2604 Clouds 27 1008 89 10000 4.63 160 15:39 13.02.2021
2605 Rain 26 1011 84 10000 5.35 170 14:57 13.02.2021
2606 Rain 26 1011 84 10000 5.35 170 14:32 13.02.2021
2607 Rain 26 1010 84 10000 5.29 170 13:48 13.02.2021
2608 Rain 25 1010 85 10000 5.53 176 13:24 13.02.2021
2609 Rain 25 1010 84 10000 5.24 171 12:46 13.02.2021
2610 Rain 25 1009 84 10000 5.04 176 12:18 13.02.2021
2611 Rain 25 1009 84 10000 5.04 176 11:45 13.02.2021
2612 Rain 25 1009 84 10000 4.82 181 11:19 13.02.2021
2613 Rain 25 1009 84 10000 4.82 181 10:45 13.02.2021
2614 Rain 25 1009 84 10000 4.36 184 10:24 13.02.2021
2615 Rain 25 1009 84 10000 4.36 184 09:53 13.02.2021
2616 Rain 25 1009 84 10000 4.36 184 09:30 13.02.2021
2617 Rain 25 1010 84 10000 4.22 184 08:54 13.02.2021
2618 Rain 25 1010 84 10000 4.22 184 08:31 13.02.2021
2619 Rain 25 1010 85 10000 4.28 188 07:46 13.02.2021
2620 Rain 25 1011 85 10000 4.25 185 06:37 13.02.2021
2621 Rain 26 1012 85 10000 4.3 187 05:19 13.02.2021
2622 Rain 26 1011 86 10000 4.14 186 03:47 13.02.2021
2623 Clouds 26 1009 84 10000 4.66 182 01:32 13.02.2021
2624 Clouds 27 1006 89 10000 5.14 210 00:23 13.02.2021
2625 Clouds 27 1006 89 10000 5.14 210 23:48 12.02.2021
2626 Rain 27 1006 89 10000 5.14 210 23:20 12.02.2021
2627 Rain 27 1006 89 10000 5.66 200 22:38 12.02.2021
2628 Rain 27 1006 89 10000 5.66 200 22:18 12.02.2021
2629 Rain 27 1007 89 10000 4.12 210 21:42 12.02.2021
2630 Rain 27 1007 89 10000 4.12 210 21:23 12.02.2021
2631 Rain 27 1008 89 10000 5.66 220 20:45 12.02.2021
2632 Rain 27 1008 89 10000 5.66 220 20:27 12.02.2021
2633 Clouds 28 1009 89 10000 4.63 210 19:55 12.02.2021
2634 Clouds 28 1009 89 10000 4.63 210 19:30 12.02.2021
2635 Rain 27 1009 89 10000 4.12 210 18:54 12.02.2021
2636 Rain 27 1009 89 10000 4.12 210 18:28 12.02.2021
2637 Rain 27 1010 94 10000 3.09 180 17:43 12.02.2021
2638 Rain 26 1009 94 10000 2.06 210 16:56 12.02.2021
2639 Rain 26 1009 94 10000 2.06 210 16:21 12.02.2021
2640 Rain 25 1009 100 10000 1.54 240 15:44 12.02.2021
2641 Rain 25 1009 100 10000 1.54 240 15:20 12.02.2021
2642 Rain 26 1011 82 10000 3.24 161 14:39 12.02.2021
2643 Rain 25 1010 83 10000 3.33 173 13:56 12.02.2021
2644 Rain 25 1011 85 10000 4.75 184 13:37 12.02.2021
2645 Rain 25 1010 85 10000 4.71 188 12:55 12.02.2021
2646 Rain 25 1010 85 10000 4.71 188 12:36 12.02.2021
2647 Rain 25 1009 85 10000 4.72 195 11:48 12.02.2021
2648 Rain 25 1009 85 10000 4.7 203 11:22 12.02.2021
2649 Rain 25 1009 85 10000 4.7 203 10:50 12.02.2021
2650 Rain 25 1009 85 10000 4.7 203 10:31 12.02.2021
2651 Rain 25 1009 86 10000 4.68 206 09:42 12.02.2021
2652 Rain 25 1009 86 10000 4.47 205 09:23 12.02.2021
2653 Rain 25 1009 86 10000 4.47 205 08:46 12.02.2021
2654 Rain 25 1010 86 10000 4.34 205 08:25 12.02.2021
2655 Rain 25 1010 86 10000 4.34 205 07:52 12.02.2021
2656 Rain 25 1011 86 10000 3.96 204 07:24 12.02.2021
2657 Rain 25 1011 87 10000 4.83 201 06:53 12.02.2021
2658 Rain 25 1011 87 10000 4.47 199 05:37 12.02.2021
2659 Rain 25 1010 87 10000 3.47 186 03:35 12.02.2021
2660 Rain 27 1005 89 10000 3.09 210 00:32 12.02.2021
2661 Rain 27 1005 89 10000 3.09 210 23:38 11.02.2021
2662 Rain 27 1005 89 10000 3.09 210 23:18 11.02.2021
2663 Rain 27 1006 89 10000 2.57 220 22:42 11.02.2021
2664 Rain 27 1006 89 10000 2.57 220 22:22 11.02.2021
2665 Rain 29 1006 84 10000 3.09 220 21:43 11.02.2021
2666 Rain 29 1006 84 10000 3.09 220 21:24 11.02.2021
2667 Rain 28 1008 83 10000 3.09 270 20:54 11.02.2021
2668 Rain 28 1008 83 10000 3.09 270 20:36 11.02.2021
2669 Rain 28 1008 83 10000 3.09 270 20:18 11.02.2021
2670 Rain 27 1009 89 10000 3.09 290 19:45 11.02.2021
2671 Rain 27 1009 89 10000 3.09 290 19:23 11.02.2021
2672 Rain 27 1009 89 10000 3.6 270 18:37 11.02.2021
2673 Clouds 27 1009 89 10000 3.6 270 18:18 11.02.2021
2674 Clouds 27 1009 89 10000 2.57 190 17:39 11.02.2021
2675 Rain 27 1009 89 10000 2.57 190 17:20 11.02.2021
2676 Rain 26 1009 94 10000 2.06 180 16:42 11.02.2021
2677 Rain 26 1009 94 10000 2.06 180 16:24 11.02.2021
2678 Rain 26 1009 94 10000 1.54 190 15:45 11.02.2021
2679 Rain 26 1009 94 10000 1.54 190 15:26 11.02.2021
2680 Rain 25 1011 87 10000 2.82 181 14:53 11.02.2021
2681 Rain 25 1011 87 10000 2.82 181 14:30 11.02.2021
2682 Rain 25 1010 87 10000 2.88 168 13:42 11.02.2021
2683 Rain 25 1009 88 10000 3.16 161 13:19 11.02.2021
2684 Rain 25 1010 88 10000 4.3 191 12:53 11.02.2021
2685 Rain 25 1010 88 10000 4.3 191 12:32 11.02.2021
2686 Rain 25 1009 88 10000 4.18 189 11:47 11.02.2021
2687 Rain 25 1008 89 10000 4 189 11:26 11.02.2021
2688 Rain 25 1008 89 10000 4 189 10:45 11.02.2021
2689 Rain 25 1009 89 10000 3.69 185 10:26 11.02.2021
2690 Rain 25 1009 89 10000 3.69 185 09:55 11.02.2021
2691 Rain 25 1010 89 10000 3.38 188 09:24 11.02.2021
2692 Rain 25 1010 89 10000 3.38 188 08:54 11.02.2021
2693 Clouds 25 1010 88 10000 3.18 186 08:28 11.02.2021
2694 Clouds 25 1010 88 10000 3.18 186 07:39 11.02.2021
2695 Clouds 25 1011 88 10000 3.1 196 06:41 11.02.2021
2696 Clouds 25 1011 88 10000 3.04 192 05:38 11.02.2021
2697 Rain 25 1010 87 10000 3.69 165 02:29 11.02.2021
2698 Rain 25 1009 87 10000 3.81 162 01:29 11.02.2021
2699 Clouds 27 1007 89 10000 4.12 170 00:22 11.02.2021
2700 Clouds 27 1007 89 10000 4.12 170 23:45 10.02.2021
2701 Clouds 28 1007 83 10000 4.63 200 22:53 10.02.2021
2702 Clouds 28 1007 83 10000 4.63 200 22:53 10.02.2021
2703 Clouds 28 1007 83 10000 4.63 200 22:29 10.02.2021
2704 Clouds 26 1008 94 10000 2.06 190 21:59 10.02.2021
2705 Clouds 26 1008 94 10000 2.06 190 21:38 10.02.2021
2706 Clouds 26 1008 94 10000 2.06 190 21:19 10.02.2021
2707 Drizzle 25 1009 100 5000 2.06 260 20:41 10.02.2021
2708 Rain 25 1009 100 5000 2.06 260 20:22 10.02.2021
2709 Rain 25 1010 100 5000 2.57 270 19:45 10.02.2021
2710 Drizzle 25 1010 100 5000 2.57 270 19:24 10.02.2021
2711 Rain 26 1012 84 10000 3.8 149 18:42 10.02.2021
2712 Clouds 26 1012 84 10000 3.73 149 18:22 10.02.2021
2713 Clouds 26 1012 84 10000 3.73 149 17:55 10.02.2021
2714 Clouds 25 1012 85 10000 3.89 148 17:24 10.02.2021
2715 Clouds 25 1012 85 10000 3.89 148 16:53 10.02.2021
2716 Clouds 25 1012 85 10000 3.89 148 16:30 10.02.2021
2717 Rain 25 1013 86 10000 3.73 148 15:55 10.02.2021
2718 Clear 25 1012 87 10000 3.75 148 15:23 10.02.2021
2719 Clear 25 1012 87 10000 3.75 148 14:47 10.02.2021
2720 Clouds 25 1012 88 10000 3.73 150 14:27 10.02.2021
2721 Clouds 25 1012 88 10000 3.73 150 13:51 10.02.2021
2722 Clouds 25 1011 88 10000 3.88 148 13:28 10.02.2021
2723 Rain 25 1011 88 10000 3.36 159 12:48 10.02.2021
2724 Rain 25 1010 88 10000 3.4 160 12:29 10.02.2021
2725 Rain 25 1010 88 10000 3.4 160 11:48 10.02.2021
2726 Rain 25 1010 88 10000 3.44 159 11:29 10.02.2021
2727 Rain 25 1010 88 10000 3.44 159 10:52 10.02.2021
2728 Clear 25 1010 88 10000 3.42 158 10:21 10.02.2021
2729 Clear 25 1010 88 10000 3.42 158 09:44 10.02.2021
2730 Rain 25 1010 89 10000 3.66 158 09:22 10.02.2021
2731 Rain 25 1010 89 10000 3.66 158 08:50 10.02.2021
2732 Rain 25 1010 89 10000 3.66 158 08:30 10.02.2021
2733 Rain 25 1012 91 10000 3.58 152 07:22 10.02.2021
2734 Clouds 25 1012 89 10000 3.37 166 04:54 10.02.2021
2735 Clouds 26 1009 85 10000 3.52 156 01:20 10.02.2021
2736 Clouds 29 1007 84 10000 5.66 180 23:40 09.02.2021
2737 Clouds 29 1007 84 10000 5.66 180 23:19 09.02.2021
2738 Clouds 29 1007 84 10000 6.17 180 22:41 09.02.2021
2739 Clouds 29 1007 84 10000 6.17 180 22:23 09.02.2021
2740 Clouds 28 1009 89 10000 6.17 180 21:40 09.02.2021
2741 Clouds 28 1009 89 10000 6.17 180 21:19 09.02.2021
2742 Clouds 28 1009 89 10000 6.69 190 20:41 09.02.2021
2743 Clouds 28 1009 89 10000 6.69 190 20:23 09.02.2021
2744 Clouds 29 1009 84 10000 7.2 170 19:39 09.02.2021
2745 Clouds 29 1009 84 10000 7.2 170 19:20 09.02.2021
2746 Clouds 28 1009 89 10000 6.17 160 18:41 09.02.2021
2747 Clouds 28 1009 89 10000 6.17 160 18:20 09.02.2021
2748 Clouds 28 1010 89 10000 5.66 140 17:42 09.02.2021
2749 Clouds 28 1010 89 10000 5.66 140 17:23 09.02.2021
2750 Clouds 27 1010 94 10000 5.14 140 16:49 09.02.2021
2751 Clouds 27 1010 94 10000 5.14 140 16:19 09.02.2021
2752 Clouds 27 1010 94 10000 5.66 160 15:50 09.02.2021
2753 Clouds 27 1010 94 10000 5.66 160 15:27 09.02.2021
2754 Clouds 25 1012 88 10000 4.27 143 14:56 09.02.2021
2755 Clouds 25 1012 88 10000 4.22 146 14:28 09.02.2021
2756 Clouds 25 1012 88 10000 4.22 146 13:54 09.02.2021
2757 Clouds 25 1011 88 10000 4.18 144 13:29 09.02.2021
2758 Clouds 25 1011 89 10000 4.37 143 12:57 09.02.2021
2759 Clouds 25 1011 89 10000 4.37 143 12:38 09.02.2021
2760 Clouds 25 1011 89 10000 4.18 141 12:20 09.02.2021
2761 Clouds 25 1011 89 10000 4.18 141 11:41 09.02.2021
2762 Clouds 25 1010 89 10000 3.66 145 11:20 09.02.2021
2763 Clouds 25 1010 89 10000 3.66 145 10:50 09.02.2021
2764 Clouds 25 1010 89 10000 3.57 143 10:19 09.02.2021
2765 Clouds 25 1010 89 10000 3.57 143 09:43 09.02.2021
2766 Rain 25 1010 89 10000 3.56 140 09:25 09.02.2021
2767 Rain 25 1010 89 10000 3.56 140 08:47 09.02.2021
2768 Rain 25 1011 89 10000 3.73 140 08:26 09.02.2021
2769 Clouds 25 1012 88 10000 3.52 137 06:55 09.02.2021
2770 Clouds 25 1012 88 10000 3.12 146 04:53 09.02.2021
2771 Clouds 25 1012 88 10000 3.31 151 03:41 09.02.2021
2772 Clouds 28 1007 89 10000 5.14 150 00:39 09.02.2021
2773 Clouds 28 1007 89 10000 5.14 150 23:57 08.02.2021
2774 Clouds 28 1007 89 10000 5.14 150 23:22 08.02.2021
2775 Clouds 29 1007 84 10000 5.14 160 22:44 08.02.2021
2776 Clouds 29 1007 84 10000 5.14 160 22:26 08.02.2021
2777 Clouds 29 1008 84 10000 5.66 170 21:57 08.02.2021
2778 Clouds 29 1008 84 10000 5.66 170 21:34 08.02.2021
2779 Clouds 30 1008 79 10000 6.69 160 20:59 08.02.2021
2780 Clouds 30 1008 79 10000 6.69 160 20:40 08.02.2021
2781 Clouds 30 1008 79 10000 6.69 160 20:21 08.02.2021
2782 Rain 29 1009 84 10000 5.66 150 19:44 08.02.2021
2783 Clouds 29 1009 84 10000 5.66 150 19:25 08.02.2021
2784 Clouds 29 1009 84 10000 6.17 150 18:49 08.02.2021
2785 Clouds 29 1009 84 10000 6.17 150 18:23 08.02.2021
2786 Clouds 29 1009 79 10000 5.14 150 17:46 08.02.2021
2787 Clouds 29 1009 79 10000 5.14 150 17:26 08.02.2021
2788 Clouds 27 1009 89 10000 6.69 150 16:45 08.02.2021
2789 Clouds 27 1009 89 10000 6.69 150 16:21 08.02.2021
2790 Clouds 26 1009 89 10000 5.14 150 15:48 08.02.2021
2791 Clouds 26 1009 89 10000 5.14 150 15:20 08.02.2021
2792 Clouds 26 1011 89 10000 6.07 146 14:53 08.02.2021
2793 Clouds 26 1011 89 10000 6.07 146 14:32 08.02.2021
2794 Clouds 25 1011 90 10000 5.87 154 13:57 08.02.2021
2795 Clouds 25 1011 90 10000 5.87 154 13:38 08.02.2021
2796 Clouds 25 1010 90 10000 5.28 153 13:20 08.02.2021
2797 Clouds 25 1011 89 10000 4.58 159 12:37 08.02.2021
2798 Rain 25 1010 89 10000 4.84 150 11:51 08.02.2021
2799 Rain 25 1010 89 10000 4.8 144 11:22 08.02.2021
2800 Rain 25 1010 89 10000 4.8 144 10:45 08.02.2021
2801 Rain 25 1009 88 10000 4.48 143 10:24 08.02.2021
2802 Rain 25 1009 88 10000 4.48 143 09:54 08.02.2021
2803 Rain 25 1009 88 10000 4.48 143 09:36 08.02.2021
2804 Rain 25 1010 89 10000 3.76 140 08:50 08.02.2021
2805 Clouds 25 1011 89 10000 3.4 142 08:21 08.02.2021
2806 Clouds 25 1011 89 10000 3.4 142 07:35 08.02.2021
2807 Rain 25 1012 89 10000 2.59 155 06:29 08.02.2021
2808 Rain 26 1011 87 10000 2.87 158 02:37 08.02.2021
2809 Rain 26 1010 86 10000 3.04 161 01:48 08.02.2021
2810 Rain 27 1006 89 10000 5.66 150 00:21 08.02.2021
2811 Rain 27 1006 89 10000 5.66 150 23:50 07.02.2021
2812 Rain 27 1006 89 10000 5.66 150 23:50 07.02.2021
2813 Rain 27 1006 89 10000 5.66 150 23:21 07.02.2021
2814 Rain 28 1006 83 10000 7.2 150 22:45 07.02.2021
2815 Rain 28 1006 83 10000 7.2 150 22:27 07.02.2021
2816 Rain 29 1007 79 10000 6.69 170 21:53 07.02.2021
2817 Rain 29 1007 79 10000 6.69 170 21:28 07.02.2021
2818 Rain 30 1007 74 10000 8.23 170 20:59 07.02.2021
2819 Rain 30 1007 74 10000 8.23 170 20:40 07.02.2021
2820 Rain 30 1007 74 10000 8.23 170 20:22 07.02.2021
2821 Rain 30 1007 74 10000 8.23 170 20:22 07.02.2021
2822 Rain 30 1008 70 10000 6.17 180 19:39 07.02.2021
2823 Rain 30 1008 70 10000 6.17 180 19:20 07.02.2021
2824 Rain 29 1008 79 10000 7.72 180 18:40 07.02.2021
2825 Clouds 29 1008 79 10000 7.72 180 18:22 07.02.2021
2826 Clouds 29 1009 79 10000 4.12 150 17:44 07.02.2021
2827 Clouds 29 1009 79 10000 4.12 150 17:20 07.02.2021
2828 Clouds 28 1009 78 10000 5.14 150 16:48 07.02.2021
2829 Rain 28 1009 78 10000 5.14 150 16:29 07.02.2021
2830 Rain 27 1008 89 10000 6.69 150 15:58 07.02.2021
2831 Rain 27 1008 89 10000 6.69 150 15:40 07.02.2021
2832 Clouds 27 1008 89 10000 6.69 150 15:21 07.02.2021
2833 Clouds 25 1011 87 10000 3.81 148 14:39 07.02.2021
2834 Clouds 25 1011 87 10000 4.06 153 14:21 07.02.2021
2835 Clouds 25 1011 87 10000 4.06 153 13:36 07.02.2021
2836 Clouds 25 1011 87 10000 4 158 12:59 07.02.2021
2837 Clouds 25 1011 87 10000 4 158 12:38 07.02.2021
2838 Rain 25 1010 86 10000 3.88 166 12:19 07.02.2021
2839 Rain 25 1010 86 10000 3.78 174 11:28 07.02.2021
2840 Rain 25 1010 86 10000 3.78 174 10:58 07.02.2021
2841 Rain 25 1010 86 10000 3.53 174 10:28 07.02.2021
2842 Rain 25 1010 86 10000 3.53 174 09:51 07.02.2021
2843 Rain 25 1010 86 10000 3.23 169 09:25 07.02.2021
2844 Rain 25 1010 86 10000 3.23 169 08:38 07.02.2021
2845 Rain 25 1011 86 10000 3.38 164 07:47 07.02.2021
2846 Clouds 25 1012 87 10000 3.69 172 05:58 07.02.2021
2847 Clouds 25 1012 87 10000 3.69 172 05:58 07.02.2021
2848 Clouds 25 1012 85 10000 3.41 175 03:59 07.02.2021
2849 Clouds 25 1010 83 10000 3.56 163 01:51 07.02.2021
2850 Clouds 28 1006 89 10000 5.66 170 00:36 07.02.2021
2851 Clouds 28 1006 89 10000 5.66 170 23:48 06.02.2021
2852 Clouds 29 1006 84 10000 6.17 120 22:50 06.02.2021
2853 Clouds 29 1007 79 10000 4.63 180 21:45 06.02.2021
2854 Clouds 29 1007 79 10000 4.63 180 21:24 06.02.2021
2855 Clouds 28 1008 83 10000 5.14 160 20:53 06.02.2021
2856 Clouds 28 1008 83 10000 5.14 160 20:26 06.02.2021
2857 Clouds 29 1009 79 10000 7.2 180 19:59 06.02.2021
2858 Clouds 29 1009 79 10000 7.2 180 19:35 06.02.2021
2859 Clouds 29 1009 79 10000 7.72 150 18:59 06.02.2021
2860 Clouds 29 1009 79 10000 7.72 150 18:41 06.02.2021
2861 Clouds 29 1009 79 10000 7.72 150 18:20 06.02.2021
2862 Clouds 25 1011 82 10000 5.48 150 17:40 06.02.2021
2863 Clouds 25 1012 83 10000 5.64 152 17:20 06.02.2021
2864 Clouds 25 1012 83 10000 5.64 152 16:42 06.02.2021
2865 Clouds 27 1009 94 10000 5.66 180 16:24 06.02.2021
2866 Clouds 27 1009 94 10000 5.66 180 15:50 06.02.2021
2867 Clouds 27 1009 94 10000 5.66 180 15:29 06.02.2021
2868 Clouds 25 1012 84 10000 5.63 152 14:47 06.02.2021
2869 Clear 25 1011 85 10000 5.71 153 14:28 06.02.2021
2870 Clear 25 1011 85 10000 5.71 153 13:55 06.02.2021
2871 Clear 25 1011 85 10000 5.71 153 13:36 06.02.2021
2872 Clouds 25 1011 85 10000 5.41 163 12:23 06.02.2021
2873 Clouds 25 1011 85 10000 5.41 163 11:58 06.02.2021
2874 Clouds 25 1011 85 10000 5.41 163 11:39 06.02.2021
2875 Clouds 25 1010 85 10000 5.31 162 11:19 06.02.2021
2876 Clouds 25 1010 85 10000 5.31 162 11:19 06.02.2021
2877 Clouds 25 1010 85 10000 5.31 162 10:44 06.02.2021
2878 Clear 25 1010 85 10000 5.36 157 10:24 06.02.2021
2879 Clear 25 1010 85 10000 5.36 157 09:37 06.02.2021
2880 Clear 25 1011 85 10000 5.24 158 09:18 06.02.2021
2881 Clear 25 1011 85 10000 5.24 158 08:49 06.02.2021
2882 Clear 25 1011 86 10000 4.88 161 08:28 06.02.2021
2883 Clear 25 1012 86 10000 4.84 157 06:40 06.02.2021
2884 Clouds 25 1012 86 10000 3.68 163 04:45 06.02.2021
2885 Clouds 25 1011 86 10000 4.01 161 02:39 06.02.2021
2886 Clouds 25 1009 83 10000 5.05 168 00:49 06.02.2021
2887 Clouds 28 1006 83 10000 7.2 150 00:20 06.02.2021
2888 Clouds 28 1006 83 10000 7.2 150 23:46 05.02.2021
2889 Clouds 28 1006 83 10000 7.2 150 23:26 05.02.2021
2890 Clouds 29 1007 79 10000 7.72 150 22:47 05.02.2021
2891 Clouds 29 1007 79 10000 7.72 150 22:23 05.02.2021
2892 Clouds 29 1008 79 10000 7.2 150 21:49 05.02.2021
2893 Clouds 29 1008 79 10000 7.2 150 21:28 05.02.2021
2894 Clouds 30 1009 79 10000 6.17 180 20:47 05.02.2021
2895 Clouds 30 1010 79 10000 5.66 150 19:53 05.02.2021
2896 Clouds 30 1010 79 10000 5.66 150 19:21 05.02.2021
2897 Clouds 28 1010 89 10000 7.72 180 18:54 05.02.2021
2898 Clouds 28 1010 89 10000 7.72 180 18:28 05.02.2021
2899 Clouds 29 1011 84 10000 7.2 180 17:47 05.02.2021
2900 Clouds 29 1011 84 10000 7.2 180 17:47 05.02.2021
2901 Clouds 29 1011 84 10000 7.2 180 17:27 05.02.2021
2902 Clouds 27 1011 89 10000 5.14 150 16:50 05.02.2021
2903 Clouds 27 1011 89 10000 5.14 150 16:50 05.02.2021
2904 Clouds 27 1011 89 10000 5.14 150 16:24 05.02.2021
2905 Clouds 27 1010 89 10000 6.69 160 15:57 05.02.2021
2906 Clouds 27 1010 89 10000 6.69 160 15:27 05.02.2021
2907 Clouds 25 1013 82 10000 4.83 168 14:55 05.02.2021
2908 Clouds 25 1013 82 10000 4.83 168 14:36 05.02.2021
2909 Clouds 25 1012 82 10000 5.04 167 14:18 05.02.2021
2910 Clouds 25 1012 82 10000 5.04 167 13:37 05.02.2021
2911 Clouds 25 1011 84 10000 5.31 172 12:56 05.02.2021
2912 Clouds 25 1011 84 10000 5.31 172 12:37 05.02.2021
2913 Clouds 25 1011 83 10000 5.41 167 11:42 05.02.2021
2914 Clouds 25 1011 83 10000 5.21 167 11:22 05.02.2021
2915 Clouds 25 1011 83 10000 5.21 167 10:59 05.02.2021
2916 Clouds 25 1011 82 10000 4.89 163 10:27 05.02.2021
2917 Clouds 25 1011 82 10000 4.89 163 09:48 05.02.2021
2918 Clouds 25 1011 82 10000 4.89 163 09:48 05.02.2021
2919 Clouds 25 1011 83 10000 4.74 165 09:29 05.02.2021
2920 Clouds 25 1011 83 10000 4.74 165 08:58 05.02.2021
2921 Clouds 25 1011 83 10000 4.65 157 08:23 05.02.2021
2922 Clouds 25 1011 83 10000 4.65 157 07:37 05.02.2021
2923 Clear 25 1012 83 10000 4.59 162 06:54 05.02.2021
2924 Clear 25 1012 83 10000 4.42 161 05:38 05.02.2021
2925 Clear 25 1011 83 10000 4.51 146 03:22 05.02.2021
2926 Clear 25 1010 82 10000 4.73 151 02:24 05.02.2021
2927 Clouds 25 1010 82 10000 4.13 168 00:41 05.02.2021
2928 Clouds 28 1007 83 10000 5.14 180 00:20 05.02.2021
2929 Clouds 28 1007 83 10000 5.14 180 23:57 04.02.2021
2930 Clouds 28 1007 83 10000 5.14 180 23:39 04.02.2021
2931 Clouds 28 1007 83 10000 5.14 180 23:20 04.02.2021
2932 Clouds 28 1007 83 10000 5.14 180 23:20 04.02.2021
2933 Clouds 29 1006 79 10000 7.2 160 22:51 04.02.2021
2934 Clouds 29 1006 79 10000 7.2 160 22:51 04.02.2021
2935 Clouds 29 1006 79 10000 7.2 160 22:26 04.02.2021
2936 Clouds 29 1007 79 10000 6.17 180 21:42 04.02.2021
2937 Clouds 29 1007 79 10000 6.17 180 21:20 04.02.2021
2938 Clouds 29 1008 79 10000 8.23 160 20:48 04.02.2021
2939 Clouds 29 1008 79 10000 8.23 160 20:29 04.02.2021
2940 Clouds 28 1008 78 10000 4.63 180 19:43 04.02.2021
2941 Clouds 29 1010 79 10000 6.69 180 18:57 04.02.2021
2942 Clouds 29 1010 79 10000 6.69 180 18:26 04.02.2021
2943 Clouds 28 1010 83 10000 6.17 150 17:53 04.02.2021
2944 Clouds 28 1010 83 10000 6.17 150 17:27 04.02.2021
2945 Clouds 28 1010 83 10000 7.2 150 16:56 04.02.2021
2946 Clouds 28 1010 83 10000 7.2 150 16:38 04.02.2021
2947 Clouds 28 1010 83 10000 7.2 150 16:18 04.02.2021
2948 Clouds 26 1009 89 10000 6.69 170 15:39 04.02.2021
2949 Clouds 26 1009 89 10000 6.69 170 15:20 04.02.2021
2950 Clear 25 1013 82 10000 5.03 157 14:42 04.02.2021
2951 Clouds 25 1012 83 10000 5.17 153 14:20 04.02.2021
2952 Clouds 25 1012 83 10000 5.17 153 13:45 04.02.2021
2953 Clouds 25 1011 83 10000 5.52 161 13:24 04.02.2021
2954 Clouds 25 1011 84 10000 5.39 162 12:52 04.02.2021
2955 Clouds 25 1011 84 10000 5.24 161 11:54 04.02.2021
2956 Clouds 25 1011 84 10000 5.24 161 11:34 04.02.2021
2957 Clouds 25 1010 84 10000 4.83 162 10:54 04.02.2021
2958 Clouds 25 1010 84 10000 4.83 162 10:33 04.02.2021
2959 Clouds 25 1010 84 10000 4.69 160 09:45 04.02.2021
2960 Clouds 25 1011 84 10000 4.63 160 09:20 04.02.2021
2961 Clouds 25 1011 84 10000 4.63 160 08:51 04.02.2021
2962 Clouds 25 1011 84 10000 4.49 163 08:25 04.02.2021
2963 Clouds 25 1011 84 10000 4.49 163 07:51 04.02.2021
2964 Clouds 25 1011 84 10000 4.49 163 07:32 04.02.2021
2965 Clouds 25 1012 84 10000 4.74 153 06:45 04.02.2021
2966 Clear 25 1012 84 10000 4.94 144 05:32 04.02.2021
2967 Clear 25 1010 84 10000 5.41 151 02:30 04.02.2021
2968 Clouds 25 1009 85 10000 5.92 145 01:20 04.02.2021
2969 Clouds 28 1006 83 10000 7.2 150 23:54 03.02.2021
2970 Clouds 28 1006 83 10000 7.2 150 23:30 03.02.2021
2971 Clouds 28 1006 83 10000 7.2 150 23:30 03.02.2021
2972 Clouds 29 1006 74 10000 6.17 160 22:37 03.02.2021
2973 Clouds 29 1006 74 10000 6.17 160 22:19 03.02.2021
2974 Clouds 28 1007 83 10000 6.17 150 21:42 03.02.2021
2975 Rain 28 1007 83 10000 6.17 150 21:22 03.02.2021
2976 Rain 28 1008 83 10000 4.63 160 20:48 03.02.2021
2977 Clouds 28 1008 83 10000 4.63 160 20:29 03.02.2021
2978 Clouds 28 1008 83 10000 6.17 150 19:54 03.02.2021
2979 Clouds 28 1008 83 10000 6.17 150 19:24 03.02.2021
2980 Clouds 28 1009 83 10000 5.14 150 18:55 03.02.2021
2981 Clouds 28 1009 83 10000 5.14 150 18:36 03.02.2021
2982 Clouds 28 1009 83 10000 5.14 150 18:18 03.02.2021
2983 Clouds 28 1009 83 10000 5.14 150 17:42 03.02.2021
2984 Clouds 28 1009 83 10000 5.14 150 17:19 03.02.2021
2985 Clouds 27 1009 89 10000 7.2 150 16:37 03.02.2021
2986 Clouds 27 1008 89 10000 6.17 140 15:58 03.02.2021
2987 Clouds 27 1008 89 10000 6.17 140 15:38 03.02.2021
2988 Clouds 27 1008 89 10000 6.17 140 15:20 03.02.2021
2989 Clouds 25 1011 85 10000 4.87 145 14:43 03.02.2021
2990 Clouds 25 1010 86 10000 4.55 140 14:20 03.02.2021
2991 Clouds 25 1010 86 10000 4.55 140 13:43 03.02.2021
2992 Clouds 25 1010 86 10000 4.55 140 13:43 03.02.2021
2993 Clouds 25 1010 86 10000 4.77 146 13:19 03.02.2021
2994 Clouds 25 1010 86 10000 4.77 146 12:39 03.02.2021
2995 Clouds 25 1010 85 10000 4.71 144 12:20 03.02.2021
2996 Clouds 25 1010 85 10000 4.71 144 11:41 03.02.2021
2997 Clouds 25 1010 85 10000 4.78 145 11:21 03.02.2021
2998 Clouds 25 1010 85 10000 4.79 141 10:28 03.02.2021
2999 Clouds 25 1010 85 10000 4.79 141 09:58 03.02.2021
3000 Clouds 25 1010 85 10000 4.79 141 09:39 03.02.2021
3001 Clear 25 1010 85 10000 4.57 143 09:19 03.02.2021
3002 Clear 25 1010 85 10000 4.57 143 08:45 03.02.2021
3003 Clear 25 1010 85 10000 4.35 149 07:58 03.02.2021
3004 Clouds 25 1011 86 10000 3.7 146 06:42 03.02.2021
3005 Clouds 25 1011 86 10000 3.7 146 06:42 03.02.2021
3006 Clouds 25 1011 86 10000 3.39 132 04:56 03.02.2021
3007 Clouds 25 1011 86 10000 3.39 132 04:37 03.02.2021
3008 Clouds 25 1011 86 10000 3.72 135 03:49 03.02.2021
3009 Clouds 26 1010 86 10000 4.14 145 02:39 03.02.2021
3010 Clouds 26 1008 83 10000 5.25 142 01:24 03.02.2021
3011 Clouds 28 1005 78 10000 7.72 150 00:23 03.02.2021
3012 Clouds 28 1005 78 10000 7.72 150 23:42 02.02.2021
3013 Clouds 28 1005 78 10000 7.72 150 23:23 02.02.2021
3014 Clouds 29 1005 74 10000 6.17 150 22:43 02.02.2021
3015 Clouds 29 1005 74 10000 6.17 150 22:19 02.02.2021
3016 Clouds 30 1006 70 10000 6.69 170 21:44 02.02.2021
3017 Clouds 30 1006 70 10000 6.69 170 21:23 02.02.2021
3018 Clouds 30 1007 70 10000 5.14 150 20:48 02.02.2021
3019 Clouds 30 1007 70 10000 5.14 150 20:21 02.02.2021
3020 Clouds 30 1007 70 10000 5.14 120 19:50 02.02.2021
3021 Clouds 30 1007 70 10000 5.14 120 19:32 02.02.2021
3022 Clouds 29 1007 79 10000 8.23 180 18:54 02.02.2021
3023 Clouds 29 1007 79 10000 8.23 180 18:36 02.02.2021
3024 Clouds 29 1007 79 10000 8.23 180 18:18 02.02.2021
3025 Clouds 29 1008 79 10000 7.2 180 17:37 02.02.2021
3026 Clouds 29 1008 79 10000 7.2 180 17:19 02.02.2021
3027 Clouds 27 1008 89 10000 5.14 150 16:43 02.02.2021
3028 Clouds 27 1008 89 10000 5.14 150 16:24 02.02.2021
3029 Clouds 26 1008 89 10000 5.14 140 15:42 02.02.2021
3030 Clouds 26 1008 89 10000 5.14 140 15:22 02.02.2021
3031 Clouds 25 1011 84 10000 5.09 135 14:49 02.02.2021
3032 Clear 25 1010 85 10000 5.23 135 14:28 02.02.2021
3033 Clear 25 1010 85 10000 5.23 135 13:55 02.02.2021
3034 Clear 25 1010 85 10000 5.23 135 13:37 02.02.2021
3035 Rain 25 1009 86 10000 5.48 135 13:18 02.02.2021
3036 Rain 26 1010 83 10000 6.67 140 12:36 02.02.2021
3037 Rain 26 1009 84 10000 6.36 139 11:45 02.02.2021
3038 Rain 25 1009 85 10000 5.87 141 11:22 02.02.2021
3039 Rain 25 1009 85 10000 5.87 141 11:22 02.02.2021
3040 Rain 25 1009 85 10000 5.87 141 10:55 02.02.2021
3041 Rain 25 1009 85 10000 5.44 141 10:27 02.02.2021
3042 Rain 25 1009 85 10000 5.44 141 09:47 02.02.2021
3043 Rain 25 1009 85 10000 4.93 141 09:25 02.02.2021
3044 Rain 25 1009 85 10000 4.93 141 08:54 02.02.2021
3045 Rain 26 1010 86 10000 4.74 140 08:28 02.02.2021
3046 Rain 26 1010 86 10000 4.74 140 07:31 02.02.2021
3047 Rain 26 1011 85 10000 4.82 150 06:43 02.02.2021
3048 Rain 26 1011 85 10000 4.66 148 05:53 02.02.2021
3049 Clouds 26 1011 84 10000 4.19 150 04:57 02.02.2021
3050 Clouds 26 1009 82 10000 3.79 143 02:26 02.02.2021
3051 Clouds 26 1009 82 10000 3.79 143 01:55 02.02.2021
3052 Clouds 28 1005 83 10000 5.66 180 00:34 02.02.2021
3053 Clouds 28 1005 83 10000 5.66 180 23:19 01.02.2021
3054 Clouds 28 1006 83 10000 4.63 150 22:50 01.02.2021
3055 Clouds 28 1006 83 10000 4.63 150 22:32 01.02.2021
3056 Clouds 28 1006 83 10000 6.69 160 21:49 01.02.2021
3057 Clouds 28 1006 83 10000 6.69 160 21:30 01.02.2021
3058 Clouds 28 1006 83 10000 6.69 160 21:30 01.02.2021
3059 Clouds 30 1007 74 10000 8.23 150 20:47 01.02.2021
3060 Clouds 30 1007 74 10000 8.23 150 20:25 01.02.2021
3061 Clouds 28 1008 83 10000 7.2 160 19:59 01.02.2021
3062 Clouds 28 1008 83 10000 7.2 160 19:59 01.02.2021
3063 Clouds 28 1008 83 10000 7.2 160 19:37 01.02.2021
3064 Clouds 28 1008 83 10000 7.2 160 19:18 01.02.2021
3065 Rain 28 1008 83 10000 5.14 150 18:43 01.02.2021
3066 Rain 28 1008 83 10000 5.14 150 18:25 01.02.2021
3067 Clouds 28 1009 83 10000 6.17 180 17:46 01.02.2021
3068 Clouds 28 1009 83 10000 6.17 180 17:22 01.02.2021
3069 Clouds 28 1008 83 10000 6.17 180 16:42 01.02.2021
3070 Rain 28 1008 83 10000 6.17 180 16:23 01.02.2021
3071 Rain 26 1008 94 10000 6.17 160 15:42 01.02.2021
3072 Clouds 26 1008 94 10000 6.17 160 15:19 01.02.2021
3073 Clouds 25 1011 83 10000 4.62 149 14:51 01.02.2021
3074 Clouds 25 1011 83 10000 4.23 150 14:23 01.02.2021
3075 Clouds 25 1011 83 10000 4.23 150 13:44 01.02.2021
3076 Clouds 25 1010 85 10000 4.47 149 13:25 01.02.2021
3077 Clouds 25 1010 84 10000 4.57 151 12:44 01.02.2021
3078 Clouds 25 1010 84 10000 4.57 151 12:44 01.02.2021
3079 Clouds 25 1009 85 10000 4.26 150 12:25 01.02.2021
3080 Clouds 25 1009 85 10000 4.26 150 11:43 01.02.2021
3081 Clouds 25 1008 84 10000 3.91 149 11:20 01.02.2021
3082 Clouds 25 1008 84 10000 3.91 149 10:47 01.02.2021
3083 Clear 25 1009 83 10000 3.37 148 10:21 01.02.2021
3084 Clear 25 1009 83 10000 3.37 148 09:49 01.02.2021
3085 Clear 25 1009 83 10000 3.28 150 09:25 01.02.2021
3086 Clear 25 1009 83 10000 3.28 150 08:56 01.02.2021
3087 Clear 25 1010 83 10000 3.23 149 08:22 01.02.2021
3088 Clouds 25 1011 82 10000 3.24 151 06:51 01.02.2021
3089 Clouds 26 1011 81 10000 2.6 125 04:32 01.02.2021
3090 Clouds 26 1010 81 10000 3.53 139 02:37 01.02.2021
3091 Clouds 28 1005 78 10000 6.17 160 23:47 31.01.2021
3092 Clouds 29 1005 74 10000 7.72 180 22:56 31.01.2021
3093 Clouds 29 1005 74 10000 7.72 180 22:36 31.01.2021
3094 Clouds 29 1005 74 10000 7.72 180 22:18 31.01.2021
3095 Clouds 28 1005 78 10000 5.14 150 21:41 31.01.2021
3096 Clouds 28 1005 78 10000 5.14 150 21:19 31.01.2021
3097 Clouds 28 1006 78 10000 5.14 150 20:41 31.01.2021
3098 Clouds 28 1006 78 10000 5.14 150 20:19 31.01.2021
3099 Clouds 28 1006 78 10000 5.14 150 20:19 31.01.2021
3100 Clouds 30 1007 70 10000 6.69 150 19:38 31.01.2021
3101 Clouds 30 1007 70 10000 6.69 150 19:19 31.01.2021
3102 Clouds 29 1007 79 10000 7.2 180 18:44 31.01.2021
3103 Clouds 29 1007 79 10000 7.2 180 18:24 31.01.2021
3104 Clouds 29 1008 74 10000 4.12 120 17:50 31.01.2021
3105 Clouds 29 1008 74 10000 4.12 120 17:24 31.01.2021
3106 Clouds 26 1008 89 10000 6.17 150 16:59 31.01.2021
3107 Clouds 26 1008 89 10000 6.17 150 16:39 31.01.2021
3108 Clouds 26 1008 89 10000 6.17 150 16:19 31.01.2021
3109 Clouds 27 1007 83 10000 5.14 150 15:48 31.01.2021
3110 Clouds 25 1010 82 10000 4.48 113 14:55 31.01.2021
3111 Clouds 25 1009 83 10000 4.97 117 14:28 31.01.2021
3112 Clouds 25 1009 83 10000 4.97 117 13:57 31.01.2021
3113 Clouds 25 1009 83 10000 4.97 117 13:38 31.01.2021
3114 Clouds 25 1009 84 10000 5.13 119 12:56 31.01.2021
3115 Clouds 25 1009 84 10000 5.13 119 12:37 31.01.2021
3116 Clouds 25 1008 84 10000 4.82 115 12:19 31.01.2021
3117 Clouds 25 1008 84 10000 4.82 115 11:38 31.01.2021
3118 Clouds 25 1008 84 10000 4.45 116 11:19 31.01.2021
3119 Clouds 25 1008 84 10000 4.45 116 10:44 31.01.2021
3120 Clouds 25 1008 83 10000 4.3 118 10:25 31.01.2021
3121 Clouds 25 1008 83 10000 4.3 118 09:33 31.01.2021
3122 Clouds 25 1009 83 10000 3.9 111 08:34 31.01.2021
3123 Clouds 25 1009 83 10000 3.64 112 07:50 31.01.2021
3124 Clear 25 1010 84 10000 3.87 119 05:54 31.01.2021
3125 Clear 25 1010 84 10000 3.87 119 05:54 31.01.2021
3126 Clouds 26 1008 81 10000 4.42 130 00:53 31.01.2021
3127 Clouds 28 1005 83 10000 5.66 160 00:28 31.01.2021
3128 Clouds 28 1005 83 10000 5.66 160 23:34 30.01.2021
3129 Clouds 29 1005 74 10000 7.72 160 22:59 30.01.2021
3130 Clouds 29 1005 74 10000 7.72 160 22:33 30.01.2021
3131 Clouds 29 1006 74 10000 7.2 150 21:43 30.01.2021
3132 Clouds 29 1006 74 10000 7.2 150 21:23 30.01.2021
3133 Clouds 29 1006 74 10000 4.63 180 20:50 30.01.2021
3134 Clouds 29 1006 74 10000 4.63 180 20:32 30.01.2021
3135 Clouds 28 1007 78 10000 4.63 150 19:55 30.01.2021
3136 Clouds 28 1007 78 10000 4.63 150 19:36 30.01.2021
3137 Clouds 28 1007 78 10000 4.63 150 19:18 30.01.2021
3138 Clouds 29 1008 74 10000 4.63 150 18:39 30.01.2021
3139 Clouds 29 1008 74 10000 4.63 150 18:19 30.01.2021
3140 Clouds 29 1008 79 10000 4.63 150 17:24 30.01.2021
3141 Clouds 29 1008 79 10000 4.63 150 17:24 30.01.2021
3142 Clouds 28 1008 78 10000 4.63 150 16:57 30.01.2021
3143 Clouds 28 1008 78 10000 4.63 150 16:37 30.01.2021
3144 Clouds 28 1008 78 10000 4.63 150 16:19 30.01.2021
3145 Clouds 27 1008 89 10000 4.12 180 15:42 30.01.2021
3146 Clouds 27 1008 89 10000 4.12 180 15:22 30.01.2021
3147 Clouds 25 1011 83 10000 5.06 125 14:52 30.01.2021
3148 Clouds 25 1010 83 10000 4.96 126 14:22 30.01.2021
3149 Clouds 25 1010 83 10000 4.96 126 13:40 30.01.2021
3150 Clouds 25 1009 85 10000 5.01 120 13:19 30.01.2021
3151 Clouds 25 1009 85 10000 5.01 120 12:42 30.01.2021
3152 Clouds 25 1009 84 10000 5.01 121 12:20 30.01.2021
3153 Clouds 25 1009 84 10000 5.01 121 11:37 30.01.2021
3154 Clouds 25 1009 84 10000 4.78 123 10:51 30.01.2021
3155 Clouds 25 1009 83 10000 4.61 131 09:53 30.01.2021
3156 Clouds 25 1009 83 10000 4.61 131 09:31 30.01.2021
3157 Clear 25 1009 83 10000 4.55 132 08:49 30.01.2021
3158 Clear 25 1009 83 10000 4.55 132 08:30 30.01.2021
3159 Clouds 25 1011 82 10000 4.45 132 06:58 30.01.2021
3160 Clouds 25 1011 82 10000 4.38 134 06:19 30.01.2021
3161 Clouds 26 1011 81 10000 4.37 140 03:35 30.01.2021
3162 Clouds 26 1009 82 10000 4.82 128 02:25 30.01.2021
3163 Clouds 26 1009 82 10000 4.82 128 01:31 30.01.2021
3164 Clouds 26 1008 81 10000 4.39 137 00:44 30.01.2021
3165 Clouds 28 1005 83 10000 5.66 150 00:21 30.01.2021
3166 Clouds 28 1005 83 10000 5.66 150 23:46 29.01.2021
3167 Rain 28 1005 83 10000 5.66 150 23:22 29.01.2021
3168 Rain 28 1005 78 10000 6.17 150 22:44 29.01.2021
3169 Rain 28 1005 78 10000 6.17 150 22:20 29.01.2021
3170 Rain 29 1006 74 10000 6.69 150 21:29 29.01.2021
3171 Rain 28 1007 78 10000 4.63 140 20:59 29.01.2021
3172 Rain 28 1007 78 10000 4.63 140 20:40 29.01.2021
3173 Clouds 28 1007 78 10000 4.63 140 20:18 29.01.2021
3174 Clouds 29 1008 79 10000 6.17 150 19:38 29.01.2021
3175 Clouds 29 1008 79 10000 6.17 150 19:18 29.01.2021
3176 Clouds 29 1008 79 10000 4.63 150 18:30 29.01.2021
3177 Clouds 27 1008 89 10000 4.12 150 17:40 29.01.2021
3178 Clouds 27 1008 89 10000 4.12 150 17:21 29.01.2021
3179 Clouds 28 1009 83 10000 4.12 150 16:45 29.01.2021
3180 Clouds 28 1009 83 10000 4.12 150 16:24 29.01.2021
3181 Clouds 27 1008 89 10000 4.12 120 15:51 29.01.2021
3182 Clouds 27 1008 89 10000 4.12 120 15:31 29.01.2021
3183 Clouds 25 1011 83 10000 2.86 123 14:47 29.01.2021
3184 Clouds 25 1010 83 10000 2.77 116 14:18 29.01.2021
3185 Clouds 25 1010 83 10000 2.77 116 13:39 29.01.2021
3186 Clouds 25 1009 88 10000 3.43 97 13:19 29.01.2021
3187 Rain 25 1009 88 10000 3.2 94 12:25 29.01.2021
3188 Rain 25 1009 88 10000 3.2 94 11:49 29.01.2021
3189 Rain 25 1009 87 10000 2.76 89 11:19 29.01.2021
3190 Rain 25 1009 87 10000 2.76 89 10:51 29.01.2021
3191 Clouds 25 1008 88 10000 2.9 90 10:27 29.01.2021
3192 Clouds 25 1008 88 10000 2.9 90 09:49 29.01.2021
3193 Clouds 25 1009 88 10000 3.29 96 08:58 29.01.2021
3194 Clouds 25 1009 88 10000 3.29 96 08:34 29.01.2021
3195 Clouds 25 1010 88 10000 3.33 101 07:58 29.01.2021
3196 Clouds 25 1010 88 10000 3.33 101 07:40 29.01.2021
3197 Clouds 25 1011 88 10000 3.19 101 07:19 29.01.2021
3198 Clouds 25 1011 88 10000 3.11 100 05:20 29.01.2021
3199 Clouds 26 1010 86 10000 2.81 99 02:53 29.01.2021
3200 Rain 26 1006 89 6000 4.12 140 00:39 29.01.2021
3201 Rain 26 1006 89 6000 4.12 140 00:20 29.01.2021
3202 Rain 26 1006 89 6000 4.12 140 23:43 28.01.2021
3203 Rain 26 1006 89 6000 4.12 140 23:24 28.01.2021
3204 Rain 26 1008 79 10000 1.56 162 22:45 28.01.2021
3205 Rain 26 1007 94 4000 4.12 100 22:26 28.01.2021
3206 Rain 26 1007 94 4000 4.12 100 21:53 28.01.2021
3207 Rain 26 1007 94 4000 4.12 100 21:33 28.01.2021
3208 Rain 27 1008 89 10000 4.63 160 20:55 28.01.2021
3209 Rain 27 1008 89 10000 4.63 160 20:37 28.01.2021
3210 Rain 27 1008 89 10000 4.63 160 20:18 28.01.2021
3211 Clouds 28 1008 83 10000 6.17 180 19:40 28.01.2021
3212 Clouds 28 1008 83 10000 6.17 180 19:19 28.01.2021
3213 Clouds 30 1009 74 10000 5.66 180 18:43 28.01.2021
3214 Clouds 30 1009 74 10000 5.66 180 18:20 28.01.2021
3215 Clouds 30 1009 74 10000 5.14 180 17:44 28.01.2021
3216 Clouds 30 1009 74 10000 5.14 180 17:26 28.01.2021
3217 Clouds 29 1009 79 10000 3.09 150 16:44 28.01.2021
3218 Clouds 29 1009 79 10000 3.09 150 16:22 28.01.2021
3219 Clouds 29 1009 79 10000 3.09 150 16:22 28.01.2021
3220 Clouds 27 1009 89 10000 4.12 150 15:41 28.01.2021
3221 Clouds 25 1012 80 10000 0.9 160 14:59 28.01.2021
3222 Clouds 25 1012 80 10000 0.9 160 14:41 28.01.2021
3223 Rain 25 1011 82 10000 1.05 154 14:23 28.01.2021
3224 Rain 25 1011 82 10000 1.05 154 13:45 28.01.2021
3225 Clouds 25 1010 86 10000 2.51 147 12:54 28.01.2021
3226 Clouds 25 1010 86 10000 2.51 147 12:35 28.01.2021
3227 Clouds 25 1010 86 10000 3 151 11:59 28.01.2021
3228 Clouds 25 1010 86 10000 3 151 11:40 28.01.2021
3229 Clouds 25 1010 85 10000 3.07 149 11:20 28.01.2021
3230 Clouds 25 1010 85 10000 3.07 149 10:52 28.01.2021
3231 Clouds 25 1010 85 10000 3.07 149 10:33 28.01.2021
3232 Clouds 25 1010 85 10000 3.27 150 09:48 28.01.2021
3233 Rain 25 1010 85 10000 3.26 146 09:23 28.01.2021
3234 Rain 25 1010 85 10000 3.26 146 08:54 28.01.2021
3235 Clouds 25 1011 86 10000 2.91 146 08:19 28.01.2021
3236 Clouds 25 1011 86 10000 2.88 156 07:44 28.01.2021
3237 Clouds 25 1011 86 10000 2.86 153 06:50 28.01.2021
3238 Clouds 25 1012 86 10000 2.9 150 05:56 28.01.2021
3239 Clouds 25 1011 85 10000 3.59 148 03:52 28.01.2021
3240 Clear 25 1009 83 10000 3.68 143 01:38 28.01.2021
3241 Clouds 27 1006 89 10000 6.69 160 23:47 27.01.2021
3242 Clouds 27 1006 89 10000 6.69 160 23:23 27.01.2021
3243 Clouds 28 1006 83 10000 6.17 180 22:41 27.01.2021
3244 Clouds 28 1006 83 10000 6.17 180 22:21 27.01.2021
3245 Clouds 29 1007 79 10000 6.69 180 21:43 27.01.2021
3246 Clouds 29 1007 79 10000 6.69 180 21:23 27.01.2021
3247 Clouds 28 1008 83 10000 6.69 180 20:52 27.01.2021
3248 Clouds 28 1008 83 10000 6.69 180 20:23 27.01.2021
3249 Clouds 28 1008 83 10000 5.66 180 19:49 27.01.2021
3250 Clouds 28 1008 83 10000 5.66 180 19:23 27.01.2021
3251 Clouds 28 1008 83 10000 5.66 180 19:23 27.01.2021
3252 Clouds 28 1008 83 10000 5.14 200 18:46 27.01.2021
3253 Clouds 28 1008 83 10000 5.14 200 18:24 27.01.2021
3254 Clouds 27 1009 83 10000 3.09 180 17:52 27.01.2021
3255 Clouds 27 1009 83 10000 3.09 180 17:34 27.01.2021
3256 Clear 25 1012 85 10000 4.66 164 16:57 27.01.2021
3257 Clear 25 1012 85 10000 4.66 164 16:38 27.01.2021
3258 Clear 25 1012 86 10000 4.38 160 16:20 27.01.2021
3259 Clear 25 1012 86 10000 4.38 160 15:48 27.01.2021
3260 Clear 25 1011 87 10000 4.62 150 15:27 27.01.2021
3261 Clear 25 1011 86 10000 5.61 160 14:24 27.01.2021
3262 Clear 25 1011 86 10000 5.61 160 13:50 27.01.2021
3263 Clear 25 1011 86 10000 5.61 160 13:32 27.01.2021
3264 Clouds 25 1010 86 10000 6.05 162 12:42 27.01.2021
3265 Clouds 25 1010 86 10000 5.78 162 12:23 27.01.2021
3266 Clouds 25 1010 86 10000 5.78 162 11:47 27.01.2021
3267 Clouds 25 1009 86 10000 5.67 170 11:23 27.01.2021
3268 Clouds 25 1009 86 10000 5.67 170 11:23 27.01.2021
3269 Clouds 25 1009 86 10000 5.67 170 10:42 27.01.2021
3270 Clouds 25 1009 87 10000 5.35 163 10:21 27.01.2021
3271 Clouds 25 1009 87 10000 5.35 163 09:51 27.01.2021
3272 Clouds 25 1010 87 10000 5.79 157 09:25 27.01.2021
3273 Clouds 25 1010 87 10000 5.79 157 08:39 27.01.2021
3274 Clouds 25 1010 87 10000 5.79 157 08:39 27.01.2021
3275 Rain 25 1010 87 10000 5.61 151 07:46 27.01.2021
3276 Rain 25 1011 87 10000 5.53 147 07:21 27.01.2021
3277 Rain 25 1011 87 10000 5.96 152 06:21 27.01.2021
3278 Rain 25 1011 87 10000 5.96 152 05:46 27.01.2021
3279 Clouds 25 1011 87 10000 5.48 160 03:37 27.01.2021
3280 Rain 25 1009 87 10000 5.55 162 02:23 27.01.2021
3281 Rain 25 1009 87 10000 5.55 162 01:51 27.01.2021
3282 Clouds 25 1008 85 10000 6.22 176 00:48 27.01.2021
3283 Clouds 25 1008 85 10000 6.18 177 23:50 26.01.2021
3284 Clouds 25 1008 85 10000 6.18 177 23:32 26.01.2021
3285 Clouds 25 1008 85 10000 5.94 180 22:51 26.01.2021
3286 Clouds 29 1007 84 10000 6.69 180 22:33 26.01.2021
3287 Clouds 29 1007 84 10000 6.69 180 21:55 26.01.2021
3288 Clouds 29 1007 84 10000 6.69 180 21:35 26.01.2021
3289 Clouds 28 1007 83 10000 6.69 180 20:59 26.01.2021
3290 Clouds 28 1007 83 10000 6.69 180 20:40 26.01.2021
3291 Clouds 28 1007 83 10000 6.69 180 20:21 26.01.2021
3292 Clouds 28 1008 83 10000 6.17 180 19:45 26.01.2021
3293 Clouds 28 1008 83 10000 6.17 180 19:22 26.01.2021
3294 Clouds 28 1008 83 10000 7.2 180 18:48 26.01.2021
3295 Clouds 28 1008 83 10000 7.2 180 18:27 26.01.2021
3296 Clouds 27 1009 89 10000 6.69 180 17:55 26.01.2021
3297 Clouds 27 1009 89 10000 6.69 180 17:37 26.01.2021
3298 Rain 25 1011 86 10000 5.18 175 16:56 26.01.2021
3299 Rain 26 1009 89 10000 5.14 180 16:37 26.01.2021
3300 Clouds 26 1009 89 10000 5.14 180 16:19 26.01.2021
3301 Clouds 26 1009 89 10000 5.14 180 15:44 26.01.2021
3302 Clouds 26 1009 89 10000 5.14 180 15:24 26.01.2021
3303 Clouds 25 1011 87 10000 5.67 173 14:45 26.01.2021
3304 Clouds 25 1010 87 10000 5.48 170 14:25 26.01.2021
3305 Clouds 25 1010 87 10000 5.48 170 13:34 26.01.2021
3306 Clouds 25 1010 88 10000 5.19 171 12:59 26.01.2021
3307 Clouds 25 1010 88 10000 5.19 171 12:40 26.01.2021
3308 Clouds 25 1009 87 10000 5.38 167 12:19 26.01.2021
3309 Clouds 25 1009 87 10000 5.38 167 11:50 26.01.2021
3310 Clouds 25 1009 87 10000 5.01 168 11:19 26.01.2021
3311 Clouds 25 1009 87 10000 5.01 168 10:42 26.01.2021
3312 Clouds 25 1009 87 10000 5.17 169 10:21 26.01.2021
3313 Clouds 25 1009 87 10000 5.17 169 09:40 26.01.2021
3314 Clouds 25 1009 87 10000 5.17 169 09:40 26.01.2021
3315 Clouds 25 1009 88 10000 5.33 167 09:21 26.01.2021
3316 Clouds 25 1009 88 10000 5.33 167 08:48 26.01.2021
3317 Clouds 25 1010 88 10000 5.26 165 07:57 26.01.2021
3318 Clouds 25 1010 88 10000 5.45 161 07:19 26.01.2021
3319 Rain 25 1011 88 10000 5.13 164 05:52 26.01.2021
3320 Rain 25 1011 88 10000 5.13 164 05:33 26.01.2021
3321 Clouds 25 1011 88 10000 4.5 161 03:32 26.01.2021
3322 Clouds 25 1008 86 10000 4.1 163 01:19 26.01.2021
3323 Clouds 27 1006 89 10000 5.14 160 00:26 26.01.2021
3324 Clouds 27 1006 89 10000 5.14 160 23:33 25.01.2021
3325 Rain 27 1006 83 10000 6.17 150 22:50 25.01.2021
3326 Clouds 27 1006 83 10000 6.17 150 22:29 25.01.2021
3327 Clouds 28 1007 83 10000 7.2 150 21:46 25.01.2021
3328 Clouds 28 1007 83 10000 7.2 150 21:19 25.01.2021
3329 Clouds 28 1007 83 10000 5.14 160 20:43 25.01.2021
3330 Clouds 28 1007 83 10000 5.14 160 20:23 25.01.2021
3331 Clouds 28 1008 78 10000 5.66 150 19:48 25.01.2021
3332 Clouds 28 1008 78 10000 5.66 150 19:23 25.01.2021
3333 Clouds 28 1008 78 10000 5.14 160 18:46 25.01.2021
3334 Clouds 28 1008 78 10000 5.14 160 18:24 25.01.2021
3335 Clouds 27 1008 89 10000 4.63 160 17:49 25.01.2021
3336 Clouds 27 1008 89 10000 4.63 160 17:25 25.01.2021
3337 Clouds 26 1009 94 10000 5.14 180 16:50 25.01.2021
3338 Clouds 26 1009 94 10000 5.14 180 16:26 25.01.2021
3339 Clouds 26 1009 89 10000 4.63 150 15:57 25.01.2021
3340 Clouds 26 1009 89 10000 4.63 150 15:39 25.01.2021
3341 Clouds 26 1009 89 10000 4.63 150 15:19 25.01.2021
3342 Clouds 25 1011 86 10000 4.7 137 14:39 25.01.2021
3343 Clouds 25 1010 87 10000 5.02 137 14:18 25.01.2021
3344 Clouds 25 1010 87 10000 5.02 137 13:43 25.01.2021
3345 Clouds 25 1010 87 10000 4.51 141 13:20 25.01.2021
3346 Rain 25 1010 87 10000 4.61 142 12:41 25.01.2021
3347 Rain 25 1010 87 10000 4.36 147 12:18 25.01.2021
3348 Rain 25 1009 87 10000 4.27 148 11:28 25.01.2021
3349 Rain 25 1009 87 10000 4.27 148 10:49 25.01.2021
3350 Rain 25 1009 87 10000 4.44 149 10:22 25.01.2021
3351 Rain 25 1009 87 10000 4.44 149 10:22 25.01.2021
3352 Rain 25 1009 87 10000 4.44 149 09:52 25.01.2021
3353 Clear 25 1009 87 10000 4.35 151 09:28 25.01.2021
3354 Clear 25 1009 87 10000 4.35 151 08:38 25.01.2021
3355 Clouds 25 1010 87 10000 4.57 153 07:57 25.01.2021
3356 Clouds 25 1010 87 10000 4.23 162 07:28 25.01.2021
3357 Clear 25 1011 87 10000 4.18 157 06:28 25.01.2021
3358 Clouds 25 1010 86 10000 4.49 153 02:32 25.01.2021
3359 Clouds 25 1009 86 10000 4.31 150 00:40 25.01.2021
3360 Clouds 28 1006 83 10000 5.14 150 23:23 24.01.2021
3361 Clouds 28 1006 83 10000 5.14 150 22:59 24.01.2021
3362 Clouds 28 1006 83 10000 5.14 150 22:40 24.01.2021
3363 Clouds 28 1006 83 10000 5.14 150 22:40 24.01.2021
3364 Clouds 28 1006 83 10000 5.14 150 22:18 24.01.2021
3365 Clouds 29 1007 79 10000 7.2 180 21:31 24.01.2021
3366 Clouds 30 1008 70 10000 4.63 180 20:49 24.01.2021
3367 Rain 30 1008 70 10000 4.63 180 20:24 24.01.2021
3368 Rain 29 1009 79 10000 5.14 180 19:58 24.01.2021
3369 Rain 29 1009 79 10000 5.14 180 19:39 24.01.2021
3370 Clouds 29 1009 79 10000 5.14 180 19:19 24.01.2021
3371 Clouds 29 1009 79 10000 7.2 150 18:54 24.01.2021
3372 Clouds 29 1009 79 10000 7.2 150 18:36 24.01.2021
3373 Clouds 29 1009 79 10000 7.2 150 18:18 24.01.2021
3374 Clouds 28 1009 78 10000 4.12 150 17:42 24.01.2021
3375 Clouds 28 1009 78 10000 4.12 150 17:18 24.01.2021
3376 Clouds 27 1009 83 10000 5.14 150 16:41 24.01.2021
3377 Clouds 27 1009 83 10000 5.14 150 16:21 24.01.2021
3378 Clouds 26 1009 94 10000 4.63 150 15:46 24.01.2021
3379 Clouds 26 1009 94 10000 4.63 150 15:21 24.01.2021
3380 Clouds 25 1011 88 10000 4.28 138 14:56 24.01.2021
3381 Clouds 25 1011 88 10000 4.28 138 14:32 24.01.2021
3382 Clouds 25 1010 88 10000 4.37 137 13:36 24.01.2021
3383 Rain 24 1010 89 10000 4.1 126 12:55 24.01.2021
3384 Rain 24 1010 89 10000 4.1 126 12:36 24.01.2021
3385 Clouds 24 1010 89 10000 4.31 124 12:18 24.01.2021
3386 Clouds 24 1010 89 10000 4.31 124 11:43 24.01.2021
3387 Clouds 24 1009 89 10000 4.3 123 11:22 24.01.2021
3388 Clouds 24 1009 89 10000 4.3 123 10:35 24.01.2021
3389 Rain 24 1009 89 10000 3.76 123 09:50 24.01.2021
3390 Clouds 25 1010 89 10000 3.83 123 09:20 24.01.2021
3391 Clouds 25 1010 89 10000 3.83 123 08:47 24.01.2021
3392 Clouds 25 1011 88 10000 3.54 142 04:23 24.01.2021
3393 Clouds 25 1010 86 10000 3.65 150 02:20 24.01.2021
3394 Clouds 25 1009 86 10000 3.44 159 00:57 24.01.2021
3395 Clouds 28 1005 83 10000 2.57 180 00:21 24.01.2021
3396 Clouds 28 1005 83 10000 2.57 180 23:41 23.01.2021
3397 Clouds 28 1005 83 10000 2.57 180 23:20 23.01.2021
3398 Clouds 29 1006 79 10000 7.2 150 22:41 23.01.2021
3399 Clouds 29 1006 79 10000 6.69 180 21:59 23.01.2021
3400 Clouds 29 1006 79 10000 6.69 180 21:23 23.01.2021
3401 Clouds 29 1007 74 10000 6.69 150 20:55 23.01.2021
3402 Clouds 29 1007 74 10000 6.69 150 20:37 23.01.2021
3403 Clouds 29 1007 74 10000 6.69 150 20:19 23.01.2021
3404 Clouds 29 1008 74 10000 7.2 150 19:43 23.01.2021
3405 Clouds 29 1008 74 10000 7.2 150 19:20 23.01.2021
3406 Clouds 29 1009 74 10000 6.69 180 18:42 23.01.2021
3407 Clouds 29 1009 74 10000 6.69 180 18:21 23.01.2021
3408 Clouds 29 1009 74 10000 4.63 150 17:36 23.01.2021
3409 Clouds 29 1009 74 10000 4.63 150 17:18 23.01.2021
3410 Clouds 27 1010 83 10000 4.63 170 16:42 23.01.2021
3411 Clouds 27 1009 89 10000 4.12 180 15:56 23.01.2021
3412 Clouds 27 1009 89 10000 4.12 180 15:29 23.01.2021
3413 Clouds 24 1011 90 10000 4.29 130 14:45 23.01.2021
3414 Clouds 24 1011 91 10000 4.29 127 14:24 23.01.2021
3415 Clouds 24 1011 91 10000 4.29 127 13:43 23.01.2021
3416 Clouds 24 1010 91 10000 4.44 127 13:24 23.01.2021
3417 Clouds 24 1011 88 10000 5.01 141 12:44 23.01.2021
3418 Clouds 24 1010 88 10000 4.98 147 12:24 23.01.2021
3419 Clouds 24 1010 88 10000 4.98 147 11:40 23.01.2021
3420 Clouds 24 1010 89 10000 4.94 150 10:58 23.01.2021
3421 Clouds 24 1010 89 10000 4.91 151 10:26 23.01.2021
3422 Clouds 24 1010 89 10000 4.91 151 09:52 23.01.2021
3423 Clouds 24 1010 89 10000 4.84 148 09:28 23.01.2021
3424 Clouds 24 1010 89 10000 4.84 148 08:43 23.01.2021
3425 Clouds 24 1011 89 10000 4.76 149 07:48 23.01.2021
3426 Clouds 25 1012 89 10000 4.92 151 06:49 23.01.2021
3427 Rain 25 1010 87 10000 4.26 150 02:20 23.01.2021
3428 Rain 27 1007 83 10000 4.63 150 00:23 23.01.2021
3429 Rain 27 1007 83 10000 4.63 150 23:36 22.01.2021
3430 Rain 27 1007 83 10000 5.14 150 22:42 22.01.2021
3431 Rain 27 1008 89 10000 4.12 180 21:59 22.01.2021
3432 Rain 27 1008 89 10000 4.12 180 21:38 22.01.2021
3433 Rain 27 1008 89 10000 4.12 180 21:20 22.01.2021
3434 Rain 27 1009 83 10000 5.14 180 20:46 22.01.2021
3435 Rain 27 1009 83 10000 5.14 180 20:25 22.01.2021
3436 Rain 26 1009 89 10000 5.66 180 19:37 22.01.2021
3437 Rain 26 1009 89 10000 5.66 180 19:18 22.01.2021
3438 Rain 26 1010 89 10000 5.14 210 18:43 22.01.2021
3439 Rain 26 1010 89 10000 5.14 210 18:24 22.01.2021
3440 Rain 26 1010 89 10000 4.12 180 17:44 22.01.2021
3441 Rain 26 1010 89 10000 4.12 180 17:25 22.01.2021
3442 Rain 26 1010 89 10000 4.12 190 16:45 22.01.2021
3443 Rain 26 1010 89 10000 4.12 190 16:24 22.01.2021
3444 Rain 25 1010 94 10000 2.57 180 15:41 22.01.2021
3445 Rain 25 1010 94 10000 2.57 180 15:18 22.01.2021
3446 Rain 25 1012 88 10000 4.97 169 14:31 22.01.2021
3447 Rain 24 1011 88 10000 4.79 170 13:51 22.01.2021
3448 Rain 24 1011 88 10000 4.79 170 13:31 22.01.2021
3449 Rain 24 1010 88 10000 4.23 151 12:52 22.01.2021
3450 Rain 24 1010 88 10000 4.42 156 12:23 22.01.2021
3451 Rain 24 1010 88 10000 4.42 156 11:47 22.01.2021
3452 Clouds 24 1010 88 10000 4.39 163 11:22 22.01.2021
3453 Clouds 24 1010 88 10000 4.39 163 10:45 22.01.2021
3454 Rain 24 1010 88 10000 4.47 171 09:59 22.01.2021
3455 Rain 24 1010 88 10000 4.47 171 09:31 22.01.2021
3456 Rain 24 1010 88 10000 4.49 179 08:51 22.01.2021
3457 Rain 25 1011 89 10000 4.14 185 08:27 22.01.2021
3458 Rain 25 1011 89 10000 4.14 185 07:36 22.01.2021
3459 Rain 25 1012 89 10000 4.13 188 03:40 22.01.2021
3460 Clouds 25 1009 86 10000 4.92 188 00:40 22.01.2021
3461 Clouds 26 1006 89 10000 3.6 270 23:55 21.01.2021
3462 Clouds 26 1006 89 10000 3.6 270 23:32 21.01.2021
3463 Clouds 27 1007 83 10000 6.17 180 22:53 21.01.2021
3464 Clouds 27 1007 83 10000 6.17 180 22:35 21.01.2021
3465 Rain 28 1007 78 10000 6.69 170 21:43 21.01.2021
3466 Rain 28 1007 78 10000 6.69 170 21:20 21.01.2021
3467 Rain 29 1008 79 10000 4.12 170 20:48 21.01.2021
3468 Clouds 29 1008 79 10000 4.12 170 20:29 21.01.2021
3469 Clouds 28 1009 78 10000 4.63 180 19:52 21.01.2021
3470 Clouds 28 1009 78 10000 4.63 180 19:30 21.01.2021
3471 Clouds 28 1010 83 10000 5.66 180 18:59 21.01.2021
3472 Clouds 28 1010 83 10000 5.66 180 18:39 21.01.2021
3473 Clouds 28 1010 83 10000 5.66 180 18:20 21.01.2021
3474 Clouds 28 1010 78 10000 5.14 160 17:51 21.01.2021
3475 Clouds 28 1010 78 10000 5.14 160 17:20 21.01.2021
3476 Clouds 26 1010 89 10000 4.63 150 16:46 21.01.2021
3477 Clouds 26 1010 89 10000 4.63 150 16:24 21.01.2021
3478 Clouds 25 1010 94 10000 4.12 160 15:59 21.01.2021
3479 Clouds 25 1010 94 10000 4.12 160 15:33 21.01.2021
3480 Clouds 25 1012 87 10000 4.69 189 14:52 21.01.2021
3481 Clouds 25 1012 87 10000 4.69 189 14:34 21.01.2021
3482 Clouds 24 1011 87 10000 4.46 189 13:48 21.01.2021
3483 Clouds 24 1011 87 10000 4.86 190 13:27 21.01.2021
3484 Clouds 24 1011 87 10000 4.86 190 12:55 21.01.2021
3485 Clouds 24 1011 87 10000 4.86 190 12:37 21.01.2021
3486 Clouds 24 1010 87 10000 4.71 187 12:18 21.01.2021
3487 Clouds 24 1010 87 10000 4.71 187 11:43 21.01.2021
3488 Clouds 24 1010 88 10000 4.59 188 11:22 21.01.2021
3489 Clouds 24 1010 88 10000 4.59 188 10:43 21.01.2021
3490 Clouds 24 1010 88 10000 4.53 186 10:24 21.01.2021
3491 Clouds 24 1010 88 10000 4.53 186 09:40 21.01.2021
3492 Clouds 24 1010 88 10000 4.65 184 09:19 21.01.2021
3493 Clouds 24 1010 88 10000 4.65 184 08:35 21.01.2021
3494 Clouds 24 1011 88 10000 4.37 177 07:48 21.01.2021
3495 Clear 24 1012 88 10000 4.34 170 07:26 21.01.2021
3496 Clear 24 1012 88 10000 4.55 170 06:31 21.01.2021
3497 Clear 24 1012 89 10000 3.97 155 04:55 21.01.2021
3498 Clear 25 1010 87 10000 4.78 153 02:19 21.01.2021
3499 Clouds 25 1010 86 10000 4.95 153 00:42 21.01.2021
3500 Clouds 27 1007 78 10000 5.14 150 23:49 20.01.2021
3501 Rain 27 1007 78 10000 5.14 150 23:25 20.01.2021
3502 Rain 27 1007 78 10000 6.17 160 22:52 20.01.2021
3503 Rain 27 1007 78 10000 6.17 160 22:30 20.01.2021
3504 Clouds 29 1007 70 10000 7.72 180 21:54 20.01.2021
3505 Clouds 29 1007 70 10000 7.72 180 21:23 20.01.2021
3506 Clouds 29 1008 74 10000 5.66 180 20:52 20.01.2021
3507 Clouds 29 1008 74 10000 5.66 180 20:23 20.01.2021
3508 Clouds 29 1009 70 10000 7.2 160 19:48 20.01.2021
3509 Clouds 29 1009 70 10000 7.2 160 19:29 20.01.2021
3510 Clouds 29 1009 70 10000 7.2 150 18:43 20.01.2021
3511 Clouds 29 1009 70 10000 7.2 150 18:22 20.01.2021
3512 Clouds 27 1010 83 10000 5.14 130 17:50 20.01.2021
3513 Clouds 27 1010 83 10000 5.14 130 17:31 20.01.2021
3514 Clouds 27 1010 83 10000 5.14 150 16:51 20.01.2021
3515 Clouds 27 1010 83 10000 5.14 150 16:22 20.01.2021
3516 Clouds 25 1009 88 10000 4.12 150 15:41 20.01.2021
3517 Clouds 25 1009 88 10000 4.12 150 15:19 20.01.2021
3518 Clouds 24 1012 86 10000 4.17 128 14:40 20.01.2021
3519 Clouds 24 1011 87 10000 4.41 125 14:20 20.01.2021
3520 Clouds 24 1011 87 10000 4.41 125 13:37 20.01.2021
3521 Clouds 24 1011 87 10000 4.34 125 12:56 20.01.2021
3522 Clouds 24 1010 86 10000 4.34 124 12:22 20.01.2021
3523 Clouds 24 1010 86 10000 4.34 124 11:41 20.01.2021
3524 Clouds 24 1010 86 10000 4.19 125 11:20 20.01.2021
3525 Clouds 24 1010 86 10000 4.19 125 10:49 20.01.2021
3526 Clouds 24 1009 86 10000 3.82 128 10:25 20.01.2021
3527 Clouds 24 1009 86 10000 3.82 128 09:38 20.01.2021
3528 Clouds 24 1010 86 10000 3.98 130 09:19 20.01.2021
3529 Clouds 24 1010 86 10000 3.98 130 08:43 20.01.2021
3530 Clouds 24 1010 86 10000 4.38 130 08:22 20.01.2021
3531 Clouds 24 1010 86 10000 4.38 130 07:48 20.01.2021
3532 Clouds 24 1011 87 10000 4.37 129 07:20 20.01.2021
3533 Clouds 24 1012 87 10000 4.35 123 04:33 20.01.2021
3534 Clouds 24 1011 86 10000 4.44 125 02:34 20.01.2021
3535 Clouds 25 1009 85 10000 5.05 137 00:58 20.01.2021
3536 Clouds 28 1006 78 10000 6.17 150 23:54 19.01.2021
3537 Clouds 28 1006 78 10000 6.17 150 23:35 19.01.2021
3538 Clouds 27 1007 83 10000 7.72 160 22:58 19.01.2021
3539 Clouds 27 1007 83 10000 7.72 160 22:40 19.01.2021
3540 Clouds 27 1007 83 10000 7.72 160 22:40 19.01.2021
3541 Clouds 27 1007 83 10000 7.72 160 22:21 19.01.2021
3542 Clouds 28 1007 78 10000 5.66 180 21:54 19.01.2021
3543 Clouds 28 1007 78 10000 5.66 180 21:34 19.01.2021
3544 Clouds 30 1008 74 10000 7.2 150 20:49 19.01.2021
3545 Clouds 30 1008 74 10000 7.2 150 20:28 19.01.2021
3546 Clouds 28 1009 78 10000 5.14 150 19:56 19.01.2021
3547 Clouds 28 1009 78 10000 5.14 150 19:34 19.01.2021
3548 Clouds 28 1009 78 10000 4.63 150 18:59 19.01.2021
3549 Clouds 28 1009 78 10000 4.63 150 18:38 19.01.2021
3550 Clouds 28 1009 78 10000 4.63 150 18:20 19.01.2021
3551 Clouds 27 1009 83 10000 4.12 170 17:42 19.01.2021
3552 Clouds 27 1009 83 10000 4.12 170 17:19 19.01.2021
3553 Clouds 26 1010 89 10000 4.63 160 16:39 19.01.2021
3554 Clouds 26 1010 89 10000 4.63 160 16:18 19.01.2021
3555 Clouds 25 1009 88 10000 2.57 140 15:48 19.01.2021
3556 Clouds 25 1009 88 10000 2.57 140 15:29 19.01.2021
3557 Clouds 24 1012 88 10000 3.36 130 14:43 19.01.2021
3558 Clouds 24 1011 89 10000 3.07 129 14:25 19.01.2021
3559 Clouds 24 1011 89 10000 3.07 129 13:49 19.01.2021
3560 Clouds 24 1010 89 10000 2.82 136 13:23 19.01.2021
3561 Clouds 24 1010 89 10000 2.82 136 12:49 19.01.2021
3562 Clouds 24 1011 89 10000 3.51 132 12:30 19.01.2021
3563 Clouds 24 1010 89 10000 3.26 135 11:51 19.01.2021
3564 Clouds 24 1010 89 10000 3.26 135 11:51 19.01.2021
3565 Clouds 24 1010 88 10000 3.11 140 11:28 19.01.2021
3566 Clouds 24 1010 88 10000 3.11 140 11:28 19.01.2021
3567 Clouds 24 1010 88 10000 3.11 140 10:52 19.01.2021
3568 Clouds 24 1010 88 10000 3.11 140 10:32 19.01.2021
3569 Clouds 24 1009 88 10000 3.07 140 09:54 19.01.2021
3570 Clouds 24 1009 88 10000 3.07 140 09:31 19.01.2021
3571 Clouds 24 1010 88 10000 3.15 135 08:59 19.01.2021
3572 Clouds 24 1011 88 10000 2.91 140 08:26 19.01.2021
3573 Clouds 24 1011 88 10000 2.91 140 07:49 19.01.2021
3574 Clouds 24 1012 89 10000 3.01 141 06:54 19.01.2021
3575 Clouds 24 1012 89 10000 3.01 141 06:54 19.01.2021
3576 Clouds 24 1011 86 10000 3.18 150 02:33 19.01.2021
3577 Clouds 25 1009 83 10000 3.53 147 01:27 19.01.2021
3578 Clouds 28 1006 78 10000 6.69 180 23:58 18.01.2021
3579 Clouds 28 1006 78 10000 6.69 180 23:34 18.01.2021
3580 Clouds 28 1007 78 10000 6.17 180 22:51 18.01.2021
3581 Clouds 28 1007 78 10000 6.17 180 22:26 18.01.2021
3582 Clouds 29 1008 79 10000 4.12 160 21:58 18.01.2021
3583 Clouds 29 1008 79 10000 4.12 160 21:39 18.01.2021
3584 Clouds 29 1008 79 10000 4.12 160 21:20 18.01.2021
3585 Clouds 28 1009 83 10000 3.09 30 20:43 18.01.2021
3586 Clouds 28 1009 83 10000 3.09 30 20:24 18.01.2021
3587 Clouds 27 1009 83 10000 4.12 360 19:51 18.01.2021
3588 Clouds 27 1009 83 10000 4.12 360 19:32 18.01.2021
3589 Clouds 27 1009 83 10000 4.12 10 18:47 18.01.2021
3590 Clouds 27 1009 83 10000 4.12 10 18:47 18.01.2021
3591 Clouds 27 1009 83 10000 4.12 10 18:23 18.01.2021
3592 Clouds 26 1010 89 10000 3.09 30 17:44 18.01.2021
3593 Clouds 26 1010 89 10000 3.09 30 17:21 18.01.2021
3594 Clouds 26 1011 89 10000 2.57 360 16:46 18.01.2021
3595 Clouds 26 1011 89 10000 2.57 360 16:21 18.01.2021
3596 Clouds 25 1010 88 10000 1.03 300 15:45 18.01.2021
3597 Clouds 25 1010 88 10000 1.03 300 15:25 18.01.2021
3598 Clouds 24 1012 90 10000 4.05 142 14:44 18.01.2021
3599 Clouds 24 1012 91 10000 4.07 141 14:26 18.01.2021
3600 Clouds 24 1012 91 10000 4.07 141 13:47 18.01.2021
3601 Clouds 24 1011 91 10000 3.91 148 13:27 18.01.2021
3602 Clouds 24 1011 91 10000 3.91 148 12:53 18.01.2021
3603 Clouds 23 1011 91 10000 3.22 146 12:21 18.01.2021
3604 Clouds 23 1011 91 10000 3.22 146 11:56 18.01.2021
3605 Clouds 23 1011 91 10000 3.22 146 11:37 18.01.2021
3606 Clouds 23 1010 91 10000 3.35 155 11:19 18.01.2021
3607 Clouds 23 1010 91 10000 3.35 155 10:42 18.01.2021
3608 Clouds 24 1010 91 10000 3.45 154 09:47 18.01.2021
3609 Clouds 24 1010 91 10000 3.61 154 09:27 18.01.2021
3610 Clouds 24 1010 91 10000 3.61 154 08:54 18.01.2021
3611 Clouds 24 1011 91 10000 3.66 160 08:18 18.01.2021
3612 Clouds 24 1011 91 10000 3.66 160 07:36 18.01.2021
3613 Clear 24 1013 91 10000 3.75 160 05:35 18.01.2021
3614 Clear 24 1012 90 10000 3.84 155 04:37 18.01.2021
3615 Clear 24 1012 89 10000 3.48 155 04:18 18.01.2021
3616 Clear 24 1012 89 10000 3.48 155 03:41 18.01.2021
3617 Clear 24 1011 88 10000 3.43 150 03:20 18.01.2021
3618 Clear 24 1011 88 10000 3.43 150 02:37 18.01.2021
3619 Clouds 24 1010 87 10000 3.54 153 00:49 18.01.2021
3620 Clouds 28 1006 78 10000 5.66 180 00:30 18.01.2021
3621 Clouds 28 1006 78 10000 5.66 180 23:48 17.01.2021
3622 Rain 28 1006 78 10000 5.66 180 23:20 17.01.2021
3623 Rain 28 1007 78 10000 4.63 150 22:39 17.01.2021
3624 Clouds 28 1007 78 10000 4.63 150 22:20 17.01.2021
3625 Clouds 28 1007 78 10000 5.14 180 21:40 17.01.2021
3626 Rain 28 1007 78 10000 5.14 180 21:22 17.01.2021
3627 Rain 29 1008 74 10000 4.12 180 20:48 17.01.2021
3628 Rain 29 1008 74 10000 4.12 180 20:27 17.01.2021
3629 Rain 28 1009 78 10000 5.14 150 19:42 17.01.2021
3630 Clouds 28 1009 78 10000 5.14 150 19:22 17.01.2021
3631 Clouds 27 1010 83 10000 3.6 180 18:41 17.01.2021
3632 Clouds 27 1010 83 10000 3.6 180 18:21 17.01.2021
3633 Clouds 28 1010 74 10000 4.63 170 17:47 17.01.2021
3634 Clouds 28 1010 74 10000 4.63 170 17:26 17.01.2021
3635 Clouds 26 1010 89 10000 3.09 170 16:44 17.01.2021
3636 Clouds 26 1010 89 10000 3.09 170 16:20 17.01.2021
3637 Clouds 25 1010 88 10000 4.63 170 15:43 17.01.2021
3638 Clouds 25 1010 88 10000 4.63 170 15:24 17.01.2021
3639 Clear 24 1012 89 10000 3.9 157 14:48 17.01.2021
3640 Clear 24 1012 90 10000 4.15 157 14:26 17.01.2021
3641 Clear 24 1012 90 10000 4.15 157 13:45 17.01.2021
3642 Clouds 24 1011 89 10000 3.8 167 13:27 17.01.2021
3643 Clouds 24 1011 89 10000 3.74 162 12:53 17.01.2021
3644 Clouds 24 1011 89 10000 3.74 162 12:31 17.01.2021
3645 Clouds 24 1010 88 10000 4 168 11:54 17.01.2021
3646 Clouds 23 1010 88 10000 3.92 173 11:22 17.01.2021
3647 Clouds 23 1010 88 10000 3.92 173 10:46 17.01.2021
3648 Clouds 23 1010 87 10000 4.27 171 10:21 17.01.2021
3649 Clouds 24 1010 88 10000 4.43 178 09:21 17.01.2021
3650 Clouds 24 1010 88 10000 4.43 178 08:43 17.01.2021
3651 Clouds 24 1012 90 10000 3.48 171 06:29 17.01.2021
3652 Clouds 24 1012 90 10000 2.87 169 04:28 17.01.2021
3653 Clear 24 1012 90 10000 2.89 168 02:42 17.01.2021
3654 Clouds 24 1010 88 10000 3.67 167 00:47 17.01.2021
3655 Clouds 25 1008 88 10000 5.66 160 00:18 17.01.2021
3656 Clouds 25 1008 88 10000 5.66 160 23:48 16.01.2021
3657 Clouds 25 1008 88 10000 5.66 160 23:19 16.01.2021
3658 Clouds 25 1008 88 10000 5.14 160 22:34 16.01.2021
3659 Rain 24 1009 94 6000 5.14 180 21:58 16.01.2021
3660 Rain 24 1009 94 6000 5.14 180 21:24 16.01.2021
3661 Rain 24 1011 87 10000 4.11 201 20:53 16.01.2021
3662 Rain 24 1011 87 10000 4.11 201 20:53 16.01.2021
3663 Rain 24 1011 87 10000 4.11 201 20:30 16.01.2021
3664 Clouds 24 1012 88 10000 4.01 202 19:55 16.01.2021
3665 Clouds 27 1010 78 10000 4.12 210 19:37 16.01.2021
3666 Clouds 27 1010 78 10000 4.12 210 19:18 16.01.2021
3667 Rain 27 1011 78 10000 5.14 210 18:40 16.01.2021
3668 Rain 27 1011 78 10000 5.14 210 18:20 16.01.2021
3669 Rain 27 1011 74 10000 1.54 180 17:41 16.01.2021
3670 Rain 27 1011 74 10000 1.54 180 17:21 16.01.2021
3671 Rain 25 1011 88 10000 4.12 160 16:45 16.01.2021
3672 Rain 25 1011 88 10000 4.12 160 16:21 16.01.2021
3673 Rain 23 1011 94 10000 2.57 150 15:43 16.01.2021
3674 Rain 23 1013 93 10000 5.01 234 14:53 16.01.2021
3675 Rain 23 1012 92 10000 4.9 225 13:54 16.01.2021
3676 Rain 23 1012 92 10000 4.9 225 13:34 16.01.2021
3677 Rain 23 1011 92 10000 4.75 217 12:58 16.01.2021
3678 Rain 24 1011 91 10000 3.95 208 12:37 16.01.2021
3679 Rain 24 1011 90 10000 4.13 194 12:19 16.01.2021
3680 Rain 24 1011 90 10000 4.13 194 11:45 16.01.2021
3681 Rain 24 1011 89 10000 4.16 193 11:20 16.01.2021
3682 Rain 24 1011 89 10000 4.16 193 10:42 16.01.2021
3683 Rain 24 1010 90 8127 4.09 199 09:57 16.01.2021
3684 Rain 24 1011 90 10000 3.76 207 09:22 16.01.2021
3685 Rain 24 1011 90 10000 3.36 212 08:22 16.01.2021
3686 Rain 24 1013 89 10000 3.2 210 07:18 16.01.2021
3687 Rain 24 1013 89 10000 3.4 210 05:45 16.01.2021
3688 Rain 24 1013 89 10000 3.24 202 04:36 16.01.2021
3689 Rain 24 1012 89 10000 3.34 195 02:54 16.01.2021
3690 Clouds 24 1010 87 10000 3.17 200 00:48 16.01.2021
3691 Clouds 26 1007 89 10000 3.6 210 00:24 16.01.2021
3692 Clouds 26 1007 89 10000 3.6 210 23:39 15.01.2021
3693 Clouds 26 1007 89 10000 4.12 220 22:42 15.01.2021
3694 Clouds 26 1007 89 10000 4.12 220 22:22 15.01.2021
3695 Clouds 27 1008 83 10000 5.14 210 21:44 15.01.2021
3696 Clouds 27 1009 83 10000 5.14 210 20:50 15.01.2021
3697 Clouds 27 1009 83 10000 5.14 210 20:24 15.01.2021
3698 Clouds 27 1010 89 10000 4.12 180 19:58 15.01.2021
3699 Clouds 27 1010 89 10000 4.12 180 19:39 15.01.2021
3700 Clouds 27 1010 89 10000 4.12 180 19:21 15.01.2021
3701 Clouds 26 1010 89 10000 5.14 180 18:42 15.01.2021
3702 Clouds 26 1010 89 10000 5.14 180 18:18 15.01.2021
3703 Clouds 27 1010 83 10000 4.63 210 17:42 15.01.2021
3704 Clouds 27 1010 83 10000 4.63 210 17:21 15.01.2021
3705 Clouds 26 1010 89 10000 4.63 210 16:46 15.01.2021
3706 Clouds 26 1010 89 10000 4.63 210 16:24 15.01.2021
3707 Clouds 25 1010 94 10000 6.17 190 15:41 15.01.2021
3708 Clouds 25 1010 94 10000 6.17 190 15:21 15.01.2021
3709 Clouds 24 1013 88 10000 5.33 227 14:46 15.01.2021
3710 Clouds 24 1012 88 10000 5.48 230 14:27 15.01.2021
3711 Clouds 24 1012 88 10000 5.48 230 13:43 15.01.2021
3712 Clouds 24 1011 88 10000 5.44 228 13:22 15.01.2021
3713 Clouds 24 1011 88 10000 5.44 228 12:57 15.01.2021
3714 Rain 24 1011 88 10000 5.72 228 12:32 15.01.2021
3715 Clouds 24 1011 88 10000 5.79 223 11:50 15.01.2021
3716 Clouds 24 1011 88 10000 5.79 223 11:31 15.01.2021
3717 Clouds 24 1010 88 10000 5.98 222 10:56 15.01.2021
3718 Clouds 24 1010 88 10000 5.98 222 10:37 15.01.2021
3719 Clouds 24 1010 89 10000 5.96 226 09:54 15.01.2021
3720 Clouds 24 1010 89 10000 5.96 226 09:34 15.01.2021
3721 Clouds 24 1011 89 10000 6.35 226 08:42 15.01.2021
3722 Clouds 24 1012 89 10000 6.35 227 08:19 15.01.2021
3723 Clouds 24 1012 89 10000 6.35 227 07:41 15.01.2021
3724 Clouds 24 1012 89 10000 5.64 229 07:19 15.01.2021
3725 Clouds 24 1012 90 10000 4.92 219 04:33 15.01.2021
3726 Clouds 24 1010 88 10000 3.99 210 01:39 15.01.2021
3727 Clouds 27 1007 83 10000 6.69 210 23:50 14.01.2021
3728 Clouds 27 1007 83 10000 6.69 210 23:21 14.01.2021
3729 Clouds 27 1007 89 10000 5.14 210 22:42 14.01.2021
3730 Clouds 27 1007 89 10000 5.14 210 22:24 14.01.2021
3731 Clouds 24 1009 85 10000 5.44 198 21:44 14.01.2021
3732 Clouds 27 1009 83 10000 6.17 180 21:21 14.01.2021
3733 Clouds 27 1009 83 10000 6.17 180 20:49 14.01.2021
3734 Clouds 27 1009 83 10000 6.17 180 20:25 14.01.2021
3735 Clouds 28 1009 78 10000 6.69 180 19:44 14.01.2021
3736 Clouds 28 1009 78 10000 6.69 180 19:26 14.01.2021
3737 Clouds 28 1010 78 10000 7.2 180 18:55 14.01.2021
3738 Clouds 28 1010 78 10000 7.2 180 18:27 14.01.2021
3739 Clouds 27 1010 83 10000 6.69 170 17:46 14.01.2021
3740 Clouds 27 1010 83 10000 6.69 170 17:27 14.01.2021
3741 Clouds 26 1010 89 10000 3.6 180 16:43 14.01.2021
3742 Clouds 26 1010 89 10000 3.6 180 16:18 14.01.2021
3743 Clouds 25 1010 88 10000 5.14 180 15:45 14.01.2021
3744 Clouds 25 1010 88 10000 5.14 180 15:45 14.01.2021
3745 Clouds 24 1012 87 10000 5.02 186 14:59 14.01.2021
3746 Clouds 24 1012 87 10000 5.02 186 14:38 14.01.2021
3747 Clouds 24 1011 88 10000 4.94 191 14:19 14.01.2021
3748 Clouds 24 1011 88 10000 4.94 191 14:19 14.01.2021
3749 Clouds 24 1011 88 10000 4.94 191 13:53 14.01.2021
3750 Clouds 24 1011 88 10000 5 196 13:21 14.01.2021
3751 Clouds 24 1012 89 10000 4.96 203 12:49 14.01.2021
3752 Clouds 24 1011 89 10000 4.86 202 12:20 14.01.2021
3753 Clouds 24 1011 89 10000 4.86 202 11:43 14.01.2021
3754 Clouds 24 1011 89 10000 5.16 204 11:21 14.01.2021
3755 Clouds 24 1011 89 10000 5.16 204 10:52 14.01.2021
3756 Clouds 24 1010 89 10000 5.27 203 10:27 14.01.2021
3757 Clouds 24 1010 89 10000 5.27 203 09:48 14.01.2021
3758 Clouds 24 1011 90 10000 4.93 202 09:23 14.01.2021
3759 Clouds 24 1011 90 10000 4.93 202 08:49 14.01.2021
3760 Clouds 24 1011 90 10000 4.77 202 08:27 14.01.2021
3761 Clouds 24 1011 90 10000 4.77 202 07:49 14.01.2021
3762 Clouds 24 1012 90 10000 4.75 203 06:53 14.01.2021
3763 Clouds 24 1012 90 10000 5.29 201 05:50 14.01.2021
3764 Clouds 26 1007 89 10000 6.17 180 00:46 14.01.2021
3765 Clouds 27 1007 83 10000 6.69 180 23:54 13.01.2021
3766 Clouds 27 1007 83 10000 6.69 180 23:23 13.01.2021
3767 Clouds 27 1007 83 10000 7.72 180 22:29 13.01.2021
3768 Clouds 28 1008 83 10000 7.2 180 21:57 13.01.2021
3769 Clouds 28 1008 83 10000 7.2 180 21:38 13.01.2021
3770 Clouds 27 1008 83 10000 6.69 180 20:59 13.01.2021
3771 Clouds 27 1008 83 10000 6.69 180 20:33 13.01.2021
3772 Clouds 28 1009 78 10000 8.75 150 19:58 13.01.2021
3773 Clouds 28 1009 78 10000 8.75 150 19:39 13.01.2021
3774 Clouds 28 1009 78 10000 8.75 150 19:19 13.01.2021
3775 Clouds 27 1010 83 10000 5.14 150 18:40 13.01.2021
3776 Clouds 26 1011 89 10000 5.14 180 17:51 13.01.2021
3777 Clouds 26 1011 89 10000 5.14 180 17:25 13.01.2021
3778 Clouds 25 1010 88 10000 3.09 190 16:51 13.01.2021
3779 Clouds 25 1010 88 10000 3.09 190 16:22 13.01.2021
3780 Clouds 25 1010 88 10000 3.09 190 15:53 13.01.2021
3781 Clouds 25 1010 88 10000 3.09 190 15:35 13.01.2021
3782 Clouds 24 1013 88 10000 5.72 184 14:48 13.01.2021
3783 Clouds 24 1012 88 10000 5.61 184 13:53 13.01.2021
3784 Clouds 24 1012 88 10000 5.61 184 13:31 13.01.2021
3785 Clouds 24 1012 88 10000 5.68 184 12:47 13.01.2021
3786 Clouds 24 1011 86 10000 5.61 188 12:28 13.01.2021
3787 Clouds 24 1011 86 10000 5.61 188 11:55 13.01.2021
3788 Clouds 24 1011 86 10000 5.61 188 11:35 13.01.2021
3789 Clouds 24 1010 86 10000 5.5 186 10:55 13.01.2021
3790 Clouds 24 1010 86 10000 5.5 186 10:37 13.01.2021
3791 Clouds 24 1010 86 10000 5.46 187 09:55 13.01.2021
3792 Clouds 24 1010 86 10000 5.46 187 09:30 13.01.2021
3793 Clouds 24 1011 86 10000 5.4 186 08:51 13.01.2021
3794 Clouds 24 1011 86 10000 5.4 186 08:31 13.01.2021
3795 Clouds 24 1012 87 10000 5.64 187 07:35 13.01.2021
3796 Clouds 24 1012 87 10000 5.48 190 06:54 13.01.2021
3797 Clouds 24 1012 87 10000 4.14 190 04:20 13.01.2021
3798 Clouds 24 1012 87 10000 4.14 190 03:45 13.01.2021
3799 Clouds 24 1012 87 10000 4.29 184 03:27 13.01.2021
3800 Clouds 24 1010 85 10000 5.26 170 01:19 13.01.2021
3801 Clouds 26 1007 83 10000 7.2 170 23:55 12.01.2021
3802 Clouds 26 1007 83 10000 7.2 170 23:22 12.01.2021
3803 Clouds 27 1007 83 10000 6.17 180 22:46 12.01.2021
3804 Clouds 27 1007 83 10000 6.17 180 22:23 12.01.2021
3805 Clouds 27 1008 83 10000 7.72 150 21:49 12.01.2021
3806 Clouds 27 1008 83 10000 7.72 150 21:30 12.01.2021
3807 Clouds 27 1009 78 10000 7.2 150 20:49 12.01.2021
3808 Clouds 27 1009 78 10000 7.2 150 20:27 12.01.2021
3809 Clouds 27 1010 78 10000 6.69 150 19:49 12.01.2021
3810 Clouds 27 1010 78 10000 6.69 150 19:27 12.01.2021
3811 Clouds 26 1010 83 10000 7.2 150 18:44 12.01.2021
3812 Clouds 26 1010 83 10000 7.2 150 18:24 12.01.2021
3813 Clouds 26 1010 83 10000 6.17 170 17:43 12.01.2021
3814 Clouds 26 1010 83 10000 6.17 170 17:24 12.01.2021
3815 Clouds 25 1010 88 10000 7.2 170 16:44 12.01.2021
3816 Clouds 25 1010 88 10000 7.2 170 16:24 12.01.2021
3817 Clouds 25 1010 88 10000 6.17 150 15:40 12.01.2021
3818 Clouds 25 1010 88 10000 6.17 150 15:21 12.01.2021
3819 Clouds 24 1013 85 10000 5.32 166 14:42 12.01.2021
3820 Clouds 23 1012 85 10000 5.1 170 14:21 12.01.2021
3821 Clouds 23 1012 85 10000 5.1 170 13:52 12.01.2021
3822 Clear 23 1012 86 10000 5.27 168 12:55 12.01.2021
3823 Clear 23 1012 86 10000 5.31 171 12:22 12.01.2021
3824 Clear 23 1012 86 10000 5.31 171 11:41 12.01.2021
3825 Clear 23 1011 86 10000 5.42 170 10:52 12.01.2021
3826 Clear 23 1011 86 10000 5.15 169 10:22 12.01.2021
3827 Clear 23 1011 86 10000 5.15 169 09:57 12.01.2021
3828 Clear 23 1011 86 10000 4.58 167 09:28 12.01.2021
3829 Clear 23 1011 86 10000 4.58 167 08:51 12.01.2021
3830 Clear 23 1012 86 10000 4.37 165 08:25 12.01.2021
3831 Clear 23 1012 86 10000 4.37 165 07:36 12.01.2021
3832 Clear 23 1013 86 10000 4.49 153 06:35 12.01.2021
3833 Clear 24 1014 85 10000 4.5 154 05:33 12.01.2021
3834 Clear 24 1012 85 10000 3.89 159 03:26 12.01.2021
3835 Clear 24 1011 83 10000 4.1 158 02:19 12.01.2021
3836 Clouds 24 1011 83 10000 4.28 160 01:28 12.01.2021
3837 Clouds 24 1010 82 10000 3.83 161 23:54 11.01.2021
3838 Clouds 27 1008 83 10000 8.23 160 23:23 11.01.2021
3839 Clouds 27 1008 83 10000 8.23 160 22:59 11.01.2021
3840 Clouds 27 1008 83 10000 8.23 160 22:40 11.01.2021
3841 Clouds 27 1008 83 10000 8.23 160 22:19 11.01.2021
3842 Clouds 27 1009 83 10000 6.69 170 21:38 11.01.2021
3843 Clouds 27 1009 83 10000 6.69 170 21:20 11.01.2021
3844 Clouds 27 1010 83 10000 6.17 160 20:41 11.01.2021
3845 Clouds 27 1010 83 10000 6.17 160 20:23 11.01.2021
3846 Clouds 27 1010 83 10000 7.2 150 19:55 11.01.2021
3847 Clouds 27 1010 83 10000 7.2 150 19:30 11.01.2021
3848 Clear 24 1013 81 10000 4.17 141 18:45 11.01.2021
3849 Clear 24 1013 81 10000 4.17 141 18:45 11.01.2021
3850 Clear 24 1014 82 10000 4.16 137 18:26 11.01.2021
3851 Clear 24 1014 82 10000 4.16 137 17:54 11.01.2021
3852 Clear 24 1014 82 10000 4.16 137 17:36 11.01.2021
3853 Clear 24 1014 82 10000 4.16 137 17:36 11.01.2021
3854 Clear 24 1014 82 10000 4.1 137 17:18 11.01.2021
3855 Clear 24 1014 82 10000 4.1 137 16:38 11.01.2021
3856 Clear 24 1015 82 10000 4.02 136 16:19 11.01.2021
3857 Clear 24 1015 82 10000 4.02 136 15:47 11.01.2021
3858 Clear 24 1014 83 10000 3.8 143 15:26 11.01.2021
3859 Clear 24 1014 83 10000 3.8 143 14:39 11.01.2021
3860 Clear 23 1013 84 10000 4.27 146 13:50 11.01.2021
3861 Clouds 23 1012 84 10000 4.27 147 13:26 11.01.2021
3862 Clouds 23 1013 84 10000 4.37 147 12:51 11.01.2021
3863 Clouds 23 1013 84 10000 4.37 147 12:32 11.01.2021
3864 Clouds 23 1012 84 10000 3.96 147 11:56 11.01.2021
3865 Clouds 23 1011 84 10000 3.87 147 11:27 11.01.2021
3866 Clouds 23 1011 84 10000 3.87 147 10:47 11.01.2021
3867 Clear 23 1011 84 10000 3.74 145 10:25 11.01.2021
3868 Clear 23 1011 84 10000 3.74 145 09:42 11.01.2021
3869 Clear 23 1011 84 10000 3.86 140 09:21 11.01.2021
3870 Clear 23 1011 84 10000 3.86 140 08:44 11.01.2021
3871 Clear 23 1012 83 10000 3.65 137 08:18 11.01.2021
3872 Clouds 23 1013 83 10000 3.53 143 07:27 11.01.2021
3873 Clear 23 1013 83 10000 3.46 146 06:58 11.01.2021
3874 Clear 23 1013 83 10000 3.93 157 03:51 11.01.2021
3875 Clouds 23 1011 81 10000 3.84 159 01:30 11.01.2021
3876 Clouds 27 1007 78 10000 6.69 160 23:59 10.01.2021
3877 Clouds 27 1007 78 10000 6.69 160 23:30 10.01.2021
3878 Clouds 27 1008 78 10000 7.2 160 22:48 10.01.2021
3879 Clouds 27 1008 78 10000 7.2 160 22:24 10.01.2021
3880 Clouds 28 1009 74 10000 7.2 170 21:45 10.01.2021
3881 Clouds 28 1009 74 10000 7.2 170 21:20 10.01.2021
3882 Clouds 28 1010 78 10000 8.23 160 20:53 10.01.2021
3883 Clouds 28 1010 78 10000 8.23 160 20:32 10.01.2021
3884 Clouds 28 1010 74 10000 7.2 170 19:43 10.01.2021
3885 Clouds 28 1010 74 10000 7.2 170 19:25 10.01.2021
3886 Clouds 27 1011 78 10000 6.69 160 18:49 10.01.2021
3887 Clouds 27 1011 78 10000 6.69 160 18:21 10.01.2021
3888 Clouds 27 1011 78 10000 6.69 160 18:21 10.01.2021
3889 Clouds 26 1011 83 10000 6.69 180 17:28 10.01.2021
3890 Clouds 26 1011 83 10000 5.14 180 16:59 10.01.2021
3891 Clouds 26 1011 83 10000 5.14 180 16:32 10.01.2021
3892 Clouds 25 1011 88 10000 5.66 150 15:54 10.01.2021
3893 Clouds 25 1011 88 10000 5.66 150 15:25 10.01.2021
3894 Clouds 25 1011 88 10000 5.66 150 15:25 10.01.2021
3895 Clear 23 1014 81 10000 4.53 160 14:50 10.01.2021
3896 Clear 23 1014 81 10000 4.53 160 14:31 10.01.2021
3897 Clear 23 1013 81 10000 4.52 164 13:54 10.01.2021
3898 Clear 23 1013 81 10000 4.52 164 13:36 10.01.2021
3899 Clear 23 1013 81 10000 4.52 164 13:36 10.01.2021
3900 Clouds 23 1013 81 10000 4.83 160 13:18 10.01.2021
3901 Clouds 23 1013 81 10000 5.31 155 12:42 10.01.2021
3902 Clouds 23 1012 82 10000 5.46 154 11:58 10.01.2021
3903 Clouds 23 1011 82 10000 5.44 154 11:22 10.01.2021
3904 Clouds 23 1011 82 10000 5.44 154 10:58 10.01.2021
3905 Clouds 23 1011 81 10000 5.08 158 10:28 10.01.2021
3906 Clouds 23 1011 81 10000 5.08 158 09:57 10.01.2021
3907 Clouds 23 1012 80 10000 4.59 160 08:50 10.01.2021
3908 Clouds 24 1013 79 10000 4.38 159 08:19 10.01.2021
3909 Clouds 24 1014 79 10000 3.29 159 07:27 10.01.2021
3910 Clouds 24 1014 82 10000 3.18 156 06:18 10.01.2021
3911 Clouds 24 1014 82 10000 3.18 156 05:34 10.01.2021
3912 Clouds 24 1012 80 10000 4.42 148 02:42 10.01.2021
3913 Rain 23 1008 100 8000 3.09 180 00:38 10.01.2021
3914 Rain 23 1008 100 8000 3.09 180 23:42 09.01.2021
3915 Rain 23 1008 100 8000 3.09 180 23:23 09.01.2021
3916 Drizzle 24 1009 94 3000 5.14 160 22:25 09.01.2021
3917 Clouds 24 1011 80 10000 4.47 148 21:59 09.01.2021
3918 Clouds 27 1009 78 10000 5.14 180 21:40 09.01.2021
3919 Clouds 27 1009 78 10000 5.14 180 21:21 09.01.2021
3920 Clouds 26 1010 89 10000 5.66 170 20:58 09.01.2021
3921 Clouds 26 1010 89 10000 5.66 170 20:37 09.01.2021
3922 Clouds 26 1011 83 10000 6.69 170 19:43 09.01.2021
3923 Clouds 26 1011 83 10000 6.69 170 19:21 09.01.2021
3924 Clouds 26 1012 83 10000 4.63 180 18:39 09.01.2021
3925 Clouds 26 1012 83 10000 4.63 180 18:19 09.01.2021
3926 Clouds 27 1012 83 10000 5.14 160 17:43 09.01.2021
3927 Clouds 27 1012 83 10000 5.14 160 17:23 09.01.2021
3928 Clouds 26 1012 83 10000 6.69 160 16:31 09.01.2021
3929 Clouds 25 1012 88 10000 4.63 170 15:47 09.01.2021
3930 Clouds 25 1012 88 10000 4.63 170 15:27 09.01.2021
3931 Clouds 24 1014 77 10000 4 139 14:38 09.01.2021
3932 Clouds 24 1013 78 10000 4.19 141 14:20 09.01.2021
3933 Clouds 24 1013 78 10000 4.19 141 13:47 09.01.2021
3934 Clouds 23 1013 78 10000 4.15 144 13:28 09.01.2021
3935 Clouds 24 1013 77 10000 4.48 143 12:47 09.01.2021
3936 Clouds 23 1012 77 10000 4.24 142 12:21 09.01.2021
3937 Clouds 23 1012 77 10000 4.24 142 11:50 09.01.2021
3938 Clouds 23 1012 78 10000 4.47 141 11:27 09.01.2021
3939 Clouds 23 1012 78 10000 4.47 141 10:52 09.01.2021
3940 Clouds 23 1012 78 10000 4.47 146 10:27 09.01.2021
3941 Clouds 23 1012 78 10000 4.47 146 09:46 09.01.2021
3942 Clouds 23 1012 79 10000 4.63 147 09:21 09.01.2021
3943 Clouds 23 1013 79 10000 4.72 145 08:26 09.01.2021
3944 Clouds 24 1014 78 10000 4.64 141 06:55 09.01.2021
3945 Clouds 24 1014 78 10000 4.78 144 06:37 09.01.2021
3946 Clouds 24 1014 79 10000 5.07 143 04:40 09.01.2021
3947 Clouds 24 1013 80 10000 5.46 146 02:47 09.01.2021
3948 Clouds 24 1013 81 10000 5.08 142 02:28 09.01.2021
3949 Clouds 24 1013 81 10000 5.08 142 01:35 09.01.2021
3950 Clouds 26 1009 83 10000 7.72 150 00:34 09.01.2021
3951 Clouds 26 1009 83 10000 7.72 150 23:50 08.01.2021
3952 Clouds 27 1009 78 10000 9.26 160 22:49 08.01.2021
3953 Clouds 28 1010 74 10000 7.72 160 21:57 08.01.2021
3954 Clouds 28 1010 74 10000 7.72 160 21:27 08.01.2021
3955 Clouds 28 1011 74 10000 7.2 180 20:41 08.01.2021
3956 Clouds 28 1011 74 10000 8.23 150 19:59 08.01.2021
3957 Clouds 28 1011 74 10000 8.23 150 19:25 08.01.2021
3958 Clouds 27 1012 78 10000 5.14 160 18:59 08.01.2021
3959 Clouds 27 1012 78 10000 5.14 160 18:34 08.01.2021
3960 Clouds 27 1013 78 10000 7.2 170 17:55 08.01.2021
3961 Clouds 27 1013 78 10000 7.2 170 17:28 08.01.2021
3962 Clouds 26 1013 83 10000 5.66 130 16:50 08.01.2021
3963 Clouds 25 1013 88 10000 6.17 150 15:55 08.01.2021
3964 Clouds 25 1013 88 10000 6.17 150 15:33 08.01.2021
3965 Clear 23 1015 80 10000 4.4 150 14:40 08.01.2021
3966 Clear 23 1014 80 10000 4.39 143 13:55 08.01.2021
3967 Clouds 23 1013 80 10000 4.24 143 13:22 08.01.2021
3968 Clouds 23 1013 80 10000 4.24 143 12:52 08.01.2021
3969 Clouds 23 1013 81 10000 3.88 149 12:22 08.01.2021
3970 Clouds 23 1013 81 10000 3.88 149 12:22 08.01.2021
3971 Clouds 23 1013 81 10000 3.88 149 12:22 08.01.2021
3972 Clouds 23 1013 81 10000 3.88 149 11:50 08.01.2021
3973 Clouds 23 1013 81 10000 3.88 149 11:30 08.01.2021
3974 Clouds 23 1013 81 10000 3.69 157 10:56 08.01.2021
3975 Clouds 23 1013 81 10000 3.69 157 10:38 08.01.2021
3976 Clouds 23 1012 81 10000 3.84 162 09:53 08.01.2021
3977 Clouds 23 1012 81 10000 3.84 162 09:34 08.01.2021
3978 Clouds 23 1013 81 10000 3.83 161 08:41 08.01.2021
3979 Clouds 23 1014 81 10000 4.44 163 07:29 08.01.2021
3980 Clouds 23 1014 81 10000 4.65 161 06:40 08.01.2021
3981 Clouds 26 1009 83 10000 5.66 150 00:32 08.01.2021
3982 Clouds 26 1009 83 10000 5.66 150 23:41 07.01.2021
3983 Clouds 26 1009 83 10000 6.17 160 22:50 07.01.2021
3984 Clouds 26 1009 83 10000 6.17 160 22:32 07.01.2021
3985 Clouds 26 1009 83 10000 7.2 170 21:49 07.01.2021
3986 Clouds 26 1009 83 10000 7.2 170 21:27 07.01.2021
3987 Clouds 27 1010 78 10000 5.14 180 20:48 07.01.2021
3988 Clouds 27 1010 78 10000 5.14 180 20:29 07.01.2021
3989 Clouds 27 1011 83 10000 4.63 190 19:47 07.01.2021
3990 Clouds 27 1011 83 10000 4.63 190 19:23 07.01.2021
3991 Clouds 26 1012 83 10000 4.12 180 18:40 07.01.2021
3992 Clouds 26 1012 83 10000 4.12 180 18:19 07.01.2021
3993 Clouds 26 1012 83 10000 4.12 200 17:31 07.01.2021
3994 Clouds 25 1013 88 10000 3.09 220 16:55 07.01.2021
3995 Clouds 25 1013 88 10000 3.09 220 16:30 07.01.2021
3996 Clouds 24 1013 94 10000 3.6 160 15:48 07.01.2021
3997 Clouds 24 1013 94 10000 3.6 160 15:30 07.01.2021
3998 Clouds 24 1013 94 10000 3.6 160 15:30 07.01.2021
3999 Clouds 23 1014 78 10000 3.79 183 14:27 07.01.2021
4000 Clouds 23 1014 78 10000 3.79 183 13:49 07.01.2021
4001 Clouds 23 1013 78 10000 3.59 180 13:22 07.01.2021
4002 Clouds 23 1013 81 10000 3.49 177 12:51 07.01.2021
4003 Clouds 23 1013 82 10000 3.65 180 11:59 07.01.2021
4004 Clouds 23 1013 82 10000 3.65 180 11:38 07.01.2021
4005 Clouds 23 1013 82 10000 3.52 187 10:54 07.01.2021
4006 Clouds 23 1013 82 10000 3.52 187 10:33 07.01.2021
4007 Clouds 23 1012 82 10000 3.59 191 09:49 07.01.2021
4008 Clouds 23 1012 82 10000 3.84 188 09:22 07.01.2021
4009 Clouds 23 1012 82 10000 3.84 188 08:30 07.01.2021
4010 Clouds 23 1012 82 10000 4.07 185 07:54 07.01.2021
4011 Clouds 23 1012 82 10000 4.07 185 07:35 07.01.2021
4012 Clouds 23 1014 82 10000 4.54 170 05:44 07.01.2021
4013 Clouds 23 1011 81 10000 5.11 166 00:58 07.01.2021
4014 Clouds 26 1008 83 10000 5.7 190 23:52 06.01.2021
4015 Clouds 26 1008 83 10000 6.2 190 22:50 06.01.2021
4016 Clouds 26 1009 83 10000 5.7 200 21:59 06.01.2021
4017 Clouds 26 1009 83 10000 5.7 200 21:41 06.01.2021
4018 Clouds 27 1010 78 10000 6.2 170 21:21 06.01.2021
4019 Clouds 27 1010 78 10000 6.2 170 20:39 06.01.2021
4020 Clouds 26 1011 83 10000 5.7 190 20:18 06.01.2021
4021 Clouds 26 1011 83 10000 5.7 190 19:41 06.01.2021
4022 Clouds 26 1012 83 10000 5.1 180 19:22 06.01.2021
4023 Clouds 26 1012 83 10000 5.1 180 18:42 06.01.2021
4024 Clouds 26 1012 83 10000 5.1 180 18:24 06.01.2021
4025 Clouds 26 1012 83 10000 6.2 170 17:43 06.01.2021
4026 Clouds 25 1012 88 10000 5.7 180 17:25 06.01.2021
4027 Clouds 25 1012 88 10000 5.7 180 16:45 06.01.2021
4028 Clouds 24 1012 94 10000 5.1 190 16:20 06.01.2021
4029 Clouds 24 1012 94 10000 5.1 190 16:20 06.01.2021
4030 Clouds 24 1012 94 10000 5.1 190 15:53 06.01.2021
4031 Clouds 24 1012 94 10000 5.1 190 15:32 06.01.2021
4032 Clear 23 1014 81 10000 4.46 174 14:51 06.01.2021
4033 Clouds 23 1013 81 10000 4.25 179 14:21 06.01.2021
4034 Clouds 23 1013 81 10000 4.25 179 13:45 06.01.2021
4035 Clouds 22 1013 81 10000 4.11 184 13:23 06.01.2021
4036 Clouds 23 1013 81 10000 4.18 181 12:48 06.01.2021
4037 Clouds 23 1012 81 10000 4.21 186 12:20 06.01.2021
4038 Clouds 23 1012 81 10000 4.21 186 11:36 06.01.2021
4039 Clouds 23 1012 82 10000 4.24 184 11:18 06.01.2021
4040 Clouds 22 1011 83 10000 4.45 182 10:20 06.01.2021
4041 Clouds 22 1011 83 10000 4.45 182 09:50 06.01.2021
4042 Clouds 22 1012 83 10000 4.76 182 08:58 06.01.2021
4043 Clouds 22 1012 83 10000 4.76 182 08:30 06.01.2021
4044 Clouds 23 1012 82 10000 4.57 185 07:54 06.01.2021
4045 Clouds 23 1013 80 10000 4.29 187 06:48 06.01.2021
4046 Clouds 23 1014 79 10000 4.38 188 05:33 06.01.2021
4047 Clouds 23 1014 79 10000 4.57 185 04:34 06.01.2021
4048 Clouds 23 1013 80 10000 5.22 182 02:47 06.01.2021
4049 Clouds 23 1012 80 10000 6.01 186 02:23 06.01.2021
4050 Clouds 26 1008 83 10000 5.1 190 00:34 06.01.2021
4051 Clouds 26 1008 83 10000 5.1 190 23:29 05.01.2021
4052 Clouds 27 1008 83 10000 6.2 220 22:43 05.01.2021
4053 Clouds 26 1009 83 10000 5.1 220 22:21 05.01.2021
4054 Clouds 26 1009 83 10000 5.1 220 21:55 05.01.2021
4055 Clouds 26 1010 83 10000 6.7 210 20:49 05.01.2021
4056 Clouds 27 1011 83 10000 5.1 220 20:25 05.01.2021
4057 Clouds 27 1011 83 10000 5.1 220 19:44 05.01.2021
4058 Clouds 27 1011 83 10000 5.1 220 19:21 05.01.2021
4059 Clouds 26 1011 88 10000 5.7 190 18:44 05.01.2021
4060 Clouds 26 1012 88 10000 5.1 200 18:24 05.01.2021
4061 Clouds 26 1012 88 10000 5.1 200 17:50 05.01.2021
4062 Clouds 25 1012 88 10000 4.6 210 17:27 05.01.2021
4063 Clouds 25 1012 88 10000 4.6 210 16:53 05.01.2021
4064 Clouds 24 1012 94 10000 4.1 220 16:22 05.01.2021
4065 Clouds 24 1012 94 10000 4.1 220 15:50 05.01.2021
4066 Clouds 24 1012 94 10000 4.1 220 15:25 05.01.2021
4067 Clouds 23 1014 80 10000 5.7 199 14:39 05.01.2021
4068 Clouds 23 1013 82 10000 5.1 199 13:50 05.01.2021
4069 Clouds 23 1013 82 10000 5.1 199 13:30 05.01.2021
4070 Clouds 22 1012 83 10000 4.8 199 12:49 05.01.2021
4071 Clouds 22 1012 84 10000 5.37 194 12:28 05.01.2021
4072 Clouds 22 1012 84 10000 5.37 194 11:39 05.01.2021
4073 Clouds 22 1012 84 10000 4.95 195 10:56 05.01.2021
4074 Clouds 22 1012 84 10000 4.95 195 10:37 05.01.2021
4075 Clouds 22 1011 84 10000 4.54 197 09:50 05.01.2021
4076 Clouds 22 1011 84 10000 4.54 197 09:30 05.01.2021
4077 Clouds 22 1012 83 10000 4.29 196 08:28 05.01.2021
4078 Clouds 22 1012 83 10000 4.29 196 07:46 05.01.2021
4079 Clear 22 1014 82 10000 4.66 196 04:58 05.01.2021
4080 Clear 23 1011 81 10000 5.24 184 00:59 05.01.2021
4081 Clouds 26 1008 83 10000 6.7 190 23:59 04.01.2021
4082 Clouds 26 1008 83 10000 6.7 190 23:36 04.01.2021
4083 Clouds 27 1008 78 10000 7.2 190 23:18 04.01.2021
4084 Clouds 27 1008 78 10000 7.2 190 22:41 04.01.2021
4085 Clouds 27 1009 78 10000 6.7 220 21:52 04.01.2021
4086 Clouds 27 1009 78 10000 6.7 220 21:34 04.01.2021
4087 Clouds 27 1010 83 10000 7.2 200 20:48 04.01.2021
4088 Clouds 27 1010 83 10000 7.2 200 20:30 04.01.2021
4089 Clouds 27 1011 83 10000 7.2 210 19:52 04.01.2021
4090 Clouds 27 1011 83 10000 7.2 210 19:28 04.01.2021
4091 Clouds 27 1011 78 10000 6.7 220 18:55 04.01.2021
4092 Clouds 27 1012 83 10000 4.6 190 18:24 04.01.2021
4093 Clouds 27 1012 83 10000 4.6 190 17:44 04.01.2021
4094 Clouds 25 1013 88 10000 4.1 190 17:25 04.01.2021
4095 Clouds 25 1013 88 10000 4.1 190 16:47 04.01.2021
4096 Clouds 25 1013 88 10000 4.1 190 16:27 04.01.2021
4097 Clouds 24 1012 94 10000 5.7 210 15:49 04.01.2021
4098 Clouds 23 1015 78 10000 5.03 197 15:28 04.01.2021
4099 Clouds 23 1015 78 10000 5.03 197 14:42 04.01.2021
4100 Clouds 23 1014 78 10000 5.11 196 13:47 04.01.2021
4101 Clouds 23 1013 79 10000 5.12 194 13:24 04.01.2021
4102 Clouds 23 1013 79 10000 4.94 197 12:38 04.01.2021
4103 Clouds 23 1013 79 10000 5.34 197 11:58 04.01.2021
4104 Clouds 23 1012 80 10000 5.75 199 11:22 04.01.2021
4105 Clouds 23 1012 80 10000 5.75 199 10:48 04.01.2021
4106 Clouds 23 1012 82 10000 5.74 200 10:27 04.01.2021
4107 Clouds 23 1012 82 10000 5.74 200 09:51 04.01.2021
4108 Clouds 23 1012 83 10000 5.56 200 09:19 04.01.2021
4109 Clouds 23 1012 83 10000 5.56 200 08:42 04.01.2021
4110 Clouds 23 1013 84 10000 5.35 199 07:54 04.01.2021
4111 Clouds 23 1013 84 10000 5.23 196 07:27 04.01.2021
4112 Clouds 23 1014 85 10000 5.04 197 05:31 04.01.2021
4113 Clouds 23 1013 84 10000 4.16 184 02:35 04.01.2021
4114 Clouds 25 1009 88 10000 6.2 180 00:34 04.01.2021
4115 Clouds 25 1009 88 10000 6.2 180 23:47 03.01.2021
4116 Clouds 26 1009 83 10000 5.7 160 23:19 03.01.2021
4117 Clouds 26 1009 83 10000 5.7 160 22:49 03.01.2021
4118 Clouds 26 1009 83 10000 5.7 160 22:30 03.01.2021
4119 Clouds 26 1010 83 10000 5.1 160 21:47 03.01.2021
4120 Clouds 26 1010 88 10000 5.7 170 21:25 03.01.2021
4121 Clouds 26 1010 88 10000 5.7 170 20:43 03.01.2021
4122 Clouds 26 1010 88 10000 5.7 170 20:23 03.01.2021
4123 Clouds 27 1011 83 10000 7.2 180 19:54 03.01.2021
4124 Clouds 27 1011 83 10000 7.2 180 19:34 03.01.2021
4125 Clouds 27 1012 83 10000 6.2 170 18:52 03.01.2021
4126 Clouds 27 1012 83 10000 6.2 170 18:34 03.01.2021
4127 Clouds 26 1013 83 10000 5.7 180 17:53 03.01.2021
4128 Clouds 26 1013 83 10000 5.7 180 17:30 03.01.2021
4129 Clouds 25 1013 88 10000 4.6 170 16:57 03.01.2021
4130 Clouds 25 1013 88 10000 4.6 170 16:39 03.01.2021
4131 Clouds 24 1012 94 10000 5.1 180 16:19 03.01.2021
4132 Clouds 24 1012 94 10000 5.1 180 15:45 03.01.2021
4133 Clouds 23 1015 81 10000 5.56 169 15:19 03.01.2021
4134 Clouds 23 1015 81 10000 5.56 169 14:41 03.01.2021
4135 Clouds 23 1014 83 10000 5.84 171 13:55 03.01.2021
4136 Clear 22 1013 84 10000 5.51 174 13:26 03.01.2021
4137 Clear 22 1013 84 10000 5.51 174 12:58 03.01.2021
4138 Clouds 22 1013 85 10000 5.26 177 11:46 03.01.2021
4139 Clouds 22 1013 85 10000 5.11 173 11:27 03.01.2021
4140 Clouds 22 1013 85 10000 5.11 173 10:57 03.01.2021
4141 Clouds 22 1013 85 10000 5.11 173 10:32 03.01.2021
4142 Clear 22 1013 85 10000 5.19 171 09:45 03.01.2021
4143 Clear 22 1013 84 10000 5.22 173 09:24 03.01.2021
4144 Clear 22 1013 84 10000 4.97 170 07:59 03.01.2021
4145 Clear 22 1013 84 10000 4.47 177 06:51 03.01.2021
4146 Clouds 23 1014 84 10000 4.27 177 02:59 03.01.2021
4147 Clouds 23 1013 84 10000 4.51 174 02:22 03.01.2021
4148 Clouds 27 1009 74 10000 7.2 150 00:25 03.01.2021
4149 Clouds 27 1009 74 10000 7.2 150 23:33 02.01.2021
4150 Clouds 27 1009 74 10000 8.2 160 22:59 02.01.2021
4151 Clouds 27 1009 74 10000 8.2 160 22:33 02.01.2021
4152 Clouds 27 1010 78 10000 7.2 170 21:59 02.01.2021
4153 Clouds 27 1010 78 10000 7.2 170 21:37 02.01.2021
4154 Clouds 27 1011 74 10000 6.7 160 21:19 02.01.2021
4155 Clouds 27 1011 74 10000 6.7 160 20:40 02.01.2021
4156 Clouds 27 1012 78 10000 7.2 160 20:20 02.01.2021
4157 Clouds 27 1012 78 10000 7.2 160 19:43 02.01.2021
4158 Clouds 27 1012 78 10000 6.7 160 19:19 02.01.2021
4159 Clouds 27 1012 78 10000 6.7 160 18:42 02.01.2021
4160 Clouds 26 1012 83 10000 7.2 170 18:24 02.01.2021
4161 Clouds 26 1012 83 10000 7.2 170 17:45 02.01.2021
4162 Clouds 25 1012 83 10000 5.1 160 17:22 02.01.2021
4163 Clouds 25 1012 83 10000 5.1 160 16:38 02.01.2021
4164 Clouds 24 1012 88 10000 6.2 160 16:19 02.01.2021
4165 Clouds 24 1012 88 10000 6.2 160 15:41 02.01.2021
4166 Clouds 22 1014 83 10000 4 174 15:21 02.01.2021
4167 Clouds 22 1014 83 10000 4 174 14:37 02.01.2021
4168 Clouds 22 1014 83 10000 3.86 176 13:58 02.01.2021
4169 Clouds 22 1014 83 10000 3.86 176 13:32 02.01.2021
4170 Clouds 22 1013 85 10000 3.27 175 12:53 02.01.2021
4171 Clouds 22 1013 85 10000 3.27 175 12:32 02.01.2021
4172 Clouds 22 1013 85 10000 3.27 175 12:32 02.01.2021
4173 Clouds 22 1013 85 10000 3.33 171 11:45 02.01.2021
4174 Clear 22 1012 85 10000 3.21 173 11:22 02.01.2021
4175 Clear 22 1012 85 10000 3.21 173 10:49 02.01.2021
4176 Clear 22 1012 85 10000 2.91 179 10:28 02.01.2021
4177 Clear 22 1012 85 10000 2.91 179 09:45 02.01.2021
4178 Clear 22 1012 85 10000 3.17 186 09:23 02.01.2021
4179 Clear 22 1012 85 10000 3.17 186 08:49 02.01.2021
4180 Clear 22 1013 85 10000 3.49 178 08:24 02.01.2021
4181 Clear 22 1013 85 10000 3.49 178 07:43 02.01.2021
4182 Clear 22 1014 85 10000 3.58 170 07:20 02.01.2021
4183 Clouds 22 1015 86 10000 3.8 165 06:25 02.01.2021
4184 Clouds 22 1014 87 10000 3.43 172 04:27 02.01.2021
4185 Clouds 23 1011 84 10000 5.22 169 00:54 02.01.2021
4186 Clouds 26 1009 83 10000 7.2 170 00:35 02.01.2021
4187 Clouds 26 1009 83 10000 7.2 170 23:44 01.01.2021
4188 Clouds 26 1009 83 10000 6.7 160 23:20 01.01.2021
4189 Clouds 26 1009 83 10000 6.7 160 22:47 01.01.2021
4190 Clouds 27 1010 78 10000 6.7 170 22:22 01.01.2021
4191 Clouds 27 1010 78 10000 6.7 170 21:43 01.01.2021
4192 Clouds 27 1011 78 10000 7.2 180 21:21 01.01.2021
4193 Clouds 27 1011 78 10000 7.2 180 20:51 01.01.2021
4194 Clouds 27 1012 74 10000 5.1 180 20:19 01.01.2021
4195 Clouds 27 1012 74 10000 5.1 180 19:42 01.01.2021
4196 Clouds 27 1012 74 10000 5.7 170 19:23 01.01.2021
4197 Clouds 27 1012 74 10000 5.7 170 18:49 01.01.2021
4198 Clouds 27 1012 74 10000 5.7 170 18:31 01.01.2021
4199 Clouds 25 1012 83 10000 5.1 180 17:59 01.01.2021
4200 Clouds 25 1012 83 10000 5.1 180 17:40 01.01.2021
4201 Clouds 25 1012 83 10000 5.1 160 17:18 01.01.2021
4202 Clouds 25 1012 83 10000 5.1 160 16:36 01.01.2021
4203 Clouds 25 1012 83 10000 4.6 150 15:45 01.01.2021
4204 Clouds 22 1014 84 10000 4.34 181 14:52 01.01.2021
4205 Clouds 22 1014 84 10000 4.34 181 14:33 01.01.2021
4206 Clouds 22 1013 86 10000 4.23 174 13:45 01.01.2021
4207 Clouds 22 1013 86 10000 3.96 169 13:24 01.01.2021
4208 Clouds 22 1013 86 10000 3.96 169 12:39 01.01.2021
4209 Clouds 22 1012 87 10000 3.52 155 12:18 01.01.2021
4210 Clouds 22 1012 87 10000 3.52 155 11:39 01.01.2021
4211 Clouds 22 1012 87 10000 3.15 170 11:18 01.01.2021
4212 Clouds 22 1012 87 10000 3.15 170 10:35 01.01.2021
4213 Clouds 22 1012 87 10000 3.17 191 09:47 01.01.2021
4214 Clouds 22 1012 87 10000 3.35 181 09:20 01.01.2021
4215 Clouds 22 1012 87 10000 3.27 173 08:25 01.01.2021
4216 Clouds 23 1014 86 10000 2.97 160 04:53 01.01.2021
4217 Clouds 23 1012 85 10000 3.21 159 02:39 01.01.2021
4218 Clouds 23 1011 85 10000 3.43 161 01:35 01.01.2021
4219 Rain 25 1008 88 10000 4.6 180 00:28 01.01.2021
4220 Clouds 27 1008 74 10000 4.6 160 23:22 31.12.2020
4221 Clouds 27 1008 74 10000 4.6 160 22:58 31.12.2020
4222 Clouds 27 1008 74 10000 4.6 160 22:38 31.12.2020
4223 Clouds 28 1009 69 10000 5.1 150 22:19 31.12.2020
4224 Clouds 28 1009 69 10000 5.1 150 21:47 31.12.2020
4225 Clouds 28 1009 69 10000 5.1 150 21:47 31.12.2020
4226 Clouds 27 1010 78 10000 6.7 180 21:23 31.12.2020
4227 Clouds 27 1010 78 10000 6.7 180 20:49 31.12.2020
4228 Clouds 26 1011 78 10000 8.2 150 20:18 31.12.2020
4229 Clouds 26 1011 78 10000 8.2 150 19:46 31.12.2020
4230 Clouds 26 1011 78 10000 8.2 150 19:24 31.12.2020
4231 Clouds 26 1011 78 10000 7.7 170 18:44 31.12.2020
4232 Clouds 26 1012 78 10000 6.7 150 18:24 31.12.2020
4233 Clouds 26 1012 78 10000 6.7 150 17:44 31.12.2020
4234 Clouds 26 1012 78 10000 6.7 150 17:44 31.12.2020
4235 Clouds 25 1012 83 10000 7.7 150 17:23 31.12.2020
4236 Clouds 25 1012 83 10000 7.7 150 16:43 31.12.2020
4237 Clouds 24 1011 88 10000 5.1 150 16:22 31.12.2020
4238 Clouds 24 1011 88 10000 5.1 150 15:45 31.12.2020
4239 Clouds 23 1014 86 10000 4.63 164 15:22 31.12.2020
4240 Clouds 23 1014 86 10000 4.63 164 14:56 31.12.2020
4241 Clouds 23 1014 86 10000 4.63 164 14:37 31.12.2020
4242 Clouds 22 1013 86 10000 4.59 169 14:19 31.12.2020
4243 Clouds 22 1013 86 10000 4.59 169 14:19 31.12.2020
4244 Clouds 22 1013 86 10000 4.59 169 13:38 31.12.2020
4245 Clouds 22 1012 86 10000 4.39 169 13:19 31.12.2020
4246 Clouds 22 1012 86 10000 4.39 169 12:53 31.12.2020
4247 Clouds 22 1013 86 10000 4.63 160 12:34 31.12.2020
4248 Clouds 22 1012 86 10000 4.58 167 11:51 31.12.2020
4249 Clouds 22 1012 86 10000 4.58 167 11:32 31.12.2020
4250 Clouds 22 1011 86 10000 4.88 169 10:46 31.12.2020
4251 Clouds 22 1011 87 10000 4.97 169 10:28 31.12.2020
4252 Clouds 22 1011 87 10000 4.97 169 09:51 31.12.2020
4253 Clouds 23 1011 87 10000 4.89 168 09:26 31.12.2020
4254 Clouds 23 1011 87 10000 4.89 168 08:50 31.12.2020
4255 Clouds 23 1011 87 10000 4.89 168 08:31 31.12.2020
4256 Clouds 23 1012 87 10000 5.19 165 07:56 31.12.2020
4257 Clouds 23 1012 88 10000 5.51 167 07:27 31.12.2020
4258 Clouds 23 1013 88 10000 4.69 170 05:30 31.12.2020
4259 Clouds 23 1013 88 10000 4.08 178 03:37 31.12.2020
4260 Clouds 23 1012 87 10000 4.57 182 02:38 31.12.2020
4261 Clouds 23 1011 87 10000 5.02 184 02:20 31.12.2020
4262 Clouds 23 1011 87 10000 5.02 184 01:42 31.12.2020
4263 Clouds 23 1011 85 10000 5.35 182 01:19 31.12.2020
4264 Clouds 25 1008 83 10000 7.2 150 00:39 31.12.2020
4265 Clouds 25 1008 83 10000 7.2 150 23:41 30.12.2020
4266 Clouds 26 1008 83 10000 6.2 160 23:18 30.12.2020
4267 Clouds 26 1008 83 10000 6.2 160 22:36 30.12.2020
4268 Clouds 26 1009 83 10000 7.7 180 21:55 30.12.2020
4269 Clouds 26 1009 83 10000 7.7 180 21:28 30.12.2020
4270 Clouds 26 1010 83 10000 7.7 180 20:57 30.12.2020
4271 Clouds 26 1010 83 10000 7.7 180 20:39 30.12.2020
4272 Clouds 26 1011 83 10000 6.7 180 20:19 30.12.2020
4273 Clouds 26 1011 83 10000 6.7 180 19:38 30.12.2020
4274 Clouds 27 1012 74 10000 8.2 180 19:19 30.12.2020
4275 Clouds 27 1012 74 10000 8.2 180 18:41 30.12.2020
4276 Clouds 26 1012 78 10000 6.7 180 18:22 30.12.2020
4277 Clouds 26 1012 78 10000 6.7 180 17:50 30.12.2020
4278 Clouds 25 1012 83 10000 4.6 170 17:30 30.12.2020
4279 Clouds 25 1012 83 10000 4.6 170 16:48 30.12.2020
4280 Clouds 23 1012 94 10000 4.1 180 16:20 30.12.2020
4281 Clouds 23 1012 94 10000 4.1 180 15:42 30.12.2020
4282 Clouds 23 1014 85 10000 5.56 175 15:24 30.12.2020
4283 Clouds 23 1014 85 10000 5.56 175 14:43 30.12.2020
4284 Clouds 23 1013 86 10000 5.32 172 14:22 30.12.2020
4285 Clouds 23 1012 86 10000 5.13 172 13:20 30.12.2020
4286 Clouds 23 1012 86 10000 5.45 182 12:27 30.12.2020
4287 Clouds 23 1012 86 10000 5.45 182 11:49 30.12.2020
4288 Clouds 22 1012 87 10000 5.4 188 11:23 30.12.2020
4289 Clouds 22 1012 87 10000 5.4 188 10:59 30.12.2020
4290 Clouds 22 1012 87 10000 5.4 188 10:38 30.12.2020
4291 Clouds 22 1012 88 10000 5.49 194 10:18 30.12.2020
4292 Clouds 22 1012 88 10000 5.49 194 09:44 30.12.2020
4293 Clouds 22 1012 89 10000 5.8 195 08:54 30.12.2020
4294 Clouds 22 1013 89 10000 5.68 190 07:53 30.12.2020
4295 Clouds 22 1013 89 10000 5.36 178 07:27 30.12.2020
4296 Clouds 23 1013 87 10000 5.71 179 06:40 30.12.2020
4297 Clouds 23 1014 88 10000 5.25 178 05:49 30.12.2020
4298 Clouds 23 1014 88 10000 5.25 178 05:30 30.12.2020
4299 Clouds 23 1014 88 10000 5.06 181 03:43 30.12.2020
4300 Clouds 23 1013 88 10000 4.87 179 03:23 30.12.2020
4301 Clouds 23 1013 88 10000 4.87 179 02:34 30.12.2020
4302 Clouds 23 1012 88 10000 5.11 170 01:46 30.12.2020
4303 Clouds 23 1011 86 10000 5.95 166 01:28 30.12.2020
4304 Clouds 23 1012 87 10000 5.98 180 00:41 30.12.2020
4305 Clouds 25 1008 88 10000 7.2 180 00:22 30.12.2020
4306 Clouds 25 1008 88 10000 7.2 180 23:43 29.12.2020
4307 Clouds 25 1008 88 10000 9.3 150 23:24 29.12.2020
4308 Clouds 25 1008 88 10000 9.3 150 22:49 29.12.2020
4309 Clouds 25 1008 88 10000 9.3 150 22:31 29.12.2020
4310 Clouds 26 1009 83 10000 8.2 150 21:56 29.12.2020
4311 Clouds 26 1009 83 10000 8.2 150 21:36 29.12.2020
4312 Clouds 26 1010 83 10000 8.2 150 20:57 29.12.2020
4313 Clouds 26 1010 83 10000 8.2 150 20:39 29.12.2020
4314 Clouds 26 1011 78 10000 7.2 150 20:20 29.12.2020
4315 Clouds 26 1011 78 10000 7.2 150 19:42 29.12.2020
4316 Clouds 26 1012 78 10000 6.2 150 19:21 29.12.2020
4317 Clouds 26 1012 78 10000 6.2 150 18:49 29.12.2020
4318 Clouds 26 1012 78 10000 7.7 180 18:28 29.12.2020
4319 Clouds 26 1012 78 10000 7.7 180 17:45 29.12.2020
4320 Clouds 24 1012 88 10000 7.7 160 17:21 29.12.2020
4321 Clouds 24 1012 88 10000 7.7 160 16:52 29.12.2020
4322 Clouds 24 1012 83 10000 6.2 150 16:25 29.12.2020
4323 Clouds 24 1012 83 10000 6.2 150 15:38 29.12.2020
4324 Clouds 23 1014 87 10000 6.63 165 15:18 29.12.2020
4325 Clouds 23 1014 87 10000 6.63 165 14:37 29.12.2020
4326 Clouds 22 1013 88 10000 6.59 168 14:19 29.12.2020
4327 Clouds 22 1013 88 10000 6.59 168 13:48 29.12.2020
4328 Clouds 22 1012 89 10000 6.31 173 13:23 29.12.2020
4329 Clouds 22 1013 90 10000 6.53 170 12:38 29.12.2020
4330 Clouds 22 1012 90 10000 6.36 169 12:20 29.12.2020
4331 Clouds 22 1012 90 10000 6.36 169 11:54 29.12.2020
4332 Clouds 22 1012 90 10000 6.36 169 11:31 29.12.2020
4333 Clouds 22 1012 90 10000 5.72 169 10:34 29.12.2020
4334 Clouds 22 1012 90 10000 5.12 168 09:49 29.12.2020
4335 Clouds 22 1012 90 10000 4.86 162 09:22 29.12.2020
4336 Clouds 22 1012 90 10000 4.86 162 08:53 29.12.2020
4337 Clouds 22 1013 90 10000 4.85 162 08:23 29.12.2020
4338 Clouds 23 1013 90 10000 4.61 166 07:26 29.12.2020
4339 Clear 23 1014 90 10000 4.56 168 06:27 29.12.2020
4340 Clear 23 1014 91 10000 4.45 166 04:49 29.12.2020
4341 Clouds 23 1012 89 10000 4.98 171 00:49 29.12.2020
4342 Clouds 24 1009 88 10000 6.2 180 00:20 29.12.2020
4343 Clouds 24 1009 88 10000 6.2 180 23:34 28.12.2020
4344 Clouds 26 1009 83 10000 5.7 180 22:28 28.12.2020
4345 Clouds 26 1009 83 10000 5.7 180 22:28 28.12.2020
4346 Clouds 23 1011 84 10000 6.21 189 21:45 28.12.2020
4347 Clouds 26 1011 78 10000 4.6 180 21:24 28.12.2020
4348 Clouds 26 1011 78 10000 4.6 180 20:42 28.12.2020
4349 Clouds 25 1012 83 10000 5.1 180 20:22 28.12.2020
4350 Clouds 25 1012 83 10000 5.1 180 19:48 28.12.2020
4351 Clouds 25 1012 83 10000 5.1 180 19:24 28.12.2020
4352 Rain 25 1012 88 8000 7.2 150 18:52 28.12.2020
4353 Rain 25 1012 88 8000 7.2 150 18:28 28.12.2020
4354 Clouds 25 1013 88 10000 6.2 160 17:45 28.12.2020
4355 Clouds 24 1012 88 10000 6.2 150 17:25 28.12.2020
4356 Clouds 24 1012 88 10000 6.2 150 16:45 28.12.2020
4357 Clouds 24 1012 88 10000 3.1 150 16:24 28.12.2020
4358 Clouds 24 1012 88 10000 3.1 150 15:50 28.12.2020
4359 Clouds 23 1014 88 10000 4.29 195 14:58 28.12.2020
4360 Clouds 23 1014 89 10000 3.92 192 13:59 28.12.2020
4361 Clouds 23 1014 89 10000 3.92 192 13:35 28.12.2020
4362 Clouds 23 1013 89 10000 3.57 186 12:55 28.12.2020
4363 Clouds 23 1013 87 10000 4.06 193 12:24 28.12.2020
4364 Clouds 23 1013 87 10000 4.06 193 11:47 28.12.2020
4365 Clouds 23 1012 87 10000 4.08 196 11:25 28.12.2020
4366 Clouds 23 1012 87 10000 4.08 196 10:49 28.12.2020
4367 Clouds 23 1011 87 10000 4.06 196 10:28 28.12.2020
4368 Clouds 23 1011 87 10000 4.06 196 09:49 28.12.2020
4369 Clouds 23 1012 87 10000 3.79 195 09:21 28.12.2020
4370 Clouds 23 1012 87 10000 3.79 195 08:52 28.12.2020
4371 Clouds 23 1013 87 10000 3.49 197 06:51 28.12.2020
4372 Clouds 23 1014 87 10000 3.32 190 04:44 28.12.2020
4373 Clouds 23 1013 87 10000 4 184 02:59 28.12.2020
4374 Clouds 23 1012 87 10000 4.83 184 01:46 28.12.2020
4375 Clouds 25 1008 83 10000 6.7 180 23:50 27.12.2020
4376 Clouds 25 1010 83 10000 7.2 160 23:20 27.12.2020
4377 Clouds 26 1009 78 10000 5.7 180 21:58 27.12.2020
4378 Clouds 26 1009 78 10000 5.7 180 21:27 27.12.2020
4379 Clouds 26 1009 78 10000 5.1 180 20:48 27.12.2020
4380 Clouds 26 1010 78 10000 6.2 170 19:48 27.12.2020
4381 Clouds 26 1010 78 10000 6.2 170 19:22 27.12.2020
4382 Clouds 26 1011 78 10000 5.1 150 18:47 27.12.2020
4383 Clouds 25 1011 83 10000 5.7 180 18:19 27.12.2020
4384 Clouds 25 1011 83 10000 5.7 180 17:47 27.12.2020
4385 Clouds 24 1012 88 10000 5.1 180 17:27 27.12.2020
4386 Clouds 24 1012 88 10000 5.1 180 16:43 27.12.2020
4387 Clouds 24 1011 88 10000 4.6 160 15:59 27.12.2020
4388 Clouds 23 1014 88 10000 5.42 203 15:19 27.12.2020
4389 Clouds 23 1014 88 10000 5.42 203 14:41 27.12.2020
4390 Clouds 23 1013 89 10000 5.49 197 14:19 27.12.2020
4391 Clouds 23 1013 89 10000 5.48 191 13:22 27.12.2020
4392 Clouds 23 1013 89 10000 5.48 191 12:47 27.12.2020
4393 Clouds 22 1012 88 10000 5.57 183 11:56 27.12.2020
4394 Clouds 22 1012 88 10000 5.57 183 11:36 27.12.2020
4395 Clouds 22 1011 88 10000 5.94 184 10:52 27.12.2020
4396 Clouds 22 1011 88 10000 5.92 183 10:24 27.12.2020
4397 Clouds 22 1011 88 10000 5.92 183 09:47 27.12.2020
4398 Clouds 23 1011 88 10000 5.69 183 08:39 27.12.2020
4399 Clouds 23 1012 88 10000 5.83 182 08:20 27.12.2020
4400 Clouds 23 1013 88 10000 6.21 184 07:26 27.12.2020
4401 Clouds 23 1013 88 10000 6.35 184 05:44 27.12.2020
4402 Clouds 23 1013 88 10000 6.39 182 03:59 27.12.2020
4403 Clouds 23 1013 89 10000 6.44 183 03:19 27.12.2020
4404 Clouds 24 1008 83 10000 5.1 180 01:34 27.12.2020
4405 Clouds 24 1008 83 10000 5.1 210 23:57 26.12.2020
4406 Clouds 24 1008 83 10000 5.1 210 23:27 26.12.2020
4407 Clouds 24 1008 88 10000 5.1 180 22:49 26.12.2020
4408 Clouds 24 1009 88 10000 6.2 210 22:20 26.12.2020
4409 Clouds 24 1009 88 10000 6.2 210 21:55 26.12.2020
4410 Clouds 24 1009 88 10000 6.2 210 21:33 26.12.2020
4411 Clouds 25 1010 83 10000 6.7 180 20:58 26.12.2020
4412 Clouds 25 1010 83 10000 6.7 180 20:28 26.12.2020
4413 Clouds 25 1011 83 10000 5.1 180 19:57 26.12.2020
4414 Clouds 25 1011 83 10000 5.1 180 19:24 26.12.2020
4415 Clouds 23 1012 94 10000 5.1 180 18:38 26.12.2020
4416 Clouds 24 1012 88 10000 5.1 180 18:18 26.12.2020
4417 Clouds 24 1012 88 10000 5.1 180 17:40 26.12.2020
4418 Clouds 25 1012 83 10000 7.2 180 17:19 26.12.2020
4419 Clouds 25 1012 83 10000 7.2 180 16:32 26.12.2020
4420 Clouds 23 1014 86 10000 5.47 192 15:26 26.12.2020
4421 Clouds 23 1014 86 10000 5.47 192 14:46 26.12.2020
4422 Clouds 23 1013 86 10000 5.54 197 14:27 26.12.2020
4423 Clouds 23 1013 86 10000 5.54 197 13:43 26.12.2020
4424 Clouds 23 1012 87 10000 5.61 200 13:24 26.12.2020
4425 Clouds 23 1012 87 10000 5.5 201 12:44 26.12.2020
4426 Clouds 23 1012 87 10000 5.42 204 12:21 26.12.2020
4427 Clouds 23 1012 87 10000 5.42 204 11:51 26.12.2020
4428 Clouds 23 1011 87 10000 5.56 201 11:21 26.12.2020
4429 Clouds 23 1011 87 10000 5.56 201 10:53 26.12.2020
4430 Clouds 23 1011 87 10000 5.63 195 10:27 26.12.2020
4431 Clouds 23 1011 87 10000 5.63 195 09:49 26.12.2020
4432 Clouds 23 1011 87 10000 5.63 195 09:49 26.12.2020
4433 Clouds 23 1012 87 10000 5.94 192 09:24 26.12.2020
4434 Clouds 23 1013 87 10000 6.21 187 08:21 26.12.2020
4435 Clouds 23 1013 87 10000 6.21 187 07:49 26.12.2020
4436 Clouds 23 1014 88 10000 6.03 184 06:23 26.12.2020
4437 Clouds 23 1013 88 10000 5.41 188 02:49 26.12.2020
4438 Clouds 23 1012 86 10000 5.29 175 00:44 26.12.2020
4439 Clouds 24 1008 88 10000 6.2 180 00:24 26.12.2020
4440 Clouds 24 1008 88 10000 6.2 180 23:39 25.12.2020
4441 Clouds 25 1009 83 10000 7.2 180 23:21 25.12.2020
4442 Clouds 25 1009 83 10000 7.2 180 22:40 25.12.2020
4443 Clouds 25 1009 83 10000 6.7 170 21:50 25.12.2020
4444 Clouds 25 1009 83 10000 6.7 170 21:32 25.12.2020
4445 Clouds 26 1010 83 10000 6.2 180 20:48 25.12.2020
4446 Clouds 26 1010 83 10000 6.2 180 20:28 25.12.2020
4447 Clouds 26 1011 83 10000 6.2 150 19:44 25.12.2020
4448 Clouds 25 1012 83 10000 5.1 160 18:58 25.12.2020
4449 Clouds 25 1012 83 10000 5.1 160 18:38 25.12.2020
4450 Clouds 24 1013 88 10000 4.6 180 17:35 25.12.2020
4451 Clouds 24 1012 88 10000 4.1 180 16:58 25.12.2020
4452 Clouds 24 1012 88 10000 4.1 180 16:32 25.12.2020
4453 Clouds 24 1012 88 10000 4.6 180 15:57 25.12.2020
4454 Clouds 24 1012 88 10000 4.6 180 15:35 25.12.2020
4455 Clouds 23 1014 87 10000 5.31 177 14:46 25.12.2020
4456 Clouds 23 1013 87 10000 5.15 181 14:25 25.12.2020
4457 Clouds 23 1013 87 10000 5.15 181 13:43 25.12.2020
4458 Clouds 22 1013 88 10000 5.01 181 13:25 25.12.2020
4459 Clouds 22 1013 88 10000 4.79 175 12:34 25.12.2020
4460 Clouds 22 1012 88 10000 4.92 172 11:52 25.12.2020
4461 Clouds 22 1011 88 10000 5.21 174 11:25 25.12.2020
4462 Clouds 22 1011 88 10000 5.21 174 10:49 25.12.2020
4463 Clouds 22 1011 88 10000 5.2 175 10:23 25.12.2020
4464 Clouds 22 1012 89 10000 4.97 179 09:27 25.12.2020
4465 Clouds 22 1012 89 10000 4.97 179 08:47 25.12.2020
4466 Clouds 22 1013 89 10000 5.03 179 07:52 25.12.2020
4467 Clouds 22 1014 89 10000 5.32 176 06:44 25.12.2020
4468 Clear 23 1013 89 10000 5.84 180 02:47 25.12.2020
4469 Clouds 23 1011 88 10000 5.87 175 00:48 25.12.2020
4470 Clouds 25 1008 83 10000 6.2 180 23:58 24.12.2020
4471 Clouds 26 1008 83 10000 5.1 180 23:22 24.12.2020
4472 Clouds 26 1008 83 10000 5.1 180 22:27 24.12.2020
4473 Clouds 25 1009 83 10000 4.6 180 21:54 24.12.2020
4474 Clouds 25 1009 83 10000 4.6 180 21:27 24.12.2020
4475 Rain 24 1011 94 8000 4.1 160 20:19 24.12.2020
4476 Clouds 24 1012 88 10000 5.1 180 18:22 24.12.2020
4477 Clouds 24 1012 88 10000 5.1 180 17:58 24.12.2020
4478 Clouds 24 1012 88 10000 5.1 180 17:36 24.12.2020
4479 Clouds 23 1012 94 10000 5.1 180 16:27 24.12.2020
4480 Clouds 23 1012 94 10000 4.6 180 15:49 24.12.2020
4481 Clouds 23 1012 94 10000 4.6 180 15:29 24.12.2020
4482 Clouds 23 1013 89 10000 4.35 162 14:59 24.12.2020
4483 Clouds 23 1013 89 10000 4.35 162 14:40 24.12.2020
4484 Clouds 23 1013 89 10000 4.4 164 14:22 24.12.2020
4485 Clouds 23 1013 89 10000 4.4 164 13:39 24.12.2020
4486 Clouds 23 1012 89 10000 4.61 167 13:19 24.12.2020
4487 Clouds 23 1012 88 10000 4.55 171 12:41 24.12.2020
4488 Clouds 23 1012 88 10000 4.47 176 12:19 24.12.2020
4489 Clouds 23 1012 88 10000 4.47 176 11:39 24.12.2020
4490 Clouds 23 1012 88 10000 4.36 179 11:20 24.12.2020
4491 Clouds 23 1012 88 10000 4.36 179 10:46 24.12.2020
4492 Clouds 23 1012 88 10000 4.36 179 10:46 24.12.2020
4493 Clouds 23 1012 88 10000 4.21 180 10:27 24.12.2020
4494 Clouds 23 1012 88 10000 4.21 180 09:50 24.12.2020
4495 Clouds 23 1012 88 10000 4.22 177 08:58 24.12.2020
4496 Clouds 23 1012 88 10000 4.16 173 07:56 24.12.2020
4497 Clouds 23 1012 88 10000 4.16 173 07:37 24.12.2020
4498 Clouds 23 1013 87 10000 4.41 178 06:27 24.12.2020
4499 Clouds 23 1013 87 10000 4.56 179 03:51 24.12.2020
4500 Clouds 23 1008 88 10000 7.2 150 01:52 24.12.2020
4501 Clouds 24 1008 83 10000 6.2 180 01:23 24.12.2020
4502 Clouds 24 1008 83 10000 6.2 180 00:43 24.12.2020
4503 Clouds 25 1008 78 10000 7.7 180 00:19 24.12.2020
4504 Clouds 25 1008 78 10000 7.7 180 23:40 23.12.2020
4505 Clouds 25 1008 78 10000 5.1 180 23:21 23.12.2020
4506 Clouds 25 1008 78 10000 5.1 180 22:48 23.12.2020
4507 Clouds 26 1008 78 10000 6.2 180 22:26 23.12.2020
4508 Clouds 26 1008 78 10000 6.2 180 21:46 23.12.2020
4509 Clouds 26 1008 78 10000 6.2 180 21:22 23.12.2020
4510 Clouds 27 1009 74 10000 7.7 160 20:46 23.12.2020
4511 Clouds 27 1009 74 10000 7.7 160 20:28 23.12.2020
4512 Clouds 26 1011 78 10000 7.2 180 19:45 23.12.2020
4513 Clouds 25 1011 78 10000 6.2 150 19:24 23.12.2020
4514 Clouds 25 1011 78 10000 6.2 150 18:56 23.12.2020
4515 Clouds 25 1011 78 10000 6.2 150 18:36 23.12.2020
4516 Clouds 26 1012 78 10000 6.7 150 17:57 23.12.2020
4517 Clouds 24 1012 83 10000 6.2 150 17:36 23.12.2020
4518 Clouds 24 1012 83 10000 6.2 150 17:18 23.12.2020
4519 Clouds 24 1012 83 10000 6.2 150 16:39 23.12.2020
4520 Clouds 23 1012 88 10000 5.1 180 16:21 23.12.2020
4521 Clouds 23 1012 88 10000 5.1 180 15:40 23.12.2020
4522 Clear 22 1014 87 10000 4.34 158 15:22 23.12.2020
4523 Clear 22 1014 87 10000 4.34 158 14:52 23.12.2020
4524 Clear 22 1013 87 10000 4.75 166 14:26 23.12.2020
4525 Clear 22 1013 87 10000 4.75 166 13:58 23.12.2020
4526 Clear 22 1013 87 10000 4.75 166 13:39 23.12.2020
4527 Clear 22 1012 88 10000 4.82 166 13:18 23.12.2020
4528 Clear 22 1012 88 10000 4.83 163 12:46 23.12.2020
4529 Clear 22 1012 88 10000 4.47 162 12:21 23.12.2020
4530 Clear 22 1012 88 10000 4.47 162 11:45 23.12.2020
4531 Clear 22 1011 88 10000 3.89 155 10:58 23.12.2020
4532 Clear 22 1011 88 10000 3.89 155 10:40 23.12.2020
4533 Clear 22 1011 88 10000 3.78 146 10:21 23.12.2020
4534 Clear 22 1011 88 10000 3.95 148 09:27 23.12.2020
4535 Clear 22 1011 88 10000 3.95 148 08:42 23.12.2020
4536 Clear 22 1012 88 10000 4.06 159 08:18 23.12.2020
4537 Clouds 22 1012 88 10000 4.18 162 07:20 23.12.2020
4538 Clouds 22 1013 90 10000 4.65 164 06:38 23.12.2020
4539 Clouds 22 1013 90 10000 3.72 154 05:25 23.12.2020
4540 Clouds 22 1013 89 10000 3.71 151 04:28 23.12.2020
4541 Clouds 25 1008 83 10000 6.2 180 00:34 23.12.2020
4542 Clouds 25 1008 83 10000 6.2 180 23:45 22.12.2020
4543 Clouds 25 1008 83 10000 7.2 160 23:26 22.12.2020
4544 Clouds 25 1008 83 10000 7.2 160 22:43 22.12.2020
4545 Clouds 25 1008 83 10000 7.2 160 22:25 22.12.2020
4546 Clouds 25 1009 83 10000 6.2 180 21:54 22.12.2020
4547 Clouds 27 1010 78 10000 7.2 160 21:22 22.12.2020
4548 Clouds 27 1010 78 10000 7.2 160 20:56 22.12.2020
4549 Clouds 27 1010 78 10000 7.2 160 20:37 22.12.2020
4550 Clouds 25 1011 83 10000 6.2 150 20:18 22.12.2020
4551 Clouds 25 1011 83 10000 6.2 150 19:41 22.12.2020
4552 Rain 23 1012 94 6000 6.2 150 19:20 22.12.2020
4553 Rain 23 1012 94 6000 6.2 150 18:47 22.12.2020
4554 Rain 23 1012 94 8000 3.1 180 18:27 22.12.2020
4555 Rain 23 1012 94 8000 3.1 180 17:45 22.12.2020
4556 Rain 23 1012 94 8000 3.1 180 17:18 22.12.2020
4557 Clouds 24 1012 88 10000 5.1 150 16:48 22.12.2020
4558 Clouds 24 1012 88 10000 3.6 150 16:22 22.12.2020
4559 Clouds 24 1012 88 10000 3.6 150 15:49 22.12.2020
4560 Clouds 24 1012 88 10000 3.6 150 15:31 22.12.2020
4561 Clouds 22 1014 88 10000 5.38 152 14:58 22.12.2020
4562 Clouds 22 1014 88 10000 5.38 152 14:40 22.12.2020
4563 Clouds 22 1013 89 10000 5.44 155 14:21 22.12.2020
4564 Clouds 22 1013 89 10000 5.44 155 13:45 22.12.2020
4565 Clouds 22 1012 89 10000 5.08 153 13:19 22.12.2020
4566 Clouds 22 1013 89 10000 5.37 154 12:53 22.12.2020
4567 Clouds 22 1013 89 10000 5.37 154 12:34 22.12.2020
4568 Clouds 22 1012 89 10000 4.96 157 11:58 22.12.2020
4569 Clouds 22 1012 89 10000 4.96 157 11:58 22.12.2020
4570 Clouds 22 1012 89 10000 4.96 157 11:39 22.12.2020
4571 Clouds 22 1011 89 10000 4.84 161 11:20 22.12.2020
4572 Clouds 22 1011 89 10000 4.84 161 10:53 22.12.2020
4573 Clouds 22 1011 89 10000 4.81 157 10:24 22.12.2020
4574 Clouds 22 1011 89 10000 4.81 157 09:57 22.12.2020
4575 Clouds 22 1012 89 10000 4.67 153 09:24 22.12.2020
4576 Clouds 22 1012 89 10000 4.67 153 08:53 22.12.2020
4577 Clouds 22 1012 89 10000 4.67 153 08:53 22.12.2020
4578 Clouds 22 1012 89 10000 4.67 153 08:32 22.12.2020
4579 Clouds 22 1012 89 10000 4.89 154 07:55 22.12.2020
4580 Clouds 22 1012 89 10000 4.89 154 07:55 22.12.2020
4581 Clouds 22 1013 89 10000 4.98 157 06:58 22.12.2020
4582 Clouds 22 1013 89 10000 4.81 160 05:48 22.12.2020
4583 Clouds 22 1013 89 10000 4.6 155 03:46 22.12.2020
4584 Clouds 22 1011 89 10000 4.57 149 01:35 22.12.2020
4585 Clouds 25 1008 83 10000 7.2 180 23:55 21.12.2020
4586 Clouds 25 1008 83 10000 7.2 180 23:37 21.12.2020
4587 Clouds 26 1008 78 10000 6.7 150 22:39 21.12.2020
4588 Clouds 26 1011 78 10000 7.7 150 22:20 21.12.2020
4589 Clouds 26 1011 78 10000 7.7 150 21:59 21.12.2020
4590 Clouds 26 1011 78 10000 7.7 150 21:39 21.12.2020
4591 Clouds 26 1011 78 10000 7.7 150 21:39 21.12.2020
4592 Clouds 26 1009 78 10000 6.2 150 21:19 21.12.2020
4593 Clouds 26 1009 78 10000 6.2 150 20:29 21.12.2020
4594 Clouds 26 1011 78 10000 6.2 180 19:59 21.12.2020
4595 Clouds 26 1011 78 10000 6.2 180 19:41 21.12.2020
4596 Clouds 26 1012 78 10000 5.1 180 19:19 21.12.2020
4597 Clouds 26 1012 78 10000 5.1 180 18:51 21.12.2020
4598 Clouds 26 1012 78 10000 5.1 180 18:32 21.12.2020
4599 Clouds 25 1012 83 10000 4.6 170 17:43 21.12.2020
4600 Clouds 25 1012 83 10000 4.6 170 17:24 21.12.2020
4601 Clouds 24 1012 83 10000 5.1 150 16:47 21.12.2020
4602 Clouds 22 1012 94 10000 3.1 150 16:26 21.12.2020
4603 Clouds 22 1012 94 10000 3.1 150 15:45 21.12.2020
4604 Clouds 22 1014 89 10000 4.95 153 15:27 21.12.2020
4605 Clouds 22 1014 89 10000 4.95 153 14:56 21.12.2020
4606 Clouds 22 1013 90 10000 4.49 153 14:21 21.12.2020
4607 Clouds 22 1013 90 10000 4.49 153 13:42 21.12.2020
4608 Clouds 22 1012 90 10000 4.62 157 13:24 21.12.2020
4609 Clouds 22 1013 91 10000 4.45 163 12:43 21.12.2020
4610 Clouds 22 1012 91 10000 4.49 169 12:24 21.12.2020
4611 Clouds 22 1012 91 10000 4.49 169 11:55 21.12.2020
4612 Clouds 22 1012 91 10000 4.49 169 11:37 21.12.2020
4613 Clouds 22 1011 91 10000 4.09 176 11:18 21.12.2020
4614 Clouds 22 1011 91 10000 4.09 176 10:40 21.12.2020
4615 Clouds 22 1011 91 10000 3.74 178 10:21 21.12.2020
4616 Clouds 22 1011 91 10000 3.74 178 09:43 21.12.2020
4617 Clouds 22 1011 91 10000 3.56 170 09:24 21.12.2020
4618 Clouds 22 1011 91 10000 3.56 170 08:47 21.12.2020
4619 Clouds 22 1011 91 10000 3.41 167 07:48 21.12.2020
4620 Clear 22 1012 91 10000 3.42 160 06:21 21.12.2020
4621 Clear 22 1012 91 10000 3.77 160 04:31 21.12.2020
4622 Clouds 22 1009 88 10000 3.84 163 00:51 21.12.2020
4623 Clouds 24 1007 88 10000 4.6 160 00:30 21.12.2020
4624 Clouds 23 1009 86 10000 4.37 167 23:24 20.12.2020
4625 Clouds 23 1009 86 10000 4.37 167 22:56 20.12.2020
4626 Clouds 26 1007 78 10000 7.7 180 22:38 20.12.2020
4627 Clouds 26 1007 78 10000 7.7 180 22:19 20.12.2020
4628 Clouds 26 1007 78 10000 7.7 180 21:39 20.12.2020
4629 Clouds 26 1012 78 10000 6.2 160 21:20 20.12.2020
4630 Clouds 26 1012 78 10000 6.2 160 20:47 20.12.2020
4631 Clouds 27 1010 74 10000 6.7 180 20:22 20.12.2020
4632 Clouds 27 1010 74 10000 6.7 180 19:45 20.12.2020
4633 Clouds 26 1011 78 10000 5.1 180 19:24 20.12.2020
4634 Clouds 26 1011 78 10000 5.1 180 18:56 20.12.2020
4635 Clouds 26 1011 78 10000 5.1 180 18:37 20.12.2020
4636 Clouds 24 1012 88 10000 4.6 150 17:57 20.12.2020
4637 Clouds 24 1012 88 10000 4.6 150 17:39 20.12.2020
4638 Rain 23 1012 88 10000 4.1 150 17:18 20.12.2020
4639 Rain 23 1012 88 10000 4.1 150 16:44 20.12.2020
4640 Clouds 22 1011 94 10000 5.1 150 16:24 20.12.2020
4641 Clouds 22 1011 94 10000 5.1 150 15:41 20.12.2020
4642 Clouds 22 1013 89 10000 4.27 158 15:22 20.12.2020
4643 Clouds 22 1013 89 10000 4.27 158 14:48 20.12.2020
4644 Clouds 22 1012 90 10000 4.49 151 14:29 20.12.2020
4645 Clouds 22 1012 90 10000 4.49 151 13:44 20.12.2020
4646 Clouds 22 1011 91 10000 4.5 154 13:23 20.12.2020
4647 Clouds 22 1011 91 10000 3.67 154 12:51 20.12.2020
4648 Clouds 22 1011 91 10000 3.6 153 12:26 20.12.2020
4649 Clouds 22 1011 91 10000 3.6 153 11:52 20.12.2020
4650 Clouds 22 1011 91 10000 3.51 144 11:28 20.12.2020
4651 Clouds 22 1011 91 10000 3.51 144 10:50 20.12.2020
4652 Clouds 22 1011 91 10000 3.42 148 10:22 20.12.2020
4653 Clouds 22 1011 91 10000 3.42 148 09:57 20.12.2020
4654 Clouds 22 1011 91 10000 3.42 148 09:37 20.12.2020
4655 Clouds 22 1011 90 10000 3.35 149 09:19 20.12.2020
4656 Clouds 22 1011 90 10000 3.35 149 08:48 20.12.2020
4657 Clouds 22 1012 90 10000 3.35 146 08:29 20.12.2020
4658 Clouds 22 1012 90 10000 3.35 144 07:22 20.12.2020
4659 Clouds 22 1013 89 10000 4.12 134 04:42 20.12.2020
4660 Clouds 22 1010 89 10000 4 151 01:30 20.12.2020
4661 Clouds 25 1007 83 10000 5.7 150 00:20 20.12.2020
4662 Clouds 25 1007 78 10000 6.7 150 23:18 19.12.2020
4663 Clouds 25 1007 78 10000 6.7 150 22:44 19.12.2020
4664 Clouds 25 1007 78 10000 6.7 150 22:25 19.12.2020
4665 Clouds 27 1008 74 10000 8.2 160 21:58 19.12.2020
4666 Clouds 27 1008 74 10000 8.2 160 21:38 19.12.2020
4667 Clouds 26 1009 78 10000 8.2 160 21:20 19.12.2020
4668 Clouds 26 1009 78 10000 8.2 160 20:37 19.12.2020
4669 Clouds 26 1010 78 10000 7.2 160 20:18 19.12.2020
4670 Clouds 26 1010 78 10000 7.2 160 19:46 19.12.2020
4671 Clouds 26 1010 78 10000 7.2 160 19:24 19.12.2020
4672 Clouds 26 1011 78 10000 6.7 120 18:34 19.12.2020
4673 Clouds 25 1012 83 10000 5.1 150 17:57 19.12.2020
4674 Clouds 25 1012 83 10000 5.1 150 17:36 19.12.2020
4675 Clouds 23 1012 94 10000 6.2 150 17:18 19.12.2020
4676 Clouds 23 1012 94 10000 6.2 150 16:40 19.12.2020
4677 Clouds 23 1012 94 10000 4.6 180 16:22 19.12.2020
4678 Clouds 23 1012 94 10000 4.6 180 15:54 19.12.2020
4679 Clouds 22 1014 85 10000 4.39 170 15:21 19.12.2020
4680 Clouds 22 1014 85 10000 4.39 170 14:38 19.12.2020
4681 Clouds 22 1013 87 10000 4.22 165 13:58 19.12.2020
4682 Clouds 22 1013 87 10000 4.22 165 13:37 19.12.2020
4683 Clouds 22 1013 88 10000 4.28 166 13:18 19.12.2020
4684 Clouds 22 1013 89 10000 3.97 170 12:42 19.12.2020
4685 Clouds 22 1013 89 10000 4.26 175 12:24 19.12.2020
4686 Clouds 22 1013 89 10000 4.26 175 11:53 19.12.2020
4687 Clouds 22 1013 89 10000 4.26 175 11:32 19.12.2020
4688 Clouds 22 1013 89 10000 3.9 177 10:42 19.12.2020
4689 Clouds 22 1012 90 10000 3.49 175 10:19 19.12.2020
4690 Clouds 22 1012 90 10000 3.49 175 09:42 19.12.2020
4691 Clouds 21 1013 91 10000 3.43 182 08:59 19.12.2020
4692 Clouds 21 1013 91 10000 3.83 191 08:20 19.12.2020
4693 Clouds 22 1014 90 10000 4.22 187 07:20 19.12.2020
4694 Clouds 22 1014 89 10000 4.24 191 06:50 19.12.2020
4695 Clear 22 1014 88 10000 3.43 189 05:24 19.12.2020
4696 Clear 22 1014 87 10000 2.78 192 03:50 19.12.2020
4697 Clouds 22 1011 86 10000 3.36 184 00:42 19.12.2020
4698 Clouds 25 1009 78 10000 6.7 150 00:21 19.12.2020
4699 Clouds 25 1009 78 10000 6.7 150 23:51 18.12.2020
4700 Clouds 25 1009 78 10000 6.7 150 23:29 18.12.2020
4701 Clouds 25 1009 78 10000 6.7 150 22:57 18.12.2020
4702 Clouds 25 1009 78 10000 6.7 150 22:39 18.12.2020
4703 Clouds 27 1010 74 10000 6.2 150 22:19 18.12.2020
4704 Clouds 27 1010 74 10000 6.2 150 21:43 18.12.2020
4705 Clouds 27 1010 74 10000 5.1 150 21:22 18.12.2020
4706 Clouds 26 1011 78 10000 5.7 170 20:25 18.12.2020
4707 Clouds 26 1011 78 10000 5.7 170 19:51 18.12.2020
4708 Clouds 26 1011 78 10000 5.7 170 19:25 18.12.2020
4709 Clouds 26 1011 78 10000 5.7 170 19:25 18.12.2020
4710 Clouds 26 1012 78 10000 6.2 150 18:47 18.12.2020
4711 Clouds 26 1012 78 10000 6.2 150 18:28 18.12.2020
4712 Clouds 25 1012 83 10000 5.1 180 17:52 18.12.2020
4713 Clouds 24 1013 88 10000 4.6 180 17:21 18.12.2020
4714 Clouds 24 1013 88 10000 4.6 180 16:48 18.12.2020
4715 Clouds 23 1013 94 10000 4.1 180 16:21 18.12.2020
4716 Clouds 23 1013 94 10000 4.1 180 15:54 18.12.2020
4717 Clouds 23 1013 94 10000 4.1 180 15:34 18.12.2020
4718 Clouds 22 1014 87 10000 3.77 145 14:57 18.12.2020
4719 Clouds 21 1013 87 10000 3.78 146 14:26 18.12.2020
4720 Clouds 21 1013 87 10000 3.78 146 13:59 18.12.2020
4721 Clouds 21 1013 87 10000 3.78 146 13:40 18.12.2020
4722 Clouds 21 1013 88 10000 4 155 13:21 18.12.2020
4723 Clouds 21 1013 88 10000 4 155 12:42 18.12.2020
4724 Clouds 21 1012 88 10000 4.3 150 11:29 18.12.2020
4725 Clouds 21 1012 88 10000 4.3 150 10:58 18.12.2020
4726 Clouds 21 1012 88 10000 4.3 150 10:37 18.12.2020
4727 Clear 21 1012 88 10000 5.27 141 10:19 18.12.2020
4728 Clear 21 1012 88 10000 5.27 141 09:38 18.12.2020
4729 Clear 21 1013 88 10000 5.49 145 09:19 18.12.2020
4730 Clear 21 1013 88 10000 5.49 145 08:50 18.12.2020
4731 Clear 21 1013 89 10000 5.22 145 08:21 18.12.2020
4732 Clear 21 1014 89 10000 4.45 150 07:20 18.12.2020
4733 Clear 21 1014 90 10000 4.3 154 06:59 18.12.2020
4734 Clear 21 1014 90 10000 3.81 157 05:45 18.12.2020
4735 Clear 21 1015 89 10000 3.79 150 05:26 18.12.2020
4736 Clear 21 1015 89 10000 3.79 150 04:42 18.12.2020
4737 Clear 22 1012 88 10000 4.2 149 01:47 18.12.2020
4738 Clear 22 1012 88 10000 4.2 149 01:47 18.12.2020
4739 Clouds 25 1008 78 10000 5.1 160 00:38 18.12.2020
4740 Clouds 25 1008 78 10000 5.1 160 23:54 17.12.2020
4741 Clouds 26 1008 78 10000 6.7 180 23:25 17.12.2020
4742 Clouds 26 1008 78 10000 6.7 180 22:49 17.12.2020
4743 Clouds 26 1008 78 10000 6.7 180 22:28 17.12.2020
4744 Clouds 27 1009 74 10000 5.1 150 21:47 17.12.2020
4745 Clouds 27 1009 74 10000 5.1 150 21:47 17.12.2020
4746 Clouds 26 1010 78 10000 5.1 150 21:22 17.12.2020
4747 Clouds 26 1010 78 10000 5.1 150 20:55 17.12.2020
4748 Clouds 26 1011 78 10000 6.2 150 20:36 17.12.2020
4749 Clouds 26 1011 78 10000 6.2 150 20:18 17.12.2020
4750 Clouds 26 1011 78 10000 6.2 150 19:41 17.12.2020
4751 Clouds 25 1011 83 10000 6.2 150 19:22 17.12.2020
4752 Clouds 25 1011 83 10000 6.2 150 18:41 17.12.2020
4753 Clouds 25 1012 83 10000 4.1 180 18:21 17.12.2020
4754 Clouds 25 1012 83 10000 4.1 180 17:49 17.12.2020
4755 Clouds 25 1012 83 10000 4.1 180 17:31 17.12.2020
4756 Clouds 24 1012 83 10000 5.1 150 16:42 17.12.2020
4757 Clouds 23 1012 88 10000 4.6 150 16:23 17.12.2020
4758 Clouds 23 1012 88 10000 4.6 150 15:51 17.12.2020
4759 Clear 22 1015 87 10000 4.5 149 15:30 17.12.2020
4760 Clear 22 1015 87 10000 4.5 149 14:54 17.12.2020
4761 Clear 22 1014 88 10000 4.76 153 14:29 17.12.2020
4762 Clear 22 1014 88 10000 4.76 153 13:51 17.12.2020
4763 Clear 21 1013 88 10000 4.71 160 13:27 17.12.2020
4764 Clear 21 1013 88 10000 5.29 161 12:44 17.12.2020
4765 Clear 21 1012 87 10000 5.01 161 12:24 17.12.2020
4766 Clear 21 1012 87 10000 5.01 161 11:44 17.12.2020
4767 Clear 21 1012 87 10000 4.65 165 11:23 17.12.2020
4768 Clear 21 1012 87 10000 4.65 165 10:49 17.12.2020
4769 Clear 21 1011 87 10000 4.17 168 09:42 17.12.2020
4770 Clear 21 1011 86 10000 3.6 167 09:21 17.12.2020
4771 Clear 21 1012 86 10000 3.27 161 07:49 17.12.2020
4772 Clear 22 1012 86 10000 2.83 154 07:28 17.12.2020
4773 Clear 22 1013 86 10000 3.27 164 06:51 17.12.2020
4774 Clear 22 1013 86 10000 3.27 164 06:32 17.12.2020
4775 Clear 22 1014 86 10000 2.95 163 04:45 17.12.2020
4776 Clouds 25 1007 78 10000 4.1 160 00:33 17.12.2020
4777 Clouds 25 1007 78 10000 4.1 160 23:51 16.12.2020
4778 Clouds 25 1008 73 10000 6.2 160 23:19 16.12.2020
4779 Clouds 25 1008 73 10000 6.2 160 23:19 16.12.2020
4780 Clouds 25 1008 73 10000 6.2 160 22:50 16.12.2020
4781 Clouds 25 1008 73 10000 6.2 160 22:31 16.12.2020
4782 Clouds 26 1008 74 10000 5.1 150 21:46 16.12.2020
4783 Clouds 26 1009 74 10000 6.7 150 21:26 16.12.2020
4784 Clouds 26 1009 74 10000 6.7 150 20:52 16.12.2020
4785 Clouds 26 1010 74 10000 6.2 150 20:20 16.12.2020
4786 Clouds 26 1010 74 10000 6.2 150 19:45 16.12.2020
4787 Clouds 25 1011 78 10000 6.7 150 19:18 16.12.2020
4788 Clouds 25 1011 78 10000 6.7 150 18:52 16.12.2020
4789 Clouds 26 1012 74 10000 6.2 150 18:26 16.12.2020
4790 Clouds 26 1012 74 10000 6.2 150 18:26 16.12.2020
4791 Clouds 26 1012 74 10000 6.2 150 17:42 16.12.2020
4792 Clouds 25 1012 78 10000 3.6 150 16:56 16.12.2020
4793 Clouds 25 1012 78 10000 3.6 150 16:37 16.12.2020
4794 Clouds 24 1012 83 10000 5.1 150 16:19 16.12.2020
4795 Clouds 24 1012 83 10000 5.1 150 15:46 16.12.2020
4796 Clouds 23 1013 83 10000 4.37 158 15:19 16.12.2020
4797 Clouds 23 1013 83 10000 4.37 158 14:45 16.12.2020
4798 Clouds 22 1012 84 10000 4.29 156 14:27 16.12.2020
4799 Clouds 22 1012 84 10000 4.29 156 13:42 16.12.2020
4800 Clouds 22 1011 85 10000 4.35 159 13:21 16.12.2020
4801 Clouds 22 1012 83 10000 4.57 161 12:44 16.12.2020
4802 Clouds 22 1011 83 10000 4.6 161 11:55 16.12.2020
4803 Clouds 22 1011 83 10000 4.6 161 11:36 16.12.2020
4804 Clouds 22 1011 83 10000 4.53 159 10:58 16.12.2020
4805 Clouds 22 1011 83 10000 4.53 159 10:38 16.12.2020
4806 Clouds 22 1011 84 10000 4.24 161 09:56 16.12.2020
4807 Clouds 22 1011 84 10000 4.24 161 09:32 16.12.2020
4808 Clouds 22 1012 84 10000 3.64 153 08:23 16.12.2020
4809 Clouds 22 1012 84 10000 3.64 153 07:45 16.12.2020
4810 Clouds 22 1012 84 10000 3.28 153 07:20 16.12.2020
4811 Clouds 22 1013 84 10000 3.62 155 03:37 16.12.2020
4812 Clouds 22 1011 83 10000 3.87 167 01:59 16.12.2020
4813 Clouds 25 1007 83 10000 6.2 150 23:50 15.12.2020
4814 Clouds 25 1007 83 10000 6.2 150 23:31 15.12.2020
4815 Clouds 26 1008 74 10000 6.7 160 22:41 15.12.2020
4816 Clouds 27 1008 74 10000 6.7 170 22:21 15.12.2020
4817 Clouds 27 1008 74 10000 6.7 170 21:47 15.12.2020
4818 Clouds 26 1009 78 10000 7.7 160 21:23 15.12.2020
4819 Clouds 26 1009 78 10000 7.7 160 20:46 15.12.2020
4820 Clouds 26 1011 78 10000 8.2 170 20:27 15.12.2020
4821 Clouds 26 1011 78 10000 8.2 170 19:55 15.12.2020
4822 Clouds 26 1011 78 10000 8.2 170 19:33 15.12.2020
4823 Clouds 26 1012 78 10000 6.2 160 18:42 15.12.2020
4824 Clouds 24 1012 83 10000 5.7 160 18:22 15.12.2020
4825 Clouds 24 1012 83 10000 5.7 160 17:58 15.12.2020
4826 Clouds 24 1012 83 10000 5.7 160 17:40 15.12.2020
4827 Clouds 23 1011 88 10000 6.2 160 17:20 15.12.2020
4828 Clouds 23 1011 88 10000 6.2 160 16:32 15.12.2020
4829 Clouds 22 1011 94 10000 5.1 200 15:55 15.12.2020
4830 Clouds 22 1011 94 10000 5.1 200 15:32 15.12.2020
4831 Clouds 23 1013 80 10000 5.86 167 14:48 15.12.2020
4832 Clouds 23 1013 81 10000 6.08 173 14:21 15.12.2020
4833 Clouds 23 1013 81 10000 6.08 173 13:52 15.12.2020
4834 Clouds 23 1013 81 10000 6.08 173 13:32 15.12.2020
4835 Clouds 23 1013 83 10000 5.82 178 12:47 15.12.2020
4836 Clouds 23 1012 82 10000 5.96 183 12:22 15.12.2020
4837 Clouds 23 1012 82 10000 5.96 183 11:56 15.12.2020
4838 Clouds 22 1012 82 10000 5.74 191 11:26 15.12.2020
4839 Clouds 22 1012 82 10000 5.74 191 10:56 15.12.2020
4840 Clouds 22 1012 82 10000 5.74 191 10:34 15.12.2020
4841 Clouds 22 1012 82 10000 5.5 189 09:52 15.12.2020
4842 Clouds 22 1012 82 10000 5.5 189 09:32 15.12.2020
4843 Clouds 22 1012 82 10000 5.41 186 08:54 15.12.2020
4844 Clouds 22 1013 83 10000 5.24 183 08:29 15.12.2020
4845 Clouds 22 1013 83 10000 5.24 183 07:50 15.12.2020
4846 Clouds 22 1014 84 10000 5.04 184 07:26 15.12.2020
4847 Clouds 22 1014 83 10000 4.93 188 06:37 15.12.2020
4848 Clouds 22 1014 84 10000 3.87 179 03:29 15.12.2020
4849 Clouds 24 1009 88 10000 6.2 190 00:35 15.12.2020
4850 Clouds 24 1009 88 10000 6.2 190 23:26 14.12.2020
4851 Clouds 25 1009 83 10000 7.2 140 22:56 14.12.2020
4852 Clouds 25 1009 83 10000 7.2 140 22:34 14.12.2020
4853 Clouds 26 1010 78 10000 8.2 170 21:53 14.12.2020
4854 Clouds 26 1010 78 10000 8.2 170 21:35 14.12.2020
4855 Clouds 26 1011 78 10000 6.7 180 20:52 14.12.2020
4856 Clouds 26 1011 78 10000 6.7 180 20:30 14.12.2020
4857 Clouds 25 1011 83 10000 7.7 170 19:54 14.12.2020
4858 Clouds 25 1011 83 10000 7.7 170 19:29 14.12.2020
4859 Rain 23 1012 94 10000 7.2 180 18:51 14.12.2020
4860 Rain 23 1012 94 10000 7.2 180 18:51 14.12.2020
4861 Rain 23 1012 94 10000 7.2 180 18:31 14.12.2020
4862 Clouds 25 1013 83 10000 7.7 170 17:47 14.12.2020
4863 Clouds 25 1013 83 10000 7.7 170 17:24 14.12.2020
4864 Clouds 23 1013 94 10000 6.2 170 16:50 14.12.2020
4865 Clouds 23 1013 94 10000 6.7 160 16:29 14.12.2020
4866 Clouds 23 1013 94 10000 6.7 160 15:40 14.12.2020
4867 Clouds 23 1014 84 10000 6.47 166 15:20 14.12.2020
4868 Clouds 23 1014 84 10000 6.47 166 14:42 14.12.2020
4869 Clouds 23 1014 85 10000 6.61 165 14:24 14.12.2020
4870 Clouds 23 1014 85 10000 6.61 165 13:43 14.12.2020
4871 Clouds 22 1013 85 10000 6.8 164 13:19 14.12.2020
4872 Clouds 22 1013 85 10000 6.8 164 12:52 14.12.2020
4873 Clouds 22 1013 85 10000 6.1 167 12:24 14.12.2020
4874 Clouds 22 1013 85 10000 6.1 167 12:24 14.12.2020
4875 Clouds 22 1013 85 10000 6.1 167 11:32 14.12.2020
4876 Clouds 22 1012 85 10000 5.95 168 10:38 14.12.2020
4877 Clouds 22 1012 85 10000 6.17 169 10:19 14.12.2020
4878 Clouds 22 1013 85 10000 6.47 166 09:29 14.12.2020
4879 Clouds 22 1013 85 10000 6.47 166 08:46 14.12.2020
4880 Clouds 22 1013 85 10000 6.62 162 08:28 14.12.2020
4881 Clouds 23 1014 85 10000 6.77 160 07:28 14.12.2020
4882 Clouds 23 1014 85 10000 6.74 159 06:45 14.12.2020
4883 Clouds 23 1015 85 10000 5.57 157 04:52 14.12.2020
4884 Clouds 23 1012 85 10000 5.45 167 02:26 14.12.2020
4885 Clouds 23 1011 85 10000 5.89 165 00:55 14.12.2020
4886 Clouds 25 1008 88 10000 7.7 160 00:31 14.12.2020
4887 Clouds 25 1008 88 10000 7.7 160 23:48 13.12.2020
4888 Clouds 25 1008 88 10000 7.7 160 23:25 13.12.2020
4889 Clouds 26 1008 83 10000 8.7 180 22:46 13.12.2020
4890 Clouds 27 1009 78 10000 8.2 150 22:19 13.12.2020
4891 Clouds 27 1009 78 10000 8.2 150 21:42 13.12.2020
4892 Clouds 27 1010 78 10000 9.8 160 21:23 13.12.2020
4893 Clouds 27 1010 78 10000 9.8 160 20:35 13.12.2020
4894 Clouds 27 1011 78 10000 8.2 160 19:53 13.12.2020
4895 Clouds 27 1011 78 10000 8.2 160 19:32 13.12.2020
4896 Clouds 26 1012 78 10000 8.2 160 18:58 13.12.2020
4897 Clouds 26 1012 78 10000 8.2 160 18:39 13.12.2020
4898 Clouds 24 1012 88 10000 8.7 140 18:19 13.12.2020
4899 Clouds 24 1012 88 10000 8.7 140 17:46 13.12.2020
4900 Clouds 24 1012 88 10000 8.7 160 17:20 13.12.2020
4901 Clouds 24 1012 88 10000 8.7 160 16:54 13.12.2020
4902 Clouds 24 1012 88 10000 8.7 160 16:54 13.12.2020
4903 Clouds 24 1012 88 10000 8.7 160 16:36 13.12.2020
4904 Clouds 23 1012 94 10000 8.2 160 15:56 13.12.2020
4905 Clouds 23 1012 94 10000 8.2 160 15:38 13.12.2020
4906 Clouds 23 1013 85 10000 7.24 151 15:18 13.12.2020
4907 Clouds 23 1013 85 10000 7.24 151 14:42 13.12.2020
4908 Clouds 23 1012 86 10000 7.01 151 14:18 13.12.2020
4909 Clouds 23 1012 86 10000 7.01 151 13:36 13.12.2020
4910 Clouds 22 1012 86 10000 6.84 152 13:18 13.12.2020
4911 Clouds 22 1012 86 10000 6.84 152 13:18 13.12.2020
4912 Clouds 23 1012 86 10000 6.57 148 12:36 13.12.2020
4913 Clouds 23 1012 86 10000 6.46 149 12:18 13.12.2020
4914 Clouds 23 1012 86 10000 6.46 149 11:34 13.12.2020
4915 Clouds 23 1011 86 10000 6.71 149 10:46 13.12.2020
4916 Clouds 23 1011 87 10000 7.07 148 10:24 13.12.2020
4917 Clouds 23 1011 87 10000 7.07 148 09:47 13.12.2020
4918 Clouds 23 1011 87 10000 7.32 149 08:52 13.12.2020
4919 Clouds 23 1011 87 10000 7.32 149 08:52 13.12.2020
4920 Clouds 23 1011 87 10000 7.32 149 08:30 13.12.2020
4921 Clouds 23 1012 87 10000 6.51 145 07:25 13.12.2020
4922 Clouds 23 1012 87 10000 6.15 152 03:24 13.12.2020
4923 Clouds 23 1012 87 10000 6.15 152 02:32 13.12.2020
4924 Clouds 23 1011 87 10000 6.24 156 01:36 13.12.2020
4925 Clouds 23 1011 86 10000 5.47 164 00:44 13.12.2020
4926 Clouds 24 1007 88 10000 9.3 150 23:40 12.12.2020
4927 Clouds 24 1007 88 10000 9.3 150 23:40 12.12.2020
4928 Clouds 25 1007 83 10000 7.7 180 23:20 12.12.2020
4929 Clouds 25 1007 83 10000 7.7 180 22:34 12.12.2020
4930 Clouds 25 1008 83 10000 8.2 150 21:46 12.12.2020
4931 Clouds 26 1009 83 10000 9.3 150 21:20 12.12.2020
4932 Clouds 26 1009 83 10000 9.3 150 20:45 12.12.2020
4933 Rain 25 1010 88 10000 8.2 150 20:21 12.12.2020
4934 Rain 25 1010 88 10000 8.2 150 19:52 12.12.2020
4935 Rain 25 1010 88 10000 8.2 150 19:33 12.12.2020
4936 Rain 25 1011 83 10000 7.7 140 18:56 12.12.2020
4937 Rain 25 1011 83 10000 7.7 140 18:38 12.12.2020
4938 Clouds 25 1011 83 10000 8.7 150 18:18 12.12.2020
4939 Clouds 25 1011 83 10000 8.7 150 17:40 12.12.2020
4940 Clouds 24 1011 88 10000 7.7 160 16:44 12.12.2020
4941 Rain 23 1011 94 10000 8.2 160 15:57 12.12.2020
4942 Rain 23 1011 94 10000 8.2 160 15:39 12.12.2020
4943 Clouds 23 1013 86 10000 5.98 147 14:54 12.12.2020
4944 Clouds 23 1012 87 10000 5.97 150 14:22 12.12.2020
4945 Clouds 23 1012 87 10000 5.97 150 13:41 12.12.2020
4946 Clouds 23 1012 87 10000 5.97 150 13:41 12.12.2020
4947 Clouds 23 1011 87 10000 5.92 152 13:22 12.12.2020
4948 Clouds 23 1011 87 10000 5.92 152 12:36 12.12.2020
4949 Clouds 23 1011 89 10000 5.86 159 11:20 12.12.2020
4950 Clouds 23 1011 89 10000 5.86 159 10:45 12.12.2020
4951 Clouds 23 1011 89 10000 5.18 165 09:24 12.12.2020
4952 Clouds 23 1012 89 10000 5.07 164 07:42 12.12.2020
4953 Clouds 23 1011 85 10000 4.39 183 01:39 12.12.2020
4954 Clouds 26 1007 83 10000 6.7 180 23:21 11.12.2020
4955 Clouds 27 1009 78 10000 8.2 160 20:57 11.12.2020
4956 Clouds 26 1010 78 10000 7.2 150 19:42 11.12.2020
4957 Clouds 25 1011 83 10000 7.7 160 16:49 11.12.2020
4958 Clouds 23 1013 85 10000 4.33 164 14:29 11.12.2020
4959 Clouds 23 1013 85 10000 4.33 164 13:42 11.12.2020
4960 Clouds 22 1012 85 10000 4.18 169 12:22 11.12.2020
4961 Clouds 22 1012 85 10000 4.18 169 11:52 11.12.2020
4962 Clouds 22 1012 85 10000 4.18 169 11:30 11.12.2020
4963 Clouds 22 1012 85 10000 4.26 166 10:34 11.12.2020
4964 Clouds 23 1013 82 10000 3.59 155 07:28 11.12.2020
4965 Clouds 23 1015 80 10000 3.3 168 05:20 11.12.2020
4966 Clouds 23 1014 80 10000 3.14 171 02:58 11.12.2020
4967 Clouds 23 1012 80 10000 3.66 177 00:40 11.12.2020
4968 Clouds 25 1009 83 10000 6.2 160 23:25 10.12.2020
4969 Clouds 26 1009 78 10000 7.2 160 21:37 10.12.2020
4970 Clouds 26 1010 78 10000 6.2 170 20:50 10.12.2020
4971 Clouds 26 1011 78 10000 7.2 170 19:52 10.12.2020
4972 Clouds 26 1012 78 10000 6.7 160 19:21 10.12.2020
4973 Clouds 26 1012 78 10000 6.7 160 18:44 10.12.2020
4974 Clouds 25 1013 83 10000 5.7 170 16:56 10.12.2020
4975 Clouds 24 1013 88 10000 4.1 170 15:51 10.12.2020
4976 Clouds 22 1014 81 10000 4.93 169 14:58 10.12.2020
4977 Clouds 22 1014 81 10000 4.93 169 14:38 10.12.2020
4978 Clouds 22 1013 82 10000 4.82 172 13:25 10.12.2020
4979 Clouds 22 1013 82 10000 4.14 172 11:48 10.12.2020
4980 Clouds 22 1012 83 10000 4.11 167 09:33 10.12.2020
4981 Clouds 22 1013 83 10000 3.96 147 08:19 10.12.2020
4982 Clouds 22 1014 84 10000 3.89 147 06:57 10.12.2020
4983 Clouds 22 1015 84 10000 3.83 158 04:45 10.12.2020
4984 Clear 23 1013 83 10000 4.18 178 02:27 10.12.2020
4985 Clouds 23 1012 83 10000 4.9 177 00:48 10.12.2020
4986 Clouds 25 1010 88 10000 6.2 180 23:23 09.12.2020
4987 Clouds 26 1012 78 10000 5.1 190 20:37 09.12.2020
4988 Clouds 25 1013 83 10000 7.2 180 19:37 09.12.2020
4989 Clouds 24 1014 88 10000 6.7 170 17:55 09.12.2020
4990 Rain 24 1015 88 10000 6.2 160 16:54 09.12.2020
4991 Clouds 24 1014 88 10000 6.7 180 16:24 09.12.2020
4992 Clouds 24 1014 88 10000 6.7 180 15:37 09.12.2020
4993 Clouds 23 1016 86 10000 6.08 172 14:43 09.12.2020
4994 Clouds 23 1015 87 10000 6.02 174 14:23 09.12.2020
4995 Clouds 23 1015 87 10000 5.61 172 13:19 09.12.2020
4996 Clouds 23 1015 87 10000 5.61 172 12:46 09.12.2020
4997 Clouds 23 1015 85 10000 5.05 174 11:54 09.12.2020
4998 Clouds 23 1014 86 10000 4.99 175 11:23 09.12.2020
4999 Clouds 22 1013 87 10000 4.88 171 09:39 09.12.2020
5000 Clouds 23 1014 87 10000 4.47 159 07:57 09.12.2020
5001 Clouds 23 1016 85 10000 4.76 153 05:55 09.12.2020
5002 Clouds 23 1015 85 10000 5.41 156 03:54 09.12.2020
5003 Clouds 23 1013 85 10000 6.25 159 01:56 09.12.2020
5004 Rain 23 1010 94 10000 9.3 160 23:44 08.12.2020
5005 Rain 23 1010 94 10000 9.3 160 23:18 08.12.2020
5006 Clouds 25 1012 88 10000 7.7 150 21:28 08.12.2020
5007 Drizzle 26 1013 83 10000 8.7 160 19:40 08.12.2020
5008 Clouds 26 1014 78 10000 7.7 170 18:59 08.12.2020
5009 Clouds 25 1014 83 10000 9.8 160 17:55 08.12.2020
5010 Rain 23 1014 94 10000 6.7 180 15:51 08.12.2020
5011 Clouds 23 1015 88 10000 7.27 169 14:28 08.12.2020
5012 Clouds 23 1014 88 10000 7.06 171 13:29 08.12.2020
5013 Clouds 23 1014 88 10000 7 170 12:27 08.12.2020
5014 Clouds 23 1014 88 10000 7 170 11:51 08.12.2020
5015 Clouds 23 1014 88 10000 6.86 170 10:47 08.12.2020
5016 Clouds 23 1013 87 10000 6.66 171 10:28 08.12.2020
5017 Clouds 23 1013 88 10000 6.49 169 08:39 08.12.2020
5018 Clouds 23 1015 87 10000 5.87 172 06:52 08.12.2020
5019 Clouds 23 1015 87 10000 5.87 172 06:52 08.12.2020
5020 Clouds 23 1015 86 10000 5.53 186 03:34 08.12.2020
5021 Clouds 23 1012 85 10000 5.69 184 00:47 08.12.2020
5022 Rain 24 1009 94 10000 6.2 200 23:52 07.12.2020
5023 Clouds 25 1009 83 10000 6.7 190 22:38 07.12.2020
5024 Clouds 26 1010 83 10000 5.7 200 21:51 07.12.2020
5025 Rain 25 1011 83 10000 5.7 200 19:52 07.12.2020
5026 Clouds 25 1012 83 10000 4.6 190 18:40 07.12.2020
5027 Rain 23 1013 94 10000 3.1 200 17:26 07.12.2020
5028 Rain 23 1013 94 10000 3.1 200 16:53 07.12.2020
5029 Rain 22 1013 100 10000 4.6 210 15:26 07.12.2020
5030 Rain 22 1013 100 10000 4.6 210 15:26 07.12.2020
5031 Rain 23 1014 87 10000 4.43 195 14:46 07.12.2020
5032 Rain 23 1013 87 10000 4.27 198 13:45 07.12.2020
5033 Rain 22 1013 87 10000 3.95 199 12:38 07.12.2020
5034 Clouds 23 1013 86 10000 3.36 194 11:43 07.12.2020
5035 Clouds 23 1012 86 10000 3.13 189 10:56 07.12.2020
5036 Clouds 23 1012 85 10000 2.92 177 09:40 07.12.2020
5037 Clear 23 1012 85 10000 3.1 168 07:58 07.12.2020
5038 Clouds 23 1014 85 10000 3.22 169 05:43 07.12.2020
5039 Clouds 23 1013 85 10000 3.44 171 04:48 07.12.2020
5040 Clouds 23 1012 83 10000 4.02 167 01:48 07.12.2020
5041 Clouds 25 1008 88 10000 5.7 180 23:32 06.12.2020
5042 Clouds 27 1009 78 10000 5.7 200 22:19 06.12.2020
5043 Clouds 26 1010 83 10000 6.2 200 20:53 06.12.2020
5044 Clouds 26 1010 83 10000 6.2 200 20:34 06.12.2020
5045 Clouds 26 1011 83 10000 5.1 190 19:45 06.12.2020
5046 Clouds 24 1012 88 10000 4.1 190 17:55 06.12.2020
5047 Rain 23 1012 94 10000 3.1 190 16:42 06.12.2020
5048 Clouds 22 1014 79 10000 4.79 164 14:50 06.12.2020
5049 Clouds 22 1013 81 10000 4.78 161 13:31 06.12.2020
5050 Clouds 22 1013 79 10000 4.3 166 12:36 06.12.2020
5051 Clouds 22 1012 78 10000 4.01 169 11:54 06.12.2020
5052 Clouds 22 1012 78 10000 3.89 173 11:28 06.12.2020
5053 Clouds 22 1012 78 10000 3.89 173 10:39 06.12.2020
5054 Clouds 22 1012 78 10000 3.74 171 09:38 06.12.2020
5055 Clouds 22 1013 77 10000 3.62 169 07:52 06.12.2020
5056 Clouds 22 1015 78 10000 3.48 166 05:18 06.12.2020
5057 Clouds 22 1012 78 10000 3.99 191 00:46 06.12.2020
5058 Clouds 25 1009 78 10000 6.7 190 00:27 06.12.2020
5059 Clouds 25 1009 78 10000 6.7 190 23:57 05.12.2020
5060 Clouds 26 1010 78 10000 6.7 170 22:25 05.12.2020
5061 Clouds 26 1011 78 10000 8.2 160 21:55 05.12.2020
5062 Clouds 26 1011 78 10000 8.2 160 21:30 05.12.2020
5063 Clouds 26 1013 78 10000 6.7 190 19:54 05.12.2020
5064 Clouds 26 1014 78 10000 5.1 180 18:46 05.12.2020
5065 Clouds 24 1014 83 10000 4.6 160 17:55 05.12.2020
5066 Clouds 24 1014 83 10000 4.1 180 16:45 05.12.2020
5067 Clouds 24 1014 83 10000 4.1 180 16:26 05.12.2020
5068 Clouds 22 1015 82 10000 5.16 166 14:52 05.12.2020
5069 Clouds 22 1014 84 10000 5.15 166 12:36 05.12.2020
5070 Clouds 22 1014 83 10000 4.72 167 11:50 05.12.2020
5071 Clouds 22 1013 82 10000 4.24 175 10:35 05.12.2020
5072 Clouds 22 1013 81 10000 3.89 170 08:40 05.12.2020
5073 Clouds 22 1014 82 10000 3.88 169 07:47 05.12.2020
5074 Clouds 22 1015 84 10000 4.64 166 05:33 05.12.2020
5075 Clouds 24 1009 88 10000 6.7 180 23:59 04.12.2020
5076 Clouds 24 1009 88 10000 4.1 200 23:20 04.12.2020
5077 Clouds 25 1010 88 10000 3.6 200 20:39 04.12.2020
5078 Clouds 24 1012 88 10000 4.1 220 19:21 04.12.2020
5079 Clouds 24 1012 88 10000 4.1 220 18:30 04.12.2020
5080 Rain 23 1012 94 10000 3.1 180 17:44 04.12.2020
5081 Rain 22 1012 100 10000 4.6 190 16:30 04.12.2020
5082 Clouds 23 1014 83 10000 4.06 167 15:21 04.12.2020
5083 Clouds 22 1013 84 10000 3.91 162 13:36 04.12.2020
5084 Clouds 22 1012 84 10000 4.22 153 13:18 04.12.2020
5085 Clouds 22 1012 84 10000 4.71 156 12:19 04.12.2020
5086 Clouds 22 1011 84 10000 4.34 161 10:35 04.12.2020
5087 Clouds 22 1012 85 10000 2.77 168 08:29 04.12.2020
5088 Clouds 22 1013 86 10000 2.97 164 06:40 04.12.2020
5089 Clouds 22 1013 86 10000 2.97 164 06:40 04.12.2020
5090 Clouds 22 1014 87 10000 2.89 175 04:52 04.12.2020
5091 Clouds 25 1008 83 10000 6.7 160 00:24 04.12.2020
5092 Clouds 25 1009 83 10000 7.2 160 22:47 03.12.2020
5093 Clouds 26 1010 78 10000 6.2 160 21:20 03.12.2020
5094 Clouds 26 1010 78 10000 6.2 160 20:39 03.12.2020
5095 Clouds 25 1012 78 10000 5.7 180 19:21 03.12.2020
5096 Clouds 25 1012 78 10000 5.7 180 18:40 03.12.2020
5097 Clouds 24 1012 83 10000 4.1 190 17:21 03.12.2020
5098 Clouds 23 1012 88 10000 4.6 180 15:59 03.12.2020
5099 Clouds 23 1012 88 10000 4.6 180 15:31 03.12.2020
5100 Clouds 22 1014 81 10000 4.49 178 14:48 03.12.2020
5101 Clouds 22 1013 82 10000 4.52 175 13:50 03.12.2020
5102 Clouds 22 1013 84 10000 4.98 182 12:33 03.12.2020
5103 Clouds 22 1012 84 10000 5.3 184 11:55 03.12.2020
5104 Clouds 22 1012 83 10000 5.32 181 10:36 03.12.2020
5105 Clear 22 1013 85 10000 4.97 177 08:21 03.12.2020
5106 Clear 22 1014 86 10000 4.6 182 03:41 03.12.2020
5107 Clear 22 1012 84 10000 5.03 185 01:39 03.12.2020
5108 Clouds 25 1009 83 10000 7.7 170 23:41 02.12.2020
5109 Clouds 25 1009 83 10000 7.2 180 22:29 02.12.2020
5110 Clouds 26 1010 74 10000 5.7 190 21:29 02.12.2020
5111 Clouds 26 1011 74 10000 4.6 170 20:48 02.12.2020
5112 Clouds 26 1011 74 10000 4.6 170 20:29 02.12.2020
5113 Clouds 26 1012 74 10000 4.6 160 19:22 02.12.2020
5114 Clouds 24 1013 83 10000 5.1 180 17:48 02.12.2020
5115 Clouds 24 1013 83 10000 3.6 160 17:29 02.12.2020
5116 Rain 21 1013 100 10000 4.1 160 15:37 02.12.2020
5117 Clouds 22 1013 86 10000 5.52 196 13:19 02.12.2020
5118 Clouds 22 1012 86 10000 5.35 196 10:47 02.12.2020
5119 Clouds 22 1011 86 10000 5.06 195 10:21 02.12.2020
5120 Clouds 22 1014 86 10000 5.63 191 06:53 02.12.2020
5121 Clouds 25 1009 83 10000 5.7 160 22:54 01.12.2020
5122 Clouds 24 1010 88 10000 3.6 180 22:18 01.12.2020
5123 Clouds 25 1013 83 10000 4.6 190 19:36 01.12.2020
5124 Clouds 25 1013 83 10000 4.6 190 18:45 01.12.2020
5125 Clouds 24 1014 88 10000 4.6 190 16:37 01.12.2020
5126 Clouds 21 1014 86 10000 5.25 181 13:54 01.12.2020
5127 Clouds 21 1013 88 10000 5.2 185 12:26 01.12.2020
5128 Clouds 21 1013 88 10000 5.27 183 11:27 01.12.2020
5129 Clouds 21 1013 88 10000 5.27 183 10:39 01.12.2020
5130 Clouds 21 1013 89 10000 4.92 179 09:26 01.12.2020
5131 Clouds 21 1014 89 10000 4.95 169 07:19 01.12.2020
5132 Clouds 22 1009 94 10000 5.7 180 01:56 01.12.2020
5133 Clouds 23 1008 94 10000 5.1 180 00:56 01.12.2020
5134 Clouds 25 1009 88 10000 5.1 160 23:22 30.11.2020
5135 Clouds 25 1009 88 10000 5.1 160 22:45 30.11.2020
5136 Clouds 25 1009 88 10000 5.1 160 22:25 30.11.2020
5137 Clouds 25 1011 83 10000 4.1 200 21:22 30.11.2020
5138 Clouds 25 1012 83 10000 4.6 170 19:42 30.11.2020
5139 Rain 23 1014 94 10000 4.1 120 18:24 30.11.2020
5140 Rain 23 1014 94 10000 4.1 120 17:51 30.11.2020
5141 Clouds 23 1013 94 10000 5.1 180 16:58 30.11.2020
5142 Clouds 23 1013 94 10000 5.1 180 16:38 30.11.2020
5143 Clouds 22 1015 90 10000 4.02 181 14:47 30.11.2020
5144 Clouds 22 1015 91 10000 4.08 183 13:53 30.11.2020
5145 Clouds 21 1013 89 10000 3.97 185 12:27 30.11.2020
5146 Clouds 21 1013 89 10000 3.97 185 11:58 30.11.2020
5147 Clouds 21 1013 90 10000 4.46 186 10:28 30.11.2020
5148 Clouds 21 1013 90 10000 4.46 186 09:50 30.11.2020
5149 Clouds 22 1014 89 10000 5.24 172 07:18 30.11.2020
5150 Clouds 22 1011 88 10000 5.25 188 00:54 30.11.2020
5151 Clouds 26 1010 78 10000 6.2 190 21:53 29.11.2020
5152 Clouds 26 1010 78 10000 6.2 190 21:31 29.11.2020
5153 Rain 25 1012 83 10000 4.6 160 19:58 29.11.2020
5154 Rain 23 1013 94 10000 4.1 180 17:47 29.11.2020
5155 Drizzle 23 1013 94 8000 5.1 170 16:24 29.11.2020
5156 Clouds 21 1013 87 10000 3.71 188 13:23 29.11.2020
5157 Clouds 21 1012 87 10000 3.73 192 11:41 29.11.2020
5158 Clouds 21 1012 88 10000 3.93 179 10:22 29.11.2020
5159 Clouds 21 1012 88 10000 4 183 08:38 29.11.2020
5160 Clouds 22 1015 86 10000 3.5 173 05:19 29.11.2020
5161 Clouds 22 1010 82 10000 4.07 158 23:48 28.11.2020
5162 Clouds 22 1010 81 10000 4.2 165 22:56 28.11.2020
5163 Clouds 25 1009 78 10000 7.2 190 20:47 28.11.2020
5164 Clouds 25 1010 78 10000 6.2 160 19:47 28.11.2020
5165 Clouds 25 1010 78 10000 6.2 160 19:21 28.11.2020
5166 Clouds 24 1011 83 10000 5.7 170 18:27 28.11.2020
5167 Rain 23 1011 88 10000 5.1 190 17:41 28.11.2020
5168 Clouds 23 1011 88 10000 5.7 180 16:40 28.11.2020
5169 Clouds 22 1014 82 10000 4.56 179 14:31 28.11.2020
5170 Clouds 21 1011 84 10000 4.66 185 11:29 28.11.2020
5171 Clouds 21 1011 84 10000 4.28 185 09:38 28.11.2020
5172 Clouds 22 1014 82 10000 4.02 181 03:56 28.11.2020
5173 Clouds 22 1013 82 10000 4.29 181 03:24 28.11.2020
5174 Clouds 22 1010 80 10000 5.33 189 23:23 27.11.2020
5175 Clouds 22 1010 80 10000 5.33 189 22:54 27.11.2020
5176 Clouds 26 1010 74 10000 6.7 170 20:55 27.11.2020
5177 Clouds 26 1010 74 10000 6.7 170 20:29 27.11.2020
5178 Clouds 26 1011 74 10000 6.7 170 19:22 27.11.2020
5179 Clouds 24 1012 83 10000 6.2 190 16:59 27.11.2020
5180 Clouds 22 1014 81 10000 5.79 192 14:45 27.11.2020
5181 Clouds 21 1013 84 10000 5.83 190 13:21 27.11.2020
5182 Clouds 21 1013 84 10000 5.83 190 12:47 27.11.2020
5183 Clouds 21 1013 84 10000 5.95 193 11:34 27.11.2020
5184 Clouds 21 1012 85 10000 6.05 193 10:49 27.11.2020
5185 Clouds 21 1012 85 10000 5.93 193 09:53 27.11.2020
5186 Clouds 22 1014 84 10000 6.21 196 05:47 27.11.2020
5187 Clouds 22 1010 84 10000 5.34 198 22:27 26.11.2020
5188 Clouds 22 1010 84 10000 5.34 198 21:56 26.11.2020
5189 Clouds 26 1010 74 10000 5.7 170 20:50 26.11.2020
5190 Clouds 24 1012 83 10000 6.2 170 18:37 26.11.2020
5191 Clouds 24 1013 83 10000 5.7 150 17:41 26.11.2020
5192 Clouds 22 1015 84 10000 5.59 169 14:39 26.11.2020
5193 Clouds 22 1013 85 10000 5.4 170 13:19 26.11.2020
5194 Clouds 22 1013 85 10000 5.36 176 12:41 26.11.2020
5195 Clouds 22 1012 85 10000 5.33 180 11:29 26.11.2020
5196 Clouds 22 1012 84 10000 5.29 179 10:25 26.11.2020
5197 Clouds 22 1012 84 10000 5.29 179 09:39 26.11.2020
5198 Clouds 22 1012 84 10000 5.25 178 09:18 26.11.2020
5199 Clouds 22 1012 84 10000 5.25 178 08:34 26.11.2020
5200 Clouds 22 1012 82 10000 5.97 181 02:19 26.11.2020
5201 Clouds 25 1009 78 10000 7.2 180 22:30 25.11.2020
5202 Clouds 26 1011 74 10000 8.2 180 20:38 25.11.2020
5203 Clouds 25 1012 78 10000 6.7 170 19:26 25.11.2020
5204 Clouds 23 1014 88 10000 7.7 170 17:29 25.11.2020
5205 Clouds 22 1016 83 10000 5.91 164 15:47 25.11.2020
5206 Clouds 22 1015 83 10000 6.05 161 15:23 25.11.2020
5207 Clouds 22 1014 84 10000 6.12 160 13:46 25.11.2020
5208 Clouds 22 1013 84 10000 6.27 158 12:58 25.11.2020
5209 Clouds 22 1013 85 10000 6.52 167 11:26 25.11.2020
5210 Clear 22 1013 85 10000 6.57 174 09:22 25.11.2020
5211 Clear 22 1013 85 10000 6.57 174 08:50 25.11.2020
5212 Clear 22 1013 86 10000 6.46 175 07:45 25.11.2020
5213 Clouds 22 1015 84 10000 4.63 166 03:52 25.11.2020
5214 Clouds 22 1013 82 10000 4.57 157 01:49 25.11.2020
5215 Clouds 21 1011 83 10000 4.35 168 00:20 25.11.2020
5216 Drizzle 22 1009 100 10000 5.1 180 23:35 24.11.2020
5217 Drizzle 22 1009 100 10000 5.1 180 22:39 24.11.2020
5218 Rain 23 1010 94 10000 5.7 190 21:43 24.11.2020
5219 Rain 23 1010 94 10000 5.7 190 21:23 24.11.2020
5220 Drizzle 23 1012 88 8000 5.7 160 19:48 24.11.2020
5221 Clouds 23 1013 88 10000 5.7 160 17:33 24.11.2020
5222 Rain 22 1013 94 10000 5.1 160 16:58 24.11.2020
5223 Rain 22 1013 94 10000 5.1 160 16:38 24.11.2020
5224 Clouds 21 1015 82 10000 4.65 164 15:56 24.11.2020
5225 Clouds 21 1015 82 10000 4.5 165 15:20 24.11.2020
5226 Clouds 21 1015 82 10000 4.5 165 14:44 24.11.2020
5227 Clouds 21 1014 82 10000 4.46 166 13:36 24.11.2020
5228 Clouds 21 1013 82 10000 4.48 158 12:39 24.11.2020
5229 Clouds 21 1012 82 10000 4.65 157 11:59 24.11.2020
5230 Clouds 21 1012 81 10000 4.91 157 11:24 24.11.2020
5231 Clouds 21 1012 81 10000 5.16 158 10:25 24.11.2020
5232 Clouds 21 1012 81 10000 5.16 158 09:39 24.11.2020
5233 Clouds 21 1012 81 10000 5.27 154 08:58 24.11.2020
5234 Clouds 21 1013 79 10000 4.74 153 05:53 24.11.2020
5235 Clouds 21 1010 78 10000 5.05 169 00:41 24.11.2020
5236 Clouds 26 1008 69 10000 6.7 180 22:24 23.11.2020
5237 Clouds 27 1009 65 10000 7.2 180 21:29 23.11.2020
5238 Clouds 27 1010 65 10000 7.2 160 20:29 23.11.2020
5239 Clouds 26 1011 74 10000 7.7 150 19:56 23.11.2020
5240 Clouds 25 1012 73 10000 7.2 180 17:57 23.11.2020
5241 Clouds 24 1012 78 10000 6.7 160 16:56 23.11.2020
5242 Clouds 21 1014 79 10000 5.73 160 14:50 23.11.2020
5243 Clouds 21 1013 79 10000 5.97 157 13:58 23.11.2020
5244 Clouds 21 1012 80 10000 6.28 156 12:41 23.11.2020
5245 Clouds 21 1011 80 10000 5.83 159 11:59 23.11.2020
5246 Clouds 21 1011 80 10000 5.83 159 11:40 23.11.2020
5247 Clouds 21 1011 81 10000 5.79 168 09:59 23.11.2020
5248 Clouds 21 1011 81 10000 5.83 170 08:58 23.11.2020
5249 Clouds 21 1012 80 10000 5.53 167 07:58 23.11.2020
5250 Clouds 21 1013 79 10000 5.75 174 03:32 23.11.2020
5251 Clouds 22 1009 79 10000 5.55 169 23:51 22.11.2020
5252 Clouds 26 1008 74 10000 7.7 160 22:23 22.11.2020
5253 Clouds 26 1009 69 10000 7.7 170 21:24 22.11.2020
5254 Clouds 24 1011 83 10000 5.1 180 20:20 22.11.2020
5255 Clouds 24 1011 83 10000 5.1 180 19:23 22.11.2020
5256 Clouds 23 1012 88 10000 5.1 170 18:19 22.11.2020
5257 Clouds 23 1012 88 10000 6.2 180 16:25 22.11.2020
5258 Clouds 22 1014 78 10000 5.64 169 14:58 22.11.2020
5259 Clouds 22 1012 79 10000 5.87 171 13:23 22.11.2020
5260 Clouds 22 1012 79 10000 5.6 173 12:42 22.11.2020
5261 Clouds 22 1011 80 10000 5.97 178 11:39 22.11.2020
5262 Clouds 22 1011 83 10000 5.98 180 10:50 22.11.2020
5263 Clouds 22 1011 83 10000 5.98 180 10:32 22.11.2020
5264 Clouds 22 1013 84 10000 5.08 167 04:33 22.11.2020
5265 Clouds 22 1010 83 10000 5.44 163 23:56 21.11.2020
5266 Clouds 26 1009 74 10000 7.2 180 22:41 21.11.2020
5267 Clouds 26 1009 74 10000 7.7 170 21:31 21.11.2020
5268 Clouds 26 1010 74 10000 6.7 160 20:49 21.11.2020
5269 Clouds 26 1011 78 10000 7.2 180 20:18 21.11.2020
5270 Clouds 26 1011 78 10000 7.2 180 19:39 21.11.2020
5271 Clouds 26 1012 78 10000 7.7 160 18:50 21.11.2020
5272 Clouds 25 1012 83 10000 6.7 160 17:30 21.11.2020
5273 Clouds 24 1012 88 10000 5.1 190 16:44 21.11.2020
5274 Clouds 22 1015 82 10000 5.21 174 15:40 21.11.2020
5275 Clouds 22 1015 84 10000 5.86 174 15:19 21.11.2020
5276 Clouds 22 1015 84 10000 5.86 174 14:39 21.11.2020
5277 Clouds 22 1013 83 10000 5.61 174 12:43 21.11.2020
5278 Clouds 21 1012 83 10000 4.93 173 12:20 21.11.2020
5279 Clouds 21 1012 83 10000 4.77 179 11:23 21.11.2020
5280 Clouds 21 1012 82 10000 4.73 184 10:27 21.11.2020
5281 Clouds 22 1013 81 10000 4.71 182 08:52 21.11.2020
5282 Clouds 22 1013 80 10000 4.82 179 07:52 21.11.2020
5283 Clouds 22 1014 82 10000 5.22 175 05:24 21.11.2020
5284 Clouds 22 1013 83 10000 4.89 175 01:43 21.11.2020
5285 Clouds 22 1011 81 10000 4.96 177 23:59 20.11.2020
5286 Clouds 24 1010 83 10000 6.2 170 22:26 20.11.2020
5287 Clouds 24 1011 83 10000 6.2 160 21:42 20.11.2020
5288 Clouds 25 1012 78 10000 6.7 180 21:21 20.11.2020
5289 Clouds 22 1013 81 10000 4.85 173 19:46 20.11.2020
5290 Clouds 24 1013 83 10000 5.1 180 18:50 20.11.2020
5291 Clouds 24 1014 83 10000 5.1 180 17:53 20.11.2020
5292 Clouds 24 1014 83 10000 5.1 180 17:27 20.11.2020
5293 Clouds 24 1014 78 10000 6.2 190 16:39 20.11.2020
5294 Clouds 22 1016 82 10000 4.91 160 15:58 20.11.2020
5295 Clouds 22 1015 82 10000 4.79 157 15:26 20.11.2020
5296 Clouds 21 1015 82 10000 5.07 158 13:46 20.11.2020
5297 Clouds 21 1014 83 10000 5.39 161 13:18 20.11.2020
5298 Clouds 21 1014 83 10000 5.39 161 12:35 20.11.2020
5299 Clouds 21 1013 83 10000 5.58 162 11:45 20.11.2020
5300 Clouds 21 1013 83 10000 5.74 164 10:55 20.11.2020
5301 Clouds 21 1013 83 10000 6.09 163 08:53 20.11.2020
5302 Clouds 21 1014 84 10000 6.25 163 08:25 20.11.2020
5303 Clouds 21 1014 84 10000 6.25 163 07:32 20.11.2020
5304 Clear 21 1014 86 10000 6.6 158 03:44 20.11.2020
5305 Clouds 25 1009 83 10000 6.7 160 22:42 19.11.2020
5306 Clouds 26 1011 78 10000 7.2 170 21:55 19.11.2020
5307 Clouds 26 1011 78 10000 7.2 170 21:36 19.11.2020
5308 Clouds 26 1012 78 10000 7.2 190 20:32 19.11.2020
5309 Clouds 26 1012 78 10000 6.7 180 19:49 19.11.2020
5310 Clouds 26 1012 78 10000 6.7 180 19:23 19.11.2020
5311 Clouds 24 1014 88 10000 6.7 180 17:39 19.11.2020
5312 Clouds 24 1014 88 10000 5.1 180 16:48 19.11.2020
5313 Clouds 21 1016 78 10000 3.05 152 15:32 19.11.2020
5314 Clouds 21 1016 78 10000 2.86 145 14:39 19.11.2020
5315 Clouds 21 1015 78 10000 2.78 139 13:45 19.11.2020
5316 Clouds 21 1014 79 10000 2.85 143 12:58 19.11.2020
5317 Clouds 21 1014 79 10000 2.85 143 12:34 19.11.2020
5318 Clouds 21 1013 79 10000 3.01 149 11:44 19.11.2020
5319 Clouds 21 1013 80 10000 3.28 154 11:23 19.11.2020
5320 Clouds 21 1013 80 10000 3.28 154 10:52 19.11.2020
5321 Clouds 21 1013 80 10000 3.56 157 09:55 19.11.2020
5322 Clouds 21 1013 80 10000 3.56 157 09:36 19.11.2020
5323 Clouds 21 1013 81 10000 3.92 157 09:18 19.11.2020
5324 Clouds 21 1013 81 10000 4.37 159 07:59 19.11.2020
5325 Clouds 21 1013 77 10000 4.03 173 01:53 19.11.2020
5326 Clouds 21 1012 77 10000 4.11 169 00:56 19.11.2020
5327 Clouds 21 1011 76 10000 4.02 168 23:47 18.11.2020
5328 Clouds 25 1009 78 10000 6.7 170 23:24 18.11.2020
5329 Clouds 25 1009 78 10000 6.7 170 22:30 18.11.2020
5330 Clouds 25 1010 78 10000 6.2 170 21:45 18.11.2020
5331 Clouds 25 1010 78 10000 6.2 170 21:26 18.11.2020
5332 Clouds 25 1011 78 10000 6.2 180 20:40 18.11.2020
5333 Clouds 25 1012 78 10000 7.2 190 19:44 18.11.2020
5334 Clouds 25 1012 78 10000 7.2 190 19:24 18.11.2020
5335 Clouds 25 1013 78 10000 6.7 170 18:48 18.11.2020
5336 Clouds 25 1014 78 10000 6.2 160 17:45 18.11.2020
5337 Clouds 24 1014 83 10000 5.1 160 16:54 18.11.2020
5338 Clouds 21 1016 75 10000 4.12 147 16:19 18.11.2020
5339 Clouds 21 1016 75 10000 3.98 152 14:42 18.11.2020
5340 Clouds 21 1015 75 10000 3.58 153 14:22 18.11.2020
5341 Clouds 20 1014 76 10000 3.65 158 13:22 18.11.2020
5342 Clouds 20 1014 75 10000 3.43 161 12:43 18.11.2020
5343 Clouds 20 1013 75 10000 3.6 167 11:51 18.11.2020
5344 Clouds 20 1013 75 10000 3.68 169 10:57 18.11.2020
5345 Clouds 21 1013 75 10000 3.87 169 10:27 18.11.2020
5346 Clouds 21 1013 75 10000 4.22 171 08:40 18.11.2020
5347 Clouds 21 1014 75 10000 4.72 180 06:48 18.11.2020
5348 Clouds 21 1015 75 10000 5.06 185 03:48 18.11.2020
5349 Clouds 21 1012 76 10000 5.71 184 00:18 18.11.2020
5350 Clouds 25 1011 73 10000 6.7 170 23:23 17.11.2020
5351 Clouds 25 1011 73 10000 6.7 170 22:41 17.11.2020
5352 Clouds 25 1011 73 10000 6.7 170 22:41 17.11.2020
5353 Clouds 25 1011 73 10000 6.7 170 22:23 17.11.2020
5354 Clouds 21 1012 75 10000 6 191 21:46 17.11.2020
5355 Clouds 25 1012 78 10000 6.7 170 20:58 17.11.2020
5356 Clouds 25 1012 78 10000 6.7 170 20:40 17.11.2020
5357 Clouds 25 1013 78 10000 6.2 170 20:22 17.11.2020
5358 Clouds 25 1014 78 10000 7.7 180 18:36 17.11.2020
5359 Clouds 25 1014 78 10000 6.2 180 17:47 17.11.2020
5360 Clouds 24 1014 83 10000 6.7 190 16:59 17.11.2020
5361 Clouds 21 1016 75 10000 4.46 186 16:20 17.11.2020
5362 Clouds 21 1016 75 10000 4.46 186 15:45 17.11.2020
5363 Clouds 21 1016 76 10000 4.66 183 15:27 17.11.2020
5364 Clouds 21 1016 76 10000 4.66 183 14:56 17.11.2020
5365 Clouds 20 1015 77 10000 4.73 181 14:28 17.11.2020
5366 Clouds 20 1015 77 10000 4.73 181 13:38 17.11.2020
5367 Clouds 20 1014 78 10000 4.82 181 12:57 17.11.2020
5368 Clouds 20 1014 78 10000 4.82 181 12:39 17.11.2020
5369 Clouds 20 1013 77 10000 4.69 189 11:43 17.11.2020
5370 Clouds 20 1013 77 10000 4.93 188 10:49 17.11.2020
5371 Clouds 20 1013 77 10000 5.01 188 10:23 17.11.2020
5372 Clouds 20 1013 77 10000 5.01 188 10:23 17.11.2020
5373 Clouds 20 1013 77 10000 5.01 188 09:50 17.11.2020
5374 Clouds 20 1014 77 10000 5.08 187 09:27 17.11.2020
5375 Clouds 20 1014 78 10000 5.43 183 08:22 17.11.2020
5376 Clouds 20 1014 78 10000 5.43 183 07:44 17.11.2020
5377 Clouds 20 1015 79 10000 6.1 183 06:33 17.11.2020
5378 Clouds 20 1015 79 10000 6.01 189 03:31 17.11.2020
5379 Clouds 20 1014 78 10000 5.97 190 02:31 17.11.2020
5380 Clouds 21 1013 77 10000 5.66 187 01:23 17.11.2020
5381 Clouds 20 1013 78 10000 6.01 189 00:42 17.11.2020
5382 Clouds 21 1012 77 10000 5.95 191 23:41 16.11.2020
5383 Clouds 25 1011 78 10000 7.2 170 23:22 16.11.2020
5384 Clouds 25 1011 78 10000 7.2 170 22:37 16.11.2020
5385 Clouds 25 1012 78 10000 7.7 170 22:18 16.11.2020
5386 Clouds 25 1012 78 10000 7.7 170 21:43 16.11.2020
5387 Clouds 25 1012 78 10000 7.7 170 21:23 16.11.2020
5388 Clouds 25 1013 78 10000 7.2 180 20:27 16.11.2020
5389 Clouds 25 1013 78 10000 7.7 170 19:56 16.11.2020
5390 Clouds 25 1013 78 10000 7.7 170 19:31 16.11.2020
5391 Clouds 25 1014 78 10000 6.2 180 18:53 16.11.2020
5392 Clouds 25 1014 78 10000 5.7 200 18:26 16.11.2020
5393 Clouds 25 1014 78 10000 5.7 200 17:37 16.11.2020
5394 Clouds 24 1014 83 10000 6.2 170 17:19 16.11.2020
5395 Clouds 24 1014 83 10000 6.2 170 16:51 16.11.2020
5396 Clouds 24 1014 83 10000 6.2 170 16:26 16.11.2020
5397 Clouds 20 1017 78 10000 4.69 183 15:45 16.11.2020
5398 Clouds 20 1016 79 10000 4.68 183 15:27 16.11.2020
5399 Clouds 20 1016 79 10000 4.68 183 14:48 16.11.2020
5400 Clouds 20 1015 80 10000 4.76 184 13:46 16.11.2020
5401 Clouds 20 1014 80 10000 4.81 185 12:59 16.11.2020
5402 Clouds 20 1014 80 10000 4.67 181 12:29 16.11.2020
5403 Clouds 20 1014 80 10000 4.67 181 11:40 16.11.2020
5404 Clouds 20 1014 79 10000 4.75 183 11:21 16.11.2020
5405 Clouds 20 1014 79 10000 4.75 183 10:44 16.11.2020
5406 Clouds 20 1014 78 10000 4.69 184 10:25 16.11.2020
5407 Clouds 20 1014 78 10000 4.69 184 09:46 16.11.2020
5408 Clouds 20 1014 78 10000 4.87 182 09:23 16.11.2020
5409 Clouds 20 1014 78 10000 4.87 182 08:41 16.11.2020
5410 Clouds 20 1014 78 10000 4.95 181 07:45 16.11.2020
5411 Clouds 20 1014 77 10000 4.76 178 06:50 16.11.2020
5412 Clouds 20 1015 77 10000 4.7 176 06:24 16.11.2020
5413 Clouds 20 1016 77 10000 4.6 178 04:43 16.11.2020
5414 Clouds 21 1015 77 10000 5.06 174 02:30 16.11.2020
5415 Clouds 21 1014 77 10000 5.28 172 01:41 16.11.2020
5416 Clouds 21 1012 76 10000 5.52 170 23:54 15.11.2020
5417 Clouds 24 1011 73 10000 6.7 180 23:22 15.11.2020
5418 Clouds 24 1011 73 10000 6.7 180 22:48 15.11.2020
5419 Clouds 24 1011 73 10000 6.7 180 22:21 15.11.2020
5420 Clouds 25 1011 69 10000 5.1 180 21:44 15.11.2020
5421 Clouds 25 1011 69 10000 5.1 180 21:24 15.11.2020
5422 Clouds 25 1012 69 10000 6.2 170 20:41 15.11.2020
5423 Clouds 25 1013 73 10000 5.7 170 20:19 15.11.2020
5424 Clouds 25 1013 73 10000 5.7 170 19:48 15.11.2020
5425 Clouds 25 1013 73 10000 5.7 170 19:22 15.11.2020
5426 Clouds 24 1014 73 10000 6.7 210 18:57 15.11.2020
5427 Clouds 24 1014 73 10000 6.7 210 18:39 15.11.2020
5428 Clouds 24 1014 73 10000 5.1 180 18:19 15.11.2020
5429 Clouds 24 1014 73 10000 5.1 180 17:44 15.11.2020
5430 Clouds 24 1014 73 10000 5.1 180 17:44 15.11.2020
5431 Clouds 23 1014 78 10000 4.6 180 17:23 15.11.2020
5432 Clouds 23 1014 78 10000 4.6 180 16:45 15.11.2020
5433 Clouds 20 1017 78 10000 5.53 185 16:20 15.11.2020
5434 Clouds 20 1017 78 10000 5.53 185 15:50 15.11.2020
5435 Clouds 20 1017 77 10000 5.37 180 15:26 15.11.2020
5436 Clouds 20 1017 77 10000 5.37 180 14:56 15.11.2020
5437 Clouds 20 1016 77 10000 5.39 177 14:29 15.11.2020
5438 Clouds 20 1016 77 10000 5.39 177 13:53 15.11.2020
5439 Clouds 20 1016 77 10000 5.39 177 13:35 15.11.2020
5440 Clouds 20 1015 78 10000 5.29 189 12:50 15.11.2020
5441 Clouds 20 1014 78 10000 5.31 192 12:20 15.11.2020
5442 Clouds 20 1014 78 10000 5.31 192 11:45 15.11.2020
5443 Clouds 20 1014 78 10000 5.32 196 11:19 15.11.2020
5444 Clouds 20 1014 78 10000 5.32 196 10:53 15.11.2020
5445 Clouds 20 1014 78 10000 5.32 196 10:31 15.11.2020
5446 Clouds 20 1014 78 10000 5.48 196 09:56 15.11.2020
5447 Clouds 20 1014 78 10000 5.48 196 09:33 15.11.2020
5448 Clouds 20 1014 78 10000 5.51 198 09:00 15.11.2020
5449 Clouds 20 1014 78 10000 5.51 198 08:41 15.11.2020
5450 Clouds 20 1015 78 10000 5.39 200 07:46 15.11.2020
5451 Clouds 20 1015 77 10000 5.34 205 06:42 15.11.2020
5452 Clouds 21 1016 78 10000 5.46 199 04:54 15.11.2020
5453 Clouds 21 1014 80 10000 5.92 192 02:27 15.11.2020
5454 Clouds 21 1013 79 10000 6.01 196 00:36 15.11.2020
5455 Clouds 21 1012 78 10000 6.33 200 23:54 14.11.2020
5456 Clouds 23 1011 83 10000 3.1 200 22:59 14.11.2020
5457 Clouds 23 1011 83 10000 3.1 200 22:41 14.11.2020
5458 Clouds 24 1012 78 10000 2.6 210 22:19 14.11.2020
5459 Clouds 24 1012 78 10000 2.6 210 21:39 14.11.2020
5460 Clouds 24 1013 78 10000 3.1 180 21:20 14.11.2020
5461 Clouds 24 1013 78 10000 3.1 180 20:47 14.11.2020
5462 Clouds 24 1013 78 10000 3.1 180 20:24 14.11.2020
5463 Clouds 25 1014 69 10000 2.6 180 19:36 14.11.2020
5464 Clouds 25 1014 69 10000 2.6 180 18:59 14.11.2020
5465 Clouds 25 1014 69 10000 2.6 180 18:39 14.11.2020
5466 Clouds 24 1015 73 10000 3.6 240 18:21 14.11.2020
5467 Clouds 24 1015 73 10000 3.6 240 17:45 14.11.2020
5468 Clouds 24 1015 73 10000 3.6 240 17:45 14.11.2020
5469 Clouds 24 1015 73 10000 3.6 240 17:27 14.11.2020
5470 Clouds 22 1015 83 10000 2.1 180 16:52 14.11.2020
5471 Clouds 22 1015 83 10000 2.1 180 16:31 14.11.2020
5472 Clouds 21 1017 78 10000 6.22 211 15:55 14.11.2020
5473 Clouds 21 1017 78 10000 6.22 211 15:31 14.11.2020
5474 Clouds 21 1016 79 10000 6.32 210 14:56 14.11.2020
5475 Clouds 21 1016 79 10000 6.32 210 14:30 14.11.2020
5476 Clouds 21 1016 80 10000 5.91 208 13:52 14.11.2020
5477 Clouds 21 1016 80 10000 5.91 208 13:30 14.11.2020
5478 Clouds 20 1015 81 10000 5.56 207 12:52 14.11.2020
5479 Clouds 20 1015 81 10000 5.36 209 12:33 14.11.2020
5480 Clouds 20 1015 82 10000 5.58 213 11:56 14.11.2020
5481 Clouds 20 1015 82 10000 5.58 213 11:37 14.11.2020
5482 Clouds 20 1015 83 10000 6.15 215 10:59 14.11.2020
5483 Clouds 20 1015 83 10000 6.15 215 10:38 14.11.2020
5484 Clouds 20 1015 83 10000 6.15 215 10:38 14.11.2020
5485 Clouds 20 1015 83 10000 6.46 212 10:20 14.11.2020
5486 Clouds 20 1015 83 10000 6.46 212 09:43 14.11.2020
5487 Clouds 20 1015 82 10000 6.53 211 09:23 14.11.2020
5488 Clouds 20 1015 82 10000 6.53 211 08:40 14.11.2020
5489 Clouds 21 1015 82 10000 6.42 210 08:20 14.11.2020
5490 Clouds 21 1015 82 10000 6.42 210 07:41 14.11.2020
5491 Clouds 21 1016 82 10000 6.15 206 06:43 14.11.2020
5492 Clouds 21 1017 82 10000 6.13 204 06:20 14.11.2020
5493 Clouds 21 1017 82 10000 6.17 202 04:45 14.11.2020
5494 Clouds 21 1016 81 10000 5.75 206 01:42 14.11.2020
5495 Clouds 21 1013 82 10000 6.17 207 00:24 14.11.2020
5496 Clouds 24 1012 78 10000 3.6 180 23:33 13.11.2020
5497 Clouds 24 1012 78 10000 3.6 180 22:58 13.11.2020
5498 Clouds 24 1012 78 10000 3.6 180 22:39 13.11.2020
5499 Clouds 23 1012 83 10000 3.1 200 22:19 13.11.2020
5500 Clouds 23 1012 83 10000 3.1 200 21:43 13.11.2020
5501 Clouds 23 1012 83 10000 3.1 200 21:22 13.11.2020
5502 Rain 23 1013 83 10000 4.6 180 20:51 13.11.2020
5503 Rain 23 1013 83 10000 4.6 180 20:23 13.11.2020
5504 Clouds 23 1014 78 10000 3.1 180 19:47 13.11.2020
5505 Clouds 23 1014 78 10000 3.1 180 19:24 13.11.2020
5506 Clouds 24 1015 78 10000 3.6 180 18:59 13.11.2020
5507 Clouds 24 1015 78 10000 3.6 180 18:30 13.11.2020
5508 Clouds 24 1015 78 10000 3.1 190 17:43 13.11.2020
5509 Clouds 24 1015 78 10000 3.1 190 17:43 13.11.2020
5510 Clouds 23 1015 83 10000 4.1 180 17:20 13.11.2020
5511 Clouds 23 1015 83 10000 4.1 180 16:50 13.11.2020
5512 Clouds 23 1015 83 10000 4.1 180 16:25 13.11.2020
5513 Clouds 21 1017 80 10000 5.35 188 15:55 13.11.2020
5514 Clouds 21 1017 80 10000 5.35 188 15:32 13.11.2020
5515 Clouds 21 1017 80 10000 4.87 183 14:52 13.11.2020
5516 Clouds 21 1016 81 10000 4.86 180 14:27 13.11.2020
5517 Clouds 21 1016 81 10000 4.86 180 13:53 13.11.2020
5518 Clouds 21 1015 81 10000 5.09 182 13:29 13.11.2020
5519 Clouds 21 1016 81 10000 5.33 181 12:51 13.11.2020
5520 Clouds 21 1015 82 10000 5.51 180 12:25 13.11.2020
5521 Clouds 21 1015 82 10000 5.51 180 11:52 13.11.2020
5522 Clouds 21 1015 82 10000 5.51 180 11:33 13.11.2020
5523 Clouds 21 1015 82 10000 5.33 180 10:59 13.11.2020
5524 Clouds 21 1015 82 10000 5.33 180 10:39 13.11.2020
5525 Clouds 21 1015 83 10000 5.16 183 10:21 13.11.2020
5526 Clouds 21 1015 83 10000 5.16 183 09:43 13.11.2020
5527 Clouds 21 1015 83 10000 5.16 185 09:23 13.11.2020
5528 Clouds 21 1015 83 10000 5.16 185 08:52 13.11.2020
5529 Clouds 21 1015 82 10000 5.17 187 08:21 13.11.2020
5530 Clouds 21 1015 82 10000 5.17 187 07:45 13.11.2020
5531 Clouds 21 1015 82 10000 5.01 188 07:26 13.11.2020
5532 Clouds 21 1016 83 10000 5.51 179 06:49 13.11.2020
5533 Clouds 21 1017 82 10000 5.3 178 05:58 13.11.2020
5534 Clouds 21 1017 82 10000 5.3 178 05:30 13.11.2020
5535 Clouds 21 1015 79 10000 4.75 173 01:46 13.11.2020
5536 Clouds 21 1014 79 10000 4.96 173 00:53 13.11.2020
5537 Clouds 21 1014 79 10000 4.77 176 00:32 13.11.2020
5538 Clouds 22 1012 88 10000 2.6 180 23:38 12.11.2020
5539 Clouds 22 1012 88 10000 2.6 180 23:19 12.11.2020
5540 Clouds 22 1012 88 10000 2.6 180 22:50 12.11.2020
5541 Clouds 22 1012 88 10000 2.6 180 22:32 12.11.2020
5542 Rain 22 1012 88 8000 3.1 180 21:56 12.11.2020
5543 Rain 22 1012 88 8000 3.1 180 21:36 12.11.2020
5544 Rain 22 1013 88 10000 2.6 210 21:18 12.11.2020
5545 Rain 22 1013 88 10000 2.6 210 20:39 12.11.2020
5546 Rain 23 1014 83 10000 2.1 170 20:21 12.11.2020
5547 Rain 23 1014 83 10000 2.1 170 20:21 12.11.2020
5548 Rain 23 1014 83 10000 2.1 170 19:45 12.11.2020
5549 Rain 23 1014 83 10000 2.1 170 19:27 12.11.2020
5550 Clouds 23 1014 83 10000 2.6 180 18:49 12.11.2020
5551 Clouds 23 1014 83 10000 2.6 180 18:24 12.11.2020
5552 Rain 23 1015 83 10000 4.1 180 17:46 12.11.2020
5553 Rain 23 1015 83 10000 4.1 180 17:27 12.11.2020
5554 Rain 21 1015 94 10000 1.5 180 16:47 12.11.2020
5555 Rain 21 1015 94 10000 1.5 180 16:26 12.11.2020
5556 Clouds 20 1017 80 10000 4.9 184 15:57 12.11.2020
5557 Clouds 20 1017 80 10000 4.9 184 15:39 12.11.2020
5558 Clouds 20 1017 80 10000 4.64 182 15:20 12.11.2020
5559 Clouds 20 1017 80 10000 4.64 182 14:43 12.11.2020
5560 Clouds 20 1015 80 10000 3.97 179 14:25 12.11.2020
5561 Clouds 20 1015 80 10000 3.97 179 13:49 12.11.2020
5562 Clouds 20 1015 81 10000 3.79 176 13:21 12.11.2020
5563 Clouds 20 1015 81 10000 3.79 176 12:59 12.11.2020
5564 Clouds 20 1015 81 10000 3.79 176 12:38 12.11.2020
5565 Clouds 20 1014 81 10000 3.94 173 12:18 12.11.2020
5566 Clouds 20 1014 81 10000 3.94 173 11:41 12.11.2020
5567 Clouds 20 1014 81 10000 3.99 172 11:22 12.11.2020
5568 Clouds 20 1014 81 10000 3.99 172 10:41 12.11.2020
5569 Clouds 20 1014 80 10000 4.28 168 10:22 12.11.2020
5570 Clouds 20 1014 80 10000 4.28 168 09:40 12.11.2020
5571 Clouds 20 1014 80 10000 4.26 167 09:20 12.11.2020
5572 Clouds 20 1014 80 10000 4.26 167 08:41 12.11.2020
5573 Clouds 20 1014 79 10000 3.68 163 08:21 12.11.2020
5574 Clouds 20 1014 79 10000 3.68 163 07:59 12.11.2020
5575 Clouds 20 1014 79 10000 3.68 163 07:39 12.11.2020
5576 Clouds 20 1015 79 10000 3.34 164 06:54 12.11.2020
5577 Clouds 20 1016 79 10000 3.17 166 06:27 12.11.2020
5578 Clouds 20 1016 78 10000 3.17 169 03:50 12.11.2020
5579 Clouds 20 1015 78 10000 3.72 173 03:20 12.11.2020
5580 Clouds 23 1011 83 10000 3.1 180 00:45 12.11.2020
5581 Clouds 25 1011 69 10000 4.1 190 23:45 11.11.2020
5582 Clouds 25 1011 69 10000 4.1 190 23:25 11.11.2020
5583 Clouds 25 1011 69 10000 3.6 180 22:48 11.11.2020
5584 Clouds 25 1011 69 10000 3.6 180 22:24 11.11.2020
5585 Clouds 25 1011 69 10000 3.6 180 22:24 11.11.2020
5586 Clouds 24 1012 73 10000 4.6 170 21:59 11.11.2020
5587 Clouds 24 1012 73 10000 4.6 170 21:40 11.11.2020
5588 Clouds 23 1013 78 10000 2.1 180 21:20 11.11.2020
5589 Clouds 23 1013 78 10000 2.1 180 20:54 11.11.2020
5590 Clouds 23 1013 78 10000 2.1 180 20:36 11.11.2020
5591 Clouds 24 1014 73 10000 4.1 200 20:18 11.11.2020
5592 Clouds 24 1014 73 10000 4.1 200 19:41 11.11.2020
5593 Clouds 24 1014 73 10000 4.1 200 19:22 11.11.2020
5594 Clouds 23 1015 78 10000 2.1 180 18:45 11.11.2020
5595 Clouds 23 1015 78 10000 2.1 180 18:26 11.11.2020
5596 Clouds 23 1015 78 10000 3.1 180 17:41 11.11.2020
5597 Clouds 22 1015 83 10000 3.6 180 17:21 11.11.2020
5598 Clouds 22 1015 83 10000 3.6 180 16:44 11.11.2020
5599 Clouds 22 1015 83 10000 3.6 180 16:25 11.11.2020
5600 Clouds 20 1017 73 10000 2.28 149 15:44 11.11.2020
5601 Clouds 20 1017 74 10000 2.59 134 15:24 11.11.2020
5602 Clouds 20 1017 74 10000 2.59 134 14:51 11.11.2020
5603 Clouds 20 1017 74 10000 2.59 134 14:31 11.11.2020
5604 Clouds 20 1016 76 10000 3.05 135 13:50 11.11.2020
5605 Clouds 20 1016 76 10000 3.05 135 13:32 11.11.2020
5606 Clouds 20 1015 78 10000 3.62 138 12:38 11.11.2020
5607 Clouds 20 1014 79 10000 3.83 146 12:20 11.11.2020
5608 Clouds 20 1014 79 10000 3.83 146 11:47 11.11.2020
5609 Clouds 20 1014 79 10000 3.97 157 11:25 11.11.2020
5610 Clouds 20 1014 79 10000 3.97 157 10:39 11.11.2020
5611 Clouds 20 1014 80 10000 4 159 10:20 11.11.2020
5612 Clouds 20 1014 80 10000 4 159 09:44 11.11.2020
5613 Clouds 20 1014 80 10000 4.14 160 09:24 11.11.2020
5614 Clouds 20 1014 80 10000 4.14 160 08:46 11.11.2020
5615 Clouds 20 1015 81 10000 4.25 164 08:27 11.11.2020
5616 Clouds 20 1015 81 10000 4.25 164 07:49 11.11.2020
5617 Clouds 20 1015 81 10000 4.25 164 07:49 11.11.2020
5618 Clouds 20 1015 82 10000 4.43 162 06:34 11.11.2020
5619 Clouds 20 1016 82 10000 4.52 163 05:59 11.11.2020
5620 Clouds 20 1016 80 10000 4.47 165 03:40 11.11.2020
5621 Clouds 20 1013 76 10000 4.85 170 00:59 11.11.2020
5622 Clouds 20 1013 78 10000 5.04 169 00:28 11.11.2020
5623 Clouds 20 1013 78 10000 5.04 169 23:43 10.11.2020
5624 Clouds 23 1012 83 10000 5.1 140 23:24 10.11.2020
5625 Clouds 23 1012 83 10000 5.1 140 22:52 10.11.2020
5626 Clouds 23 1012 83 10000 5.1 140 22:27 10.11.2020
5627 Clouds 23 1012 78 10000 5.7 150 21:44 10.11.2020
5628 Clouds 23 1012 78 10000 5.7 150 21:25 10.11.2020
5629 Clouds 25 1013 69 10000 5.1 170 20:58 10.11.2020
5630 Clouds 25 1013 69 10000 5.1 170 20:40 10.11.2020
5631 Clouds 25 1014 69 10000 4.1 170 20:22 10.11.2020
5632 Clouds 25 1014 69 10000 4.1 170 19:47 10.11.2020
5633 Clouds 25 1014 69 10000 4.1 170 19:28 10.11.2020
5634 Clouds 25 1015 69 10000 4.6 180 18:57 10.11.2020
5635 Clouds 25 1015 69 10000 4.6 180 18:38 10.11.2020
5636 Clouds 25 1015 65 10000 4.6 180 18:18 10.11.2020
5637 Clouds 25 1015 65 10000 4.6 180 18:18 10.11.2020
5638 Clouds 25 1015 65 10000 4.6 180 17:42 10.11.2020
5639 Clouds 23 1016 78 10000 4.6 150 17:24 10.11.2020
5640 Clouds 23 1016 78 10000 4.6 150 16:43 10.11.2020
5641 Clouds 23 1016 78 10000 4.6 150 16:24 10.11.2020
5642 Clouds 20 1018 77 10000 4.91 169 15:55 10.11.2020
5643 Clouds 20 1018 77 10000 4.91 169 15:37 10.11.2020
5644 Clouds 20 1017 77 10000 5.11 168 15:19 10.11.2020
5645 Clouds 20 1017 77 10000 5.11 168 14:40 10.11.2020
5646 Clouds 20 1016 78 10000 5.21 170 14:20 10.11.2020
5647 Clouds 20 1016 78 10000 5.21 170 13:40 10.11.2020
5648 Clouds 20 1016 79 10000 4.96 170 13:21 10.11.2020
5649 Clouds 20 1016 79 10000 4.96 170 12:56 10.11.2020
5650 Clouds 19 1016 78 10000 4.74 170 12:37 10.11.2020
5651 Clouds 19 1015 79 10000 4.52 168 12:18 10.11.2020
5652 Clouds 19 1015 79 10000 4.52 168 11:36 10.11.2020
5653 Clouds 19 1015 79 10000 4.36 169 11:18 10.11.2020
5654 Clouds 19 1015 79 10000 4.36 169 10:42 10.11.2020
5655 Clouds 19 1015 80 10000 4.4 173 10:22 10.11.2020
5656 Clouds 19 1015 80 10000 4.4 173 09:46 10.11.2020
5657 Clouds 19 1015 79 10000 4.53 178 09:25 10.11.2020
5658 Clouds 19 1015 79 10000 4.53 178 08:55 10.11.2020
5659 Clouds 20 1015 78 10000 4.72 183 08:29 10.11.2020
5660 Clouds 20 1015 78 10000 4.72 183 07:46 10.11.2020
5661 Clouds 20 1015 77 10000 4.47 182 07:25 10.11.2020
5662 Clouds 20 1016 78 10000 4.34 182 06:41 10.11.2020
5663 Clouds 20 1016 78 10000 4.35 181 05:49 10.11.2020
5664 Clouds 20 1016 77 10000 4.38 176 04:59 10.11.2020
5665 Clouds 20 1015 76 10000 4.6 164 02:37 10.11.2020
5666 Clouds 20 1014 76 10000 4.28 162 01:31 10.11.2020
5667 Clouds 20 1013 77 10000 4.54 160 00:22 10.11.2020
5668 Clouds 25 1011 61 10000 4.6 180 23:36 09.11.2020
5669 Clouds 25 1011 61 10000 4.6 180 22:49 09.11.2020
5670 Clouds 25 1011 61 10000 4.6 180 22:25 09.11.2020
5671 Clouds 25 1012 61 10000 3.1 180 21:59 09.11.2020
5672 Clouds 25 1012 61 10000 3.1 180 21:38 09.11.2020
5673 Clouds 24 1013 69 10000 3.1 180 21:19 09.11.2020
5674 Clouds 24 1013 69 10000 3.1 180 20:39 09.11.2020
5675 Clouds 25 1014 61 10000 5.7 150 20:20 09.11.2020
5676 Clouds 25 1014 61 10000 5.7 150 19:42 09.11.2020
5677 Clouds 25 1014 61 10000 5.7 150 19:22 09.11.2020
5678 Clouds 24 1015 69 10000 3.1 160 18:42 09.11.2020
5679 Clouds 24 1015 73 10000 5.1 150 18:20 09.11.2020
5680 Clouds 24 1015 73 10000 5.1 150 17:53 09.11.2020
5681 Clouds 24 1015 73 10000 5.1 150 17:53 09.11.2020
5682 Clouds 24 1015 73 10000 5.1 150 17:33 09.11.2020
5683 Clouds 22 1015 83 10000 4.6 140 16:48 09.11.2020
5684 Clouds 22 1015 83 10000 4.6 140 16:30 09.11.2020
5685 Clouds 20 1017 78 10000 4.01 149 15:58 09.11.2020
5686 Clouds 20 1017 78 10000 4.01 149 15:40 09.11.2020
5687 Clouds 20 1016 78 10000 4.22 145 15:20 09.11.2020
5688 Clouds 20 1016 78 10000 4.22 145 14:41 09.11.2020
5689 Clouds 20 1016 79 10000 4.37 145 14:23 09.11.2020
5690 Clouds 20 1016 79 10000 4.37 145 13:43 09.11.2020
5691 Clouds 20 1015 80 10000 4.49 148 13:20 09.11.2020
5692 Clouds 20 1015 80 10000 4.49 148 13:20 09.11.2020
5693 Clouds 20 1015 80 10000 4.54 141 12:47 09.11.2020
5694 Clouds 19 1014 80 10000 4.64 143 12:21 09.11.2020
5695 Clouds 19 1014 80 10000 4.64 143 11:55 09.11.2020
5696 Clouds 19 1014 80 10000 4.64 143 11:36 09.11.2020
5697 Clouds 19 1014 81 10000 4.57 143 11:18 09.11.2020
5698 Clouds 19 1014 81 10000 4.57 143 10:41 09.11.2020
5699 Clouds 19 1013 81 10000 4.7 146 10:22 09.11.2020
5700 Clouds 19 1013 81 10000 4.7 146 09:41 09.11.2020
5701 Clouds 19 1013 81 10000 4.86 148 09:23 09.11.2020
5702 Clouds 19 1013 81 10000 4.86 148 08:37 09.11.2020
5703 Clouds 19 1014 81 10000 4.9 145 08:18 09.11.2020
5704 Clouds 19 1014 81 10000 4.9 145 07:38 09.11.2020
5705 Clouds 20 1014 81 10000 4.98 146 07:18 09.11.2020
5706 Clouds 20 1015 81 10000 5.15 145 05:54 09.11.2020
5707 Clouds 20 1014 79 10000 5.16 150 02:57 09.11.2020
5708 Clouds 20 1013 78 10000 5.15 152 01:41 09.11.2020
5709 Clouds 20 1013 78 10000 5.48 149 00:56 09.11.2020
5710 Clouds 20 1012 76 10000 5.47 153 23:50 08.11.2020
5711 Clouds 24 1011 64 10000 5.1 150 23:28 08.11.2020
5712 Clouds 24 1011 64 10000 5.1 150 22:43 08.11.2020
5713 Clouds 24 1011 64 10000 5.1 150 22:22 08.11.2020
5714 Clouds 25 1012 65 10000 5.1 150 21:49 08.11.2020
5715 Clouds 25 1012 65 10000 5.1 150 21:24 08.11.2020
5716 Clouds 24 1012 69 10000 4.1 180 20:57 08.11.2020
5717 Clouds 24 1012 69 10000 4.1 180 20:38 08.11.2020
5718 Clouds 25 1013 69 10000 4.6 180 20:20 08.11.2020
5719 Clouds 25 1013 69 10000 4.6 180 19:45 08.11.2020
5720 Clouds 25 1013 69 10000 4.6 180 19:45 08.11.2020
5721 Clouds 25 1013 69 10000 4.6 180 19:23 08.11.2020
5722 Clouds 25 1014 69 10000 4.1 190 18:58 08.11.2020
5723 Clouds 25 1014 69 10000 4.1 190 18:39 08.11.2020
5724 Clouds 24 1014 69 10000 3.6 180 18:20 08.11.2020
5725 Clouds 24 1014 69 10000 3.6 180 17:43 08.11.2020
5726 Clouds 23 1014 73 10000 2.1 180 17:21 08.11.2020
5727 Clouds 23 1014 73 10000 2.1 180 16:59 08.11.2020
5728 Clouds 23 1014 73 10000 2.1 180 16:38 08.11.2020
5729 Clouds 20 1017 77 10000 5.03 143 16:20 08.11.2020
5730 Clouds 20 1017 77 10000 5.03 143 15:46 08.11.2020
5731 Clouds 20 1016 77 10000 5.23 139 15:27 08.11.2020
5732 Clouds 20 1016 77 10000 5.23 139 14:43 08.11.2020
5733 Clouds 20 1015 78 10000 5.15 138 14:24 08.11.2020
5734 Clouds 20 1015 78 10000 5.15 138 13:56 08.11.2020
5735 Clouds 19 1014 79 10000 5.06 137 13:26 08.11.2020
5736 Clouds 19 1014 79 10000 5.06 137 12:55 08.11.2020
5737 Clouds 19 1014 79 10000 5.06 137 12:37 08.11.2020
5738 Clouds 19 1013 81 10000 5.49 138 12:18 08.11.2020
5739 Clouds 19 1013 81 10000 5.49 138 11:42 08.11.2020
5740 Clouds 19 1012 81 10000 5.7 138 11:24 08.11.2020
5741 Clouds 19 1012 81 10000 5.7 138 10:53 08.11.2020
5742 Clouds 19 1012 82 10000 5.74 139 10:21 08.11.2020
5743 Clouds 19 1012 82 10000 5.74 139 09:59 08.11.2020
5744 Clouds 19 1012 82 10000 5.74 139 09:41 08.11.2020
5745 Clouds 19 1012 81 10000 5.59 141 09:18 08.11.2020
5746 Clouds 19 1012 81 10000 5.59 141 08:42 08.11.2020
5747 Clouds 19 1012 82 10000 5.44 143 08:21 08.11.2020
5748 Clouds 19 1012 82 10000 5.44 143 08:21 08.11.2020
5749 Clouds 19 1012 82 10000 5.44 143 07:53 08.11.2020
5750 Clouds 19 1012 82 10000 5.44 143 07:30 08.11.2020
5751 Clear 19 1014 81 10000 5.51 144 06:26 08.11.2020
5752 Clear 19 1014 81 10000 5.51 144 05:53 08.11.2020
5753 Clear 19 1014 80 10000 5.44 147 04:50 08.11.2020
5754 Clear 20 1012 78 10000 5.39 152 01:54 08.11.2020
5755 Clear 20 1011 77 10000 5.54 153 01:19 08.11.2020
5756 Clear 20 1010 77 10000 5.67 157 00:30 08.11.2020
5757 Clear 20 1010 76 10000 5.79 159 23:50 07.11.2020
5758 Clouds 24 1009 64 10000 6.2 150 23:30 07.11.2020
5759 Clouds 24 1009 64 10000 6.2 150 22:47 07.11.2020
5760 Clouds 24 1009 64 10000 6.2 150 22:27 07.11.2020
5761 Clouds 24 1009 64 10000 4.1 170 21:56 07.11.2020
5762 Clouds 24 1009 64 10000 4.1 170 21:56 07.11.2020
5763 Clouds 24 1009 64 10000 4.1 170 21:37 07.11.2020
5764 Clouds 24 1011 60 10000 6.2 150 21:18 07.11.2020
5765 Clouds 24 1011 60 10000 6.2 150 20:42 07.11.2020
5766 Clouds 24 1011 60 10000 6.2 150 20:23 07.11.2020
5767 Clouds 24 1011 64 10000 5.7 150 19:44 07.11.2020
5768 Clouds 24 1011 64 10000 5.7 150 19:26 07.11.2020
5769 Clouds 24 1013 60 10000 5.7 180 18:40 07.11.2020
5770 Clouds 24 1013 60 10000 5.7 180 18:40 07.11.2020
5771 Clouds 24 1013 60 10000 3.1 150 18:22 07.11.2020
5772 Clouds 24 1013 60 10000 3.1 150 17:46 07.11.2020
5773 Clouds 24 1013 60 10000 3.1 150 17:27 07.11.2020
5774 Clouds 24 1013 60 10000 3.1 150 17:27 07.11.2020
5775 Clouds 23 1014 69 10000 4.1 170 16:45 07.11.2020
5776 Clouds 23 1014 69 10000 4.1 170 16:25 07.11.2020
5777 Clouds 20 1015 73 10000 4.59 136 15:51 07.11.2020
5778 Clouds 20 1015 75 10000 4.69 137 15:25 07.11.2020
5779 Clouds 20 1015 75 10000 4.69 137 14:59 07.11.2020
5780 Clouds 20 1015 75 10000 4.69 137 14:40 07.11.2020
5781 Clouds 20 1015 76 10000 4.66 138 14:20 07.11.2020
5782 Clouds 20 1015 76 10000 4.66 138 13:42 07.11.2020
5783 Clouds 19 1014 76 10000 4.56 141 13:22 07.11.2020
5784 Clouds 20 1014 76 10000 4.38 143 12:37 07.11.2020
5785 Clouds 20 1013 76 10000 4.33 144 11:47 07.11.2020
5786 Clouds 19 1012 77 10000 4.2 148 11:25 07.11.2020
5787 Clouds 19 1012 77 10000 4.2 148 10:59 07.11.2020
5788 Clouds 19 1012 77 10000 4.2 148 10:40 07.11.2020
5789 Clouds 19 1012 78 10000 4.37 156 10:22 07.11.2020
5790 Clouds 19 1012 78 10000 4.37 156 09:47 07.11.2020
5791 Clouds 19 1012 80 10000 4.65 160 09:21 07.11.2020
5792 Clouds 19 1012 80 10000 4.65 160 08:47 07.11.2020
5793 Clouds 19 1012 80 10000 4.64 166 08:28 07.11.2020
5794 Clouds 19 1012 80 10000 4.64 166 07:48 07.11.2020
5795 Clouds 19 1013 80 10000 4.65 170 06:48 07.11.2020
5796 Clear 20 1014 79 10000 4.65 177 05:40 07.11.2020
5797 Clear 20 1012 76 10000 4.55 186 03:25 07.11.2020
5798 Clear 20 1011 75 10000 4.6 187 02:28 07.11.2020
5799 Clouds 20 1011 75 10000 5.04 183 01:26 07.11.2020
5800 Clouds 20 1010 75 10000 5.31 178 00:29 07.11.2020
5801 Clouds 23 1008 73 10000 5.1 180 23:32 06.11.2020
5802 Clouds 23 1008 73 10000 5.1 180 22:46 06.11.2020
5803 Clouds 23 1009 73 10000 4.6 180 22:20 06.11.2020
5804 Clouds 23 1009 73 10000 4.6 180 21:59 06.11.2020
5805 Clouds 23 1009 73 10000 4.6 180 21:41 06.11.2020
5806 Clouds 24 1010 69 10000 6.7 150 21:19 06.11.2020
5807 Clouds 24 1010 69 10000 6.7 150 20:43 06.11.2020
5808 Clouds 24 1011 69 10000 5.1 170 20:20 06.11.2020
5809 Clouds 24 1011 69 10000 5.1 170 19:45 06.11.2020
5810 Clouds 24 1011 69 10000 5.1 170 19:27 06.11.2020
5811 Clouds 23 1012 73 10000 6.2 180 18:47 06.11.2020
5812 Clouds 23 1012 73 10000 6.2 180 18:28 06.11.2020
5813 Clouds 23 1012 69 10000 4.6 180 17:52 06.11.2020
5814 Clouds 23 1012 69 10000 4.6 180 17:34 06.11.2020
5815 Clouds 22 1012 78 10000 3.6 180 16:59 06.11.2020
5816 Clouds 22 1012 78 10000 3.6 180 16:37 06.11.2020
5817 Clouds 20 1015 77 10000 5.36 157 16:19 06.11.2020
5818 Clouds 20 1015 77 10000 5.36 157 15:34 06.11.2020
5819 Clouds 20 1015 77 10000 5.36 157 15:34 06.11.2020
5820 Clouds 20 1014 78 10000 4.94 152 14:55 06.11.2020
5821 Clouds 20 1014 78 10000 4.94 152 14:30 06.11.2020
5822 Clouds 19 1014 79 10000 4.84 154 13:56 06.11.2020
5823 Clouds 19 1013 80 10000 4.91 158 13:26 06.11.2020
5824 Clouds 19 1013 80 10000 4.91 158 12:59 06.11.2020
5825 Clouds 19 1013 79 10000 4.73 165 12:40 06.11.2020
5826 Clouds 19 1012 79 10000 4.93 168 12:21 06.11.2020
5827 Clouds 19 1012 79 10000 4.93 168 11:37 06.11.2020
5828 Clouds 19 1012 80 10000 4.83 168 10:58 06.11.2020
5829 Clouds 19 1012 80 10000 4.83 168 10:35 06.11.2020
5830 Clouds 19 1012 79 10000 4.82 169 09:57 06.11.2020
5831 Clouds 19 1012 79 10000 4.82 169 09:38 06.11.2020
5832 Clouds 19 1012 80 10000 4.95 167 09:20 06.11.2020
5833 Clouds 19 1012 80 10000 4.95 167 08:47 06.11.2020
5834 Clouds 19 1012 80 10000 5.04 166 08:27 06.11.2020
5835 Clouds 19 1012 80 10000 5.04 166 07:42 06.11.2020
5836 Clouds 20 1013 80 10000 5.16 169 07:19 06.11.2020
5837 Clouds 20 1013 80 10000 5.16 169 06:40 06.11.2020
5838 Clouds 20 1014 80 10000 5.68 177 05:38 06.11.2020
5839 Clouds 20 1012 78 10000 6.48 176 01:59 06.11.2020
5840 Clouds 20 1011 78 10000 6.93 182 00:29 06.11.2020
5841 Clouds 20 1011 78 10000 6.93 182 23:51 05.11.2020
5842 Clouds 23 1010 69 10000 5.1 180 23:24 05.11.2020
5843 Clouds 23 1010 69 10000 5.1 180 22:45 05.11.2020
5844 Clouds 24 1010 69 10000 4.1 160 22:26 05.11.2020
5845 Clouds 24 1010 69 10000 4.1 160 21:57 05.11.2020
5846 Clouds 24 1010 69 10000 4.1 160 21:38 05.11.2020
5847 Clouds 24 1011 69 10000 4.1 180 21:18 05.11.2020
5848 Clouds 24 1011 69 10000 4.1 180 20:43 05.11.2020
5849 Clouds 23 1012 73 10000 4.1 180 20:22 05.11.2020
5850 Clouds 23 1012 73 10000 4.1 180 19:44 05.11.2020
5851 Clouds 23 1012 73 10000 4.1 180 19:26 05.11.2020
5852 Clouds 23 1013 73 10000 5.1 170 18:56 05.11.2020
5853 Clouds 23 1013 73 10000 5.1 170 18:38 05.11.2020
5854 Clouds 20 1013 100 10000 4.1 180 18:20 05.11.2020
5855 Clouds 20 1013 100 10000 4.1 180 17:42 05.11.2020
5856 Clouds 22 1008 83 10000 2.6 180 17:23 05.11.2020
5857 Clouds 22 1008 83 10000 2.6 180 16:46 05.11.2020
5858 Clouds 22 1008 83 10000 2.6 180 16:26 05.11.2020
5859 Clouds 20 1016 80 10000 7.08 169 15:51 05.11.2020
5860 Clouds 20 1015 81 10000 6.93 171 15:27 05.11.2020
5861 Clouds 20 1015 81 10000 6.93 171 14:55 05.11.2020
5862 Clouds 20 1015 81 10000 6.93 171 14:36 05.11.2020
5863 Clouds 20 1015 81 10000 6.96 172 13:59 05.11.2020
5864 Clouds 20 1015 81 10000 6.96 172 13:39 05.11.2020
5865 Clouds 20 1014 81 10000 6.56 171 12:54 05.11.2020
5866 Clouds 20 1014 81 10000 6.56 171 12:30 05.11.2020
5867 Clouds 20 1014 81 10000 6.12 173 11:58 05.11.2020
5868 Clouds 20 1014 81 10000 6.12 173 11:39 05.11.2020
5869 Clouds 20 1013 81 10000 5.63 177 11:21 05.11.2020
5870 Clouds 20 1013 81 10000 5.63 177 10:47 05.11.2020
5871 Clouds 20 1013 81 10000 5.03 182 10:26 05.11.2020
5872 Clouds 20 1013 81 10000 5.03 182 09:48 05.11.2020
5873 Clouds 20 1013 81 10000 4.64 188 09:24 05.11.2020
5874 Clouds 20 1013 81 10000 4.64 188 09:24 05.11.2020
5875 Clouds 20 1013 81 10000 4.64 188 08:48 05.11.2020
5876 Clouds 20 1013 80 10000 4.57 189 08:29 05.11.2020
5877 Clouds 20 1013 80 10000 4.57 189 07:42 05.11.2020
5878 Clouds 20 1014 80 10000 4.53 184 07:23 05.11.2020
5879 Clouds 20 1014 80 10000 4.53 184 06:42 05.11.2020
5880 Clouds 20 1014 79 10000 4.8 185 06:42 05.11.2020
5881 Clouds 20 1015 79 10000 5.01 181 05:54 05.11.2020
5882 Clouds 20 1013 80 10000 5.95 186 01:39 05.11.2020
5883 Clouds 20 1012 80 10000 6.02 194 00:34 05.11.2020
5884 Clouds 20 1012 80 10000 6.55 198 23:46 04.11.2020
5885 Clouds 23 1010 69 10000 5.1 180 23:26 04.11.2020
5886 Clouds 23 1010 69 10000 5.1 180 22:54 04.11.2020
5887 Clouds 23 1010 69 10000 5.1 180 22:54 04.11.2020
5888 Clouds 23 1010 69 10000 5.1 180 22:36 04.11.2020
5889 Clouds 23 1011 73 10000 4.1 180 22:18 04.11.2020
5890 Clouds 23 1011 73 10000 4.1 180 21:42 04.11.2020
5891 Clouds 23 1011 73 10000 4.1 180 21:24 04.11.2020
5892 Clouds 24 1012 73 10000 4.1 180 20:45 04.11.2020
5893 Clouds 24 1012 73 10000 4.1 180 20:27 04.11.2020
5894 Clouds 24 1012 73 10000 5.1 180 19:50 04.11.2020
5895 Clouds 24 1012 73 10000 5.1 180 19:30 04.11.2020
5896 Clouds 24 1013 73 10000 4.6 180 18:56 04.11.2020
5897 Clouds 24 1013 73 10000 4.6 180 18:38 04.11.2020
5898 Clouds 23 1013 78 10000 3.6 180 18:20 04.11.2020
5899 Clouds 23 1013 78 10000 3.6 180 17:41 04.11.2020
5900 Clouds 23 1013 78 10000 3.6 180 17:41 04.11.2020
5901 Clouds 22 1013 88 10000 4.1 190 17:23 04.11.2020
5902 Clouds 22 1013 88 10000 4.1 190 16:42 04.11.2020
5903 Clouds 21 1016 78 10000 6.69 181 16:24 04.11.2020
5904 Clouds 21 1016 78 10000 6.69 181 15:49 04.11.2020
5905 Clouds 21 1015 78 10000 6.44 181 15:26 04.11.2020
5906 Clouds 21 1015 78 10000 6.44 181 14:59 04.11.2020
5907 Clouds 21 1015 78 10000 6.44 181 14:41 04.11.2020
5908 Clouds 21 1015 79 10000 6.2 184 14:21 04.11.2020
5909 Clouds 21 1015 79 10000 6.2 184 13:47 04.11.2020
5910 Clouds 20 1014 80 10000 6.13 187 13:20 04.11.2020
5911 Clouds 20 1014 79 10000 5.81 185 12:54 04.11.2020
5912 Clouds 20 1014 79 10000 5.81 185 12:36 04.11.2020
5913 Clouds 20 1014 79 10000 5.6 186 11:59 04.11.2020
5914 Clouds 20 1014 79 10000 5.6 186 11:40 04.11.2020
5915 Clouds 20 1013 79 10000 5.1 189 11:20 04.11.2020
5916 Clouds 20 1013 79 10000 5.1 189 10:46 04.11.2020
5917 Clouds 21 1013 78 10000 4.65 192 10:22 04.11.2020
5918 Clouds 21 1013 78 10000 4.65 192 09:53 04.11.2020
5919 Clouds 21 1013 78 10000 4.56 193 09:23 04.11.2020
5920 Clouds 21 1013 78 10000 4.56 193 08:46 04.11.2020
5921 Clouds 21 1013 79 10000 4.57 194 08:20 04.11.2020
5922 Clouds 21 1013 79 10000 4.57 194 07:50 04.11.2020
5923 Clouds 21 1014 79 10000 4.45 193 07:27 04.11.2020
5924 Clouds 21 1014 79 10000 4.68 192 06:45 04.11.2020
5925 Clouds 21 1015 79 10000 5.1 188 06:26 04.11.2020
5926 Clouds 21 1014 80 10000 5.39 182 02:33 04.11.2020
5927 Clouds 21 1013 80 10000 5.33 182 01:49 04.11.2020
5928 Clouds 21 1012 82 10000 5.54 183 00:43 04.11.2020
5929 Clouds 21 1012 82 10000 5.44 184 23:40 03.11.2020
5930 Clouds 22 1010 88 10000 5.1 180 23:20 03.11.2020
5931 Clouds 22 1010 88 10000 5.1 180 22:41 03.11.2020
5932 Clouds 24 1011 78 10000 3.1 180 22:20 03.11.2020
5933 Clouds 24 1011 78 10000 3.1 180 21:56 03.11.2020
5934 Clouds 24 1011 78 10000 3.1 180 21:37 03.11.2020
5935 Clouds 24 1012 78 10000 4.1 160 21:19 03.11.2020
5936 Clouds 24 1012 78 10000 4.1 160 20:42 03.11.2020
5937 Clouds 24 1012 78 10000 2.6 180 20:22 03.11.2020
5938 Clouds 24 1012 78 10000 2.6 180 19:43 03.11.2020
5939 Clouds 24 1013 78 10000 3.1 190 19:20 03.11.2020
5940 Clouds 24 1013 78 10000 3.1 190 18:44 03.11.2020
5941 Clouds 23 1014 83 10000 4.1 190 18:20 03.11.2020
5942 Clouds 23 1014 83 10000 4.1 190 17:55 03.11.2020
5943 Clouds 23 1014 83 10000 4.1 190 17:37 03.11.2020
5944 Clouds 23 1014 83 10000 4.1 190 17:37 03.11.2020
5945 Clouds 21 1010 94 10000 3.1 180 16:56 03.11.2020
5946 Clouds 21 1010 94 10000 3.1 180 16:36 03.11.2020
5947 Clouds 21 1015 87 10000 6.61 173 16:18 03.11.2020
5948 Clouds 21 1015 87 10000 6.61 173 15:41 03.11.2020
5949 Clouds 21 1015 88 10000 6.51 172 15:22 03.11.2020
5950 Clouds 21 1015 88 10000 6.51 172 14:46 03.11.2020
5951 Clear 21 1014 87 10000 6.04 175 14:27 03.11.2020
5952 Clear 21 1014 87 10000 6.04 175 14:27 03.11.2020
5953 Clear 21 1014 87 10000 6.04 175 13:43 03.11.2020
5954 Clouds 21 1014 86 10000 5.76 181 13:23 03.11.2020
5955 Clouds 21 1014 85 10000 5.67 180 12:48 03.11.2020
5956 Clouds 21 1013 85 10000 5.61 182 12:27 03.11.2020
5957 Clouds 21 1013 85 10000 5.61 182 11:57 03.11.2020
5958 Clouds 21 1013 85 10000 5.61 182 11:39 03.11.2020
5959 Clouds 21 1013 86 10000 5.33 182 11:18 03.11.2020
5960 Clouds 21 1013 86 10000 5.33 182 10:39 03.11.2020
5961 Clouds 21 1013 86 10000 5.06 181 10:19 03.11.2020
5962 Clouds 21 1013 86 10000 5.06 181 09:48 03.11.2020
5963 Clouds 21 1013 86 10000 4.96 181 09:27 03.11.2020
5964 Clouds 21 1013 86 10000 4.96 181 08:52 03.11.2020
5965 Clouds 21 1013 86 10000 4.96 181 08:34 03.11.2020
5966 Clouds 21 1013 87 10000 4.93 183 07:49 03.11.2020
5967 Clouds 21 1014 87 10000 5.02 183 07:22 03.11.2020
5968 Clouds 21 1014 87 10000 4.94 186 06:44 03.11.2020
5969 Clouds 21 1016 87 10000 4.77 177 04:54 03.11.2020
5970 Clouds 21 1012 85 10000 5.43 182 00:53 03.11.2020
5971 Clouds 21 1012 85 10000 5.43 182 00:30 03.11.2020
5972 Clouds 21 1012 85 10000 5.4 183 23:47 02.11.2020
5973 Clouds 23 1009 83 10000 3.6 150 23:28 02.11.2020
5974 Clouds 23 1009 83 10000 3.6 150 22:48 02.11.2020
5975 Clouds 23 1009 83 10000 3.6 150 22:30 02.11.2020
5976 Clouds 23 1011 88 10000 3.1 180 21:58 02.11.2020
5977 Clouds 23 1011 88 10000 3.1 180 21:58 02.11.2020
5978 Clouds 23 1011 88 10000 3.1 180 21:37 02.11.2020
5979 Clouds 24 1011 83 10000 3.6 210 21:19 02.11.2020
5980 Clouds 24 1011 83 10000 3.6 210 20:39 02.11.2020
5981 Clouds 24 1012 78 10000 2.6 180 20:19 02.11.2020
5982 Clouds 24 1012 78 10000 2.6 180 19:44 02.11.2020
5983 Clouds 24 1012 78 10000 2.6 180 19:26 02.11.2020
5984 Clouds 24 1013 78 10000 5.1 180 18:55 02.11.2020
5985 Clouds 24 1013 78 10000 5.1 180 18:36 02.11.2020
5986 Clouds 23 1013 83 10000 5.1 170 18:18 02.11.2020
5987 Clouds 23 1013 83 10000 5.1 170 17:40 02.11.2020
5988 Clouds 21 1014 94 10000 1.5 180 17:21 02.11.2020
5989 Clouds 21 1014 94 10000 1.5 180 16:48 02.11.2020
5990 Clouds 21 1016 86 10000 5.04 176 16:24 02.11.2020
5991 Clouds 21 1016 86 10000 5.04 176 15:50 02.11.2020
5992 Clouds 21 1015 87 10000 5.31 183 15:25 02.11.2020
5993 Clouds 21 1015 87 10000 5.31 183 14:59 02.11.2020
5994 Clouds 21 1015 87 10000 5.31 183 14:40 02.11.2020
5995 Clouds 21 1014 88 10000 5.17 176 14:18 02.11.2020
5996 Clouds 21 1014 88 10000 5.17 176 13:44 02.11.2020
5997 Clouds 21 1013 89 10000 5.42 178 13:21 02.11.2020
5998 Clouds 20 1014 89 10000 5.44 182 12:42 02.11.2020
5999 Clouds 20 1013 90 10000 5.21 178 12:21 02.11.2020
6000 Clouds 20 1013 90 10000 5.21 178 11:45 02.11.2020
6001 Clouds 20 1012 90 10000 5.43 181 11:20 02.11.2020
6002 Clouds 20 1012 90 10000 5.43 181 10:44 02.11.2020
6003 Clouds 21 1013 90 10000 5.42 180 10:22 02.11.2020
6004 Clouds 21 1013 90 10000 5.42 180 09:55 02.11.2020
6005 Clouds 21 1013 89 10000 5.24 176 09:25 02.11.2020
6006 Clouds 21 1013 89 10000 5.24 176 08:46 02.11.2020
6007 Clouds 21 1013 89 10000 5.1 174 08:27 02.11.2020
6008 Clouds 21 1013 89 10000 5.1 174 07:53 02.11.2020
6009 Clouds 21 1014 89 10000 4.65 174 07:25 02.11.2020
6010 Clouds 21 1014 89 10000 4.88 174 06:36 02.11.2020
6011 Clouds 21 1015 88 10000 3.4 179 03:55 02.11.2020
6012 Clouds 21 1013 88 10000 4.47 172 01:25 02.11.2020
6013 Clouds 21 1013 88 10000 4.47 172 01:25 02.11.2020
6014 Clouds 21 1013 87 10000 4.5 181 00:36 02.11.2020
6015 Clouds 21 1012 87 10000 4.97 179 23:44 01.11.2020
6016 Clouds 23 1011 83 10000 2.6 180 23:25 01.11.2020
6017 Clouds 23 1011 83 10000 2.6 180 22:47 01.11.2020
6018 Clouds 23 1011 83 10000 2.6 180 22:27 01.11.2020
6019 Clouds 24 1011 78 10000 4.6 180 21:59 01.11.2020
6020 Clouds 24 1011 78 10000 4.6 180 21:39 01.11.2020
6021 Clouds 24 1012 78 10000 3.6 180 21:21 01.11.2020
6022 Clouds 24 1012 78 10000 3.6 180 20:43 01.11.2020
6023 Clouds 24 1012 78 10000 3.6 180 20:43 01.11.2020
6024 Clouds 24 1012 78 10000 3.6 180 20:24 01.11.2020
6025 Clouds 23 1013 83 10000 4.1 180 19:44 01.11.2020
6026 Clouds 23 1013 83 10000 4.1 180 19:26 01.11.2020
6027 Clouds 24 1014 78 10000 4.6 140 18:54 01.11.2020
6028 Clouds 24 1014 78 10000 4.6 140 18:36 01.11.2020
6029 Clouds 23 1014 83 10000 3.1 180 18:18 01.11.2020
6030 Clouds 23 1014 83 10000 3.1 180 18:18 01.11.2020
6031 Clouds 23 1014 83 10000 3.1 180 17:42 01.11.2020
6032 Clouds 21 1014 88 10000 5.1 180 17:22 01.11.2020
6033 Clouds 21 1014 88 10000 5.1 180 16:41 01.11.2020
6034 Clouds 21 1016 87 10000 5.27 177 16:21 01.11.2020
6035 Clouds 21 1016 87 10000 5.27 177 15:54 01.11.2020
6036 Clouds 21 1016 87 10000 5.27 177 15:36 01.11.2020
6037 Clouds 21 1016 88 10000 5.27 175 15:18 01.11.2020
6038 Clouds 21 1016 88 10000 5.27 175 14:43 01.11.2020
6039 Clouds 21 1015 89 10000 5.35 174 14:21 01.11.2020
6040 Clouds 21 1015 89 10000 5.35 174 13:48 01.11.2020
6041 Clouds 21 1015 89 10000 5.35 174 13:30 01.11.2020
6042 Clouds 21 1014 89 10000 5.46 173 12:44 01.11.2020
6043 Clouds 21 1014 90 10000 4.4 173 12:24 01.11.2020
6044 Clouds 21 1014 90 10000 4.4 173 11:52 01.11.2020
6045 Clouds 21 1013 90 10000 4.34 174 11:19 01.11.2020
6046 Clouds 21 1013 90 10000 4.34 174 10:55 01.11.2020
6047 Clouds 21 1013 90 10000 4.34 174 10:37 01.11.2020
6048 Clouds 21 1013 90 10000 4.32 175 10:19 01.11.2020
6049 Clouds 21 1013 90 10000 4.32 175 09:43 01.11.2020
6050 Clouds 21 1014 89 10000 4.48 175 08:47 01.11.2020
6051 Clouds 21 1014 89 10000 4.49 170 08:24 01.11.2020
6052 Clouds 21 1014 89 10000 4.49 170 07:43 01.11.2020
6053 Clouds 21 1016 89 10000 4.25 172 04:31 01.11.2020
6054 Clouds 21 1014 88 10000 4.52 170 01:51 01.11.2020
6055 Clouds 21 1013 88 10000 4.55 172 00:43 01.11.2020
6056 Clouds 24 1012 78 10000 2.6 180 23:26 31.10.2020
6057 Clouds 24 1012 78 10000 2.6 180 22:58 31.10.2020
6058 Clouds 24 1012 78 10000 2.6 180 22:39 31.10.2020
6059 Clouds 25 1012 73 10000 3.1 190 22:20 31.10.2020
6060 Clouds 25 1012 73 10000 3.1 190 21:44 31.10.2020
6061 Clouds 25 1013 73 10000 5.1 150 21:19 31.10.2020
6062 Clouds 25 1013 73 10000 5.1 150 20:38 31.10.2020
6063 Clouds 25 1013 73 10000 5.7 180 20:18 31.10.2020
6064 Clouds 25 1013 73 10000 5.7 180 19:41 31.10.2020
6065 Clouds 25 1013 73 10000 5.7 180 19:22 31.10.2020
6066 Clouds 23 1014 83 10000 4.6 160 18:47 31.10.2020
6067 Clouds 23 1014 83 10000 4.6 160 18:24 31.10.2020
6068 Clouds 23 1014 83 10000 5.1 180 17:40 31.10.2020
6069 Clouds 23 1014 83 10000 3.6 180 17:22 31.10.2020
6070 Clouds 23 1014 83 10000 3.6 180 16:44 31.10.2020
6071 Clouds 23 1014 83 10000 3.6 180 16:26 31.10.2020
6072 Clouds 21 1016 89 10000 5.89 171 15:45 31.10.2020
6073 Clouds 21 1016 89 10000 5.78 171 15:25 31.10.2020
6074 Clouds 21 1016 89 10000 5.78 171 14:52 31.10.2020
6075 Clouds 21 1016 89 10000 5.78 171 14:31 31.10.2020
6076 Clouds 21 1015 90 10000 5.58 170 13:50 31.10.2020
6077 Clouds 21 1014 90 10000 5.79 172 13:27 31.10.2020
6078 Clouds 21 1014 90 10000 5.6 173 12:43 31.10.2020
6079 Clouds 21 1013 91 10000 5.42 169 12:18 31.10.2020
6080 Clouds 21 1013 91 10000 5.42 169 11:39 31.10.2020
6081 Clouds 21 1013 91 10000 5 171 11:20 31.10.2020
6082 Clouds 21 1013 91 10000 5 171 10:37 31.10.2020
6083 Clouds 21 1013 90 10000 4.67 177 09:48 31.10.2020
6084 Clouds 21 1013 90 10000 4.66 173 09:29 31.10.2020
6085 Clouds 21 1013 90 10000 4.66 173 08:57 31.10.2020
6086 Clouds 21 1013 90 10000 4.7 171 08:20 31.10.2020
6087 Clouds 21 1013 90 10000 4.7 171 08:20 31.10.2020
6088 Clouds 21 1014 90 10000 4.74 169 07:28 31.10.2020
6089 Clouds 21 1014 90 10000 4.78 166 06:47 31.10.2020
6090 Clouds 21 1015 90 10000 4.57 167 06:29 31.10.2020
6091 Clouds 21 1015 90 10000 4.61 163 03:47 31.10.2020
6092 Clouds 21 1013 90 10000 4.99 167 02:20 31.10.2020
6093 Clouds 21 1012 89 10000 5.2 177 00:49 31.10.2020
6094 Clouds 21 1011 89 10000 4.96 183 23:53 30.10.2020
6095 Clouds 24 1010 83 10000 5.1 170 23:28 30.10.2020
6096 Clouds 24 1010 83 10000 5.1 170 22:56 30.10.2020
6097 Clouds 24 1010 83 10000 5.1 170 22:37 30.10.2020
6098 Clouds 21 1011 88 10000 4.57 190 22:18 30.10.2020
6099 Clouds 21 1011 88 10000 4.57 190 21:41 30.10.2020
6100 Clouds 24 1010 88 10000 4.1 180 21:22 30.10.2020
6101 Clouds 24 1010 88 10000 4.1 180 20:43 30.10.2020
6102 Clouds 24 1010 88 10000 4.1 180 20:24 30.10.2020
6103 Clouds 25 1012 73 10000 5.7 150 19:53 30.10.2020
6104 Clouds 25 1012 73 10000 5.7 150 19:21 30.10.2020
6105 Clouds 24 1012 78 10000 5.1 170 18:52 30.10.2020
6106 Clouds 24 1012 78 10000 5.1 170 18:33 30.10.2020
6107 Clouds 23 1013 83 10000 4.6 180 17:56 30.10.2020
6108 Clouds 23 1013 83 10000 4.6 180 17:36 30.10.2020
6109 Clouds 22 1014 88 10000 4.1 180 17:18 30.10.2020
6110 Clouds 22 1014 88 10000 4.1 180 16:49 30.10.2020
6111 Clouds 21 1016 89 10000 5.6 177 16:19 30.10.2020
6112 Clouds 21 1016 89 10000 5.6 177 15:41 30.10.2020
6113 Clouds 21 1015 90 10000 5.64 173 15:20 30.10.2020
6114 Clouds 21 1015 90 10000 5.64 173 14:45 30.10.2020
6115 Clouds 21 1014 90 10000 5.54 175 14:26 30.10.2020
6116 Clouds 21 1014 90 10000 5.54 175 13:47 30.10.2020
6117 Clouds 21 1013 89 10000 5.38 177 13:23 30.10.2020
6118 Clouds 21 1014 89 10000 5.15 175 12:58 30.10.2020
6119 Clouds 21 1013 89 10000 5.05 174 12:23 30.10.2020
6120 Clouds 21 1013 89 10000 5.05 174 11:57 30.10.2020
6121 Clouds 21 1013 89 10000 5.05 174 11:57 30.10.2020
6122 Clouds 21 1013 89 10000 5.05 174 11:57 30.10.2020
6123 Clouds 21 1013 89 10000 5.05 174 11:38 30.10.2020
6124 Clouds 21 1012 89 10000 4.81 171 11:18 30.10.2020
6125 Clouds 21 1012 89 10000 4.81 171 10:40 30.10.2020
6126 Clouds 21 1012 89 10000 4.78 173 10:21 30.10.2020
6127 Clouds 21 1012 89 10000 4.78 173 09:43 30.10.2020
6128 Clouds 21 1012 90 10000 4.99 176 09:22 30.10.2020
6129 Clouds 21 1012 90 10000 4.99 176 08:39 30.10.2020
6130 Clouds 21 1013 90 10000 4.57 176 08:21 30.10.2020
6131 Clouds 21 1013 90 10000 4.57 176 07:47 30.10.2020
6132 Clouds 21 1014 90 10000 4.25 178 07:27 30.10.2020
6133 Clouds 21 1014 90 10000 4.25 178 06:34 30.10.2020
6134 Clouds 21 1014 90 10000 4.28 174 04:28 30.10.2020
6135 Clouds 21 1013 90 10000 5 172 01:43 30.10.2020
6136 Clouds 22 1009 88 10000 5.1 150 00:38 30.10.2020
6137 Clouds 23 1009 83 10000 3.1 180 23:48 29.10.2020
6138 Clouds 23 1009 83 10000 3.1 180 23:30 29.10.2020
6139 Clouds 23 1009 83 10000 4.6 150 22:49 29.10.2020
6140 Clouds 23 1009 83 10000 4.6 150 22:27 29.10.2020
6141 Clouds 23 1010 83 10000 4.1 180 21:51 29.10.2020
6142 Clouds 23 1010 83 10000 4.1 180 21:26 29.10.2020
6143 Clouds 24 1011 78 10000 3.6 180 20:59 29.10.2020
6144 Clouds 24 1011 78 10000 3.6 180 20:39 29.10.2020
6145 Clouds 24 1011 78 10000 4.1 180 20:18 29.10.2020
6146 Clouds 24 1011 78 10000 4.1 180 19:39 29.10.2020
6147 Clouds 24 1011 78 10000 4.1 180 19:21 29.10.2020
6148 Clouds 24 1012 78 10000 3.1 150 18:46 29.10.2020
6149 Clouds 24 1012 78 10000 3.1 150 18:26 29.10.2020
6150 Clouds 22 1012 88 10000 3.6 160 17:43 29.10.2020
6151 Clouds 22 1012 88 10000 3.6 160 17:24 29.10.2020
6152 Clouds 22 1012 88 10000 3.6 160 16:55 29.10.2020
6153 Clouds 22 1012 88 10000 3.6 160 16:37 29.10.2020
6154 Clouds 21 1015 89 10000 6.32 169 16:18 29.10.2020
6155 Clouds 21 1015 89 10000 6.32 169 15:41 29.10.2020
6156 Clouds 21 1014 90 10000 6.65 171 15:22 29.10.2020
6157 Clouds 21 1014 90 10000 6.65 171 14:59 29.10.2020
6158 Clouds 21 1014 90 10000 6.65 171 14:40 29.10.2020
6159 Clouds 21 1014 90 10000 6.76 173 14:18 29.10.2020
6160 Clouds 21 1014 90 10000 6.76 173 13:41 29.10.2020
6161 Clouds 21 1013 91 10000 6.83 174 13:22 29.10.2020
6162 Clouds 20 1013 92 10000 6.47 178 12:42 29.10.2020
6163 Clouds 20 1012 92 10000 6.53 178 12:19 29.10.2020
6164 Clouds 20 1012 92 10000 6.53 178 11:48 29.10.2020
6165 Clouds 20 1012 92 10000 6.18 179 11:26 29.10.2020
6166 Clouds 20 1012 92 10000 6.18 179 10:38 29.10.2020
6167 Clouds 20 1011 92 10000 5.92 182 10:20 29.10.2020
6168 Clouds 20 1011 92 10000 5.92 182 09:53 29.10.2020
6169 Clouds 20 1012 92 10000 5.57 183 09:28 29.10.2020
6170 Clouds 20 1012 92 10000 5.57 183 08:58 29.10.2020
6171 Clouds 20 1012 92 10000 5.57 183 08:38 29.10.2020
6172 Clouds 20 1012 92 10000 5.31 183 07:58 29.10.2020
6173 Clouds 20 1012 92 10000 5.31 183 07:39 29.10.2020
6174 Clouds 20 1013 91 10000 4.66 180 06:57 29.10.2020
6175 Clouds 20 1014 91 10000 4.31 174 05:35 29.10.2020
6176 Clouds 20 1015 90 10000 4.29 169 04:45 29.10.2020
6177 Clouds 21 1012 87 10000 4.89 183 01:24 29.10.2020
6178 Clouds 21 1012 89 10000 5 185 00:31 29.10.2020
6179 Clouds 21 1011 89 10000 5.17 191 23:48 28.10.2020
6180 Clouds 21 1011 88 10000 5.51 198 23:22 28.10.2020
6181 Clouds 21 1011 88 10000 5.51 198 22:45 28.10.2020
6182 Clouds 24 1010 78 10000 2.6 180 22:26 28.10.2020
6183 Clouds 24 1010 78 10000 2.6 180 21:58 28.10.2020
6184 Clouds 24 1010 78 10000 2.6 180 21:40 28.10.2020
6185 Clouds 24 1011 78 10000 1.5 170 21:19 28.10.2020
6186 Clouds 24 1011 78 10000 1.5 170 20:41 28.10.2020
6187 Clouds 22 1012 88 10000 2.1 170 20:22 28.10.2020
6188 Clouds 22 1012 88 10000 2.1 170 19:50 28.10.2020
6189 Clouds 22 1012 88 10000 2.1 170 19:28 28.10.2020
6190 Clouds 23 1013 78 10000 2.6 190 18:48 28.10.2020
6191 Clouds 23 1014 83 10000 3.1 180 18:21 28.10.2020
6192 Clouds 23 1014 83 10000 3.1 180 17:45 28.10.2020
6193 Clouds 21 1014 88 10000 3.1 180 17:25 28.10.2020
6194 Clouds 21 1014 88 10000 3.1 180 16:57 28.10.2020
6195 Clouds 21 1014 88 10000 3.1 180 16:38 28.10.2020
6196 Clouds 21 1016 87 10000 4.58 184 16:20 28.10.2020
6197 Rain 20 1014 94 4000 2.6 140 15:37 28.10.2020
6198 Clouds 21 1015 87 10000 4.34 184 15:18 28.10.2020
6199 Clouds 21 1015 87 10000 4.34 184 14:42 28.10.2020
6200 Clouds 20 1014 88 10000 4.19 183 14:22 28.10.2020
6201 Clouds 20 1013 87 10000 3.75 179 12:42 28.10.2020
6202 Clouds 20 1013 87 10000 3.63 179 12:22 28.10.2020
6203 Clouds 20 1013 87 10000 3.63 179 11:56 28.10.2020
6204 Clouds 20 1013 87 10000 3.63 179 11:36 28.10.2020
6205 Clouds 20 1012 88 10000 3.83 177 11:18 28.10.2020
6206 Clouds 20 1012 88 10000 3.83 177 10:44 28.10.2020
6207 Clouds 20 1012 88 10000 3.84 176 10:26 28.10.2020
6208 Clouds 20 1012 88 10000 3.84 176 09:43 28.10.2020
6209 Clouds 20 1012 88 10000 4 174 09:23 28.10.2020
6210 Clouds 20 1012 88 10000 4 174 08:50 28.10.2020
6211 Clouds 20 1013 87 10000 4.19 176 08:29 28.10.2020
6212 Clouds 20 1013 87 10000 4.19 176 07:52 28.10.2020
6213 Clouds 20 1013 87 10000 4.19 176 07:31 28.10.2020
6214 Clouds 20 1014 87 10000 4.28 180 06:42 28.10.2020
6215 Clouds 20 1015 87 10000 4.04 175 06:23 28.10.2020
6216 Clouds 20 1015 86 10000 4.19 169 05:22 28.10.2020
6217 Clouds 20 1014 86 10000 4.19 165 04:28 28.10.2020
6218 Clouds 20 1012 86 10000 4.42 156 02:26 28.10.2020
6219 Clouds 20 1012 86 10000 4.42 156 01:52 28.10.2020
6220 Clouds 20 1011 85 10000 4.67 155 00:29 28.10.2020
6221 Clouds 20 1011 85 10000 4.67 155 23:45 27.10.2020
6222 Clouds 22 1009 83 10000 5.7 160 23:21 27.10.2020
6223 Clouds 22 1009 83 10000 5.7 160 22:44 27.10.2020
6224 Clouds 23 1010 78 10000 4.1 180 22:19 27.10.2020
6225 Clouds 23 1010 78 10000 4.1 180 22:19 27.10.2020
6226 Clouds 23 1010 78 10000 4.1 180 21:56 27.10.2020
6227 Clouds 23 1010 78 10000 4.1 180 21:37 27.10.2020
6228 Clouds 23 1010 78 10000 4.1 180 21:37 27.10.2020
6229 Clouds 23 1010 78 10000 4.1 180 21:37 27.10.2020
6230 Clouds 23 1011 78 10000 3.6 170 21:19 27.10.2020
6231 Clouds 23 1011 78 10000 3.6 170 20:45 27.10.2020
6232 Clouds 23 1011 78 10000 3.6 170 20:23 27.10.2020
6233 Clouds 23 1012 78 10000 4.6 180 19:40 27.10.2020
6234 Clouds 23 1012 78 10000 4.6 180 19:21 27.10.2020
6235 Rain 22 1013 83 8000 2.6 170 18:59 27.10.2020
6236 Rain 22 1013 83 8000 2.6 170 18:40 27.10.2020
6237 Clouds 23 1013 78 10000 3.1 180 18:20 27.10.2020
6238 Clouds 23 1013 78 10000 3.1 180 17:44 27.10.2020
6239 Clouds 22 1013 83 10000 3.1 170 17:22 27.10.2020
6240 Clouds 22 1013 83 10000 3.1 170 16:57 27.10.2020
6241 Clouds 22 1013 83 10000 3.1 170 16:39 27.10.2020
6242 Clouds 20 1016 85 10000 4.91 180 16:20 27.10.2020
6243 Clouds 20 1016 85 10000 4.91 180 15:40 27.10.2020
6244 Clouds 20 1015 85 10000 4.79 182 15:21 27.10.2020
6245 Clouds 20 1015 85 10000 4.79 182 14:48 27.10.2020
6246 Clouds 20 1014 84 10000 4.31 176 14:29 27.10.2020
6247 Clouds 20 1014 84 10000 4.31 176 13:54 27.10.2020
6248 Clouds 20 1013 84 10000 4.22 175 13:24 27.10.2020
6249 Clouds 20 1013 85 10000 4.21 176 12:42 27.10.2020
6250 Clouds 20 1013 85 10000 4.38 182 12:24 27.10.2020
6251 Clouds 20 1013 85 10000 4.38 182 11:44 27.10.2020
6252 Clouds 20 1012 86 10000 4.89 186 11:26 27.10.2020
6253 Clouds 20 1012 86 10000 4.89 186 10:51 27.10.2020
6254 Clouds 20 1012 86 10000 4.89 186 10:33 27.10.2020
6255 Clouds 20 1012 86 10000 5.04 185 09:47 27.10.2020
6256 Clouds 20 1012 86 10000 4.87 180 09:27 27.10.2020
6257 Clouds 20 1012 86 10000 4.87 180 08:49 27.10.2020
6258 Clouds 20 1012 86 10000 4.64 175 08:26 27.10.2020
6259 Clouds 20 1012 86 10000 4.64 175 07:47 27.10.2020
6260 Clouds 20 1013 85 10000 4.55 174 07:29 27.10.2020
6261 Clouds 20 1013 85 10000 4.55 174 06:39 27.10.2020
6262 Clouds 20 1014 84 10000 4.35 165 06:19 27.10.2020
6263 Clouds 20 1014 84 10000 4.35 165 05:44 27.10.2020
6264 Clouds 20 1015 83 10000 4.22 164 04:57 27.10.2020
6265 Clouds 20 1013 81 10000 3.52 163 02:35 27.10.2020
6266 Clouds 20 1011 82 10000 4.6 173 00:59 27.10.2020
6267 Clouds 20 1011 81 10000 4.76 178 23:53 26.10.2020
6268 Clouds 20 1011 81 10000 4.76 178 23:32 26.10.2020
6269 Clouds 20 1011 80 10000 4.57 181 22:52 26.10.2020
6270 Clouds 24 1010 69 10000 4.6 160 22:28 26.10.2020
6271 Clouds 24 1010 69 10000 4.6 160 21:51 26.10.2020
6272 Clouds 24 1011 69 10000 4.1 180 21:21 26.10.2020
6273 Clouds 24 1011 69 10000 4.1 180 20:58 26.10.2020
6274 Clouds 24 1011 69 10000 4.1 180 20:40 26.10.2020
6275 Clouds 24 1012 69 10000 4.1 180 20:22 26.10.2020
6276 Clouds 24 1012 69 10000 4.1 180 19:48 26.10.2020
6277 Clouds 24 1012 69 10000 4.1 180 19:26 26.10.2020
6278 Clouds 23 1012 78 10000 3.1 180 18:46 26.10.2020
6279 Clouds 23 1012 78 10000 3.1 180 18:25 26.10.2020
6280 Clouds 22 1013 83 10000 4.1 190 17:59 26.10.2020
6281 Clouds 22 1013 83 10000 4.1 190 17:39 26.10.2020
6282 Clouds 22 1013 83 10000 2.6 180 17:21 26.10.2020
6283 Clouds 22 1013 83 10000 2.6 180 16:43 26.10.2020
6284 Clouds 20 1015 77 10000 4.32 164 16:21 26.10.2020
6285 Clouds 20 1015 77 10000 4.32 164 15:43 26.10.2020
6286 Clouds 20 1015 78 10000 4.23 159 15:25 26.10.2020
6287 Clouds 20 1015 78 10000 4.23 159 14:53 26.10.2020
6288 Clouds 20 1015 78 10000 4.23 159 14:34 26.10.2020
6289 Clouds 20 1014 78 10000 4.44 160 13:46 26.10.2020
6290 Clouds 20 1014 79 10000 4.6 165 13:25 26.10.2020
6291 Clouds 20 1014 79 10000 4.6 165 12:55 26.10.2020
6292 Clouds 20 1014 79 10000 4.46 165 12:32 26.10.2020
6293 Clouds 20 1013 79 10000 4.4 172 11:57 26.10.2020
6294 Clouds 20 1013 79 10000 4.4 172 11:39 26.10.2020
6295 Clouds 20 1012 80 10000 4.66 180 11:21 26.10.2020
6296 Clouds 20 1012 80 10000 4.66 180 10:48 26.10.2020
6297 Clouds 20 1012 81 10000 4.79 182 10:26 26.10.2020
6298 Clouds 20 1012 81 10000 4.79 182 09:55 26.10.2020
6299 Clouds 20 1012 81 10000 4.95 181 09:29 26.10.2020
6300 Clouds 20 1012 81 10000 4.95 181 08:54 26.10.2020
6301 Clouds 20 1013 82 10000 4.81 181 08:23 26.10.2020
6302 Clouds 20 1013 82 10000 4.81 181 07:38 26.10.2020
6303 Clouds 20 1014 81 10000 4.6 182 07:18 26.10.2020
6304 Clouds 20 1014 81 10000 4.5 185 05:31 26.10.2020
6305 Clouds 20 1014 80 10000 4.81 186 04:19 26.10.2020
6306 Clouds 20 1013 81 10000 5.16 187 03:20 26.10.2020
6307 Clouds 20 1013 81 10000 5.16 187 03:20 26.10.2020
6308 Clouds 20 1013 81 10000 5.52 186 01:34 26.10.2020
6309 Clouds 20 1012 80 10000 5.3 183 00:33 26.10.2020
6310 Clouds 20 1012 80 10000 5.41 188 23:46 25.10.2020
6311 Clouds 22 1009 83 10000 3.6 190 23:24 25.10.2020
6312 Clouds 22 1009 83 10000 3.6 190 22:44 25.10.2020
6313 Clouds 22 1009 83 10000 3.6 190 22:25 25.10.2020
6314 Clouds 22 1010 83 10000 5.1 180 21:49 25.10.2020
6315 Clouds 22 1010 83 10000 5.1 180 21:30 25.10.2020
6316 Clouds 23 1011 73 10000 4.6 170 20:58 25.10.2020
6317 Clouds 23 1011 73 10000 4.6 170 20:39 25.10.2020
6318 Clouds 23 1013 78 10000 6.2 150 20:19 25.10.2020
6319 Clouds 23 1013 78 10000 6.2 150 19:49 25.10.2020
6320 Clouds 23 1013 78 10000 6.2 150 19:25 25.10.2020
6321 Clouds 23 1013 73 10000 4.6 180 18:58 25.10.2020
6322 Clouds 23 1013 73 10000 4.6 180 18:39 25.10.2020
6323 Clouds 23 1014 78 10000 4.1 180 18:20 25.10.2020
6324 Clouds 23 1014 78 10000 4.1 180 17:40 25.10.2020
6325 Clouds 21 1014 83 10000 4.1 170 17:21 25.10.2020
6326 Clouds 21 1014 83 10000 4.1 170 16:58 25.10.2020
6327 Clouds 21 1014 83 10000 4.1 170 16:39 25.10.2020
6328 Clouds 21 1014 83 10000 4.1 170 16:20 25.10.2020
6329 Clouds 20 1014 88 10000 1.5 180 15:47 25.10.2020
6330 Clouds 20 1014 88 10000 1.5 180 15:26 25.10.2020
6331 Clouds 20 1014 88 10000 1.5 180 15:26 25.10.2020
6332 Clouds 20 1016 81 10000 5.2 174 14:47 25.10.2020
6333 Clouds 20 1016 81 10000 5.28 169 14:28 25.10.2020
6334 Clouds 20 1016 81 10000 5.28 169 13:44 25.10.2020
6335 Clouds 20 1015 82 10000 5.44 171 13:22 25.10.2020
6336 Clouds 20 1015 82 10000 5.24 168 12:49 25.10.2020
6337 Clouds 20 1014 83 10000 5.41 171 12:27 25.10.2020
6338 Clouds 20 1014 83 10000 5.41 171 11:57 25.10.2020
6339 Clouds 20 1014 83 10000 5.41 171 11:39 25.10.2020
6340 Clouds 20 1014 83 10000 5.41 171 11:39 25.10.2020
6341 Clouds 20 1013 84 10000 5.42 171 11:19 25.10.2020
6342 Clouds 20 1013 84 10000 5.42 171 10:44 25.10.2020
6343 Clouds 20 1013 83 10000 5.23 175 10:25 25.10.2020
6344 Clouds 20 1013 83 10000 5.23 175 09:48 25.10.2020
6345 Clouds 20 1013 83 10000 5 179 09:20 25.10.2020
6346 Clouds 20 1013 83 10000 5 179 08:51 25.10.2020
6347 Clouds 20 1013 83 10000 5 179 08:32 25.10.2020
6348 Clouds 20 1014 83 10000 5.22 184 07:53 25.10.2020
6349 Clouds 20 1014 83 10000 5.22 184 07:34 25.10.2020
6350 Clouds 20 1014 84 10000 5.49 182 06:51 25.10.2020
6351 Clouds 20 1015 83 10000 5.63 178 05:59 25.10.2020
6352 Clouds 20 1015 84 10000 5.93 174 04:52 25.10.2020
6353 Clouds 20 1015 85 10000 6.08 172 03:44 25.10.2020
6354 Clouds 20 1012 86 10000 6.57 166 01:47 25.10.2020
6355 Clouds 21 1009 88 10000 5.1 180 00:49 25.10.2020
6356 Clouds 22 1010 88 10000 8.2 180 00:20 25.10.2020
6357 Clouds 22 1010 88 10000 8.2 180 23:54 24.10.2020
6358 Clouds 22 1010 88 10000 8.2 180 23:26 24.10.2020
6359 Clouds 22 1011 88 10000 7.2 170 22:55 24.10.2020
6360 Clouds 22 1011 88 10000 7.2 170 22:37 24.10.2020
6361 Clouds 23 1012 83 10000 7.7 180 22:19 24.10.2020
6362 Clouds 23 1012 83 10000 7.7 180 21:41 24.10.2020
6363 Clouds 24 1013 78 10000 6.2 180 21:21 24.10.2020
6364 Clouds 24 1013 78 10000 6.2 180 20:47 24.10.2020
6365 Clouds 24 1013 78 10000 6.2 180 20:23 24.10.2020
6366 Clouds 22 1014 88 10000 7.7 180 19:55 24.10.2020
6367 Clouds 22 1014 88 10000 7.7 180 19:37 24.10.2020
6368 Clouds 21 1015 94 10000 6.7 180 19:19 24.10.2020
6369 Clouds 21 1015 94 10000 6.7 180 18:42 24.10.2020
6370 Clouds 22 1015 88 10000 7.2 160 18:22 24.10.2020
6371 Clouds 22 1015 88 10000 7.2 160 17:39 24.10.2020
6372 Clouds 21 1017 88 10000 6.73 168 17:20 24.10.2020
6373 Clouds 21 1017 88 10000 6.73 168 16:45 24.10.2020
6374 Clouds 21 1016 89 10000 6.75 166 16:22 24.10.2020
6375 Clouds 21 1016 89 10000 6.75 166 15:40 24.10.2020
6376 Clouds 21 1015 89 10000 7.07 165 15:19 24.10.2020
6377 Clouds 21 1015 89 10000 7.07 165 14:50 24.10.2020
6378 Clouds 21 1014 90 10000 6.77 170 14:28 24.10.2020
6379 Clouds 21 1014 89 10000 6.37 165 13:46 24.10.2020
6380 Clouds 21 1014 89 10000 5.7 167 13:24 24.10.2020
6381 Clouds 21 1014 89 10000 5.7 167 12:46 24.10.2020
6382 Clouds 21 1014 89 10000 5.56 181 12:21 24.10.2020
6383 Clouds 21 1014 89 10000 5.56 181 11:53 24.10.2020
6384 Clouds 21 1014 89 10000 5.56 181 11:35 24.10.2020
6385 Clouds 21 1014 89 10000 5.49 182 10:54 24.10.2020
6386 Clouds 21 1014 89 10000 5.49 182 10:33 24.10.2020
6387 Clouds 21 1013 88 10000 5.44 182 09:51 24.10.2020
6388 Clouds 21 1013 88 10000 5.44 182 09:32 24.10.2020
6389 Clouds 21 1014 88 10000 5.48 181 08:59 24.10.2020
6390 Clouds 21 1014 88 10000 5.3 178 08:20 24.10.2020
6391 Clouds 21 1014 88 10000 5.3 178 07:54 24.10.2020
6392 Clear 21 1015 87 10000 5.06 175 07:25 24.10.2020
6393 Clear 21 1015 87 10000 5.06 175 06:53 24.10.2020
6394 Clear 21 1015 87 10000 5.06 175 06:53 24.10.2020
6395 Clear 21 1016 87 10000 4.51 168 06:23 24.10.2020
6396 Clear 21 1015 86 10000 4.29 167 03:35 24.10.2020
6397 Clouds 21 1013 85 10000 3.83 182 01:40 24.10.2020
6398 Clouds 21 1013 84 10000 4.17 184 00:41 24.10.2020
6399 Clouds 22 1012 84 10000 4.99 191 00:21 24.10.2020
6400 Clouds 22 1012 84 10000 4.99 191 23:49 23.10.2020
6401 Clouds 24 1011 73 10000 4.6 170 23:26 23.10.2020
6402 Clouds 24 1011 73 10000 4.6 170 22:57 23.10.2020
6403 Clouds 24 1011 73 10000 4.6 170 22:39 23.10.2020
6404 Clouds 25 1012 65 10000 4.6 170 22:18 23.10.2020
6405 Clouds 25 1012 65 10000 4.6 170 21:45 23.10.2020
6406 Clouds 25 1012 65 10000 4.6 170 21:24 23.10.2020
6407 Clouds 24 1013 73 10000 5.7 180 20:41 23.10.2020
6408 Clouds 24 1013 73 10000 5.7 180 20:23 23.10.2020
6409 Clouds 24 1014 78 10000 6.2 180 19:52 23.10.2020
6410 Clouds 24 1014 78 10000 6.2 180 19:32 23.10.2020
6411 Clouds 23 1015 78 10000 5.1 180 18:55 23.10.2020
6412 Clouds 23 1015 78 10000 5.1 180 18:34 23.10.2020
6413 Clouds 22 1015 83 10000 4.1 180 17:51 23.10.2020
6414 Clouds 22 1015 83 10000 4.1 180 17:26 23.10.2020
6415 Clouds 21 1016 82 10000 5.35 176 16:56 23.10.2020
6416 Clouds 21 1016 82 10000 5.35 176 16:37 23.10.2020
6417 Clouds 21 1016 82 10000 5.35 176 16:37 23.10.2020
6418 Clouds 21 1015 82 10000 5.28 180 16:18 23.10.2020
6419 Clouds 21 1015 82 10000 5.28 180 15:42 23.10.2020
6420 Clouds 21 1014 83 10000 5.09 179 15:23 23.10.2020
6421 Clouds 21 1014 83 10000 5.09 179 14:51 23.10.2020
6422 Clouds 21 1014 83 10000 5.09 179 14:33 23.10.2020
6423 Clouds 21 1013 84 10000 4.73 174 13:56 23.10.2020
6424 Clouds 21 1014 84 10000 4.78 173 13:37 23.10.2020
6425 Clouds 21 1013 85 10000 4.81 176 13:18 23.10.2020
6426 Clouds 21 1013 85 10000 4.81 176 13:18 23.10.2020
6427 Clouds 21 1013 85 10000 4.81 176 12:42 23.10.2020
6428 Clouds 21 1013 84 10000 4.77 175 12:23 23.10.2020
6429 Clouds 21 1013 84 10000 4.77 175 11:42 23.10.2020
6430 Clouds 21 1012 84 10000 4.82 179 11:20 23.10.2020
6431 Clouds 21 1012 84 10000 4.82 179 10:43 23.10.2020
6432 Clouds 21 1013 84 10000 4.97 178 10:23 23.10.2020
6433 Clouds 21 1013 84 10000 4.97 178 09:43 23.10.2020
6434 Clouds 21 1013 85 10000 4.94 179 09:23 23.10.2020
6435 Clouds 21 1013 85 10000 4.94 179 08:52 23.10.2020
6436 Clouds 21 1013 85 10000 4.82 178 08:28 23.10.2020
6437 Clouds 21 1015 84 10000 4.76 179 07:28 23.10.2020
6438 Clouds 21 1015 84 10000 4.76 179 06:54 23.10.2020
6439 Clouds 21 1015 84 10000 4.79 183 06:20 23.10.2020
6440 Clouds 21 1014 85 10000 4.67 174 04:42 23.10.2020
6441 Clouds 21 1012 84 10000 4.55 170 02:32 23.10.2020
6442 Clouds 21 1011 83 10000 4.51 172 00:56 23.10.2020
6443 Clouds 20 1009 88 10000 4.1 150 00:33 23.10.2020
6444 Clouds 20 1009 88 10000 4.1 150 23:39 22.10.2020
6445 Clouds 23 1010 78 10000 5.1 180 23:19 22.10.2020
6446 Clouds 23 1010 78 10000 5.1 180 22:46 22.10.2020
6447 Clouds 23 1010 78 10000 5.1 180 22:26 22.10.2020
6448 Clouds 23 1010 83 10000 6.2 180 21:58 22.10.2020
6449 Clouds 23 1010 83 10000 6.2 180 21:38 22.10.2020
6450 Clouds 22 1011 88 10000 4.1 180 21:18 22.10.2020
6451 Clouds 22 1011 88 10000 4.1 180 20:43 22.10.2020
6452 Clouds 22 1011 88 10000 4.1 180 20:24 22.10.2020
6453 Rain 22 1012 88 6000 4.6 180 19:43 22.10.2020
6454 Rain 20 1012 100 4000 5.1 180 19:21 22.10.2020
6455 Rain 20 1012 100 4000 5.1 180 18:57 22.10.2020
6456 Rain 20 1012 100 4000 5.1 180 18:36 22.10.2020
6457 Clouds 21 1015 85 10000 5.24 178 18:18 22.10.2020
6458 Clouds 21 1013 88 10000 5.1 150 17:42 22.10.2020
6459 Clouds 21 1015 85 10000 5.1 181 17:20 22.10.2020
6460 Clouds 21 1015 85 10000 5.1 181 16:44 22.10.2020
6461 Clouds 21 1014 85 10000 4.85 182 16:24 22.10.2020
6462 Clouds 21 1014 85 10000 4.85 182 15:49 22.10.2020
6463 Clouds 21 1013 85 10000 4.78 179 15:27 22.10.2020
6464 Clouds 21 1013 85 10000 4.78 179 14:50 22.10.2020
6465 Clouds 21 1012 86 10000 4.98 186 14:27 22.10.2020
6466 Clouds 21 1012 86 10000 4.98 186 13:57 22.10.2020
6467 Clouds 21 1012 86 10000 4.98 186 13:38 22.10.2020
6468 Clouds 21 1011 85 10000 4.97 179 13:20 22.10.2020
6469 Clouds 21 1011 85 10000 4.93 174 12:28 22.10.2020
6470 Clouds 21 1011 85 10000 4.93 174 11:51 22.10.2020
6471 Clouds 21 1011 85 10000 4.98 171 11:21 22.10.2020
6472 Clouds 21 1011 85 10000 4.98 171 10:56 22.10.2020
6473 Clouds 21 1011 85 10000 4.98 171 10:38 22.10.2020
6474 Clouds 21 1011 85 10000 4.89 165 10:18 22.10.2020
6475 Clouds 21 1011 85 10000 4.89 165 09:42 22.10.2020
6476 Clouds 21 1012 85 10000 4.86 163 08:58 22.10.2020
6477 Clouds 21 1012 85 10000 4.86 163 08:39 22.10.2020
6478 Clouds 21 1012 85 10000 5.06 156 08:19 22.10.2020
6479 Clouds 21 1012 84 10000 4.89 161 07:43 22.10.2020
6480 Clouds 21 1013 84 10000 5.08 154 06:59 22.10.2020
6481 Clouds 21 1013 84 10000 5.08 154 06:37 22.10.2020
6482 Clouds 21 1013 83 10000 4.83 157 05:42 22.10.2020
6483 Clouds 21 1013 83 10000 4.71 152 05:22 22.10.2020
6484 Clouds 22 1008 83 10000 5.7 180 02:25 22.10.2020
6485 Clouds 22 1008 83 10000 7.7 180 00:27 22.10.2020
6486 Clouds 22 1008 83 10000 7.7 180 23:58 21.10.2020
6487 Clouds 22 1008 83 10000 7.7 180 23:37 21.10.2020
6488 Clouds 23 1009 78 10000 5.1 180 22:58 21.10.2020
6489 Clouds 23 1009 78 10000 5.1 180 22:36 21.10.2020
6490 Clouds 24 1010 78 10000 7.2 150 22:18 21.10.2020
6491 Clouds 24 1010 78 10000 7.2 150 21:42 21.10.2020
6492 Clouds 23 1011 78 10000 4.6 180 21:19 21.10.2020
6493 Clouds 23 1011 78 10000 4.6 180 20:48 21.10.2020
6494 Clouds 23 1011 78 10000 7.7 170 20:19 21.10.2020
6495 Clouds 23 1011 78 10000 7.7 170 19:57 21.10.2020
6496 Clouds 23 1011 78 10000 7.7 170 19:37 21.10.2020
6497 Clouds 23 1012 78 10000 8.2 150 19:18 21.10.2020
6498 Clouds 23 1012 78 10000 8.2 150 18:46 21.10.2020
6499 Clouds 22 1012 83 10000 7.2 180 18:21 21.10.2020
6500 Clouds 22 1012 83 10000 7.2 180 17:43 21.10.2020
6501 Clouds 21 1015 83 10000 6.51 172 17:20 21.10.2020
6502 Clouds 21 1015 83 10000 6.51 172 16:41 21.10.2020
6503 Clouds 21 1014 83 10000 6.19 173 16:21 21.10.2020
6504 Clouds 21 1014 83 10000 6.19 173 15:57 21.10.2020
6505 Clouds 21 1014 83 10000 6.19 173 15:38 21.10.2020
6506 Clouds 21 1013 84 10000 6.02 174 15:19 21.10.2020
6507 Clouds 21 1013 84 10000 6.02 174 14:43 21.10.2020
6508 Clouds 21 1012 85 10000 6.01 174 14:25 21.10.2020
6509 Clouds 21 1013 86 10000 6.2 174 13:42 21.10.2020
6510 Clouds 21 1012 86 10000 6.14 175 13:24 21.10.2020
6511 Clouds 21 1012 86 10000 6.14 175 12:47 21.10.2020
6512 Clouds 21 1012 86 10000 5.94 175 12:24 21.10.2020
6513 Clouds 21 1012 86 10000 5.94 175 11:59 21.10.2020
6514 Clouds 21 1012 86 10000 5.94 175 11:40 21.10.2020
6515 Clouds 21 1012 86 10000 6.09 179 11:19 21.10.2020
6516 Clouds 21 1012 86 10000 6.09 179 10:41 21.10.2020
6517 Clouds 21 1012 86 10000 6.34 183 10:21 21.10.2020
6518 Clouds 21 1012 86 10000 6.34 183 09:51 21.10.2020
6519 Clouds 21 1012 86 10000 6.4 184 09:28 21.10.2020
6520 Clouds 21 1012 86 10000 6.4 184 08:42 21.10.2020
6521 Clouds 21 1013 86 10000 6.44 185 08:24 21.10.2020
6522 Clouds 21 1013 85 10000 6.3 186 07:57 21.10.2020
6523 Clouds 21 1013 85 10000 6.26 189 07:24 21.10.2020
6524 Clouds 21 1013 85 10000 6.26 189 06:47 21.10.2020
6525 Clouds 21 1013 84 10000 5.79 190 06:25 21.10.2020
6526 Clouds 21 1012 85 10000 6.77 190 03:48 21.10.2020
6527 Clouds 21 1009 84 10000 6.85 185 00:49 21.10.2020
6528 Clouds 23 1008 88 10000 6.7 180 23:37 20.10.2020
6529 Clouds 24 1008 83 10000 6.2 160 22:49 20.10.2020
6530 Clouds 24 1008 83 10000 6.2 160 22:25 20.10.2020
6531 Clouds 24 1009 83 10000 7.2 180 21:48 20.10.2020
6532 Clouds 24 1009 83 10000 7.2 180 21:20 20.10.2020
6533 Rain 23 1009 88 10000 6.7 170 20:44 20.10.2020
6534 Rain 23 1009 88 10000 6.7 170 20:24 20.10.2020
6535 Rain 23 1010 88 10000 5.7 170 19:57 20.10.2020
6536 Rain 23 1010 88 10000 5.7 170 19:38 20.10.2020
6537 Clouds 23 1011 88 10000 7.2 160 19:20 20.10.2020
6538 Clouds 23 1011 88 10000 7.2 160 18:44 20.10.2020
6539 Clouds 23 1011 88 10000 7.2 160 18:25 20.10.2020
6540 Clouds 22 1011 88 10000 6.7 160 17:41 20.10.2020
6541 Clouds 22 1011 88 10000 6.7 160 17:23 20.10.2020
6542 Clouds 21 1014 84 10000 5.51 174 16:43 20.10.2020
6543 Clouds 21 1014 84 10000 5.51 174 16:43 20.10.2020
6544 Clouds 21 1013 85 10000 5.86 172 16:25 20.10.2020
6545 Clouds 21 1013 85 10000 5.86 172 15:49 20.10.2020
6546 Clouds 21 1013 85 10000 5.86 172 15:30 20.10.2020
6547 Clouds 21 1013 85 10000 6.25 172 14:55 20.10.2020
6548 Clouds 21 1013 85 10000 6.25 172 14:36 20.10.2020
6549 Clouds 21 1012 86 10000 6.34 173 14:18 20.10.2020
6550 Clouds 21 1012 86 10000 6.13 177 13:41 20.10.2020
6551 Clouds 21 1011 87 10000 5.85 180 13:21 20.10.2020
6552 Clouds 21 1011 87 10000 5.85 180 12:54 20.10.2020
6553 Clouds 21 1011 87 10000 5.85 180 12:31 20.10.2020
6554 Clouds 21 1011 87 10000 5.17 182 11:48 20.10.2020
6555 Clouds 21 1011 87 10000 5.17 182 11:30 20.10.2020
6556 Clouds 21 1011 86 10000 5.09 187 10:53 20.10.2020
6557 Clouds 21 1011 85 10000 4.88 190 10:28 20.10.2020
6558 Clouds 21 1011 85 10000 4.88 190 09:47 20.10.2020
6559 Clouds 21 1012 85 10000 4.76 193 09:20 20.10.2020
6560 Clouds 21 1012 85 10000 4.76 193 09:20 20.10.2020
6561 Clouds 21 1012 85 10000 4.76 193 08:50 20.10.2020
6562 Clouds 21 1013 85 10000 5.04 196 08:26 20.10.2020
6563 Clouds 21 1013 85 10000 5.04 196 07:48 20.10.2020
6564 Clouds 21 1014 84 10000 5.09 195 07:24 20.10.2020
6565 Clouds 21 1014 86 10000 5.68 193 06:24 20.10.2020
6566 Clouds 21 1013 86 10000 5.64 194 04:55 20.10.2020
6567 Clouds 21 1011 85 10000 5.37 189 02:31 20.10.2020
6568 Clouds 21 1011 84 10000 5.67 190 01:30 20.10.2020
6569 Clouds 21 1010 84 10000 5.9 190 00:52 20.10.2020
6570 Drizzle 21 1008 100 8000 7.7 190 00:27 20.10.2020
6571 Drizzle 21 1008 100 8000 7.7 190 23:51 19.10.2020
6572 Drizzle 21 1008 100 8000 7.7 190 23:27 19.10.2020
6573 Clouds 24 1009 83 10000 6.7 160 22:54 19.10.2020
6574 Clouds 24 1009 83 10000 6.7 160 22:28 19.10.2020
6575 Drizzle 22 1010 94 5000 7.7 190 21:57 19.10.2020
6576 Drizzle 22 1010 94 5000 7.7 190 21:39 19.10.2020
6577 Drizzle 22 1011 88 8000 5.1 190 21:18 19.10.2020
6578 Drizzle 22 1011 88 8000 5.1 190 20:42 19.10.2020
6579 Drizzle 22 1011 88 8000 5.1 190 20:24 19.10.2020
6580 Clouds 23 1011 88 10000 6.7 180 19:45 19.10.2020
6581 Clouds 23 1011 88 10000 6.7 180 19:19 19.10.2020
6582 Rain 22 1012 94 10000 5.7 160 18:50 19.10.2020
6583 Rain 22 1012 94 10000 5.7 160 18:28 19.10.2020
6584 Drizzle 21 1012 100 8000 6.7 160 17:47 19.10.2020
6585 Drizzle 21 1012 100 8000 6.7 160 17:27 19.10.2020
6586 Clouds 21 1014 85 10000 6.04 188 16:54 19.10.2020
6587 Clouds 21 1014 85 10000 6.04 188 16:30 19.10.2020
6588 Clouds 21 1014 85 10000 6.04 187 15:50 19.10.2020
6589 Clouds 21 1013 85 10000 6.24 185 15:26 19.10.2020
6590 Clouds 21 1013 85 10000 6.24 185 14:58 19.10.2020
6591 Clouds 21 1013 85 10000 6.24 185 14:38 19.10.2020
6592 Clouds 21 1012 86 10000 6.41 184 14:19 19.10.2020
6593 Clouds 21 1013 86 10000 5.82 180 13:42 19.10.2020
6594 Clouds 21 1012 86 10000 5.95 178 13:22 19.10.2020
6595 Clouds 21 1012 86 10000 5.95 178 12:45 19.10.2020
6596 Clouds 21 1011 87 10000 6.23 183 12:25 19.10.2020
6597 Clouds 21 1011 87 10000 6.23 183 11:49 19.10.2020
6598 Clouds 21 1011 87 10000 6.24 186 11:22 19.10.2020
6599 Clouds 21 1011 87 10000 6.24 186 10:44 19.10.2020
6600 Clouds 21 1012 87 10000 6.3 186 10:23 19.10.2020
6601 Clouds 21 1012 87 10000 6.3 186 09:56 19.10.2020
6602 Clouds 21 1012 87 10000 6.41 189 09:26 19.10.2020
6603 Clouds 21 1012 87 10000 6.41 189 08:59 19.10.2020
6604 Clouds 21 1012 87 10000 6.41 189 08:41 19.10.2020
6605 Clouds 21 1013 87 10000 6.26 185 08:20 19.10.2020
6606 Clouds 21 1013 86 10000 6.11 181 07:20 19.10.2020
6607 Clouds 21 1013 86 10000 6.09 182 06:23 19.10.2020
6608 Clouds 21 1013 86 10000 6.08 183 04:47 19.10.2020
6609 Clouds 21 1013 86 10000 6.04 182 03:44 19.10.2020
6610 Clouds 21 1011 85 10000 6.19 179 01:28 19.10.2020
6611 Drizzle 21 1009 100 8000 6.7 180 00:26 19.10.2020
6612 Drizzle 21 1009 100 8000 6.7 180 23:48 18.10.2020
6613 Drizzle 21 1009 100 8000 6.7 180 23:29 18.10.2020
6614 Rain 23 1009 88 10000 6.2 180 22:57 18.10.2020
6615 Rain 23 1009 88 10000 6.2 180 22:24 18.10.2020
6616 Rain 23 1010 88 10000 7.2 190 21:59 18.10.2020
6617 Rain 23 1010 88 10000 7.2 190 21:37 18.10.2020
6618 Clouds 25 1011 78 10000 5.1 190 21:18 18.10.2020
6619 Clouds 25 1011 78 10000 5.1 190 20:42 18.10.2020
6620 Clouds 25 1011 78 10000 5.1 190 20:21 18.10.2020
6621 Clouds 24 1012 83 10000 5.7 170 19:47 18.10.2020
6622 Clouds 24 1012 83 10000 5.7 170 19:26 18.10.2020
6623 Clouds 24 1012 83 10000 4.6 170 18:49 18.10.2020